<?xml version="1.0" encoding="UTF-8" standalone="no" ?>
<gpx xmlns="http://www.topografix.com/GPX/1/1" xmlns:xsi="http://www.w3.org/2001/XMLSchema-instance" xsi:schemaLocation="http://www.topografix.com/GPX/1/1 http://www.topografix.com/GPX/1/1/gpx.xsd" version="1.1" creator="VisuGPX - https://www.visugpx.com">
  <metadata>
    <name>Raccords des Ravins autour de La Citée De Pierres</name>
    <desc><![CDATA[Attention : Montpellier Le Vieux c'est privé ! et c'est payant en saison ...]]></desc>
  </metadata>
  <trk>
    <name><![CDATA[Raccord Valat Noir / Millière ]]></name>
    <desc><![CDATA[Plus un petit jardinage pour trouver le raccord vers le Bouxes]]></desc>
    <extensions>
      <line xmlns="http://www.topografix.com/GPX/gpx_style/0/2">
        <color>0000ff</color>
        <width>4</width>
          <extensions>
            <sens>1</sens>
          </extensions>
      </line>
    </extensions>
    <trkseg>
      <trkpt lat="44.1253" lon="3.22277">
        <ele>173.2</ele>
        <time>2024-11-07T10:42:54.089Z</time>
      </trkpt>
      <trkpt lat="44.12531" lon="3.22279">
        <ele>173.2</ele>
        <time>2024-11-07T10:42:55.089Z</time>
      </trkpt>
      <trkpt lat="44.12539" lon="3.22289">
        <ele>236.3</ele>
        <time>2024-11-07T10:43:01.000Z</time>
      </trkpt>
      <trkpt lat="44.12549" lon="3.22292">
        <ele>274.1</ele>
        <time>2024-11-07T10:43:05.000Z</time>
      </trkpt>
      <trkpt lat="44.12559" lon="3.22294">
        <ele>303.6</ele>
        <time>2024-11-07T10:43:09.000Z</time>
      </trkpt>
      <trkpt lat="44.1257" lon="3.22296">
        <ele>331.5</ele>
        <time>2024-11-07T10:43:14.000Z</time>
      </trkpt>
      <trkpt lat="44.12581" lon="3.22296">
        <ele>351.7</ele>
        <time>2024-11-07T10:43:19.000Z</time>
      </trkpt>
      <trkpt lat="44.1259" lon="3.22294">
        <ele>366.5</ele>
        <time>2024-11-07T10:43:24.000Z</time>
      </trkpt>
      <trkpt lat="44.126" lon="3.22289">
        <ele>377.6</ele>
        <time>2024-11-07T10:43:29.000Z</time>
      </trkpt>
      <trkpt lat="44.12609" lon="3.22286">
        <ele>384.4</ele>
        <time>2024-11-07T10:43:33.000Z</time>
      </trkpt>
      <trkpt lat="44.12619" lon="3.22279">
        <ele>389.7</ele>
        <time>2024-11-07T10:43:37.000Z</time>
      </trkpt>
      <trkpt lat="44.12629" lon="3.22274">
        <ele>394.8</ele>
        <time>2024-11-07T10:43:42.000Z</time>
      </trkpt>
      <trkpt lat="44.12637" lon="3.22281">
        <ele>398.6</ele>
        <time>2024-11-07T10:43:47.000Z</time>
      </trkpt>
      <trkpt lat="44.12632" lon="3.22293">
        <ele>402</ele>
        <time>2024-11-07T10:43:53.000Z</time>
      </trkpt>
      <trkpt lat="44.12622" lon="3.22298">
        <ele>404.2</ele>
        <time>2024-11-07T10:43:58.000Z</time>
      </trkpt>
      <trkpt lat="44.12613" lon="3.22304">
        <ele>405.6</ele>
        <time>2024-11-07T10:44:02.000Z</time>
      </trkpt>
      <trkpt lat="44.12605" lon="3.22312">
        <ele>406.8</ele>
        <time>2024-11-07T10:44:06.000Z</time>
      </trkpt>
      <trkpt lat="44.12597" lon="3.22319">
        <ele>407.9</ele>
        <time>2024-11-07T10:44:10.000Z</time>
      </trkpt>
      <trkpt lat="44.1259" lon="3.22326">
        <ele>408.7</ele>
        <time>2024-11-07T10:44:14.000Z</time>
      </trkpt>
      <trkpt lat="44.1258" lon="3.22333">
        <ele>409.8</ele>
        <time>2024-11-07T10:44:19.000Z</time>
      </trkpt>
      <trkpt lat="44.1257" lon="3.22337">
        <ele>410.9</ele>
        <time>2024-11-07T10:44:24.000Z</time>
      </trkpt>
      <trkpt lat="44.1256" lon="3.22336">
        <ele>411.9</ele>
        <time>2024-11-07T10:44:29.000Z</time>
      </trkpt>
      <trkpt lat="44.1255" lon="3.22337">
        <ele>412.9</ele>
        <time>2024-11-07T10:44:34.000Z</time>
      </trkpt>
      <trkpt lat="44.12545" lon="3.2235">
        <ele>414</ele>
        <time>2024-11-07T10:44:39.000Z</time>
      </trkpt>
      <trkpt lat="44.12547" lon="3.22362">
        <ele>415</ele>
        <time>2024-11-07T10:44:44.000Z</time>
      </trkpt>
      <trkpt lat="44.12551" lon="3.22375">
        <ele>416.2</ele>
        <time>2024-11-07T10:44:50.000Z</time>
      </trkpt>
      <trkpt lat="44.12555" lon="3.22387">
        <ele>417.1</ele>
        <time>2024-11-07T10:44:55.000Z</time>
      </trkpt>
      <trkpt lat="44.1256" lon="3.22398">
        <ele>418</ele>
        <time>2024-11-07T10:45:00.000Z</time>
      </trkpt>
      <trkpt lat="44.12565" lon="3.2241">
        <ele>419</ele>
        <time>2024-11-07T10:45:06.000Z</time>
      </trkpt>
      <trkpt lat="44.12568" lon="3.22423">
        <ele>419.8</ele>
        <time>2024-11-07T10:45:11.000Z</time>
      </trkpt>
      <trkpt lat="44.12571" lon="3.22435">
        <ele>420.6</ele>
        <time>2024-11-07T10:45:16.000Z</time>
      </trkpt>
      <trkpt lat="44.12574" lon="3.22448">
        <ele>421.5</ele>
        <time>2024-11-07T10:45:21.000Z</time>
      </trkpt>
      <trkpt lat="44.12575" lon="3.22461">
        <ele>422.5</ele>
        <time>2024-11-07T10:45:26.000Z</time>
      </trkpt>
      <trkpt lat="44.12575" lon="3.22474">
        <ele>423.3</ele>
        <time>2024-11-07T10:45:31.000Z</time>
      </trkpt>
      <trkpt lat="44.12576" lon="3.22489">
        <ele>423.9</ele>
        <time>2024-11-07T10:45:36.000Z</time>
      </trkpt>
      <trkpt lat="44.12577" lon="3.22504">
        <ele>424.6</ele>
        <time>2024-11-07T10:45:41.000Z</time>
      </trkpt>
      <trkpt lat="44.12579" lon="3.22518">
        <ele>425.4</ele>
        <time>2024-11-07T10:45:46.000Z</time>
      </trkpt>
      <trkpt lat="44.1258" lon="3.22531">
        <ele>426.3</ele>
        <time>2024-11-07T10:45:51.000Z</time>
      </trkpt>
      <trkpt lat="44.12581" lon="3.22546">
        <ele>427.1</ele>
        <time>2024-11-07T10:45:56.000Z</time>
      </trkpt>
      <trkpt lat="44.12581" lon="3.2256">
        <ele>427.8</ele>
        <time>2024-11-07T10:46:01.000Z</time>
      </trkpt>
      <trkpt lat="44.12579" lon="3.22573">
        <ele>428.5</ele>
        <time>2024-11-07T10:46:06.000Z</time>
      </trkpt>
      <trkpt lat="44.12576" lon="3.22586">
        <ele>429.4</ele>
        <time>2024-11-07T10:46:11.000Z</time>
      </trkpt>
      <trkpt lat="44.12576" lon="3.226">
        <ele>430.2</ele>
        <time>2024-11-07T10:46:16.000Z</time>
      </trkpt>
      <trkpt lat="44.12583" lon="3.22609">
        <ele>431</ele>
        <time>2024-11-07T10:46:21.000Z</time>
      </trkpt>
      <trkpt lat="44.12593" lon="3.22609">
        <ele>431.9</ele>
        <time>2024-11-07T10:46:26.000Z</time>
      </trkpt>
      <trkpt lat="44.12599" lon="3.22598">
        <ele>432.7</ele>
        <time>2024-11-07T10:46:31.000Z</time>
      </trkpt>
      <trkpt lat="44.12599" lon="3.22583">
        <ele>433.5</ele>
        <time>2024-11-07T10:46:36.000Z</time>
      </trkpt>
      <trkpt lat="44.12597" lon="3.22568">
        <ele>434.3</ele>
        <time>2024-11-07T10:46:41.000Z</time>
      </trkpt>
      <trkpt lat="44.12596" lon="3.22553">
        <ele>435</ele>
        <time>2024-11-07T10:46:46.000Z</time>
      </trkpt>
      <trkpt lat="44.12597" lon="3.22538">
        <ele>435.8</ele>
        <time>2024-11-07T10:46:51.000Z</time>
      </trkpt>
      <trkpt lat="44.12599" lon="3.22524">
        <ele>436.7</ele>
        <time>2024-11-07T10:46:56.000Z</time>
      </trkpt>
      <trkpt lat="44.126" lon="3.22509">
        <ele>437.7</ele>
        <time>2024-11-07T10:47:01.000Z</time>
      </trkpt>
      <trkpt lat="44.126" lon="3.22495">
        <ele>438.5</ele>
        <time>2024-11-07T10:47:06.000Z</time>
      </trkpt>
      <trkpt lat="44.12602" lon="3.22481">
        <ele>439.5</ele>
        <time>2024-11-07T10:47:11.000Z</time>
      </trkpt>
      <trkpt lat="44.12603" lon="3.22468">
        <ele>440.4</ele>
        <time>2024-11-07T10:47:16.000Z</time>
      </trkpt>
      <trkpt lat="44.12604" lon="3.22454">
        <ele>441.3</ele>
        <time>2024-11-07T10:47:21.000Z</time>
      </trkpt>
      <trkpt lat="44.12604" lon="3.2244">
        <ele>442.2</ele>
        <time>2024-11-07T10:47:26.000Z</time>
      </trkpt>
      <trkpt lat="44.12605" lon="3.22426">
        <ele>443.1</ele>
        <time>2024-11-07T10:47:31.000Z</time>
      </trkpt>
      <trkpt lat="44.12607" lon="3.22412">
        <ele>443.9</ele>
        <time>2024-11-07T10:47:36.000Z</time>
      </trkpt>
      <trkpt lat="44.1261" lon="3.22399">
        <ele>444.9</ele>
        <time>2024-11-07T10:47:42.000Z</time>
      </trkpt>
      <trkpt lat="44.12618" lon="3.22393">
        <ele>445.8</ele>
        <time>2024-11-07T10:47:47.000Z</time>
      </trkpt>
      <trkpt lat="44.12627" lon="3.22387">
        <ele>446.7</ele>
        <time>2024-11-07T10:47:52.000Z</time>
      </trkpt>
      <trkpt lat="44.12636" lon="3.22381">
        <ele>447.7</ele>
        <time>2024-11-07T10:47:57.000Z</time>
      </trkpt>
      <trkpt lat="44.12644" lon="3.22376">
        <ele>448.7</ele>
        <time>2024-11-07T10:48:03.000Z</time>
      </trkpt>
      <trkpt lat="44.12653" lon="3.22371">
        <ele>450</ele>
        <time>2024-11-07T10:48:13.000Z</time>
      </trkpt>
      <trkpt lat="44.12662" lon="3.22366">
        <ele>451.1</ele>
        <time>2024-11-07T10:48:24.000Z</time>
      </trkpt>
      <trkpt lat="44.12669" lon="3.22357">
        <ele>453.6</ele>
        <time>2024-11-07T10:49:06.000Z</time>
      </trkpt>
      <trkpt lat="44.12678" lon="3.22352">
        <ele>454.1</ele>
        <time>2024-11-07T10:49:12.000Z</time>
      </trkpt>
      <trkpt lat="44.12686" lon="3.22347">
        <ele>454.6</ele>
        <time>2024-11-07T10:49:17.000Z</time>
      </trkpt>
      <trkpt lat="44.12695" lon="3.22342">
        <ele>455.1</ele>
        <time>2024-11-07T10:49:22.000Z</time>
      </trkpt>
      <trkpt lat="44.12704" lon="3.22336">
        <ele>455.7</ele>
        <time>2024-11-07T10:49:27.000Z</time>
      </trkpt>
      <trkpt lat="44.12713" lon="3.2233">
        <ele>456.4</ele>
        <time>2024-11-07T10:49:32.000Z</time>
      </trkpt>
      <trkpt lat="44.12721" lon="3.22323">
        <ele>457.2</ele>
        <time>2024-11-07T10:49:37.000Z</time>
      </trkpt>
      <trkpt lat="44.1273" lon="3.22315">
        <ele>458</ele>
        <time>2024-11-07T10:49:42.000Z</time>
      </trkpt>
      <trkpt lat="44.12738" lon="3.22307">
        <ele>458.8</ele>
        <time>2024-11-07T10:49:47.000Z</time>
      </trkpt>
      <trkpt lat="44.12746" lon="3.223">
        <ele>459.6</ele>
        <time>2024-11-07T10:49:52.000Z</time>
      </trkpt>
      <trkpt lat="44.12754" lon="3.22292">
        <ele>460.4</ele>
        <time>2024-11-07T10:49:57.000Z</time>
      </trkpt>
      <trkpt lat="44.12761" lon="3.22283">
        <ele>461.2</ele>
        <time>2024-11-07T10:50:02.000Z</time>
      </trkpt>
      <trkpt lat="44.12769" lon="3.22274">
        <ele>462.1</ele>
        <time>2024-11-07T10:50:07.000Z</time>
      </trkpt>
      <trkpt lat="44.12776" lon="3.22266">
        <ele>463</ele>
        <time>2024-11-07T10:50:12.000Z</time>
      </trkpt>
      <trkpt lat="44.12783" lon="3.22255">
        <ele>463.9</ele>
        <time>2024-11-07T10:50:18.000Z</time>
      </trkpt>
      <trkpt lat="44.1279" lon="3.22245">
        <ele>464.6</ele>
        <time>2024-11-07T10:50:23.000Z</time>
      </trkpt>
      <trkpt lat="44.12796" lon="3.22235">
        <ele>465.4</ele>
        <time>2024-11-07T10:50:28.000Z</time>
      </trkpt>
      <trkpt lat="44.12803" lon="3.22227">
        <ele>466.1</ele>
        <time>2024-11-07T10:50:33.000Z</time>
      </trkpt>
      <trkpt lat="44.12811" lon="3.2222">
        <ele>466.9</ele>
        <time>2024-11-07T10:50:38.000Z</time>
      </trkpt>
      <trkpt lat="44.1282" lon="3.22217">
        <ele>467.7</ele>
        <time>2024-11-07T10:50:43.000Z</time>
      </trkpt>
      <trkpt lat="44.12831" lon="3.22219">
        <ele>468.8</ele>
        <time>2024-11-07T10:50:49.000Z</time>
      </trkpt>
      <trkpt lat="44.12842" lon="3.22222">
        <ele>469.8</ele>
        <time>2024-11-07T10:50:55.000Z</time>
      </trkpt>
      <trkpt lat="44.12851" lon="3.22225">
        <ele>470.6</ele>
        <time>2024-11-07T10:51:00.000Z</time>
      </trkpt>
      <trkpt lat="44.12862" lon="3.22227">
        <ele>471.8</ele>
        <time>2024-11-07T10:51:06.000Z</time>
      </trkpt>
      <trkpt lat="44.12871" lon="3.2223">
        <ele>472.8</ele>
        <time>2024-11-07T10:51:11.000Z</time>
      </trkpt>
      <trkpt lat="44.1288" lon="3.22232">
        <ele>473.6</ele>
        <time>2024-11-07T10:51:16.000Z</time>
      </trkpt>
      <trkpt lat="44.1289" lon="3.22235">
        <ele>474.5</ele>
        <time>2024-11-07T10:51:22.000Z</time>
      </trkpt>
      <trkpt lat="44.129" lon="3.22236">
        <ele>475.2</ele>
        <time>2024-11-07T10:51:27.000Z</time>
      </trkpt>
      <trkpt lat="44.1291" lon="3.2224">
        <ele>476.1</ele>
        <time>2024-11-07T10:51:33.000Z</time>
      </trkpt>
      <trkpt lat="44.1292" lon="3.22242">
        <ele>477.2</ele>
        <time>2024-11-07T10:51:40.000Z</time>
      </trkpt>
      <trkpt lat="44.1293" lon="3.22241">
        <ele>478.3</ele>
        <time>2024-11-07T10:51:46.000Z</time>
      </trkpt>
      <trkpt lat="44.12939" lon="3.22241">
        <ele>479.3</ele>
        <time>2024-11-07T10:51:52.000Z</time>
      </trkpt>
      <trkpt lat="44.12949" lon="3.22243">
        <ele>480</ele>
        <time>2024-11-07T10:51:56.000Z</time>
      </trkpt>
      <trkpt lat="44.12958" lon="3.22243">
        <ele>480.8</ele>
        <time>2024-11-07T10:52:01.000Z</time>
      </trkpt>
      <trkpt lat="44.12967" lon="3.22242">
        <ele>481.6</ele>
        <time>2024-11-07T10:52:06.000Z</time>
      </trkpt>
      <trkpt lat="44.12978" lon="3.22237">
        <ele>482.4</ele>
        <time>2024-11-07T10:52:11.000Z</time>
      </trkpt>
      <trkpt lat="44.12988" lon="3.22235">
        <ele>483.2</ele>
        <time>2024-11-07T10:52:16.000Z</time>
      </trkpt>
      <trkpt lat="44.12998" lon="3.22236">
        <ele>484.3</ele>
        <time>2024-11-07T10:52:22.000Z</time>
      </trkpt>
      <trkpt lat="44.13007" lon="3.22234">
        <ele>485.1</ele>
        <time>2024-11-07T10:52:27.000Z</time>
      </trkpt>
      <trkpt lat="44.13018" lon="3.22231">
        <ele>486</ele>
        <time>2024-11-07T10:52:32.000Z</time>
      </trkpt>
      <trkpt lat="44.13026" lon="3.22224">
        <ele>486.7</ele>
        <time>2024-11-07T10:52:37.000Z</time>
      </trkpt>
      <trkpt lat="44.13033" lon="3.22215">
        <ele>487.4</ele>
        <time>2024-11-07T10:52:42.000Z</time>
      </trkpt>
      <trkpt lat="44.1304" lon="3.22204">
        <ele>488.1</ele>
        <time>2024-11-07T10:52:47.000Z</time>
      </trkpt>
      <trkpt lat="44.13045" lon="3.22192">
        <ele>488.7</ele>
        <time>2024-11-07T10:52:52.000Z</time>
      </trkpt>
      <trkpt lat="44.1305" lon="3.2218">
        <ele>489.3</ele>
        <time>2024-11-07T10:52:57.000Z</time>
      </trkpt>
      <trkpt lat="44.13054" lon="3.22168">
        <ele>489.9</ele>
        <time>2024-11-07T10:53:02.000Z</time>
      </trkpt>
      <trkpt lat="44.13059" lon="3.22156">
        <ele>490.5</ele>
        <time>2024-11-07T10:53:07.000Z</time>
      </trkpt>
      <trkpt lat="44.13064" lon="3.22144">
        <ele>491</ele>
        <time>2024-11-07T10:53:12.000Z</time>
      </trkpt>
      <trkpt lat="44.1307" lon="3.22134">
        <ele>491.5</ele>
        <time>2024-11-07T10:53:17.000Z</time>
      </trkpt>
      <trkpt lat="44.13077" lon="3.22124">
        <ele>492.2</ele>
        <time>2024-11-07T10:53:22.000Z</time>
      </trkpt>
      <trkpt lat="44.13083" lon="3.22114">
        <ele>492.8</ele>
        <time>2024-11-07T10:53:27.000Z</time>
      </trkpt>
      <trkpt lat="44.1309" lon="3.22104">
        <ele>493.4</ele>
        <time>2024-11-07T10:53:32.000Z</time>
      </trkpt>
      <trkpt lat="44.13097" lon="3.22094">
        <ele>494.1</ele>
        <time>2024-11-07T10:53:37.000Z</time>
      </trkpt>
      <trkpt lat="44.13105" lon="3.22086">
        <ele>494.9</ele>
        <time>2024-11-07T10:53:42.000Z</time>
      </trkpt>
      <trkpt lat="44.13115" lon="3.22079">
        <ele>495.7</ele>
        <time>2024-11-07T10:53:47.000Z</time>
      </trkpt>
      <trkpt lat="44.13125" lon="3.22074">
        <ele>496.5</ele>
        <time>2024-11-07T10:53:52.000Z</time>
      </trkpt>
      <trkpt lat="44.13134" lon="3.2207">
        <ele>497.4</ele>
        <time>2024-11-07T10:53:57.000Z</time>
      </trkpt>
      <trkpt lat="44.13143" lon="3.22065">
        <ele>498.2</ele>
        <time>2024-11-07T10:54:02.000Z</time>
      </trkpt>
      <trkpt lat="44.13151" lon="3.22058">
        <ele>499.3</ele>
        <time>2024-11-07T10:54:08.000Z</time>
      </trkpt>
      <trkpt lat="44.13159" lon="3.2205">
        <ele>500.3</ele>
        <time>2024-11-07T10:54:14.000Z</time>
      </trkpt>
      <trkpt lat="44.13167" lon="3.22042">
        <ele>501.2</ele>
        <time>2024-11-07T10:54:20.000Z</time>
      </trkpt>
      <trkpt lat="44.13175" lon="3.22034">
        <ele>502</ele>
        <time>2024-11-07T10:54:25.000Z</time>
      </trkpt>
      <trkpt lat="44.13183" lon="3.22027">
        <ele>502.7</ele>
        <time>2024-11-07T10:54:30.000Z</time>
      </trkpt>
      <trkpt lat="44.13191" lon="3.2202">
        <ele>503.5</ele>
        <time>2024-11-07T10:54:35.000Z</time>
      </trkpt>
      <trkpt lat="44.13198" lon="3.22012">
        <ele>504.3</ele>
        <time>2024-11-07T10:54:40.000Z</time>
      </trkpt>
      <trkpt lat="44.13206" lon="3.22004">
        <ele>505.1</ele>
        <time>2024-11-07T10:54:45.000Z</time>
      </trkpt>
      <trkpt lat="44.13216" lon="3.21997">
        <ele>505.7</ele>
        <time>2024-11-07T10:54:50.000Z</time>
      </trkpt>
      <trkpt lat="44.13224" lon="3.21991">
        <ele>507.1</ele>
        <time>2024-11-07T10:55:02.000Z</time>
      </trkpt>
      <trkpt lat="44.13233" lon="3.21984">
        <ele>507.7</ele>
        <time>2024-11-07T10:55:08.000Z</time>
      </trkpt>
      <trkpt lat="44.13242" lon="3.2198">
        <ele>508.1</ele>
        <time>2024-11-07T10:55:13.000Z</time>
      </trkpt>
      <trkpt lat="44.13251" lon="3.21976">
        <ele>508.7</ele>
        <time>2024-11-07T10:55:18.000Z</time>
      </trkpt>
      <trkpt lat="44.13262" lon="3.21976">
        <ele>509.6</ele>
        <time>2024-11-07T10:55:24.000Z</time>
      </trkpt>
      <trkpt lat="44.13271" lon="3.21973">
        <ele>510.3</ele>
        <time>2024-11-07T10:55:29.000Z</time>
      </trkpt>
      <trkpt lat="44.13282" lon="3.21971">
        <ele>511</ele>
        <time>2024-11-07T10:55:34.000Z</time>
      </trkpt>
      <trkpt lat="44.13292" lon="3.21969">
        <ele>511.8</ele>
        <time>2024-11-07T10:55:39.000Z</time>
      </trkpt>
      <trkpt lat="44.13301" lon="3.21968">
        <ele>512.5</ele>
        <time>2024-11-07T10:55:44.000Z</time>
      </trkpt>
      <trkpt lat="44.13311" lon="3.21968">
        <ele>513.5</ele>
        <time>2024-11-07T10:55:50.000Z</time>
      </trkpt>
      <trkpt lat="44.13322" lon="3.21968">
        <ele>514.5</ele>
        <time>2024-11-07T10:55:56.000Z</time>
      </trkpt>
      <trkpt lat="44.13331" lon="3.21968">
        <ele>515.3</ele>
        <time>2024-11-07T10:56:01.000Z</time>
      </trkpt>
      <trkpt lat="44.13341" lon="3.21961">
        <ele>516.2</ele>
        <time>2024-11-07T10:56:06.000Z</time>
      </trkpt>
      <trkpt lat="44.13348" lon="3.2195">
        <ele>517.1</ele>
        <time>2024-11-07T10:56:11.000Z</time>
      </trkpt>
      <trkpt lat="44.13353" lon="3.21939">
        <ele>517.8</ele>
        <time>2024-11-07T10:56:16.000Z</time>
      </trkpt>
      <trkpt lat="44.13359" lon="3.21929">
        <ele>518.4</ele>
        <time>2024-11-07T10:56:21.000Z</time>
      </trkpt>
      <trkpt lat="44.13367" lon="3.2192">
        <ele>518.9</ele>
        <time>2024-11-07T10:56:26.000Z</time>
      </trkpt>
      <trkpt lat="44.13374" lon="3.2191">
        <ele>519.6</ele>
        <time>2024-11-07T10:56:31.000Z</time>
      </trkpt>
      <trkpt lat="44.13381" lon="3.21901">
        <ele>520.2</ele>
        <time>2024-11-07T10:56:36.000Z</time>
      </trkpt>
      <trkpt lat="44.13389" lon="3.21894">
        <ele>520.8</ele>
        <time>2024-11-07T10:56:41.000Z</time>
      </trkpt>
      <trkpt lat="44.13398" lon="3.21887">
        <ele>521.4</ele>
        <time>2024-11-07T10:56:46.000Z</time>
      </trkpt>
      <trkpt lat="44.13407" lon="3.21878">
        <ele>522.1</ele>
        <time>2024-11-07T10:56:51.000Z</time>
      </trkpt>
      <trkpt lat="44.13416" lon="3.21871">
        <ele>522.8</ele>
        <time>2024-11-07T10:56:56.000Z</time>
      </trkpt>
      <trkpt lat="44.13426" lon="3.21866">
        <ele>523.7</ele>
        <time>2024-11-07T10:57:01.000Z</time>
      </trkpt>
      <trkpt lat="44.13435" lon="3.2186">
        <ele>524.5</ele>
        <time>2024-11-07T10:57:06.000Z</time>
      </trkpt>
      <trkpt lat="44.13444" lon="3.21854">
        <ele>525.3</ele>
        <time>2024-11-07T10:57:11.000Z</time>
      </trkpt>
      <trkpt lat="44.13452" lon="3.21847">
        <ele>526.2</ele>
        <time>2024-11-07T10:57:16.000Z</time>
      </trkpt>
      <trkpt lat="44.13461" lon="3.2184">
        <ele>527.1</ele>
        <time>2024-11-07T10:57:22.000Z</time>
      </trkpt>
      <trkpt lat="44.13471" lon="3.21835">
        <ele>527.8</ele>
        <time>2024-11-07T10:57:27.000Z</time>
      </trkpt>
      <trkpt lat="44.1348" lon="3.2183">
        <ele>528.6</ele>
        <time>2024-11-07T10:57:32.000Z</time>
      </trkpt>
      <trkpt lat="44.13489" lon="3.21827">
        <ele>529.4</ele>
        <time>2024-11-07T10:57:37.000Z</time>
      </trkpt>
      <trkpt lat="44.13498" lon="3.21825">
        <ele>530.2</ele>
        <time>2024-11-07T10:57:42.000Z</time>
      </trkpt>
      <trkpt lat="44.13508" lon="3.21823">
        <ele>531</ele>
        <time>2024-11-07T10:57:47.000Z</time>
      </trkpt>
      <trkpt lat="44.13518" lon="3.21825">
        <ele>531.9</ele>
        <time>2024-11-07T10:57:53.000Z</time>
      </trkpt>
      <trkpt lat="44.13528" lon="3.21826">
        <ele>532.7</ele>
        <time>2024-11-07T10:57:58.000Z</time>
      </trkpt>
      <trkpt lat="44.13537" lon="3.21828">
        <ele>533.6</ele>
        <time>2024-11-07T10:58:03.000Z</time>
      </trkpt>
      <trkpt lat="44.13548" lon="3.21829">
        <ele>534.5</ele>
        <time>2024-11-07T10:58:09.000Z</time>
      </trkpt>
      <trkpt lat="44.13557" lon="3.21831">
        <ele>535.2</ele>
        <time>2024-11-07T10:58:14.000Z</time>
      </trkpt>
      <trkpt lat="44.13566" lon="3.21833">
        <ele>536</ele>
        <time>2024-11-07T10:58:19.000Z</time>
      </trkpt>
      <trkpt lat="44.13577" lon="3.21835">
        <ele>536.8</ele>
        <time>2024-11-07T10:58:24.000Z</time>
      </trkpt>
      <trkpt lat="44.13587" lon="3.21836">
        <ele>537.8</ele>
        <time>2024-11-07T10:58:30.000Z</time>
      </trkpt>
      <trkpt lat="44.13597" lon="3.21836">
        <ele>538.7</ele>
        <time>2024-11-07T10:58:35.000Z</time>
      </trkpt>
      <trkpt lat="44.13608" lon="3.21835">
        <ele>539.6</ele>
        <time>2024-11-07T10:58:40.000Z</time>
      </trkpt>
      <trkpt lat="44.13618" lon="3.21834">
        <ele>540.4</ele>
        <time>2024-11-07T10:58:45.000Z</time>
      </trkpt>
      <trkpt lat="44.13628" lon="3.21833">
        <ele>541.5</ele>
        <time>2024-11-07T10:58:51.000Z</time>
      </trkpt>
      <trkpt lat="44.13639" lon="3.21836">
        <ele>542.4</ele>
        <time>2024-11-07T10:58:57.000Z</time>
      </trkpt>
      <trkpt lat="44.13649" lon="3.21839">
        <ele>543.2</ele>
        <time>2024-11-07T10:59:02.000Z</time>
      </trkpt>
      <trkpt lat="44.13658" lon="3.2184">
        <ele>543.9</ele>
        <time>2024-11-07T10:59:07.000Z</time>
      </trkpt>
      <trkpt lat="44.13668" lon="3.21835">
        <ele>544.6</ele>
        <time>2024-11-07T10:59:12.000Z</time>
      </trkpt>
      <trkpt lat="44.13673" lon="3.21824">
        <ele>545.1</ele>
        <time>2024-11-07T10:59:16.000Z</time>
      </trkpt>
      <trkpt lat="44.13672" lon="3.21809">
        <ele>545.6</ele>
        <time>2024-11-07T10:59:20.000Z</time>
      </trkpt>
      <trkpt lat="44.1367" lon="3.21795">
        <ele>546.1</ele>
        <time>2024-11-07T10:59:24.000Z</time>
      </trkpt>
      <trkpt lat="44.13662" lon="3.21786">
        <ele>546.9</ele>
        <time>2024-11-07T10:59:30.000Z</time>
      </trkpt>
      <trkpt lat="44.13654" lon="3.21779">
        <ele>547.5</ele>
        <time>2024-11-07T10:59:35.000Z</time>
      </trkpt>
      <trkpt lat="44.13645" lon="3.21773">
        <ele>548</ele>
        <time>2024-11-07T10:59:40.000Z</time>
      </trkpt>
      <trkpt lat="44.13637" lon="3.21767">
        <ele>548.7</ele>
        <time>2024-11-07T10:59:45.000Z</time>
      </trkpt>
      <trkpt lat="44.13628" lon="3.21762">
        <ele>549.4</ele>
        <time>2024-11-07T10:59:50.000Z</time>
      </trkpt>
      <trkpt lat="44.1362" lon="3.21755">
        <ele>550.1</ele>
        <time>2024-11-07T10:59:55.000Z</time>
      </trkpt>
      <trkpt lat="44.13616" lon="3.21742">
        <ele>550.7</ele>
        <time>2024-11-07T11:00:00.000Z</time>
      </trkpt>
      <trkpt lat="44.13625" lon="3.21735">
        <ele>551.6</ele>
        <time>2024-11-07T11:00:06.000Z</time>
      </trkpt>
      <trkpt lat="44.13635" lon="3.2174">
        <ele>552.3</ele>
        <time>2024-11-07T11:00:11.000Z</time>
      </trkpt>
      <trkpt lat="44.13643" lon="3.21749">
        <ele>553.1</ele>
        <time>2024-11-07T11:00:16.000Z</time>
      </trkpt>
      <trkpt lat="44.13651" lon="3.21756">
        <ele>553.9</ele>
        <time>2024-11-07T11:00:21.000Z</time>
      </trkpt>
      <trkpt lat="44.13661" lon="3.21764">
        <ele>554.6</ele>
        <time>2024-11-07T11:00:26.000Z</time>
      </trkpt>
      <trkpt lat="44.13671" lon="3.21769">
        <ele>555.3</ele>
        <time>2024-11-07T11:00:30.000Z</time>
      </trkpt>
      <trkpt lat="44.1368" lon="3.21774">
        <ele>555.9</ele>
        <time>2024-11-07T11:00:34.000Z</time>
      </trkpt>
      <trkpt lat="44.13689" lon="3.21778">
        <ele>556.5</ele>
        <time>2024-11-07T11:00:38.000Z</time>
      </trkpt>
      <trkpt lat="44.137" lon="3.2178">
        <ele>557.3</ele>
        <time>2024-11-07T11:00:43.000Z</time>
      </trkpt>
      <trkpt lat="44.13711" lon="3.21779">
        <ele>558.1</ele>
        <time>2024-11-07T11:00:48.000Z</time>
      </trkpt>
      <trkpt lat="44.1372" lon="3.21771">
        <ele>558.9</ele>
        <time>2024-11-07T11:00:53.000Z</time>
      </trkpt>
      <trkpt lat="44.13727" lon="3.2176">
        <ele>559.8</ele>
        <time>2024-11-07T11:00:58.000Z</time>
      </trkpt>
      <trkpt lat="44.13731" lon="3.21747">
        <ele>560.8</ele>
        <time>2024-11-07T11:01:03.000Z</time>
      </trkpt>
      <trkpt lat="44.13736" lon="3.21733">
        <ele>561.8</ele>
        <time>2024-11-07T11:01:08.000Z</time>
      </trkpt>
      <trkpt lat="44.13743" lon="3.21722">
        <ele>562.8</ele>
        <time>2024-11-07T11:01:13.000Z</time>
      </trkpt>
      <trkpt lat="44.13751" lon="3.21713">
        <ele>563.8</ele>
        <time>2024-11-07T11:01:18.000Z</time>
      </trkpt>
      <trkpt lat="44.13759" lon="3.21707">
        <ele>564.6</ele>
        <time>2024-11-07T11:01:22.000Z</time>
      </trkpt>
      <trkpt lat="44.13769" lon="3.21703">
        <ele>565.6</ele>
        <time>2024-11-07T11:01:27.000Z</time>
      </trkpt>
      <trkpt lat="44.13779" lon="3.21702">
        <ele>566.5</ele>
        <time>2024-11-07T11:01:32.000Z</time>
      </trkpt>
      <trkpt lat="44.13789" lon="3.21704">
        <ele>567.3</ele>
        <time>2024-11-07T11:01:37.000Z</time>
      </trkpt>
      <trkpt lat="44.13799" lon="3.21708">
        <ele>568.2</ele>
        <time>2024-11-07T11:01:42.000Z</time>
      </trkpt>
      <trkpt lat="44.13808" lon="3.21714">
        <ele>569.1</ele>
        <time>2024-11-07T11:01:47.000Z</time>
      </trkpt>
      <trkpt lat="44.13817" lon="3.21721">
        <ele>569.9</ele>
        <time>2024-11-07T11:01:53.000Z</time>
      </trkpt>
      <trkpt lat="44.13826" lon="3.21728">
        <ele>570.7</ele>
        <time>2024-11-07T11:01:59.000Z</time>
      </trkpt>
      <trkpt lat="44.13833" lon="3.21735">
        <ele>571.4</ele>
        <time>2024-11-07T11:02:04.000Z</time>
      </trkpt>
      <trkpt lat="44.13841" lon="3.21745">
        <ele>572.2</ele>
        <time>2024-11-07T11:02:08.000Z</time>
      </trkpt>
      <trkpt lat="44.13852" lon="3.21751">
        <ele>572.9</ele>
        <time>2024-11-07T11:02:12.000Z</time>
      </trkpt>
      <trkpt lat="44.13862" lon="3.21749">
        <ele>573.6</ele>
        <time>2024-11-07T11:02:16.000Z</time>
      </trkpt>
      <trkpt lat="44.13871" lon="3.2174">
        <ele>574.4</ele>
        <time>2024-11-07T11:02:20.000Z</time>
      </trkpt>
      <trkpt lat="44.13876" lon="3.21729">
        <ele>575.2</ele>
        <time>2024-11-07T11:02:24.000Z</time>
      </trkpt>
      <trkpt lat="44.13882" lon="3.21717">
        <ele>576.1</ele>
        <time>2024-11-07T11:02:29.000Z</time>
      </trkpt>
      <trkpt lat="44.13889" lon="3.21706">
        <ele>577</ele>
        <time>2024-11-07T11:02:34.000Z</time>
      </trkpt>
      <trkpt lat="44.13896" lon="3.21696">
        <ele>577.8</ele>
        <time>2024-11-07T11:02:39.000Z</time>
      </trkpt>
      <trkpt lat="44.13903" lon="3.21685">
        <ele>578.6</ele>
        <time>2024-11-07T11:02:44.000Z</time>
      </trkpt>
      <trkpt lat="44.1391" lon="3.21677">
        <ele>579.4</ele>
        <time>2024-11-07T11:02:49.000Z</time>
      </trkpt>
      <trkpt lat="44.13921" lon="3.21671">
        <ele>580.2</ele>
        <time>2024-11-07T11:02:54.000Z</time>
      </trkpt>
      <trkpt lat="44.1393" lon="3.21667">
        <ele>581.1</ele>
        <time>2024-11-07T11:02:59.000Z</time>
      </trkpt>
      <trkpt lat="44.13939" lon="3.21666">
        <ele>581.9</ele>
        <time>2024-11-07T11:03:04.000Z</time>
      </trkpt>
      <trkpt lat="44.1395" lon="3.21666">
        <ele>582.9</ele>
        <time>2024-11-07T11:03:10.000Z</time>
      </trkpt>
      <trkpt lat="44.1396" lon="3.21667">
        <ele>583.7</ele>
        <time>2024-11-07T11:03:15.000Z</time>
      </trkpt>
      <trkpt lat="44.13969" lon="3.21668">
        <ele>584.5</ele>
        <time>2024-11-07T11:03:20.000Z</time>
      </trkpt>
      <trkpt lat="44.13978" lon="3.21669">
        <ele>585.3</ele>
        <time>2024-11-07T11:03:25.000Z</time>
      </trkpt>
      <trkpt lat="44.13988" lon="3.2167">
        <ele>586</ele>
        <time>2024-11-07T11:03:30.000Z</time>
      </trkpt>
      <trkpt lat="44.13997" lon="3.21671">
        <ele>586.9</ele>
        <time>2024-11-07T11:03:35.000Z</time>
      </trkpt>
      <trkpt lat="44.14007" lon="3.21672">
        <ele>587.6</ele>
        <time>2024-11-07T11:03:40.000Z</time>
      </trkpt>
      <trkpt lat="44.14017" lon="3.21676">
        <ele>588.4</ele>
        <time>2024-11-07T11:03:45.000Z</time>
      </trkpt>
      <trkpt lat="44.14027" lon="3.21676">
        <ele>589.4</ele>
        <time>2024-11-07T11:03:51.000Z</time>
      </trkpt>
      <trkpt lat="44.14037" lon="3.21671">
        <ele>590.5</ele>
        <time>2024-11-07T11:03:57.000Z</time>
      </trkpt>
      <trkpt lat="44.14046" lon="3.21668">
        <ele>591.2</ele>
        <time>2024-11-07T11:04:02.000Z</time>
      </trkpt>
      <trkpt lat="44.14055" lon="3.21665">
        <ele>592</ele>
        <time>2024-11-07T11:04:07.000Z</time>
      </trkpt>
      <trkpt lat="44.14065" lon="3.21664">
        <ele>592.8</ele>
        <time>2024-11-07T11:04:12.000Z</time>
      </trkpt>
      <trkpt lat="44.14075" lon="3.21662">
        <ele>593.7</ele>
        <time>2024-11-07T11:04:17.000Z</time>
      </trkpt>
      <trkpt lat="44.14084" lon="3.21658">
        <ele>594.7</ele>
        <time>2024-11-07T11:04:22.000Z</time>
      </trkpt>
      <trkpt lat="44.14092" lon="3.21653">
        <ele>595.5</ele>
        <time>2024-11-07T11:04:27.000Z</time>
      </trkpt>
      <trkpt lat="44.14101" lon="3.21647">
        <ele>596.4</ele>
        <time>2024-11-07T11:04:32.000Z</time>
      </trkpt>
      <trkpt lat="44.14111" lon="3.21641">
        <ele>597.2</ele>
        <time>2024-11-07T11:04:37.000Z</time>
      </trkpt>
      <trkpt lat="44.14121" lon="3.21636">
        <ele>598</ele>
        <time>2024-11-07T11:04:42.000Z</time>
      </trkpt>
      <trkpt lat="44.14132" lon="3.21635">
        <ele>598.8</ele>
        <time>2024-11-07T11:04:47.000Z</time>
      </trkpt>
      <trkpt lat="44.14142" lon="3.21633">
        <ele>599.6</ele>
        <time>2024-11-07T11:04:52.000Z</time>
      </trkpt>
      <trkpt lat="44.14152" lon="3.2163">
        <ele>600.5</ele>
        <time>2024-11-07T11:04:57.000Z</time>
      </trkpt>
      <trkpt lat="44.14161" lon="3.21628">
        <ele>601.4</ele>
        <time>2024-11-07T11:05:02.000Z</time>
      </trkpt>
      <trkpt lat="44.14171" lon="3.21623">
        <ele>602.3</ele>
        <time>2024-11-07T11:05:07.000Z</time>
      </trkpt>
      <trkpt lat="44.1418" lon="3.21619">
        <ele>603.2</ele>
        <time>2024-11-07T11:05:12.000Z</time>
      </trkpt>
      <trkpt lat="44.14189" lon="3.21615">
        <ele>604.3</ele>
        <time>2024-11-07T11:05:17.000Z</time>
      </trkpt>
      <trkpt lat="44.14199" lon="3.2161">
        <ele>605.2</ele>
        <time>2024-11-07T11:05:22.000Z</time>
      </trkpt>
      <trkpt lat="44.1421" lon="3.21609">
        <ele>605.9</ele>
        <time>2024-11-07T11:05:27.000Z</time>
      </trkpt>
      <trkpt lat="44.1422" lon="3.21611">
        <ele>606.7</ele>
        <time>2024-11-07T11:05:32.000Z</time>
      </trkpt>
      <trkpt lat="44.14231" lon="3.21613">
        <ele>607.6</ele>
        <time>2024-11-07T11:05:37.000Z</time>
      </trkpt>
      <trkpt lat="44.14241" lon="3.21615">
        <ele>608.5</ele>
        <time>2024-11-07T11:05:42.000Z</time>
      </trkpt>
      <trkpt lat="44.14251" lon="3.21615">
        <ele>609.5</ele>
        <time>2024-11-07T11:05:47.000Z</time>
      </trkpt>
      <trkpt lat="44.1426" lon="3.21609">
        <ele>610.5</ele>
        <time>2024-11-07T11:05:52.000Z</time>
      </trkpt>
      <trkpt lat="44.14268" lon="3.216">
        <ele>611.4</ele>
        <time>2024-11-07T11:05:57.000Z</time>
      </trkpt>
      <trkpt lat="44.14276" lon="3.21592">
        <ele>612.3</ele>
        <time>2024-11-07T11:06:02.000Z</time>
      </trkpt>
      <trkpt lat="44.14284" lon="3.21584">
        <ele>613.1</ele>
        <time>2024-11-07T11:06:07.000Z</time>
      </trkpt>
      <trkpt lat="44.14294" lon="3.21581">
        <ele>614</ele>
        <time>2024-11-07T11:06:12.000Z</time>
      </trkpt>
      <trkpt lat="44.14305" lon="3.21581">
        <ele>614.9</ele>
        <time>2024-11-07T11:06:17.000Z</time>
      </trkpt>
      <trkpt lat="44.14315" lon="3.21584">
        <ele>615.7</ele>
        <time>2024-11-07T11:06:22.000Z</time>
      </trkpt>
      <trkpt lat="44.14325" lon="3.21591">
        <ele>616.4</ele>
        <time>2024-11-07T11:06:27.000Z</time>
      </trkpt>
      <trkpt lat="44.14333" lon="3.21601">
        <ele>617.1</ele>
        <time>2024-11-07T11:06:32.000Z</time>
      </trkpt>
      <trkpt lat="44.14339" lon="3.21611">
        <ele>617.5</ele>
        <time>2024-11-07T11:06:36.000Z</time>
      </trkpt>
      <trkpt lat="44.14345" lon="3.21621">
        <ele>618.1</ele>
        <time>2024-11-07T11:06:40.000Z</time>
      </trkpt>
      <trkpt lat="44.14352" lon="3.21632">
        <ele>618.6</ele>
        <time>2024-11-07T11:06:44.000Z</time>
      </trkpt>
      <trkpt lat="44.1436" lon="3.21642">
        <ele>619.1</ele>
        <time>2024-11-07T11:06:48.000Z</time>
      </trkpt>
      <trkpt lat="44.1437" lon="3.21652">
        <ele>619.6</ele>
        <time>2024-11-07T11:06:52.000Z</time>
      </trkpt>
      <trkpt lat="44.14377" lon="3.21658">
        <ele>619.9</ele>
        <time>2024-11-07T11:06:55.000Z</time>
      </trkpt>
      <trkpt lat="44.14386" lon="3.21664">
        <ele>620.2</ele>
        <time>2024-11-07T11:06:58.000Z</time>
      </trkpt>
      <trkpt lat="44.14395" lon="3.21668">
        <ele>620.5</ele>
        <time>2024-11-07T11:07:01.000Z</time>
      </trkpt>
      <trkpt lat="44.14405" lon="3.21672">
        <ele>620.8</ele>
        <time>2024-11-07T11:07:04.000Z</time>
      </trkpt>
      <trkpt lat="44.14416" lon="3.21676">
        <ele>621.2</ele>
        <time>2024-11-07T11:07:07.000Z</time>
      </trkpt>
      <trkpt lat="44.14428" lon="3.2168">
        <ele>621.6</ele>
        <time>2024-11-07T11:07:10.000Z</time>
      </trkpt>
      <trkpt lat="44.14438" lon="3.21684">
        <ele>622.1</ele>
        <time>2024-11-07T11:07:13.000Z</time>
      </trkpt>
      <trkpt lat="44.14449" lon="3.21688">
        <ele>622.5</ele>
        <time>2024-11-07T11:07:16.000Z</time>
      </trkpt>
      <trkpt lat="44.1446" lon="3.21691">
        <ele>622.8</ele>
        <time>2024-11-07T11:07:19.000Z</time>
      </trkpt>
      <trkpt lat="44.1447" lon="3.21691">
        <ele>623</ele>
        <time>2024-11-07T11:07:22.000Z</time>
      </trkpt>
      <trkpt lat="44.14481" lon="3.21695">
        <ele>623.3</ele>
        <time>2024-11-07T11:07:25.000Z</time>
      </trkpt>
      <trkpt lat="44.14491" lon="3.217">
        <ele>623.5</ele>
        <time>2024-11-07T11:07:28.000Z</time>
      </trkpt>
      <trkpt lat="44.14503" lon="3.21699">
        <ele>623.8</ele>
        <time>2024-11-07T11:07:31.000Z</time>
      </trkpt>
      <trkpt lat="44.14513" lon="3.21694">
        <ele>624.1</ele>
        <time>2024-11-07T11:07:34.000Z</time>
      </trkpt>
      <trkpt lat="44.14524" lon="3.2169">
        <ele>624.4</ele>
        <time>2024-11-07T11:07:37.000Z</time>
      </trkpt>
      <trkpt lat="44.14534" lon="3.21688">
        <ele>624.7</ele>
        <time>2024-11-07T11:07:40.000Z</time>
      </trkpt>
      <trkpt lat="44.14546" lon="3.21685">
        <ele>625.1</ele>
        <time>2024-11-07T11:07:43.000Z</time>
      </trkpt>
      <trkpt lat="44.14557" lon="3.21684">
        <ele>625.5</ele>
        <time>2024-11-07T11:07:46.000Z</time>
      </trkpt>
      <trkpt lat="44.14568" lon="3.21685">
        <ele>626</ele>
        <time>2024-11-07T11:07:49.000Z</time>
      </trkpt>
      <trkpt lat="44.14577" lon="3.21688">
        <ele>626.4</ele>
        <time>2024-11-07T11:07:52.000Z</time>
      </trkpt>
      <trkpt lat="44.14586" lon="3.21691">
        <ele>626.8</ele>
        <time>2024-11-07T11:07:55.000Z</time>
      </trkpt>
      <trkpt lat="44.14597" lon="3.21695">
        <ele>627.4</ele>
        <time>2024-11-07T11:07:59.000Z</time>
      </trkpt>
      <trkpt lat="44.14609" lon="3.21695">
        <ele>628</ele>
        <time>2024-11-07T11:08:03.000Z</time>
      </trkpt>
      <trkpt lat="44.14618" lon="3.21688">
        <ele>628.6</ele>
        <time>2024-11-07T11:08:07.000Z</time>
      </trkpt>
      <trkpt lat="44.14627" lon="3.21678">
        <ele>629.1</ele>
        <time>2024-11-07T11:08:11.000Z</time>
      </trkpt>
      <trkpt lat="44.14634" lon="3.21668">
        <ele>629.6</ele>
        <time>2024-11-07T11:08:15.000Z</time>
      </trkpt>
      <trkpt lat="44.14641" lon="3.21659">
        <ele>630.2</ele>
        <time>2024-11-07T11:08:19.000Z</time>
      </trkpt>
      <trkpt lat="44.14648" lon="3.21649">
        <ele>630.8</ele>
        <time>2024-11-07T11:08:23.000Z</time>
      </trkpt>
      <trkpt lat="44.14657" lon="3.2164">
        <ele>631.5</ele>
        <time>2024-11-07T11:08:27.000Z</time>
      </trkpt>
      <trkpt lat="44.14666" lon="3.2163">
        <ele>632.1</ele>
        <time>2024-11-07T11:08:31.000Z</time>
      </trkpt>
      <trkpt lat="44.14676" lon="3.21621">
        <ele>632.8</ele>
        <time>2024-11-07T11:08:35.000Z</time>
      </trkpt>
      <trkpt lat="44.14684" lon="3.21612">
        <ele>633.4</ele>
        <time>2024-11-07T11:08:39.000Z</time>
      </trkpt>
      <trkpt lat="44.14685" lon="3.21599">
        <ele>634.2</ele>
        <time>2024-11-07T11:08:44.000Z</time>
      </trkpt>
      <trkpt lat="44.14692" lon="3.2159">
        <ele>635.6</ele>
        <time>2024-11-07T11:08:51.000Z</time>
      </trkpt>
      <trkpt lat="44.147" lon="3.21597">
        <ele>637.4</ele>
        <time>2024-11-07T11:08:59.000Z</time>
      </trkpt>
      <trkpt lat="44.1471" lon="3.21601">
        <ele>638.7</ele>
        <time>2024-11-07T11:09:06.000Z</time>
      </trkpt>
      <trkpt lat="44.14719" lon="3.21603">
        <ele>639.8</ele>
        <time>2024-11-07T11:09:12.000Z</time>
      </trkpt>
      <trkpt lat="44.14728" lon="3.21605">
        <ele>640.7</ele>
        <time>2024-11-07T11:09:18.000Z</time>
      </trkpt>
      <trkpt lat="44.14726" lon="3.21592">
        <ele>642.6</ele>
        <time>2024-11-07T11:09:30.000Z</time>
      </trkpt>
      <trkpt lat="44.14719" lon="3.21584">
        <ele>643.8</ele>
        <time>2024-11-07T11:09:37.000Z</time>
      </trkpt>
      <trkpt lat="44.14713" lon="3.21574">
        <ele>645.2</ele>
        <time>2024-11-07T11:09:45.000Z</time>
      </trkpt>
      <trkpt lat="44.14722" lon="3.21568">
        <ele>646.9</ele>
        <time>2024-11-07T11:09:55.000Z</time>
      </trkpt>
      <trkpt lat="44.1473" lon="3.21565">
        <ele>648.6</ele>
        <time>2024-11-07T11:10:04.000Z</time>
      </trkpt>
      <trkpt lat="44.14739" lon="3.21561">
        <ele>650.1</ele>
        <time>2024-11-07T11:10:12.000Z</time>
      </trkpt>
      <trkpt lat="44.14749" lon="3.21557">
        <ele>651.6</ele>
        <time>2024-11-07T11:10:20.000Z</time>
      </trkpt>
      <trkpt lat="44.14759" lon="3.21555">
        <ele>653.3</ele>
        <time>2024-11-07T11:10:29.000Z</time>
      </trkpt>
      <trkpt lat="44.14768" lon="3.21555">
        <ele>654.7</ele>
        <time>2024-11-07T11:10:37.000Z</time>
      </trkpt>
      <trkpt lat="44.14777" lon="3.21554">
        <ele>657.9</ele>
        <time>2024-11-07T11:10:55.000Z</time>
      </trkpt>
      <trkpt lat="44.14786" lon="3.21556">
        <ele>658.8</ele>
        <time>2024-11-07T11:11:00.000Z</time>
      </trkpt>
      <trkpt lat="44.14796" lon="3.21558">
        <ele>660.1</ele>
        <time>2024-11-07T11:11:06.000Z</time>
      </trkpt>
      <trkpt lat="44.14806" lon="3.21563">
        <ele>661.9</ele>
        <time>2024-11-07T11:11:14.000Z</time>
      </trkpt>
      <trkpt lat="44.14815" lon="3.21567">
        <ele>663.6</ele>
        <time>2024-11-07T11:11:22.000Z</time>
      </trkpt>
      <trkpt lat="44.14825" lon="3.21571">
        <ele>665.7</ele>
        <time>2024-11-07T11:11:30.000Z</time>
      </trkpt>
      <trkpt lat="44.14834" lon="3.21573">
        <ele>667</ele>
        <time>2024-11-07T11:11:37.000Z</time>
      </trkpt>
      <trkpt lat="44.1484" lon="3.21564">
        <ele>669</ele>
        <time>2024-11-07T11:11:47.000Z</time>
      </trkpt>
      <trkpt lat="44.14835" lon="3.21553">
        <ele>670.9</ele>
        <time>2024-11-07T11:11:57.000Z</time>
      </trkpt>
      <trkpt lat="44.1483" lon="3.21541">
        <ele>672.4</ele>
        <time>2024-11-07T11:12:05.000Z</time>
      </trkpt>
      <trkpt lat="44.14826" lon="3.21529">
        <ele>673.7</ele>
        <time>2024-11-07T11:12:13.000Z</time>
      </trkpt>
      <trkpt lat="44.14822" lon="3.21517">
        <ele>675.6</ele>
        <time>2024-11-07T11:12:22.000Z</time>
      </trkpt>
      <trkpt lat="44.14818" lon="3.21506">
        <ele>676.9</ele>
        <time>2024-11-07T11:12:30.000Z</time>
      </trkpt>
      <trkpt lat="44.14813" lon="3.21494">
        <ele>678.7</ele>
        <time>2024-11-07T11:12:40.000Z</time>
      </trkpt>
      <trkpt lat="44.14821" lon="3.21486">
        <ele>681.8</ele>
        <time>2024-11-07T11:12:54.000Z</time>
      </trkpt>
      <trkpt lat="44.1483" lon="3.21483">
        <ele>683.2</ele>
        <time>2024-11-07T11:13:01.000Z</time>
      </trkpt>
      <trkpt lat="44.1484" lon="3.21481">
        <ele>684.8</ele>
        <time>2024-11-07T11:13:08.000Z</time>
      </trkpt>
      <trkpt lat="44.14849" lon="3.21481">
        <ele>685.8</ele>
        <time>2024-11-07T11:13:14.000Z</time>
      </trkpt>
      <trkpt lat="44.14859" lon="3.21477">
        <ele>687.2</ele>
        <time>2024-11-07T11:13:21.000Z</time>
      </trkpt>
      <trkpt lat="44.14868" lon="3.21473">
        <ele>688.5</ele>
        <time>2024-11-07T11:13:28.000Z</time>
      </trkpt>
      <trkpt lat="44.14878" lon="3.21473">
        <ele>689.4</ele>
        <time>2024-11-07T11:13:33.000Z</time>
      </trkpt>
      <trkpt lat="44.14889" lon="3.21472">
        <ele>690.2</ele>
        <time>2024-11-07T11:13:38.000Z</time>
      </trkpt>
      <trkpt lat="44.149" lon="3.2147">
        <ele>690.7</ele>
        <time>2024-11-07T11:13:42.000Z</time>
      </trkpt>
      <trkpt lat="44.1491" lon="3.21468">
        <ele>691.2</ele>
        <time>2024-11-07T11:13:46.000Z</time>
      </trkpt>
      <trkpt lat="44.14921" lon="3.21466">
        <ele>691.8</ele>
        <time>2024-11-07T11:13:51.000Z</time>
      </trkpt>
      <trkpt lat="44.14931" lon="3.21464">
        <ele>692.3</ele>
        <time>2024-11-07T11:13:55.000Z</time>
      </trkpt>
      <trkpt lat="44.14941" lon="3.21458">
        <ele>692.9</ele>
        <time>2024-11-07T11:13:59.000Z</time>
      </trkpt>
      <trkpt lat="44.14948" lon="3.21449">
        <ele>693.6</ele>
        <time>2024-11-07T11:14:03.000Z</time>
      </trkpt>
      <trkpt lat="44.14952" lon="3.21438">
        <ele>694.6</ele>
        <time>2024-11-07T11:14:08.000Z</time>
      </trkpt>
      <trkpt lat="44.14958" lon="3.21427">
        <ele>695.7</ele>
        <time>2024-11-07T11:14:14.000Z</time>
      </trkpt>
      <trkpt lat="44.14962" lon="3.21415">
        <ele>697.1</ele>
        <time>2024-11-07T11:14:20.000Z</time>
      </trkpt>
      <trkpt lat="44.14964" lon="3.21403">
        <ele>698.3</ele>
        <time>2024-11-07T11:14:26.000Z</time>
      </trkpt>
      <trkpt lat="44.14965" lon="3.21389">
        <ele>699.2</ele>
        <time>2024-11-07T11:14:32.000Z</time>
      </trkpt>
      <trkpt lat="44.14966" lon="3.21375">
        <ele>700.5</ele>
        <time>2024-11-07T11:14:40.000Z</time>
      </trkpt>
      <trkpt lat="44.14967" lon="3.21361">
        <ele>701.7</ele>
        <time>2024-11-07T11:14:47.000Z</time>
      </trkpt>
      <trkpt lat="44.14969" lon="3.21347">
        <ele>702.9</ele>
        <time>2024-11-07T11:14:54.000Z</time>
      </trkpt>
      <trkpt lat="44.1497" lon="3.21334">
        <ele>704.3</ele>
        <time>2024-11-07T11:15:01.000Z</time>
      </trkpt>
      <trkpt lat="44.14974" lon="3.21322">
        <ele>705.6</ele>
        <time>2024-11-07T11:15:08.000Z</time>
      </trkpt>
      <trkpt lat="44.14975" lon="3.21309">
        <ele>706.7</ele>
        <time>2024-11-07T11:15:15.000Z</time>
      </trkpt>
      <trkpt lat="44.14975" lon="3.21294">
        <ele>707.5</ele>
        <time>2024-11-07T11:15:20.000Z</time>
      </trkpt>
      <trkpt lat="44.14977" lon="3.21282">
        <ele>708.6</ele>
        <time>2024-11-07T11:15:27.000Z</time>
      </trkpt>
      <trkpt lat="44.14981" lon="3.2127">
        <ele>710.1</ele>
        <time>2024-11-07T11:15:36.000Z</time>
      </trkpt>
      <trkpt lat="44.14984" lon="3.21258">
        <ele>712</ele>
        <time>2024-11-07T11:15:48.000Z</time>
      </trkpt>
      <trkpt lat="44.14985" lon="3.21244">
        <ele>713.3</ele>
        <time>2024-11-07T11:15:55.000Z</time>
      </trkpt>
      <trkpt lat="44.14987" lon="3.21231">
        <ele>715.4</ele>
        <time>2024-11-07T11:16:06.000Z</time>
      </trkpt>
      <trkpt lat="44.14987" lon="3.21218">
        <ele>716.6</ele>
        <time>2024-11-07T11:16:14.000Z</time>
      </trkpt>
      <trkpt lat="44.14986" lon="3.21205">
        <ele>717.9</ele>
        <time>2024-11-07T11:16:21.000Z</time>
      </trkpt>
      <trkpt lat="44.14985" lon="3.21192">
        <ele>719.3</ele>
        <time>2024-11-07T11:16:29.000Z</time>
      </trkpt>
      <trkpt lat="44.14983" lon="3.2118">
        <ele>720.6</ele>
        <time>2024-11-07T11:16:37.000Z</time>
      </trkpt>
      <trkpt lat="44.14982" lon="3.21167">
        <ele>721.9</ele>
        <time>2024-11-07T11:16:44.000Z</time>
      </trkpt>
      <trkpt lat="44.1498" lon="3.21152">
        <ele>722.9</ele>
        <time>2024-11-07T11:16:51.000Z</time>
      </trkpt>
      <trkpt lat="44.14977" lon="3.21139">
        <ele>723.7</ele>
        <time>2024-11-07T11:16:57.000Z</time>
      </trkpt>
      <trkpt lat="44.14974" lon="3.21126">
        <ele>724.7</ele>
        <time>2024-11-07T11:17:04.000Z</time>
      </trkpt>
      <trkpt lat="44.1497" lon="3.21114">
        <ele>725.4</ele>
        <time>2024-11-07T11:17:09.000Z</time>
      </trkpt>
      <trkpt lat="44.14965" lon="3.21103">
        <ele>726</ele>
        <time>2024-11-07T11:17:14.000Z</time>
      </trkpt>
      <trkpt lat="44.14958" lon="3.21093">
        <ele>726.6</ele>
        <time>2024-11-07T11:17:19.000Z</time>
      </trkpt>
      <trkpt lat="44.14953" lon="3.21081">
        <ele>727.4</ele>
        <time>2024-11-07T11:17:25.000Z</time>
      </trkpt>
      <trkpt lat="44.1495" lon="3.21065">
        <ele>727.9</ele>
        <time>2024-11-07T11:17:30.000Z</time>
      </trkpt>
      <trkpt lat="44.14947" lon="3.21051">
        <ele>728.4</ele>
        <time>2024-11-07T11:17:35.000Z</time>
      </trkpt>
      <trkpt lat="44.14945" lon="3.21038">
        <ele>728.9</ele>
        <time>2024-11-07T11:17:39.000Z</time>
      </trkpt>
      <trkpt lat="44.14942" lon="3.21024">
        <ele>729.6</ele>
        <time>2024-11-07T11:17:44.000Z</time>
      </trkpt>
      <trkpt lat="44.14938" lon="3.21012">
        <ele>730.1</ele>
        <time>2024-11-07T11:17:49.000Z</time>
      </trkpt>
      <trkpt lat="44.14932" lon="3.20998">
        <ele>730.8</ele>
        <time>2024-11-07T11:17:54.000Z</time>
      </trkpt>
      <trkpt lat="44.14926" lon="3.20986">
        <ele>731.4</ele>
        <time>2024-11-07T11:17:59.000Z</time>
      </trkpt>
      <trkpt lat="44.14919" lon="3.20974">
        <ele>731.9</ele>
        <time>2024-11-07T11:18:04.000Z</time>
      </trkpt>
      <trkpt lat="44.14913" lon="3.20963">
        <ele>732.3</ele>
        <time>2024-11-07T11:18:08.000Z</time>
      </trkpt>
      <trkpt lat="44.14912" lon="3.20948">
        <ele>732.6</ele>
        <time>2024-11-07T11:18:12.000Z</time>
      </trkpt>
      <trkpt lat="44.14913" lon="3.20935">
        <ele>732.8</ele>
        <time>2024-11-07T11:18:15.000Z</time>
      </trkpt>
      <trkpt lat="44.14913" lon="3.20921">
        <ele>733</ele>
        <time>2024-11-07T11:18:18.000Z</time>
      </trkpt>
      <trkpt lat="44.14917" lon="3.20906">
        <ele>733.2</ele>
        <time>2024-11-07T11:18:22.000Z</time>
      </trkpt>
      <trkpt lat="44.14923" lon="3.20891">
        <ele>733.7</ele>
        <time>2024-11-07T11:18:26.000Z</time>
      </trkpt>
      <trkpt lat="44.14929" lon="3.2088">
        <ele>734</ele>
        <time>2024-11-07T11:18:29.000Z</time>
      </trkpt>
      <trkpt lat="44.1493" lon="3.20867">
        <ele>734.3</ele>
        <time>2024-11-07T11:18:32.000Z</time>
      </trkpt>
      <trkpt lat="44.1493" lon="3.20853">
        <ele>734.5</ele>
        <time>2024-11-07T11:18:35.000Z</time>
      </trkpt>
      <trkpt lat="44.14931" lon="3.20839">
        <ele>734.7</ele>
        <time>2024-11-07T11:18:38.000Z</time>
      </trkpt>
      <trkpt lat="44.14931" lon="3.20824">
        <ele>734.9</ele>
        <time>2024-11-07T11:18:42.000Z</time>
      </trkpt>
      <trkpt lat="44.14921" lon="3.20818">
        <ele>735</ele>
        <time>2024-11-07T11:18:46.000Z</time>
      </trkpt>
      <trkpt lat="44.14913" lon="3.20807">
        <ele>735.2</ele>
        <time>2024-11-07T11:18:50.000Z</time>
      </trkpt>
      <trkpt lat="44.14905" lon="3.20797">
        <ele>735.2</ele>
        <time>2024-11-07T11:18:54.000Z</time>
      </trkpt>
      <trkpt lat="44.14898" lon="3.20785">
        <ele>735.2</ele>
        <time>2024-11-07T11:18:58.000Z</time>
      </trkpt>
      <trkpt lat="44.14892" lon="3.20776">
        <ele>735.1</ele>
        <time>2024-11-07T11:19:02.000Z</time>
      </trkpt>
      <trkpt lat="44.14882" lon="3.20769">
        <ele>735</ele>
        <time>2024-11-07T11:19:07.000Z</time>
      </trkpt>
      <trkpt lat="44.14874" lon="3.20764">
        <ele>735</ele>
        <time>2024-11-07T11:19:11.000Z</time>
      </trkpt>
      <trkpt lat="44.14863" lon="3.20757">
        <ele>735</ele>
        <time>2024-11-07T11:19:15.000Z</time>
      </trkpt>
      <trkpt lat="44.14854" lon="3.20751">
        <ele>734.9</ele>
        <time>2024-11-07T11:19:18.000Z</time>
      </trkpt>
      <trkpt lat="44.14841" lon="3.20746">
        <ele>734.8</ele>
        <time>2024-11-07T11:19:21.000Z</time>
      </trkpt>
      <trkpt lat="44.14832" lon="3.20743">
        <ele>734.7</ele>
        <time>2024-11-07T11:19:23.000Z</time>
      </trkpt>
      <trkpt lat="44.14823" lon="3.2074">
        <ele>734.5</ele>
        <time>2024-11-07T11:19:25.000Z</time>
      </trkpt>
      <trkpt lat="44.14811" lon="3.20735">
        <ele>734.2</ele>
        <time>2024-11-07T11:19:28.000Z</time>
      </trkpt>
      <trkpt lat="44.14803" lon="3.2072">
        <ele>733.8</ele>
        <time>2024-11-07T11:19:31.000Z</time>
      </trkpt>
      <trkpt lat="44.14804" lon="3.20702">
        <ele>733.4</ele>
        <time>2024-11-07T11:19:34.000Z</time>
      </trkpt>
      <trkpt lat="44.14802" lon="3.20685">
        <ele>733</ele>
        <time>2024-11-07T11:19:37.000Z</time>
      </trkpt>
      <trkpt lat="44.14793" lon="3.20681">
        <ele>732.7</ele>
        <time>2024-11-07T11:19:39.000Z</time>
      </trkpt>
      <trkpt lat="44.14784" lon="3.20685">
        <ele>732.4</ele>
        <time>2024-11-07T11:19:42.000Z</time>
      </trkpt>
      <trkpt lat="44.14774" lon="3.20694">
        <ele>730.3</ele>
        <time>2024-11-07T11:21:49.000Z</time>
      </trkpt>
      <trkpt lat="44.14766" lon="3.207">
        <ele>730.2</ele>
        <time>2024-11-07T11:21:53.000Z</time>
      </trkpt>
      <trkpt lat="44.14759" lon="3.20708">
        <ele>730.3</ele>
        <time>2024-11-07T11:21:59.000Z</time>
      </trkpt>
      <trkpt lat="44.14757" lon="3.20722">
        <ele>730.5</ele>
        <time>2024-11-07T11:22:04.000Z</time>
      </trkpt>
      <trkpt lat="44.14757" lon="3.20736">
        <ele>730.8</ele>
        <time>2024-11-07T11:22:10.000Z</time>
      </trkpt>
      <trkpt lat="44.14756" lon="3.2075">
        <ele>731</ele>
        <time>2024-11-07T11:22:16.000Z</time>
      </trkpt>
      <trkpt lat="44.14754" lon="3.20764">
        <ele>731.4</ele>
        <time>2024-11-07T11:22:22.000Z</time>
      </trkpt>
      <trkpt lat="44.14752" lon="3.20779">
        <ele>731.8</ele>
        <time>2024-11-07T11:22:29.000Z</time>
      </trkpt>
      <trkpt lat="44.1475" lon="3.20793">
        <ele>732.1</ele>
        <time>2024-11-07T11:22:34.000Z</time>
      </trkpt>
      <trkpt lat="44.14746" lon="3.20808">
        <ele>732.2</ele>
        <time>2024-11-07T11:22:38.000Z</time>
      </trkpt>
      <trkpt lat="44.1474" lon="3.20818">
        <ele>732.3</ele>
        <time>2024-11-07T11:22:42.000Z</time>
      </trkpt>
      <trkpt lat="44.14736" lon="3.20832">
        <ele>732.4</ele>
        <time>2024-11-07T11:22:47.000Z</time>
      </trkpt>
      <trkpt lat="44.14732" lon="3.20843">
        <ele>732.5</ele>
        <time>2024-11-07T11:22:51.000Z</time>
      </trkpt>
      <trkpt lat="44.14726" lon="3.20853">
        <ele>732.9</ele>
        <time>2024-11-07T11:22:56.000Z</time>
      </trkpt>
      <trkpt lat="44.14719" lon="3.20865">
        <ele>733.4</ele>
        <time>2024-11-07T11:23:02.000Z</time>
      </trkpt>
      <trkpt lat="44.14713" lon="3.20876">
        <ele>733.8</ele>
        <time>2024-11-07T11:23:07.000Z</time>
      </trkpt>
      <trkpt lat="44.14708" lon="3.20886">
        <ele>734.1</ele>
        <time>2024-11-07T11:23:11.000Z</time>
      </trkpt>
      <trkpt lat="44.14701" lon="3.20895">
        <ele>734.7</ele>
        <time>2024-11-07T11:23:15.000Z</time>
      </trkpt>
      <trkpt lat="44.14692" lon="3.20904">
        <ele>734.9</ele>
        <time>2024-11-07T11:23:19.000Z</time>
      </trkpt>
      <trkpt lat="44.14684" lon="3.20911">
        <ele>734.9</ele>
        <time>2024-11-07T11:23:22.000Z</time>
      </trkpt>
      <trkpt lat="44.14676" lon="3.2092">
        <ele>735.1</ele>
        <time>2024-11-07T11:23:54.000Z</time>
      </trkpt>
      <trkpt lat="44.14666" lon="3.20921">
        <ele>735.1</ele>
        <time>2024-11-07T11:23:57.000Z</time>
      </trkpt>
      <trkpt lat="44.14654" lon="3.20925">
        <ele>735</ele>
        <time>2024-11-07T11:24:00.000Z</time>
      </trkpt>
      <trkpt lat="44.14645" lon="3.2093">
        <ele>734.8</ele>
        <time>2024-11-07T11:24:02.000Z</time>
      </trkpt>
      <trkpt lat="44.14635" lon="3.20939">
        <ele>734.4</ele>
        <time>2024-11-07T11:24:04.000Z</time>
      </trkpt>
      <trkpt lat="44.14625" lon="3.2095">
        <ele>733.9</ele>
        <time>2024-11-07T11:24:06.000Z</time>
      </trkpt>
      <trkpt lat="44.14617" lon="3.20963">
        <ele>733.5</ele>
        <time>2024-11-07T11:24:08.000Z</time>
      </trkpt>
      <trkpt lat="44.14607" lon="3.20962">
        <ele>733</ele>
        <time>2024-11-07T11:24:11.000Z</time>
      </trkpt>
      <trkpt lat="44.14598" lon="3.20963">
        <ele>732.4</ele>
        <time>2024-11-07T11:24:16.000Z</time>
      </trkpt>
      <trkpt lat="44.14588" lon="3.20963">
        <ele>732.3</ele>
        <time>2024-11-07T11:24:24.000Z</time>
      </trkpt>
      <trkpt lat="44.14581" lon="3.20971">
        <ele>733.1</ele>
        <time>2024-11-07T11:24:40.000Z</time>
      </trkpt>
      <trkpt lat="44.14574" lon="3.20981">
        <ele>733.1</ele>
        <time>2024-11-07T11:24:44.000Z</time>
      </trkpt>
      <trkpt lat="44.14566" lon="3.20991">
        <ele>733.2</ele>
        <time>2024-11-07T11:24:49.000Z</time>
      </trkpt>
      <trkpt lat="44.1456" lon="3.21003">
        <ele>733.2</ele>
        <time>2024-11-07T11:24:55.000Z</time>
      </trkpt>
      <trkpt lat="44.14554" lon="3.21014">
        <ele>733.3</ele>
        <time>2024-11-07T11:25:00.000Z</time>
      </trkpt>
      <trkpt lat="44.14546" lon="3.21022">
        <ele>733.3</ele>
        <time>2024-11-07T11:25:06.000Z</time>
      </trkpt>
      <trkpt lat="44.14538" lon="3.2103">
        <ele>733.4</ele>
        <time>2024-11-07T11:25:11.000Z</time>
      </trkpt>
      <trkpt lat="44.14531" lon="3.21037">
        <ele>733.5</ele>
        <time>2024-11-07T11:25:15.000Z</time>
      </trkpt>
      <trkpt lat="44.14523" lon="3.21046">
        <ele>733.4</ele>
        <time>2024-11-07T11:25:20.000Z</time>
      </trkpt>
      <trkpt lat="44.14515" lon="3.21053">
        <ele>732.9</ele>
        <time>2024-11-07T11:25:26.000Z</time>
      </trkpt>
      <trkpt lat="44.14506" lon="3.21056">
        <ele>732.3</ele>
        <time>2024-11-07T11:25:31.000Z</time>
      </trkpt>
      <trkpt lat="44.14497" lon="3.21058">
        <ele>731.8</ele>
        <time>2024-11-07T11:25:35.000Z</time>
      </trkpt>
      <trkpt lat="44.14487" lon="3.2106">
        <ele>731.2</ele>
        <time>2024-11-07T11:25:41.000Z</time>
      </trkpt>
      <trkpt lat="44.14478" lon="3.21058">
        <ele>730.8</ele>
        <time>2024-11-07T11:25:48.000Z</time>
      </trkpt>
      <trkpt lat="44.14469" lon="3.2105">
        <ele>730.4</ele>
        <time>2024-11-07T11:26:15.000Z</time>
      </trkpt>
      <trkpt lat="44.1446" lon="3.21043">
        <ele>730.6</ele>
        <time>2024-11-07T11:26:21.000Z</time>
      </trkpt>
      <trkpt lat="44.14451" lon="3.2104">
        <ele>730.9</ele>
        <time>2024-11-07T11:26:27.000Z</time>
      </trkpt>
      <trkpt lat="44.14442" lon="3.21035">
        <ele>731.4</ele>
        <time>2024-11-07T11:26:34.000Z</time>
      </trkpt>
      <trkpt lat="44.14437" lon="3.21025">
        <ele>732.3</ele>
        <time>2024-11-07T11:26:44.000Z</time>
      </trkpt>
      <trkpt lat="44.14428" lon="3.21024">
        <ele>733.8</ele>
        <time>2024-11-07T11:26:58.000Z</time>
      </trkpt>
      <trkpt lat="44.14422" lon="3.21035">
        <ele>734.2</ele>
        <time>2024-11-07T11:27:04.000Z</time>
      </trkpt>
      <trkpt lat="44.14415" lon="3.21046">
        <ele>734.6</ele>
        <time>2024-11-07T11:27:12.000Z</time>
      </trkpt>
      <trkpt lat="44.1441" lon="3.21057">
        <ele>734.9</ele>
        <time>2024-11-07T11:27:19.000Z</time>
      </trkpt>
      <trkpt lat="44.14403" lon="3.21066">
        <ele>735.2</ele>
        <time>2024-11-07T11:27:28.000Z</time>
      </trkpt>
      <trkpt lat="44.14398" lon="3.21076">
        <ele>735.7</ele>
        <time>2024-11-07T11:27:36.000Z</time>
      </trkpt>
      <trkpt lat="44.14391" lon="3.21085">
        <ele>736.7</ele>
        <time>2024-11-07T11:27:46.000Z</time>
      </trkpt>
      <trkpt lat="44.14381" lon="3.21093">
        <ele>738.4</ele>
        <time>2024-11-07T11:27:57.000Z</time>
      </trkpt>
      <trkpt lat="44.14377" lon="3.21104">
        <ele>740.4</ele>
        <time>2024-11-07T11:28:10.000Z</time>
      </trkpt>
      <trkpt lat="44.14382" lon="3.21115">
        <ele>741.5</ele>
        <time>2024-11-07T11:28:21.000Z</time>
      </trkpt>
      <trkpt lat="44.1439" lon="3.21106">
        <ele>741.5</ele>
        <time>2024-11-07T11:28:25.000Z</time>
      </trkpt>
      <trkpt lat="44.14395" lon="3.21095">
        <ele>741.2</ele>
        <time>2024-11-07T11:28:28.000Z</time>
      </trkpt>
      <trkpt lat="44.14403" lon="3.21086">
        <ele>740.7</ele>
        <time>2024-11-07T11:28:32.000Z</time>
      </trkpt>
      <trkpt lat="44.1441" lon="3.21076">
        <ele>739.9</ele>
        <time>2024-11-07T11:28:36.000Z</time>
      </trkpt>
      <trkpt lat="44.14419" lon="3.2107">
        <ele>739</ele>
        <time>2024-11-07T11:28:40.000Z</time>
      </trkpt>
      <trkpt lat="44.14431" lon="3.21067">
        <ele>738.1</ele>
        <time>2024-11-07T11:28:44.000Z</time>
      </trkpt>
      <trkpt lat="44.14443" lon="3.21072">
        <ele>737.3</ele>
        <time>2024-11-07T11:28:48.000Z</time>
      </trkpt>
      <trkpt lat="44.14452" lon="3.21074">
        <ele>736.6</ele>
        <time>2024-11-07T11:28:51.000Z</time>
      </trkpt>
      <trkpt lat="44.14462" lon="3.21079">
        <ele>735.7</ele>
        <time>2024-11-07T11:28:55.000Z</time>
      </trkpt>
      <trkpt lat="44.14471" lon="3.21083">
        <ele>734.9</ele>
        <time>2024-11-07T11:28:59.000Z</time>
      </trkpt>
      <trkpt lat="44.14481" lon="3.21089">
        <ele>734.2</ele>
        <time>2024-11-07T11:29:03.000Z</time>
      </trkpt>
      <trkpt lat="44.14489" lon="3.21095">
        <ele>733.6</ele>
        <time>2024-11-07T11:29:07.000Z</time>
      </trkpt>
      <trkpt lat="44.14498" lon="3.21101">
        <ele>732.9</ele>
        <time>2024-11-07T11:29:11.000Z</time>
      </trkpt>
      <trkpt lat="44.14505" lon="3.21108">
        <ele>732.1</ele>
        <time>2024-11-07T11:29:16.000Z</time>
      </trkpt>
      <trkpt lat="44.14508" lon="3.21107">
        <ele>731.7</ele>
        <time>2024-11-07T11:42:58.000Z</time>
      </trkpt>
      <trkpt lat="44.14509" lon="3.21093">
        <ele>731.8</ele>
        <time>2024-11-07T11:43:04.000Z</time>
      </trkpt>
      <trkpt lat="44.14513" lon="3.21081">
        <ele>732</ele>
        <time>2024-11-07T11:43:12.000Z</time>
      </trkpt>
      <trkpt lat="44.14514" lon="3.21068">
        <ele>732.8</ele>
        <time>2024-11-07T11:43:22.000Z</time>
      </trkpt>
      <trkpt lat="44.14514" lon="3.21054">
        <ele>734.2</ele>
        <time>2024-11-07T11:43:34.000Z</time>
      </trkpt>
      <trkpt lat="44.14511" lon="3.21041">
        <ele>736.3</ele>
        <time>2024-11-07T11:43:56.000Z</time>
      </trkpt>
      <trkpt lat="44.14508" lon="3.21029">
        <ele>737.8</ele>
        <time>2024-11-07T11:44:07.000Z</time>
      </trkpt>
      <trkpt lat="44.14506" lon="3.21016">
        <ele>740</ele>
        <time>2024-11-07T11:44:19.000Z</time>
      </trkpt>
      <trkpt lat="44.14502" lon="3.21004">
        <ele>741.6</ele>
        <time>2024-11-07T11:44:28.000Z</time>
      </trkpt>
      <trkpt lat="44.14496" lon="3.20993">
        <ele>743.3</ele>
        <time>2024-11-07T11:44:37.000Z</time>
      </trkpt>
      <trkpt lat="44.14493" lon="3.2098">
        <ele>746.5</ele>
        <time>2024-11-07T11:44:51.000Z</time>
      </trkpt>
      <trkpt lat="44.14492" lon="3.20967">
        <ele>748.5</ele>
        <time>2024-11-07T11:45:01.000Z</time>
      </trkpt>
      <trkpt lat="44.14491" lon="3.20954">
        <ele>751.6</ele>
        <time>2024-11-07T11:45:20.000Z</time>
      </trkpt>
      <trkpt lat="44.14485" lon="3.20943">
        <ele>752.5</ele>
        <time>2024-11-07T11:45:31.000Z</time>
      </trkpt>
      <trkpt lat="44.14484" lon="3.20929">
        <ele>753.4</ele>
        <time>2024-11-07T11:45:39.000Z</time>
      </trkpt>
      <trkpt lat="44.14484" lon="3.20915">
        <ele>754.2</ele>
        <time>2024-11-07T11:45:47.000Z</time>
      </trkpt>
      <trkpt lat="44.14487" lon="3.20902">
        <ele>755.2</ele>
        <time>2024-11-07T11:45:57.000Z</time>
      </trkpt>
      <trkpt lat="44.14491" lon="3.20889">
        <ele>756.2</ele>
        <time>2024-11-07T11:46:06.000Z</time>
      </trkpt>
      <trkpt lat="44.14497" lon="3.20879">
        <ele>757</ele>
        <time>2024-11-07T11:46:13.000Z</time>
      </trkpt>
      <trkpt lat="44.14504" lon="3.2087">
        <ele>757.5</ele>
        <time>2024-11-07T11:46:19.000Z</time>
      </trkpt>
      <trkpt lat="44.14502" lon="3.20855">
        <ele>757.7</ele>
        <time>2024-11-07T11:46:23.000Z</time>
      </trkpt>
      <trkpt lat="44.145" lon="3.20842">
        <ele>757.9</ele>
        <time>2024-11-07T11:46:28.000Z</time>
      </trkpt>
      <trkpt lat="44.14496" lon="3.20828">
        <ele>758.1</ele>
        <time>2024-11-07T11:46:33.000Z</time>
      </trkpt>
      <trkpt lat="44.14487" lon="3.20829">
        <ele>758.2</ele>
        <time>2024-11-07T11:46:38.000Z</time>
      </trkpt>
      <trkpt lat="44.14479" lon="3.20836">
        <ele>758.3</ele>
        <time>2024-11-07T11:46:42.000Z</time>
      </trkpt>
      <trkpt lat="44.1447" lon="3.20844">
        <ele>758.2</ele>
        <time>2024-11-07T11:46:46.000Z</time>
      </trkpt>
      <trkpt lat="44.14463" lon="3.20852">
        <ele>758.1</ele>
        <time>2024-11-07T11:46:49.000Z</time>
      </trkpt>
      <trkpt lat="44.14454" lon="3.20857">
        <ele>757.8</ele>
        <time>2024-11-07T11:46:52.000Z</time>
      </trkpt>
      <trkpt lat="44.14444" lon="3.20861">
        <ele>757.2</ele>
        <time>2024-11-07T11:46:56.000Z</time>
      </trkpt>
      <trkpt lat="44.14433" lon="3.20863">
        <ele>756.4</ele>
        <time>2024-11-07T11:47:01.000Z</time>
      </trkpt>
      <trkpt lat="44.14422" lon="3.20867">
        <ele>755.6</ele>
        <time>2024-11-07T11:47:05.000Z</time>
      </trkpt>
      <trkpt lat="44.14412" lon="3.20867">
        <ele>754.9</ele>
        <time>2024-11-07T11:47:09.000Z</time>
      </trkpt>
      <trkpt lat="44.14402" lon="3.20867">
        <ele>754.4</ele>
        <time>2024-11-07T11:47:13.000Z</time>
      </trkpt>
      <trkpt lat="44.14393" lon="3.2087">
        <ele>753.6</ele>
        <time>2024-11-07T11:47:19.000Z</time>
      </trkpt>
      <trkpt lat="44.14383" lon="3.20875">
        <ele>752.7</ele>
        <time>2024-11-07T11:47:23.000Z</time>
      </trkpt>
      <trkpt lat="44.14374" lon="3.20877">
        <ele>751.2</ele>
        <time>2024-11-07T11:47:28.000Z</time>
      </trkpt>
      <trkpt lat="44.14364" lon="3.20871">
        <ele>748.2</ele>
        <time>2024-11-07T11:47:39.000Z</time>
      </trkpt>
      <trkpt lat="44.14355" lon="3.20867">
        <ele>747.1</ele>
        <time>2024-11-07T11:47:42.000Z</time>
      </trkpt>
      <trkpt lat="44.14346" lon="3.2086">
        <ele>745.3</ele>
        <time>2024-11-07T11:47:46.000Z</time>
      </trkpt>
      <trkpt lat="44.14338" lon="3.20853">
        <ele>738.5</ele>
        <time>2024-11-07T11:48:16.000Z</time>
      </trkpt>
      <trkpt lat="44.14334" lon="3.20841">
        <ele>738.2</ele>
        <time>2024-11-07T11:48:19.000Z</time>
      </trkpt>
      <trkpt lat="44.14332" lon="3.20826">
        <ele>737.7</ele>
        <time>2024-11-07T11:48:22.000Z</time>
      </trkpt>
      <trkpt lat="44.14325" lon="3.20816">
        <ele>737.1</ele>
        <time>2024-11-07T11:48:25.000Z</time>
      </trkpt>
      <trkpt lat="44.14315" lon="3.20805">
        <ele>736.4</ele>
        <time>2024-11-07T11:48:28.000Z</time>
      </trkpt>
      <trkpt lat="44.14305" lon="3.20793">
        <ele>735.7</ele>
        <time>2024-11-07T11:48:31.000Z</time>
      </trkpt>
      <trkpt lat="44.14297" lon="3.20785">
        <ele>734.7</ele>
        <time>2024-11-07T11:48:35.000Z</time>
      </trkpt>
      <trkpt lat="44.14286" lon="3.20788">
        <ele>733.8</ele>
        <time>2024-11-07T11:48:39.000Z</time>
      </trkpt>
      <trkpt lat="44.14272" lon="3.20787">
        <ele>733</ele>
        <time>2024-11-07T11:48:42.000Z</time>
      </trkpt>
      <trkpt lat="44.14264" lon="3.2078">
        <ele>732.2</ele>
        <time>2024-11-07T11:48:44.000Z</time>
      </trkpt>
      <trkpt lat="44.1426" lon="3.20768">
        <ele>731</ele>
        <time>2024-11-07T11:48:47.000Z</time>
      </trkpt>
      <trkpt lat="44.14247" lon="3.20761">
        <ele>730</ele>
        <time>2024-11-07T11:48:50.000Z</time>
      </trkpt>
      <trkpt lat="44.14235" lon="3.20761">
        <ele>728.9</ele>
        <time>2024-11-07T11:48:53.000Z</time>
      </trkpt>
      <trkpt lat="44.14227" lon="3.2077">
        <ele>727.9</ele>
        <time>2024-11-07T11:48:56.000Z</time>
      </trkpt>
      <trkpt lat="44.14221" lon="3.20781">
        <ele>726.8</ele>
        <time>2024-11-07T11:49:00.000Z</time>
      </trkpt>
      <trkpt lat="44.14213" lon="3.20792">
        <ele>726.1</ele>
        <time>2024-11-07T11:49:03.000Z</time>
      </trkpt>
      <trkpt lat="44.14204" lon="3.20799">
        <ele>725.4</ele>
        <time>2024-11-07T11:49:06.000Z</time>
      </trkpt>
      <trkpt lat="44.14193" lon="3.20806">
        <ele>724.7</ele>
        <time>2024-11-07T11:49:09.000Z</time>
      </trkpt>
      <trkpt lat="44.14181" lon="3.20812">
        <ele>724.1</ele>
        <time>2024-11-07T11:49:12.000Z</time>
      </trkpt>
      <trkpt lat="44.14169" lon="3.20819">
        <ele>723.3</ele>
        <time>2024-11-07T11:49:15.000Z</time>
      </trkpt>
      <trkpt lat="44.14161" lon="3.20825">
        <ele>722.6</ele>
        <time>2024-11-07T11:49:17.000Z</time>
      </trkpt>
      <trkpt lat="44.14151" lon="3.20832">
        <ele>722</ele>
        <time>2024-11-07T11:49:19.000Z</time>
      </trkpt>
      <trkpt lat="44.1414" lon="3.2084">
        <ele>721.2</ele>
        <time>2024-11-07T11:49:21.000Z</time>
      </trkpt>
      <trkpt lat="44.14129" lon="3.20845">
        <ele>720.5</ele>
        <time>2024-11-07T11:49:23.000Z</time>
      </trkpt>
      <trkpt lat="44.14118" lon="3.20848">
        <ele>719.7</ele>
        <time>2024-11-07T11:49:25.000Z</time>
      </trkpt>
      <trkpt lat="44.14108" lon="3.20851">
        <ele>719</ele>
        <time>2024-11-07T11:49:27.000Z</time>
      </trkpt>
      <trkpt lat="44.14099" lon="3.20856">
        <ele>718.4</ele>
        <time>2024-11-07T11:49:29.000Z</time>
      </trkpt>
      <trkpt lat="44.14089" lon="3.20862">
        <ele>717</ele>
        <time>2024-11-07T11:49:33.000Z</time>
      </trkpt>
      <trkpt lat="44.14077" lon="3.20863">
        <ele>715.7</ele>
        <time>2024-11-07T11:49:37.000Z</time>
      </trkpt>
      <trkpt lat="44.14066" lon="3.2086">
        <ele>714.8</ele>
        <time>2024-11-07T11:49:40.000Z</time>
      </trkpt>
      <trkpt lat="44.14054" lon="3.20864">
        <ele>713.8</ele>
        <time>2024-11-07T11:49:43.000Z</time>
      </trkpt>
      <trkpt lat="44.14042" lon="3.20869">
        <ele>712.8</ele>
        <time>2024-11-07T11:49:46.000Z</time>
      </trkpt>
      <trkpt lat="44.14033" lon="3.20878">
        <ele>711.7</ele>
        <time>2024-11-07T11:49:50.000Z</time>
      </trkpt>
      <trkpt lat="44.14028" lon="3.2089">
        <ele>710.4</ele>
        <time>2024-11-07T11:49:56.000Z</time>
      </trkpt>
      <trkpt lat="44.14026" lon="3.20904">
        <ele>709.2</ele>
        <time>2024-11-07T11:50:04.000Z</time>
      </trkpt>
      <trkpt lat="44.14021" lon="3.20914">
        <ele>709</ele>
        <time>2024-11-07T11:50:08.000Z</time>
      </trkpt>
      <trkpt lat="44.14013" lon="3.20921">
        <ele>708.6</ele>
        <time>2024-11-07T11:50:13.000Z</time>
      </trkpt>
      <trkpt lat="44.14001" lon="3.20922">
        <ele>708.1</ele>
        <time>2024-11-07T11:50:17.000Z</time>
      </trkpt>
      <trkpt lat="44.13993" lon="3.20915">
        <ele>707.5</ele>
        <time>2024-11-07T11:50:22.000Z</time>
      </trkpt>
      <trkpt lat="44.13984" lon="3.20916">
        <ele>707.1</ele>
        <time>2024-11-07T11:50:27.000Z</time>
      </trkpt>
      <trkpt lat="44.13973" lon="3.2092">
        <ele>706.8</ele>
        <time>2024-11-07T11:50:31.000Z</time>
      </trkpt>
      <trkpt lat="44.13963" lon="3.20926">
        <ele>706.6</ele>
        <time>2024-11-07T11:50:34.000Z</time>
      </trkpt>
      <trkpt lat="44.13954" lon="3.20931">
        <ele>706.3</ele>
        <time>2024-11-07T11:50:36.000Z</time>
      </trkpt>
      <trkpt lat="44.13947" lon="3.20941">
        <ele>706</ele>
        <time>2024-11-07T11:50:38.000Z</time>
      </trkpt>
      <trkpt lat="44.13939" lon="3.20955">
        <ele>705.6</ele>
        <time>2024-11-07T11:50:41.000Z</time>
      </trkpt>
      <trkpt lat="44.13932" lon="3.20967">
        <ele>705.2</ele>
        <time>2024-11-07T11:50:44.000Z</time>
      </trkpt>
      <trkpt lat="44.13927" lon="3.20978">
        <ele>704.7</ele>
        <time>2024-11-07T11:50:48.000Z</time>
      </trkpt>
      <trkpt lat="44.1392" lon="3.20987">
        <ele>704.4</ele>
        <time>2024-11-07T11:50:51.000Z</time>
      </trkpt>
      <trkpt lat="44.13911" lon="3.2099">
        <ele>704.1</ele>
        <time>2024-11-07T11:50:55.000Z</time>
      </trkpt>
      <trkpt lat="44.13901" lon="3.20994">
        <ele>703.8</ele>
        <time>2024-11-07T11:51:01.000Z</time>
      </trkpt>
      <trkpt lat="44.13891" lon="3.21002">
        <ele>703.6</ele>
        <time>2024-11-07T11:51:05.000Z</time>
      </trkpt>
      <trkpt lat="44.13882" lon="3.21012">
        <ele>703.1</ele>
        <time>2024-11-07T11:51:08.000Z</time>
      </trkpt>
      <trkpt lat="44.13873" lon="3.21013">
        <ele>702</ele>
        <time>2024-11-07T11:51:12.000Z</time>
      </trkpt>
      <trkpt lat="44.13864" lon="3.21006">
        <ele>700.9</ele>
        <time>2024-11-07T11:51:17.000Z</time>
      </trkpt>
      <trkpt lat="44.13856" lon="3.21001">
        <ele>700</ele>
        <time>2024-11-07T11:51:21.000Z</time>
      </trkpt>
      <trkpt lat="44.13846" lon="3.21">
        <ele>699</ele>
        <time>2024-11-07T11:51:25.000Z</time>
      </trkpt>
      <trkpt lat="44.13834" lon="3.20997">
        <ele>698.2</ele>
        <time>2024-11-07T11:51:28.000Z</time>
      </trkpt>
      <trkpt lat="44.13824" lon="3.21003">
        <ele>696.5</ele>
        <time>2024-11-07T11:51:36.000Z</time>
      </trkpt>
      <trkpt lat="44.13813" lon="3.21014">
        <ele>695.9</ele>
        <time>2024-11-07T11:51:39.000Z</time>
      </trkpt>
      <trkpt lat="44.13806" lon="3.21022">
        <ele>695</ele>
        <time>2024-11-07T11:51:44.000Z</time>
      </trkpt>
      <trkpt lat="44.13796" lon="3.21025">
        <ele>693.5</ele>
        <time>2024-11-07T11:51:54.000Z</time>
      </trkpt>
      <trkpt lat="44.13787" lon="3.21022">
        <ele>692.9</ele>
        <time>2024-11-07T11:51:58.000Z</time>
      </trkpt>
      <trkpt lat="44.13784" lon="3.2101">
        <ele>690.8</ele>
        <time>2024-11-07T11:52:25.000Z</time>
      </trkpt>
      <trkpt lat="44.13784" lon="3.21022">
        <ele>690.7</ele>
        <time>2024-11-07T11:52:39.000Z</time>
      </trkpt>
      <trkpt lat="44.13776" lon="3.21031">
        <ele>690.2</ele>
        <time>2024-11-07T11:52:46.000Z</time>
      </trkpt>
      <trkpt lat="44.13775" lon="3.21044">
        <ele>691.4</ele>
        <time>2024-11-07T11:53:05.000Z</time>
      </trkpt>
      <trkpt lat="44.13768" lon="3.21054">
        <ele>692.7</ele>
        <time>2024-11-07T11:53:22.000Z</time>
      </trkpt>
      <trkpt lat="44.13762" lon="3.21064">
        <ele>693.6</ele>
        <time>2024-11-07T11:53:35.000Z</time>
      </trkpt>
      <trkpt lat="44.13754" lon="3.21072">
        <ele>693.5</ele>
        <time>2024-11-07T11:53:40.000Z</time>
      </trkpt>
      <trkpt lat="44.13749" lon="3.21084">
        <ele>693</ele>
        <time>2024-11-07T11:53:44.000Z</time>
      </trkpt>
      <trkpt lat="44.13742" lon="3.21095">
        <ele>692.2</ele>
        <time>2024-11-07T11:53:49.000Z</time>
      </trkpt>
      <trkpt lat="44.13735" lon="3.21103">
        <ele>691.5</ele>
        <time>2024-11-07T11:53:53.000Z</time>
      </trkpt>
      <trkpt lat="44.13731" lon="3.21115">
        <ele>690.7</ele>
        <time>2024-11-07T11:53:57.000Z</time>
      </trkpt>
      <trkpt lat="44.13727" lon="3.21128">
        <ele>689.8</ele>
        <time>2024-11-07T11:54:03.000Z</time>
      </trkpt>
      <trkpt lat="44.13722" lon="3.2114">
        <ele>687.7</ele>
        <time>2024-11-07T11:54:10.000Z</time>
      </trkpt>
      <trkpt lat="44.13717" lon="3.21151">
        <ele>686</ele>
        <time>2024-11-07T11:54:14.000Z</time>
      </trkpt>
      <trkpt lat="44.13711" lon="3.21166">
        <ele>683.1</ele>
        <time>2024-11-07T11:54:20.000Z</time>
      </trkpt>
      <trkpt lat="44.13706" lon="3.21177">
        <ele>681.3</ele>
        <time>2024-11-07T11:54:23.000Z</time>
      </trkpt>
      <trkpt lat="44.13699" lon="3.21187">
        <ele>680</ele>
        <time>2024-11-07T11:54:25.000Z</time>
      </trkpt>
      <trkpt lat="44.13693" lon="3.21199">
        <ele>678.4</ele>
        <time>2024-11-07T11:54:28.000Z</time>
      </trkpt>
      <trkpt lat="44.13686" lon="3.21212">
        <ele>676.4</ele>
        <time>2024-11-07T11:54:32.000Z</time>
      </trkpt>
      <trkpt lat="44.1368" lon="3.21224">
        <ele>675</ele>
        <time>2024-11-07T11:54:35.000Z</time>
      </trkpt>
      <trkpt lat="44.13676" lon="3.21237">
        <ele>673.3</ele>
        <time>2024-11-07T11:54:39.000Z</time>
      </trkpt>
      <trkpt lat="44.13671" lon="3.21249">
        <ele>672.1</ele>
        <time>2024-11-07T11:54:43.000Z</time>
      </trkpt>
      <trkpt lat="44.13666" lon="3.21263">
        <ele>670.9</ele>
        <time>2024-11-07T11:54:48.000Z</time>
      </trkpt>
      <trkpt lat="44.13659" lon="3.21274">
        <ele>669.8</ele>
        <time>2024-11-07T11:54:52.000Z</time>
      </trkpt>
      <trkpt lat="44.13651" lon="3.21282">
        <ele>668.7</ele>
        <time>2024-11-07T11:54:55.000Z</time>
      </trkpt>
      <trkpt lat="44.13644" lon="3.21292">
        <ele>667</ele>
        <time>2024-11-07T11:54:59.000Z</time>
      </trkpt>
      <trkpt lat="44.13636" lon="3.21304">
        <ele>665.7</ele>
        <time>2024-11-07T11:55:02.000Z</time>
      </trkpt>
      <trkpt lat="44.13629" lon="3.21318">
        <ele>664.4</ele>
        <time>2024-11-07T11:55:05.000Z</time>
      </trkpt>
      <trkpt lat="44.13624" lon="3.21331">
        <ele>663</ele>
        <time>2024-11-07T11:55:09.000Z</time>
      </trkpt>
      <trkpt lat="44.1362" lon="3.21346">
        <ele>661.9</ele>
        <time>2024-11-07T11:55:13.000Z</time>
      </trkpt>
      <trkpt lat="44.13613" lon="3.21356">
        <ele>660.9</ele>
        <time>2024-11-07T11:55:18.000Z</time>
      </trkpt>
      <trkpt lat="44.13606" lon="3.21364">
        <ele>660.3</ele>
        <time>2024-11-07T11:55:24.000Z</time>
      </trkpt>
      <trkpt lat="44.13597" lon="3.2137">
        <ele>659.9</ele>
        <time>2024-11-07T11:55:29.000Z</time>
      </trkpt>
      <trkpt lat="44.1359" lon="3.21379">
        <ele>657.9</ele>
        <time>2024-11-07T11:55:44.000Z</time>
      </trkpt>
      <trkpt lat="44.13586" lon="3.2139">
        <ele>656.2</ele>
        <time>2024-11-07T11:55:56.000Z</time>
      </trkpt>
      <trkpt lat="44.13581" lon="3.21402">
        <ele>655.5</ele>
        <time>2024-11-07T11:56:00.000Z</time>
      </trkpt>
      <trkpt lat="44.13576" lon="3.21413">
        <ele>654.8</ele>
        <time>2024-11-07T11:56:04.000Z</time>
      </trkpt>
      <trkpt lat="44.13572" lon="3.21429">
        <ele>653.8</ele>
        <time>2024-11-07T11:56:08.000Z</time>
      </trkpt>
      <trkpt lat="44.13569" lon="3.21442">
        <ele>653.1</ele>
        <time>2024-11-07T11:56:11.000Z</time>
      </trkpt>
      <trkpt lat="44.13566" lon="3.21458">
        <ele>652.3</ele>
        <time>2024-11-07T11:56:14.000Z</time>
      </trkpt>
      <trkpt lat="44.13564" lon="3.2147">
        <ele>651.7</ele>
        <time>2024-11-07T11:56:16.000Z</time>
      </trkpt>
      <trkpt lat="44.13568" lon="3.21485">
        <ele>650.9</ele>
        <time>2024-11-07T11:56:19.000Z</time>
      </trkpt>
      <trkpt lat="44.1357" lon="3.21498">
        <ele>650</ele>
        <time>2024-11-07T11:56:22.000Z</time>
      </trkpt>
      <trkpt lat="44.13576" lon="3.21513">
        <ele>648.6</ele>
        <time>2024-11-07T11:56:27.000Z</time>
      </trkpt>
      <trkpt lat="44.1358" lon="3.21529">
        <ele>647.8</ele>
        <time>2024-11-07T11:56:30.000Z</time>
      </trkpt>
      <trkpt lat="44.13581" lon="3.21541">
        <ele>646.4</ele>
        <time>2024-11-07T11:56:36.000Z</time>
      </trkpt>
      <trkpt lat="44.13576" lon="3.21554">
        <ele>644.3</ele>
        <time>2024-11-07T11:56:54.000Z</time>
      </trkpt>
      <trkpt lat="44.13568" lon="3.21572">
        <ele>643.2</ele>
        <time>2024-11-07T11:56:58.000Z</time>
      </trkpt>
      <trkpt lat="44.13564" lon="3.21584">
        <ele>642.3</ele>
        <time>2024-11-07T11:57:01.000Z</time>
      </trkpt>
      <trkpt lat="44.13565" lon="3.216">
        <ele>641.1</ele>
        <time>2024-11-07T11:57:05.000Z</time>
      </trkpt>
      <trkpt lat="44.1357" lon="3.21613">
        <ele>639.2</ele>
        <time>2024-11-07T11:57:10.000Z</time>
      </trkpt>
      <trkpt lat="44.13572" lon="3.21626">
        <ele>637.4</ele>
        <time>2024-11-07T11:57:14.000Z</time>
      </trkpt>
      <trkpt lat="44.13571" lon="3.21639">
        <ele>636.3</ele>
        <time>2024-11-07T11:57:16.000Z</time>
      </trkpt>
      <trkpt lat="44.13579" lon="3.21648">
        <ele>629.7</ele>
        <time>2024-11-07T11:57:36.000Z</time>
      </trkpt>
      <trkpt lat="44.13587" lon="3.21656">
        <ele>629</ele>
        <time>2024-11-07T11:57:39.000Z</time>
      </trkpt>
      <trkpt lat="44.136" lon="3.21664">
        <ele>628.1</ele>
        <time>2024-11-07T11:57:42.000Z</time>
      </trkpt>
      <trkpt lat="44.13609" lon="3.21669">
        <ele>627.4</ele>
        <time>2024-11-07T11:57:44.000Z</time>
      </trkpt>
      <trkpt lat="44.13618" lon="3.21671">
        <ele>626.7</ele>
        <time>2024-11-07T11:57:46.000Z</time>
      </trkpt>
      <trkpt lat="44.13627" lon="3.21674">
        <ele>625.9</ele>
        <time>2024-11-07T11:57:48.000Z</time>
      </trkpt>
      <trkpt lat="44.13638" lon="3.21682">
        <ele>624.7</ele>
        <time>2024-11-07T11:57:51.000Z</time>
      </trkpt>
      <trkpt lat="44.13644" lon="3.21696">
        <ele>623.5</ele>
        <time>2024-11-07T11:57:54.000Z</time>
      </trkpt>
      <trkpt lat="44.13654" lon="3.21699">
        <ele>621.7</ele>
        <time>2024-11-07T11:57:58.000Z</time>
      </trkpt>
      <trkpt lat="44.13664" lon="3.21696">
        <ele>620.6</ele>
        <time>2024-11-07T11:58:01.000Z</time>
      </trkpt>
      <trkpt lat="44.13675" lon="3.21697">
        <ele>619.6</ele>
        <time>2024-11-07T11:58:04.000Z</time>
      </trkpt>
      <trkpt lat="44.13684" lon="3.21696">
        <ele>618.9</ele>
        <time>2024-11-07T11:58:07.000Z</time>
      </trkpt>
      <trkpt lat="44.13696" lon="3.21699">
        <ele>618.1</ele>
        <time>2024-11-07T11:58:11.000Z</time>
      </trkpt>
      <trkpt lat="44.13705" lon="3.21696">
        <ele>617.1</ele>
        <time>2024-11-07T11:58:15.000Z</time>
      </trkpt>
      <trkpt lat="44.13709" lon="3.21708">
        <ele>613</ele>
        <time>2024-11-07T11:58:25.000Z</time>
      </trkpt>
      <trkpt lat="44.13703" lon="3.21719">
        <ele>609.5</ele>
        <time>2024-11-07T11:58:31.000Z</time>
      </trkpt>
      <trkpt lat="44.13713" lon="3.21722">
        <ele>606.3</ele>
        <time>2024-11-07T11:58:36.000Z</time>
      </trkpt>
      <trkpt lat="44.1372" lon="3.21731">
        <ele>601.4</ele>
        <time>2024-11-07T11:58:44.000Z</time>
      </trkpt>
      <trkpt lat="44.13714" lon="3.21743">
        <ele>594.6</ele>
        <time>2024-11-07T11:58:58.000Z</time>
      </trkpt>
      <trkpt lat="44.13706" lon="3.21754">
        <ele>592.3</ele>
        <time>2024-11-07T11:59:02.000Z</time>
      </trkpt>
      <trkpt lat="44.13698" lon="3.21764">
        <ele>589.3</ele>
        <time>2024-11-07T11:59:07.000Z</time>
      </trkpt>
      <trkpt lat="44.13692" lon="3.21775">
        <ele>587.2</ele>
        <time>2024-11-07T11:59:10.000Z</time>
      </trkpt>
      <trkpt lat="44.13702" lon="3.21777">
        <ele>584.1</ele>
        <time>2024-11-07T11:59:16.000Z</time>
      </trkpt>
      <trkpt lat="44.13712" lon="3.21776">
        <ele>582</ele>
        <time>2024-11-07T11:59:22.000Z</time>
      </trkpt>
      <trkpt lat="44.13719" lon="3.21769">
        <ele>580.8</ele>
        <time>2024-11-07T11:59:28.000Z</time>
      </trkpt>
      <trkpt lat="44.13726" lon="3.21757">
        <ele>580.2</ele>
        <time>2024-11-07T11:59:34.000Z</time>
      </trkpt>
      <trkpt lat="44.13731" lon="3.21746">
        <ele>580.2</ele>
        <time>2024-11-07T11:59:39.000Z</time>
      </trkpt>
      <trkpt lat="44.13735" lon="3.21733">
        <ele>580.4</ele>
        <time>2024-11-07T11:59:44.000Z</time>
      </trkpt>
      <trkpt lat="44.13741" lon="3.21722">
        <ele>580.8</ele>
        <time>2024-11-07T11:59:49.000Z</time>
      </trkpt>
      <trkpt lat="44.13749" lon="3.21714">
        <ele>581.2</ele>
        <time>2024-11-07T11:59:54.000Z</time>
      </trkpt>
      <trkpt lat="44.13756" lon="3.21707">
        <ele>581.6</ele>
        <time>2024-11-07T11:59:59.000Z</time>
      </trkpt>
      <trkpt lat="44.13766" lon="3.21702">
        <ele>582.4</ele>
        <time>2024-11-07T12:00:05.000Z</time>
      </trkpt>
      <trkpt lat="44.13776" lon="3.21703">
        <ele>583.1</ele>
        <time>2024-11-07T12:00:11.000Z</time>
      </trkpt>
      <trkpt lat="44.13785" lon="3.21709">
        <ele>583.8</ele>
        <time>2024-11-07T12:00:17.000Z</time>
      </trkpt>
      <trkpt lat="44.13795" lon="3.21714">
        <ele>584.6</ele>
        <time>2024-11-07T12:00:22.000Z</time>
      </trkpt>
      <trkpt lat="44.13803" lon="3.2172">
        <ele>585.2</ele>
        <time>2024-11-07T12:00:27.000Z</time>
      </trkpt>
      <trkpt lat="44.13811" lon="3.21726">
        <ele>585.8</ele>
        <time>2024-11-07T12:00:32.000Z</time>
      </trkpt>
      <trkpt lat="44.1382" lon="3.21733">
        <ele>586.4</ele>
        <time>2024-11-07T12:00:37.000Z</time>
      </trkpt>
      <trkpt lat="44.13829" lon="3.21739">
        <ele>587</ele>
        <time>2024-11-07T12:00:42.000Z</time>
      </trkpt>
      <trkpt lat="44.13837" lon="3.21747">
        <ele>587.7</ele>
        <time>2024-11-07T12:00:47.000Z</time>
      </trkpt>
      <trkpt lat="44.13846" lon="3.21754">
        <ele>588.7</ele>
        <time>2024-11-07T12:00:52.000Z</time>
      </trkpt>
      <trkpt lat="44.13855" lon="3.21754">
        <ele>589.6</ele>
        <time>2024-11-07T12:00:57.000Z</time>
      </trkpt>
      <trkpt lat="44.13865" lon="3.21747">
        <ele>590.5</ele>
        <time>2024-11-07T12:01:02.000Z</time>
      </trkpt>
      <trkpt lat="44.13872" lon="3.21738">
        <ele>591.1</ele>
        <time>2024-11-07T12:01:06.000Z</time>
      </trkpt>
      <trkpt lat="44.1388" lon="3.21727">
        <ele>592</ele>
        <time>2024-11-07T12:01:11.000Z</time>
      </trkpt>
      <trkpt lat="44.13884" lon="3.21715">
        <ele>592.9</ele>
        <time>2024-11-07T12:01:16.000Z</time>
      </trkpt>
      <trkpt lat="44.13891" lon="3.21705">
        <ele>593.8</ele>
        <time>2024-11-07T12:01:21.000Z</time>
      </trkpt>
      <trkpt lat="44.13898" lon="3.21695">
        <ele>594.6</ele>
        <time>2024-11-07T12:01:26.000Z</time>
      </trkpt>
      <trkpt lat="44.13903" lon="3.21684">
        <ele>595.7</ele>
        <time>2024-11-07T12:01:33.000Z</time>
      </trkpt>
      <trkpt lat="44.13912" lon="3.21676">
        <ele>596.6</ele>
        <time>2024-11-07T12:01:38.000Z</time>
      </trkpt>
      <trkpt lat="44.1392" lon="3.2167">
        <ele>597.5</ele>
        <time>2024-11-07T12:01:43.000Z</time>
      </trkpt>
      <trkpt lat="44.1393" lon="3.2167">
        <ele>598.6</ele>
        <time>2024-11-07T12:01:49.000Z</time>
      </trkpt>
      <trkpt lat="44.1394" lon="3.21669">
        <ele>599.8</ele>
        <time>2024-11-07T12:01:56.000Z</time>
      </trkpt>
      <trkpt lat="44.13949" lon="3.21669">
        <ele>600.7</ele>
        <time>2024-11-07T12:02:01.000Z</time>
      </trkpt>
      <trkpt lat="44.13959" lon="3.2167">
        <ele>601.4</ele>
        <time>2024-11-07T12:02:06.000Z</time>
      </trkpt>
      <trkpt lat="44.13968" lon="3.21671">
        <ele>602.2</ele>
        <time>2024-11-07T12:02:11.000Z</time>
      </trkpt>
      <trkpt lat="44.13978" lon="3.21671">
        <ele>603.1</ele>
        <time>2024-11-07T12:02:16.000Z</time>
      </trkpt>
      <trkpt lat="44.13988" lon="3.21671">
        <ele>603.9</ele>
        <time>2024-11-07T12:02:21.000Z</time>
      </trkpt>
      <trkpt lat="44.13998" lon="3.21671">
        <ele>604.7</ele>
        <time>2024-11-07T12:02:26.000Z</time>
      </trkpt>
      <trkpt lat="44.14009" lon="3.21673">
        <ele>605.6</ele>
        <time>2024-11-07T12:02:31.000Z</time>
      </trkpt>
      <trkpt lat="44.14018" lon="3.21673">
        <ele>606.6</ele>
        <time>2024-11-07T12:02:36.000Z</time>
      </trkpt>
      <trkpt lat="44.14029" lon="3.2167">
        <ele>607.4</ele>
        <time>2024-11-07T12:02:41.000Z</time>
      </trkpt>
      <trkpt lat="44.1404" lon="3.21666">
        <ele>608.3</ele>
        <time>2024-11-07T12:02:46.000Z</time>
      </trkpt>
      <trkpt lat="44.14049" lon="3.21664">
        <ele>609.1</ele>
        <time>2024-11-07T12:02:50.000Z</time>
      </trkpt>
      <trkpt lat="44.1406" lon="3.21663">
        <ele>610.1</ele>
        <time>2024-11-07T12:02:55.000Z</time>
      </trkpt>
      <trkpt lat="44.14071" lon="3.21662">
        <ele>611.3</ele>
        <time>2024-11-07T12:03:01.000Z</time>
      </trkpt>
      <trkpt lat="44.14082" lon="3.21659">
        <ele>612.3</ele>
        <time>2024-11-07T12:03:06.000Z</time>
      </trkpt>
      <trkpt lat="44.14091" lon="3.21653">
        <ele>613.3</ele>
        <time>2024-11-07T12:03:11.000Z</time>
      </trkpt>
      <trkpt lat="44.141" lon="3.21649">
        <ele>614.2</ele>
        <time>2024-11-07T12:03:16.000Z</time>
      </trkpt>
      <trkpt lat="44.14108" lon="3.21645">
        <ele>615.2</ele>
        <time>2024-11-07T12:03:21.000Z</time>
      </trkpt>
      <trkpt lat="44.14118" lon="3.21642">
        <ele>616.1</ele>
        <time>2024-11-07T12:03:26.000Z</time>
      </trkpt>
      <trkpt lat="44.14128" lon="3.21638">
        <ele>616.9</ele>
        <time>2024-11-07T12:03:31.000Z</time>
      </trkpt>
      <trkpt lat="44.14138" lon="3.21636">
        <ele>617.8</ele>
        <time>2024-11-07T12:03:36.000Z</time>
      </trkpt>
      <trkpt lat="44.14148" lon="3.21633">
        <ele>618.7</ele>
        <time>2024-11-07T12:03:41.000Z</time>
      </trkpt>
      <trkpt lat="44.14158" lon="3.2163">
        <ele>619.6</ele>
        <time>2024-11-07T12:03:46.000Z</time>
      </trkpt>
      <trkpt lat="44.14167" lon="3.21626">
        <ele>620.4</ele>
        <time>2024-11-07T12:03:50.000Z</time>
      </trkpt>
      <trkpt lat="44.14177" lon="3.21622">
        <ele>621.2</ele>
        <time>2024-11-07T12:03:55.000Z</time>
      </trkpt>
      <trkpt lat="44.14185" lon="3.21616">
        <ele>621.9</ele>
        <time>2024-11-07T12:04:00.000Z</time>
      </trkpt>
      <trkpt lat="44.14195" lon="3.2161">
        <ele>622.9</ele>
        <time>2024-11-07T12:04:06.000Z</time>
      </trkpt>
      <trkpt lat="44.14206" lon="3.21608">
        <ele>623.9</ele>
        <time>2024-11-07T12:04:12.000Z</time>
      </trkpt>
      <trkpt lat="44.14215" lon="3.2161">
        <ele>624.8</ele>
        <time>2024-11-07T12:04:17.000Z</time>
      </trkpt>
      <trkpt lat="44.14225" lon="3.21612">
        <ele>625.7</ele>
        <time>2024-11-07T12:04:22.000Z</time>
      </trkpt>
      <trkpt lat="44.14234" lon="3.21614">
        <ele>626.8</ele>
        <time>2024-11-07T12:04:27.000Z</time>
      </trkpt>
      <trkpt lat="44.14244" lon="3.21615">
        <ele>627.8</ele>
        <time>2024-11-07T12:04:32.000Z</time>
      </trkpt>
      <trkpt lat="44.14254" lon="3.21611">
        <ele>628.7</ele>
        <time>2024-11-07T12:04:37.000Z</time>
      </trkpt>
      <trkpt lat="44.14263" lon="3.21603">
        <ele>629.7</ele>
        <time>2024-11-07T12:04:42.000Z</time>
      </trkpt>
      <trkpt lat="44.14271" lon="3.21595">
        <ele>630.5</ele>
        <time>2024-11-07T12:04:47.000Z</time>
      </trkpt>
      <trkpt lat="44.1428" lon="3.21588">
        <ele>631.4</ele>
        <time>2024-11-07T12:04:52.000Z</time>
      </trkpt>
      <trkpt lat="44.1429" lon="3.21584">
        <ele>632.2</ele>
        <time>2024-11-07T12:04:57.000Z</time>
      </trkpt>
      <trkpt lat="44.14301" lon="3.21584">
        <ele>633.1</ele>
        <time>2024-11-07T12:05:02.000Z</time>
      </trkpt>
      <trkpt lat="44.14311" lon="3.21585">
        <ele>633.9</ele>
        <time>2024-11-07T12:05:07.000Z</time>
      </trkpt>
      <trkpt lat="44.14319" lon="3.21591">
        <ele>634.6</ele>
        <time>2024-11-07T12:05:12.000Z</time>
      </trkpt>
      <trkpt lat="44.14328" lon="3.21602">
        <ele>635.3</ele>
        <time>2024-11-07T12:05:17.000Z</time>
      </trkpt>
      <trkpt lat="44.14336" lon="3.21612">
        <ele>636</ele>
        <time>2024-11-07T12:05:21.000Z</time>
      </trkpt>
      <trkpt lat="44.14343" lon="3.2162">
        <ele>636.5</ele>
        <time>2024-11-07T12:05:25.000Z</time>
      </trkpt>
      <trkpt lat="44.1435" lon="3.2163">
        <ele>637.1</ele>
        <time>2024-11-07T12:05:29.000Z</time>
      </trkpt>
      <trkpt lat="44.14357" lon="3.21639">
        <ele>637.6</ele>
        <time>2024-11-07T12:05:33.000Z</time>
      </trkpt>
      <trkpt lat="44.14364" lon="3.21647">
        <ele>638.1</ele>
        <time>2024-11-07T12:05:37.000Z</time>
      </trkpt>
      <trkpt lat="44.14372" lon="3.21655">
        <ele>638.7</ele>
        <time>2024-11-07T12:05:41.000Z</time>
      </trkpt>
      <trkpt lat="44.14381" lon="3.21662">
        <ele>639.3</ele>
        <time>2024-11-07T12:05:45.000Z</time>
      </trkpt>
      <trkpt lat="44.1439" lon="3.21667">
        <ele>639.8</ele>
        <time>2024-11-07T12:05:49.000Z</time>
      </trkpt>
      <trkpt lat="44.14399" lon="3.21673">
        <ele>640.2</ele>
        <time>2024-11-07T12:05:53.000Z</time>
      </trkpt>
      <trkpt lat="44.14409" lon="3.21675">
        <ele>640.6</ele>
        <time>2024-11-07T12:05:57.000Z</time>
      </trkpt>
      <trkpt lat="44.14417" lon="3.21679">
        <ele>640.9</ele>
        <time>2024-11-07T12:06:01.000Z</time>
      </trkpt>
      <trkpt lat="44.14427" lon="3.21683">
        <ele>641.3</ele>
        <time>2024-11-07T12:06:05.000Z</time>
      </trkpt>
      <trkpt lat="44.14438" lon="3.21687">
        <ele>641.7</ele>
        <time>2024-11-07T12:06:09.000Z</time>
      </trkpt>
      <trkpt lat="44.14449" lon="3.21691">
        <ele>642</ele>
        <time>2024-11-07T12:06:13.000Z</time>
      </trkpt>
      <trkpt lat="44.14461" lon="3.21691">
        <ele>642.4</ele>
        <time>2024-11-07T12:06:17.000Z</time>
      </trkpt>
      <trkpt lat="44.1447" lon="3.21691">
        <ele>642.6</ele>
        <time>2024-11-07T12:06:20.000Z</time>
      </trkpt>
      <trkpt lat="44.1448" lon="3.21694">
        <ele>642.9</ele>
        <time>2024-11-07T12:06:24.000Z</time>
      </trkpt>
      <trkpt lat="44.14489" lon="3.217">
        <ele>643.2</ele>
        <time>2024-11-07T12:06:28.000Z</time>
      </trkpt>
      <trkpt lat="44.14499" lon="3.21701">
        <ele>643.5</ele>
        <time>2024-11-07T12:06:32.000Z</time>
      </trkpt>
      <trkpt lat="44.14508" lon="3.21696">
        <ele>643.8</ele>
        <time>2024-11-07T12:06:36.000Z</time>
      </trkpt>
      <trkpt lat="44.14518" lon="3.21692">
        <ele>644.1</ele>
        <time>2024-11-07T12:06:40.000Z</time>
      </trkpt>
      <trkpt lat="44.14528" lon="3.21688">
        <ele>644.4</ele>
        <time>2024-11-07T12:06:44.000Z</time>
      </trkpt>
      <trkpt lat="44.14539" lon="3.21683">
        <ele>644.8</ele>
        <time>2024-11-07T12:06:49.000Z</time>
      </trkpt>
      <trkpt lat="44.14548" lon="3.21681">
        <ele>645.1</ele>
        <time>2024-11-07T12:06:53.000Z</time>
      </trkpt>
      <trkpt lat="44.14557" lon="3.21679">
        <ele>645.5</ele>
        <time>2024-11-07T12:06:58.000Z</time>
      </trkpt>
      <trkpt lat="44.14565" lon="3.21684">
        <ele>646.6</ele>
        <time>2024-11-07T12:07:17.000Z</time>
      </trkpt>
      <trkpt lat="44.14575" lon="3.21684">
        <ele>647.2</ele>
        <time>2024-11-07T12:07:27.000Z</time>
      </trkpt>
      <trkpt lat="44.14582" lon="3.21693">
        <ele>647.6</ele>
        <time>2024-11-07T12:07:34.000Z</time>
      </trkpt>
      <trkpt lat="44.14591" lon="3.21695">
        <ele>648.1</ele>
        <time>2024-11-07T12:07:45.000Z</time>
      </trkpt>
      <trkpt lat="44.14601" lon="3.21696">
        <ele>648.6</ele>
        <time>2024-11-07T12:07:54.000Z</time>
      </trkpt>
      <trkpt lat="44.1461" lon="3.21694">
        <ele>649.2</ele>
        <time>2024-11-07T12:08:04.000Z</time>
      </trkpt>
      <trkpt lat="44.14618" lon="3.21687">
        <ele>649.7</ele>
        <time>2024-11-07T12:08:12.000Z</time>
      </trkpt>
      <trkpt lat="44.14626" lon="3.21679">
        <ele>650.4</ele>
        <time>2024-11-07T12:08:20.000Z</time>
      </trkpt>
      <trkpt lat="44.14633" lon="3.21671">
        <ele>650.9</ele>
        <time>2024-11-07T12:08:27.000Z</time>
      </trkpt>
      <trkpt lat="44.1464" lon="3.21663">
        <ele>651.5</ele>
        <time>2024-11-07T12:08:34.000Z</time>
      </trkpt>
      <trkpt lat="44.14647" lon="3.21653">
        <ele>651.8</ele>
        <time>2024-11-07T12:08:39.000Z</time>
      </trkpt>
      <trkpt lat="44.14654" lon="3.21644">
        <ele>652.3</ele>
        <time>2024-11-07T12:08:44.000Z</time>
      </trkpt>
      <trkpt lat="44.14661" lon="3.21636">
        <ele>652.9</ele>
        <time>2024-11-07T12:08:50.000Z</time>
      </trkpt>
      <trkpt lat="44.1467" lon="3.21628">
        <ele>653.5</ele>
        <time>2024-11-07T12:08:56.000Z</time>
      </trkpt>
      <trkpt lat="44.14678" lon="3.21621">
        <ele>654.1</ele>
        <time>2024-11-07T12:09:02.000Z</time>
      </trkpt>
      <trkpt lat="44.14684" lon="3.21611">
        <ele>657</ele>
        <time>2024-11-07T12:09:47.000Z</time>
      </trkpt>
      <trkpt lat="44.14685" lon="3.21598">
        <ele>657.5</ele>
        <time>2024-11-07T12:09:57.000Z</time>
      </trkpt>
      <trkpt lat="44.14692" lon="3.21588">
        <ele>658.5</ele>
        <time>2024-11-07T12:10:06.000Z</time>
      </trkpt>
      <trkpt lat="44.14687" lon="3.21577">
        <ele>660</ele>
        <time>2024-11-07T12:10:16.000Z</time>
      </trkpt>
      <trkpt lat="44.14693" lon="3.21589">
        <ele>661.2</ele>
        <time>2024-11-07T12:10:30.000Z</time>
      </trkpt>
      <trkpt lat="44.14699" lon="3.216">
        <ele>661.4</ele>
        <time>2024-11-07T12:10:35.000Z</time>
      </trkpt>
      <trkpt lat="44.14708" lon="3.21608">
        <ele>661.7</ele>
        <time>2024-11-07T12:10:42.000Z</time>
      </trkpt>
      <trkpt lat="44.14717" lon="3.2161">
        <ele>662</ele>
        <time>2024-11-07T12:10:48.000Z</time>
      </trkpt>
      <trkpt lat="44.14726" lon="3.21611">
        <ele>662.4</ele>
        <time>2024-11-07T12:10:55.000Z</time>
      </trkpt>
      <trkpt lat="44.14724" lon="3.21598">
        <ele>664</ele>
        <time>2024-11-07T12:11:07.000Z</time>
      </trkpt>
      <trkpt lat="44.14717" lon="3.2159">
        <ele>665.2</ele>
        <time>2024-11-07T12:11:15.000Z</time>
      </trkpt>
      <trkpt lat="44.14712" lon="3.21579">
        <ele>666.4</ele>
        <time>2024-11-07T12:11:23.000Z</time>
      </trkpt>
      <trkpt lat="44.14721" lon="3.21573">
        <ele>667.9</ele>
        <time>2024-11-07T12:11:33.000Z</time>
      </trkpt>
      <trkpt lat="44.1473" lon="3.2157">
        <ele>669.5</ele>
        <time>2024-11-07T12:11:41.000Z</time>
      </trkpt>
      <trkpt lat="44.14739" lon="3.21566">
        <ele>671.1</ele>
        <time>2024-11-07T12:11:49.000Z</time>
      </trkpt>
      <trkpt lat="44.14748" lon="3.21562">
        <ele>672.8</ele>
        <time>2024-11-07T12:11:58.000Z</time>
      </trkpt>
      <trkpt lat="44.14757" lon="3.21558">
        <ele>674.4</ele>
        <time>2024-11-07T12:12:07.000Z</time>
      </trkpt>
      <trkpt lat="44.14766" lon="3.21558">
        <ele>675.7</ele>
        <time>2024-11-07T12:12:15.000Z</time>
      </trkpt>
      <trkpt lat="44.14776" lon="3.21557">
        <ele>677.4</ele>
        <time>2024-11-07T12:12:24.000Z</time>
      </trkpt>
      <trkpt lat="44.14785" lon="3.21557">
        <ele>679.3</ele>
        <time>2024-11-07T12:12:33.000Z</time>
      </trkpt>
      <trkpt lat="44.14795" lon="3.21561">
        <ele>681.2</ele>
        <time>2024-11-07T12:12:42.000Z</time>
      </trkpt>
      <trkpt lat="44.14804" lon="3.21565">
        <ele>683.3</ele>
        <time>2024-11-07T12:12:52.000Z</time>
      </trkpt>
      <trkpt lat="44.14813" lon="3.2157">
        <ele>685.4</ele>
        <time>2024-11-07T12:13:02.000Z</time>
      </trkpt>
      <trkpt lat="44.14822" lon="3.21575">
        <ele>687.2</ele>
        <time>2024-11-07T12:13:11.000Z</time>
      </trkpt>
      <trkpt lat="44.14832" lon="3.21576">
        <ele>688.6</ele>
        <time>2024-11-07T12:13:18.000Z</time>
      </trkpt>
      <trkpt lat="44.14837" lon="3.21566">
        <ele>690.1</ele>
        <time>2024-11-07T12:13:26.000Z</time>
      </trkpt>
      <trkpt lat="44.14832" lon="3.21554">
        <ele>692</ele>
        <time>2024-11-07T12:13:36.000Z</time>
      </trkpt>
      <trkpt lat="44.14829" lon="3.21542">
        <ele>693.7</ele>
        <time>2024-11-07T12:13:45.000Z</time>
      </trkpt>
      <trkpt lat="44.14825" lon="3.2153">
        <ele>695</ele>
        <time>2024-11-07T12:13:53.000Z</time>
      </trkpt>
      <trkpt lat="44.14822" lon="3.21518">
        <ele>696.6</ele>
        <time>2024-11-07T12:14:02.000Z</time>
      </trkpt>
      <trkpt lat="44.14818" lon="3.21506">
        <ele>698.3</ele>
        <time>2024-11-07T12:14:12.000Z</time>
      </trkpt>
      <trkpt lat="44.14812" lon="3.21496">
        <ele>700.2</ele>
        <time>2024-11-07T12:14:22.000Z</time>
      </trkpt>
      <trkpt lat="44.14819" lon="3.21487">
        <ele>704</ele>
        <time>2024-11-07T12:14:41.000Z</time>
      </trkpt>
      <trkpt lat="44.14829" lon="3.21486">
        <ele>705.7</ele>
        <time>2024-11-07T12:14:50.000Z</time>
      </trkpt>
      <trkpt lat="44.1484" lon="3.21484">
        <ele>707.1</ele>
        <time>2024-11-07T12:14:58.000Z</time>
      </trkpt>
      <trkpt lat="44.14849" lon="3.21483">
        <ele>708.2</ele>
        <time>2024-11-07T12:15:05.000Z</time>
      </trkpt>
      <trkpt lat="44.14858" lon="3.21478">
        <ele>709.3</ele>
        <time>2024-11-07T12:15:12.000Z</time>
      </trkpt>
      <trkpt lat="44.14868" lon="3.21477">
        <ele>710.9</ele>
        <time>2024-11-07T12:15:22.000Z</time>
      </trkpt>
      <trkpt lat="44.14878" lon="3.21476">
        <ele>711.4</ele>
        <time>2024-11-07T12:15:27.000Z</time>
      </trkpt>
      <trkpt lat="44.14888" lon="3.21475">
        <ele>711.8</ele>
        <time>2024-11-07T12:15:31.000Z</time>
      </trkpt>
      <trkpt lat="44.14899" lon="3.21472">
        <ele>712.2</ele>
        <time>2024-11-07T12:15:35.000Z</time>
      </trkpt>
      <trkpt lat="44.1491" lon="3.21468">
        <ele>712.5</ele>
        <time>2024-11-07T12:15:39.000Z</time>
      </trkpt>
      <trkpt lat="44.1492" lon="3.21464">
        <ele>713.1</ele>
        <time>2024-11-07T12:15:43.000Z</time>
      </trkpt>
      <trkpt lat="44.1493" lon="3.21462">
        <ele>713.7</ele>
        <time>2024-11-07T12:15:47.000Z</time>
      </trkpt>
      <trkpt lat="44.1494" lon="3.21455">
        <ele>714.5</ele>
        <time>2024-11-07T12:15:51.000Z</time>
      </trkpt>
      <trkpt lat="44.14947" lon="3.21443">
        <ele>715.4</ele>
        <time>2024-11-07T12:15:56.000Z</time>
      </trkpt>
      <trkpt lat="44.14953" lon="3.21432">
        <ele>716.4</ele>
        <time>2024-11-07T12:16:01.000Z</time>
      </trkpt>
      <trkpt lat="44.14957" lon="3.2142">
        <ele>717.8</ele>
        <time>2024-11-07T12:16:07.000Z</time>
      </trkpt>
      <trkpt lat="44.1496" lon="3.21408">
        <ele>719.2</ele>
        <time>2024-11-07T12:16:13.000Z</time>
      </trkpt>
      <trkpt lat="44.14963" lon="3.21395">
        <ele>720.5</ele>
        <time>2024-11-07T12:16:20.000Z</time>
      </trkpt>
      <trkpt lat="44.14964" lon="3.21382">
        <ele>721.8</ele>
        <time>2024-11-07T12:16:27.000Z</time>
      </trkpt>
      <trkpt lat="44.14966" lon="3.21369">
        <ele>722.9</ele>
        <time>2024-11-07T12:16:33.000Z</time>
      </trkpt>
      <trkpt lat="44.14969" lon="3.21356">
        <ele>724</ele>
        <time>2024-11-07T12:16:39.000Z</time>
      </trkpt>
      <trkpt lat="44.14971" lon="3.21342">
        <ele>725.3</ele>
        <time>2024-11-07T12:16:46.000Z</time>
      </trkpt>
      <trkpt lat="44.14973" lon="3.2133">
        <ele>726.3</ele>
        <time>2024-11-07T12:16:52.000Z</time>
      </trkpt>
      <trkpt lat="44.14975" lon="3.21315">
        <ele>727.5</ele>
        <time>2024-11-07T12:16:59.000Z</time>
      </trkpt>
      <trkpt lat="44.14976" lon="3.21303">
        <ele>728.4</ele>
        <time>2024-11-07T12:17:04.000Z</time>
      </trkpt>
      <trkpt lat="44.14978" lon="3.2129">
        <ele>729.4</ele>
        <time>2024-11-07T12:17:10.000Z</time>
      </trkpt>
      <trkpt lat="44.14979" lon="3.21277">
        <ele>731.1</ele>
        <time>2024-11-07T12:17:19.000Z</time>
      </trkpt>
      <trkpt lat="44.14981" lon="3.21265">
        <ele>732.7</ele>
        <time>2024-11-07T12:17:27.000Z</time>
      </trkpt>
      <trkpt lat="44.14984" lon="3.21252">
        <ele>734.4</ele>
        <time>2024-11-07T12:17:36.000Z</time>
      </trkpt>
      <trkpt lat="44.14985" lon="3.21239">
        <ele>737.3</ele>
        <time>2024-11-07T12:17:54.000Z</time>
      </trkpt>
      <trkpt lat="44.14986" lon="3.21226">
        <ele>738.3</ele>
        <time>2024-11-07T12:18:03.000Z</time>
      </trkpt>
      <trkpt lat="44.14986" lon="3.21214">
        <ele>739.2</ele>
        <time>2024-11-07T12:18:10.000Z</time>
      </trkpt>
      <trkpt lat="44.14985" lon="3.21201">
        <ele>740.6</ele>
        <time>2024-11-07T12:18:19.000Z</time>
      </trkpt>
      <trkpt lat="44.14982" lon="3.21189">
        <ele>741.7</ele>
        <time>2024-11-07T12:18:25.000Z</time>
      </trkpt>
      <trkpt lat="44.1498" lon="3.21176">
        <ele>743.2</ele>
        <time>2024-11-07T12:18:32.000Z</time>
      </trkpt>
      <trkpt lat="44.1498" lon="3.21162">
        <ele>744.6</ele>
        <time>2024-11-07T12:18:39.000Z</time>
      </trkpt>
      <trkpt lat="44.14977" lon="3.21149">
        <ele>745.3</ele>
        <time>2024-11-07T12:18:44.000Z</time>
      </trkpt>
      <trkpt lat="44.14974" lon="3.21135">
        <ele>746.1</ele>
        <time>2024-11-07T12:18:50.000Z</time>
      </trkpt>
      <trkpt lat="44.14971" lon="3.21122">
        <ele>746.8</ele>
        <time>2024-11-07T12:18:56.000Z</time>
      </trkpt>
      <trkpt lat="44.14966" lon="3.2111">
        <ele>747.5</ele>
        <time>2024-11-07T12:19:01.000Z</time>
      </trkpt>
      <trkpt lat="44.1496" lon="3.21097">
        <ele>748.3</ele>
        <time>2024-11-07T12:19:07.000Z</time>
      </trkpt>
      <trkpt lat="44.14955" lon="3.21086">
        <ele>748.9</ele>
        <time>2024-11-07T12:19:12.000Z</time>
      </trkpt>
      <trkpt lat="44.14951" lon="3.21075">
        <ele>749.4</ele>
        <time>2024-11-07T12:19:17.000Z</time>
      </trkpt>
      <trkpt lat="44.14948" lon="3.21062">
        <ele>749.8</ele>
        <time>2024-11-07T12:19:22.000Z</time>
      </trkpt>
      <trkpt lat="44.14946" lon="3.21047">
        <ele>750.2</ele>
        <time>2024-11-07T12:19:26.000Z</time>
      </trkpt>
      <trkpt lat="44.14942" lon="3.21033">
        <ele>750.6</ele>
        <time>2024-11-07T12:19:30.000Z</time>
      </trkpt>
      <trkpt lat="44.14939" lon="3.21021">
        <ele>751.1</ele>
        <time>2024-11-07T12:19:34.000Z</time>
      </trkpt>
      <trkpt lat="44.14935" lon="3.21009">
        <ele>751.6</ele>
        <time>2024-11-07T12:19:38.000Z</time>
      </trkpt>
      <trkpt lat="44.1493" lon="3.20998">
        <ele>752.2</ele>
        <time>2024-11-07T12:19:42.000Z</time>
      </trkpt>
      <trkpt lat="44.14924" lon="3.20985">
        <ele>752.8</ele>
        <time>2024-11-07T12:19:47.000Z</time>
      </trkpt>
      <trkpt lat="44.14917" lon="3.20974">
        <ele>753.4</ele>
        <time>2024-11-07T12:19:52.000Z</time>
      </trkpt>
      <trkpt lat="44.14911" lon="3.20964">
        <ele>753.8</ele>
        <time>2024-11-07T12:19:56.000Z</time>
      </trkpt>
      <trkpt lat="44.14909" lon="3.20948">
        <ele>754.2</ele>
        <time>2024-11-07T12:20:01.000Z</time>
      </trkpt>
      <trkpt lat="44.1491" lon="3.20934">
        <ele>754.5</ele>
        <time>2024-11-07T12:20:04.000Z</time>
      </trkpt>
      <trkpt lat="44.14911" lon="3.20921">
        <ele>754.7</ele>
        <time>2024-11-07T12:20:07.000Z</time>
      </trkpt>
      <trkpt lat="44.14913" lon="3.20906">
        <ele>755</ele>
        <time>2024-11-07T12:20:10.000Z</time>
      </trkpt>
      <trkpt lat="44.14916" lon="3.20893">
        <ele>755.2</ele>
        <time>2024-11-07T12:20:13.000Z</time>
      </trkpt>
      <trkpt lat="44.14923" lon="3.20881">
        <ele>755.5</ele>
        <time>2024-11-07T12:20:17.000Z</time>
      </trkpt>
      <trkpt lat="44.14928" lon="3.20869">
        <ele>755.7</ele>
        <time>2024-11-07T12:20:20.000Z</time>
      </trkpt>
      <trkpt lat="44.14929" lon="3.20854">
        <ele>756</ele>
        <time>2024-11-07T12:20:23.000Z</time>
      </trkpt>
      <trkpt lat="44.14929" lon="3.20839">
        <ele>756.2</ele>
        <time>2024-11-07T12:20:26.000Z</time>
      </trkpt>
      <trkpt lat="44.1493" lon="3.20825">
        <ele>756.4</ele>
        <time>2024-11-07T12:20:29.000Z</time>
      </trkpt>
      <trkpt lat="44.14928" lon="3.20813">
        <ele>756.5</ele>
        <time>2024-11-07T12:20:32.000Z</time>
      </trkpt>
      <trkpt lat="44.1492" lon="3.208">
        <ele>756.7</ele>
        <time>2024-11-07T12:20:36.000Z</time>
      </trkpt>
      <trkpt lat="44.14911" lon="3.20795">
        <ele>756.8</ele>
        <time>2024-11-07T12:20:40.000Z</time>
      </trkpt>
      <trkpt lat="44.14902" lon="3.20792">
        <ele>756.9</ele>
        <time>2024-11-07T12:20:44.000Z</time>
      </trkpt>
      <trkpt lat="44.14895" lon="3.2078">
        <ele>757</ele>
        <time>2024-11-07T12:20:49.000Z</time>
      </trkpt>
      <trkpt lat="44.14886" lon="3.20772">
        <ele>757.2</ele>
        <time>2024-11-07T12:20:55.000Z</time>
      </trkpt>
      <trkpt lat="44.14877" lon="3.20767">
        <ele>757.2</ele>
        <time>2024-11-07T12:21:00.000Z</time>
      </trkpt>
      <trkpt lat="44.14866" lon="3.20761">
        <ele>757.3</ele>
        <time>2024-11-07T12:21:05.000Z</time>
      </trkpt>
      <trkpt lat="44.14858" lon="3.20756">
        <ele>757.4</ele>
        <time>2024-11-07T12:21:09.000Z</time>
      </trkpt>
      <trkpt lat="44.14846" lon="3.20751">
        <ele>757.4</ele>
        <time>2024-11-07T12:21:13.000Z</time>
      </trkpt>
      <trkpt lat="44.14836" lon="3.20748">
        <ele>757.3</ele>
        <time>2024-11-07T12:21:16.000Z</time>
      </trkpt>
      <trkpt lat="44.14824" lon="3.20745">
        <ele>757.1</ele>
        <time>2024-11-07T12:21:19.000Z</time>
      </trkpt>
      <trkpt lat="44.14812" lon="3.20741">
        <ele>756.9</ele>
        <time>2024-11-07T12:21:22.000Z</time>
      </trkpt>
      <trkpt lat="44.14804" lon="3.20729">
        <ele>756.7</ele>
        <time>2024-11-07T12:21:25.000Z</time>
      </trkpt>
      <trkpt lat="44.14801" lon="3.20713">
        <ele>756.5</ele>
        <time>2024-11-07T12:21:28.000Z</time>
      </trkpt>
      <trkpt lat="44.14803" lon="3.20696">
        <ele>756.2</ele>
        <time>2024-11-07T12:21:31.000Z</time>
      </trkpt>
      <trkpt lat="44.14797" lon="3.20682">
        <ele>755.8</ele>
        <time>2024-11-07T12:21:34.000Z</time>
      </trkpt>
      <trkpt lat="44.14788" lon="3.2068">
        <ele>755.3</ele>
        <time>2024-11-07T12:21:38.000Z</time>
      </trkpt>
      <trkpt lat="44.1478" lon="3.20689">
        <ele>752.5</ele>
        <time>2024-11-07T12:22:44.000Z</time>
      </trkpt>
      <trkpt lat="44.1477" lon="3.20695">
        <ele>752.6</ele>
        <time>2024-11-07T12:22:47.000Z</time>
      </trkpt>
      <trkpt lat="44.14761" lon="3.20704">
        <ele>752.6</ele>
        <time>2024-11-07T12:22:51.000Z</time>
      </trkpt>
      <trkpt lat="44.14756" lon="3.20715">
        <ele>752.7</ele>
        <time>2024-11-07T12:22:56.000Z</time>
      </trkpt>
      <trkpt lat="44.14754" lon="3.20729">
        <ele>752.8</ele>
        <time>2024-11-07T12:23:02.000Z</time>
      </trkpt>
      <trkpt lat="44.14753" lon="3.20742">
        <ele>753.1</ele>
        <time>2024-11-07T12:23:07.000Z</time>
      </trkpt>
      <trkpt lat="44.14751" lon="3.20756">
        <ele>753.4</ele>
        <time>2024-11-07T12:23:12.000Z</time>
      </trkpt>
      <trkpt lat="44.1475" lon="3.20769">
        <ele>753.7</ele>
        <time>2024-11-07T12:23:16.000Z</time>
      </trkpt>
      <trkpt lat="44.14748" lon="3.20783">
        <ele>754</ele>
        <time>2024-11-07T12:23:21.000Z</time>
      </trkpt>
      <trkpt lat="44.14747" lon="3.20796">
        <ele>754.2</ele>
        <time>2024-11-07T12:23:25.000Z</time>
      </trkpt>
      <trkpt lat="44.14744" lon="3.20811">
        <ele>754.4</ele>
        <time>2024-11-07T12:23:29.000Z</time>
      </trkpt>
      <trkpt lat="44.14738" lon="3.20823">
        <ele>754.5</ele>
        <time>2024-11-07T12:23:33.000Z</time>
      </trkpt>
      <trkpt lat="44.14734" lon="3.20838">
        <ele>754.7</ele>
        <time>2024-11-07T12:23:38.000Z</time>
      </trkpt>
      <trkpt lat="44.1473" lon="3.20851">
        <ele>754.8</ele>
        <time>2024-11-07T12:23:43.000Z</time>
      </trkpt>
      <trkpt lat="44.14724" lon="3.20863">
        <ele>755.3</ele>
        <time>2024-11-07T12:23:48.000Z</time>
      </trkpt>
      <trkpt lat="44.14718" lon="3.20872">
        <ele>755.7</ele>
        <time>2024-11-07T12:23:53.000Z</time>
      </trkpt>
      <trkpt lat="44.14711" lon="3.20884">
        <ele>756.2</ele>
        <time>2024-11-07T12:23:58.000Z</time>
      </trkpt>
      <trkpt lat="44.14705" lon="3.20894">
        <ele>756.5</ele>
        <time>2024-11-07T12:24:02.000Z</time>
      </trkpt>
      <trkpt lat="44.14698" lon="3.20905">
        <ele>756.8</ele>
        <time>2024-11-07T12:24:06.000Z</time>
      </trkpt>
      <trkpt lat="44.14689" lon="3.20915">
        <ele>756.9</ele>
        <time>2024-11-07T12:24:10.000Z</time>
      </trkpt>
      <trkpt lat="44.14678" lon="3.2092">
        <ele>756.9</ele>
        <time>2024-11-07T12:24:14.000Z</time>
      </trkpt>
      <trkpt lat="44.14668" lon="3.20922">
        <ele>757</ele>
        <time>2024-11-07T12:24:17.000Z</time>
      </trkpt>
      <trkpt lat="44.14656" lon="3.20926">
        <ele>756.9</ele>
        <time>2024-11-07T12:24:20.000Z</time>
      </trkpt>
      <trkpt lat="44.14647" lon="3.20931">
        <ele>756.6</ele>
        <time>2024-11-07T12:24:22.000Z</time>
      </trkpt>
      <trkpt lat="44.14636" lon="3.20938">
        <ele>756.2</ele>
        <time>2024-11-07T12:24:24.000Z</time>
      </trkpt>
      <trkpt lat="44.14625" lon="3.20949">
        <ele>755.8</ele>
        <time>2024-11-07T12:24:26.000Z</time>
      </trkpt>
      <trkpt lat="44.14617" lon="3.20964">
        <ele>755.4</ele>
        <time>2024-11-07T12:24:28.000Z</time>
      </trkpt>
      <trkpt lat="44.14607" lon="3.20968">
        <ele>754.9</ele>
        <time>2024-11-07T12:24:31.000Z</time>
      </trkpt>
      <trkpt lat="44.14597" lon="3.20969">
        <ele>754.5</ele>
        <time>2024-11-07T12:24:37.000Z</time>
      </trkpt>
      <trkpt lat="44.14587" lon="3.20965">
        <ele>754.6</ele>
        <time>2024-11-07T12:24:44.000Z</time>
      </trkpt>
      <trkpt lat="44.14583" lon="3.20953">
        <ele>755</ele>
        <time>2024-11-07T12:24:50.000Z</time>
      </trkpt>
      <trkpt lat="44.14576" lon="3.20945">
        <ele>755.6</ele>
        <time>2024-11-07T12:24:57.000Z</time>
      </trkpt>
      <trkpt lat="44.14568" lon="3.20936">
        <ele>756.3</ele>
        <time>2024-11-07T12:25:04.000Z</time>
      </trkpt>
      <trkpt lat="44.1456" lon="3.20928">
        <ele>757.4</ele>
        <time>2024-11-07T12:25:11.000Z</time>
      </trkpt>
      <trkpt lat="44.14552" lon="3.20922">
        <ele>758.3</ele>
        <time>2024-11-07T12:25:19.000Z</time>
      </trkpt>
      <trkpt lat="44.14543" lon="3.20916">
        <ele>759.3</ele>
        <time>2024-11-07T12:25:27.000Z</time>
      </trkpt>
      <trkpt lat="44.14533" lon="3.20915">
        <ele>760.6</ele>
        <time>2024-11-07T12:25:36.000Z</time>
      </trkpt>
      <trkpt lat="44.14524" lon="3.20916">
        <ele>762.2</ele>
        <time>2024-11-07T12:25:44.000Z</time>
      </trkpt>
      <trkpt lat="44.14514" lon="3.20915">
        <ele>763.5</ele>
        <time>2024-11-07T12:25:52.000Z</time>
      </trkpt>
      <trkpt lat="44.14505" lon="3.20919">
        <ele>765</ele>
        <time>2024-11-07T12:26:00.000Z</time>
      </trkpt>
      <trkpt lat="44.14498" lon="3.20927">
        <ele>766.2</ele>
        <time>2024-11-07T12:26:07.000Z</time>
      </trkpt>
      <trkpt lat="44.14496" lon="3.2094">
        <ele>767.1</ele>
        <time>2024-11-07T12:26:13.000Z</time>
      </trkpt>
      <trkpt lat="44.14493" lon="3.20953">
        <ele>768.2</ele>
        <time>2024-11-07T12:26:20.000Z</time>
      </trkpt>
      <trkpt lat="44.14485" lon="3.20945">
        <ele>769.6</ele>
        <time>2024-11-07T12:26:29.000Z</time>
      </trkpt>
      <trkpt lat="44.14483" lon="3.20931">
        <ele>770.7</ele>
        <time>2024-11-07T12:26:36.000Z</time>
      </trkpt>
      <trkpt lat="44.14483" lon="3.20918">
        <ele>771.6</ele>
        <time>2024-11-07T12:26:43.000Z</time>
      </trkpt>
      <trkpt lat="44.14484" lon="3.20905">
        <ele>772.5</ele>
        <time>2024-11-07T12:26:49.000Z</time>
      </trkpt>
      <trkpt lat="44.14488" lon="3.20893">
        <ele>773.6</ele>
        <time>2024-11-07T12:26:56.000Z</time>
      </trkpt>
      <trkpt lat="44.14494" lon="3.20883">
        <ele>774.7</ele>
        <time>2024-11-07T12:27:02.000Z</time>
      </trkpt>
      <trkpt lat="44.145" lon="3.20874">
        <ele>775.6</ele>
        <time>2024-11-07T12:27:08.000Z</time>
      </trkpt>
      <trkpt lat="44.14503" lon="3.2086">
        <ele>776.2</ele>
        <time>2024-11-07T12:27:13.000Z</time>
      </trkpt>
      <trkpt lat="44.14499" lon="3.20847">
        <ele>776.4</ele>
        <time>2024-11-07T12:27:16.000Z</time>
      </trkpt>
      <trkpt lat="44.14498" lon="3.20833">
        <ele>776.6</ele>
        <time>2024-11-07T12:27:19.000Z</time>
      </trkpt>
      <trkpt lat="44.145" lon="3.20819">
        <ele>776.8</ele>
        <time>2024-11-07T12:27:23.000Z</time>
      </trkpt>
      <trkpt lat="44.14502" lon="3.20805">
        <ele>777</ele>
        <time>2024-11-07T12:27:27.000Z</time>
      </trkpt>
      <trkpt lat="44.14504" lon="3.2079">
        <ele>777.1</ele>
        <time>2024-11-07T12:27:32.000Z</time>
      </trkpt>
      <trkpt lat="44.14506" lon="3.20775">
        <ele>777.4</ele>
        <time>2024-11-07T12:27:37.000Z</time>
      </trkpt>
      <trkpt lat="44.14509" lon="3.20761">
        <ele>777.9</ele>
        <time>2024-11-07T12:27:42.000Z</time>
      </trkpt>
      <trkpt lat="44.14513" lon="3.20749">
        <ele>778.1</ele>
        <time>2024-11-07T12:27:46.000Z</time>
      </trkpt>
      <trkpt lat="44.14517" lon="3.20735">
        <ele>778.6</ele>
        <time>2024-11-07T12:27:51.000Z</time>
      </trkpt>
      <trkpt lat="44.14524" lon="3.20725">
        <ele>779.2</ele>
        <time>2024-11-07T12:27:57.000Z</time>
      </trkpt>
      <trkpt lat="44.14529" lon="3.20712">
        <ele>779.6</ele>
        <time>2024-11-07T12:28:02.000Z</time>
      </trkpt>
      <trkpt lat="44.14535" lon="3.207">
        <ele>780.1</ele>
        <time>2024-11-07T12:28:07.000Z</time>
      </trkpt>
      <trkpt lat="44.14544" lon="3.20691">
        <ele>780.6</ele>
        <time>2024-11-07T12:28:13.000Z</time>
      </trkpt>
      <trkpt lat="44.14553" lon="3.20685">
        <ele>781.5</ele>
        <time>2024-11-07T12:28:19.000Z</time>
      </trkpt>
      <trkpt lat="44.14561" lon="3.20677">
        <ele>782.4</ele>
        <time>2024-11-07T12:28:25.000Z</time>
      </trkpt>
      <trkpt lat="44.14567" lon="3.20667">
        <ele>783.5</ele>
        <time>2024-11-07T12:28:31.000Z</time>
      </trkpt>
      <trkpt lat="44.14572" lon="3.20655">
        <ele>784.5</ele>
        <time>2024-11-07T12:28:37.000Z</time>
      </trkpt>
      <trkpt lat="44.14579" lon="3.20647">
        <ele>785.3</ele>
        <time>2024-11-07T12:28:43.000Z</time>
      </trkpt>
      <trkpt lat="44.14587" lon="3.2064">
        <ele>786.3</ele>
        <time>2024-11-07T12:28:50.000Z</time>
      </trkpt>
      <trkpt lat="44.14593" lon="3.20629">
        <ele>787.5</ele>
        <time>2024-11-07T12:28:57.000Z</time>
      </trkpt>
      <trkpt lat="44.14597" lon="3.20617">
        <ele>788.3</ele>
        <time>2024-11-07T12:29:03.000Z</time>
      </trkpt>
      <trkpt lat="44.14605" lon="3.20608">
        <ele>789.4</ele>
        <time>2024-11-07T12:29:10.000Z</time>
      </trkpt>
      <trkpt lat="44.14613" lon="3.20602">
        <ele>790.6</ele>
        <time>2024-11-07T12:29:17.000Z</time>
      </trkpt>
      <trkpt lat="44.1462" lon="3.20592">
        <ele>792</ele>
        <time>2024-11-07T12:29:25.000Z</time>
      </trkpt>
      <trkpt lat="44.14621" lon="3.20579">
        <ele>793.3</ele>
        <time>2024-11-07T12:29:33.000Z</time>
      </trkpt>
      <trkpt lat="44.14623" lon="3.20566">
        <ele>794.4</ele>
        <time>2024-11-07T12:29:41.000Z</time>
      </trkpt>
      <trkpt lat="44.14623" lon="3.20553">
        <ele>796</ele>
        <time>2024-11-07T12:29:50.000Z</time>
      </trkpt>
      <trkpt lat="44.14621" lon="3.20539">
        <ele>797.7</ele>
        <time>2024-11-07T12:29:59.000Z</time>
      </trkpt>
      <trkpt lat="44.14619" lon="3.20526">
        <ele>798.9</ele>
        <time>2024-11-07T12:30:06.000Z</time>
      </trkpt>
      <trkpt lat="44.14614" lon="3.20515">
        <ele>800.3</ele>
        <time>2024-11-07T12:30:14.000Z</time>
      </trkpt>
      <trkpt lat="44.14612" lon="3.20501">
        <ele>801.3</ele>
        <time>2024-11-07T12:30:21.000Z</time>
      </trkpt>
      <trkpt lat="44.14615" lon="3.20487">
        <ele>802.2</ele>
        <time>2024-11-07T12:30:28.000Z</time>
      </trkpt>
      <trkpt lat="44.14616" lon="3.20474">
        <ele>803.2</ele>
        <time>2024-11-07T12:30:35.000Z</time>
      </trkpt>
      <trkpt lat="44.14616" lon="3.2046">
        <ele>803.9</ele>
        <time>2024-11-07T12:30:41.000Z</time>
      </trkpt>
      <trkpt lat="44.14617" lon="3.20446">
        <ele>804.4</ele>
        <time>2024-11-07T12:30:47.000Z</time>
      </trkpt>
      <trkpt lat="44.14619" lon="3.20433">
        <ele>805.2</ele>
        <time>2024-11-07T12:30:53.000Z</time>
      </trkpt>
      <trkpt lat="44.14622" lon="3.2042">
        <ele>806</ele>
        <time>2024-11-07T12:31:00.000Z</time>
      </trkpt>
      <trkpt lat="44.14625" lon="3.20406">
        <ele>807</ele>
        <time>2024-11-07T12:31:08.000Z</time>
      </trkpt>
      <trkpt lat="44.14619" lon="3.20397">
        <ele>809.5</ele>
        <time>2024-11-07T12:31:42.000Z</time>
      </trkpt>
      <trkpt lat="44.14609" lon="3.20402">
        <ele>808.6</ele>
        <time>2024-11-07T12:31:51.000Z</time>
      </trkpt>
      <trkpt lat="44.14618" lon="3.20396">
        <ele>805.4</ele>
        <time>2024-11-07T12:32:29.000Z</time>
      </trkpt>
      <trkpt lat="44.1461" lon="3.20387">
        <ele>804.8</ele>
        <time>2024-11-07T12:32:38.000Z</time>
      </trkpt>
      <trkpt lat="44.14601" lon="3.20395">
        <ele>804.3</ele>
        <time>2024-11-07T12:32:44.000Z</time>
      </trkpt>
      <trkpt lat="44.14592" lon="3.20401">
        <ele>802.9</ele>
        <time>2024-11-07T12:33:00.000Z</time>
      </trkpt>
      <trkpt lat="44.14587" lon="3.20412">
        <ele>801.1</ele>
        <time>2024-11-07T12:33:21.000Z</time>
      </trkpt>
      <trkpt lat="44.14583" lon="3.20425">
        <ele>799.7</ele>
        <time>2024-11-07T12:33:43.000Z</time>
      </trkpt>
      <trkpt lat="44.14574" lon="3.2043">
        <ele>798.4</ele>
        <time>2024-11-07T12:34:07.000Z</time>
      </trkpt>
      <trkpt lat="44.14584" lon="3.2043">
        <ele>797.5</ele>
        <time>2024-11-07T12:35:15.000Z</time>
      </trkpt>
      <trkpt lat="44.14591" lon="3.20422">
        <ele>799.6</ele>
        <time>2024-11-07T12:35:42.000Z</time>
      </trkpt>
      <trkpt lat="44.14598" lon="3.20412">
        <ele>800.3</ele>
        <time>2024-11-07T12:35:52.000Z</time>
      </trkpt>
      <trkpt lat="44.14607" lon="3.20412">
        <ele>801.5</ele>
        <time>2024-11-07T12:36:04.000Z</time>
      </trkpt>
      <trkpt lat="44.14611" lon="3.204">
        <ele>804.9</ele>
        <time>2024-11-07T12:36:39.000Z</time>
      </trkpt>
      <trkpt lat="44.1462" lon="3.20399">
        <ele>806.8</ele>
        <time>2024-11-07T12:36:57.000Z</time>
      </trkpt>
      <trkpt lat="44.14628" lon="3.20406">
        <ele>808.5</ele>
        <time>2024-11-07T12:37:14.000Z</time>
      </trkpt>
      <trkpt lat="44.14637" lon="3.20403">
        <ele>809.6</ele>
        <time>2024-11-07T12:37:24.000Z</time>
      </trkpt>
      <trkpt lat="44.14642" lon="3.20391">
        <ele>811.5</ele>
        <time>2024-11-07T12:37:36.000Z</time>
      </trkpt>
      <trkpt lat="44.14641" lon="3.20377">
        <ele>813.2</ele>
        <time>2024-11-07T12:37:46.000Z</time>
      </trkpt>
      <trkpt lat="44.14638" lon="3.20365">
        <ele>815</ele>
        <time>2024-11-07T12:37:56.000Z</time>
      </trkpt>
      <trkpt lat="44.14634" lon="3.20353">
        <ele>816.8</ele>
        <time>2024-11-07T12:38:05.000Z</time>
      </trkpt>
      <trkpt lat="44.14633" lon="3.2034">
        <ele>818.1</ele>
        <time>2024-11-07T12:38:13.000Z</time>
      </trkpt>
      <trkpt lat="44.14633" lon="3.20327">
        <ele>819.2</ele>
        <time>2024-11-07T12:38:21.000Z</time>
      </trkpt>
      <trkpt lat="44.14636" lon="3.20314">
        <ele>820.9</ele>
        <time>2024-11-07T12:38:31.000Z</time>
      </trkpt>
      <trkpt lat="44.14639" lon="3.203">
        <ele>822.8</ele>
        <time>2024-11-07T12:38:41.000Z</time>
      </trkpt>
      <trkpt lat="44.1464" lon="3.20287">
        <ele>824.7</ele>
        <time>2024-11-07T12:38:51.000Z</time>
      </trkpt>
      <trkpt lat="44.1464" lon="3.20274">
        <ele>826.3</ele>
        <time>2024-11-07T12:38:59.000Z</time>
      </trkpt>
      <trkpt lat="44.1464" lon="3.20261">
        <ele>828</ele>
        <time>2024-11-07T12:39:07.000Z</time>
      </trkpt>
      <trkpt lat="44.14639" lon="3.20248">
        <ele>829.4</ele>
        <time>2024-11-07T12:39:14.000Z</time>
      </trkpt>
      <trkpt lat="44.14639" lon="3.20236">
        <ele>830.2</ele>
        <time>2024-11-07T12:39:19.000Z</time>
      </trkpt>
      <trkpt lat="44.14639" lon="3.20221">
        <ele>830.8</ele>
        <time>2024-11-07T12:39:24.000Z</time>
      </trkpt>
      <trkpt lat="44.14639" lon="3.20207">
        <ele>831.3</ele>
        <time>2024-11-07T12:39:29.000Z</time>
      </trkpt>
      <trkpt lat="44.14636" lon="3.20194">
        <ele>831.6</ele>
        <time>2024-11-07T12:39:33.000Z</time>
      </trkpt>
      <trkpt lat="44.14635" lon="3.20182">
        <ele>831.9</ele>
        <time>2024-11-07T12:39:37.000Z</time>
      </trkpt>
      <trkpt lat="44.14632" lon="3.2017">
        <ele>832.2</ele>
        <time>2024-11-07T12:39:41.000Z</time>
      </trkpt>
      <trkpt lat="44.14635" lon="3.20157">
        <ele>832.4</ele>
        <time>2024-11-07T12:39:45.000Z</time>
      </trkpt>
      <trkpt lat="44.1464" lon="3.20146">
        <ele>832.5</ele>
        <time>2024-11-07T12:39:49.000Z</time>
      </trkpt>
      <trkpt lat="44.14647" lon="3.20135">
        <ele>832.7</ele>
        <time>2024-11-07T12:39:53.000Z</time>
      </trkpt>
      <trkpt lat="44.14656" lon="3.20124">
        <ele>832.8</ele>
        <time>2024-11-07T12:39:57.000Z</time>
      </trkpt>
      <trkpt lat="44.14664" lon="3.20111">
        <ele>832.8</ele>
        <time>2024-11-07T12:40:01.000Z</time>
      </trkpt>
      <trkpt lat="44.14668" lon="3.20099">
        <ele>832.9</ele>
        <time>2024-11-07T12:40:04.000Z</time>
      </trkpt>
      <trkpt lat="44.14672" lon="3.20085">
        <ele>832.9</ele>
        <time>2024-11-07T12:40:07.000Z</time>
      </trkpt>
      <trkpt lat="44.14675" lon="3.20071">
        <ele>833</ele>
        <time>2024-11-07T12:40:10.000Z</time>
      </trkpt>
      <trkpt lat="44.14678" lon="3.20055">
        <ele>833</ele>
        <time>2024-11-07T12:40:13.000Z</time>
      </trkpt>
      <trkpt lat="44.14679" lon="3.20037">
        <ele>833</ele>
        <time>2024-11-07T12:40:16.000Z</time>
      </trkpt>
      <trkpt lat="44.14678" lon="3.2002">
        <ele>832.9</ele>
        <time>2024-11-07T12:40:19.000Z</time>
      </trkpt>
      <trkpt lat="44.14679" lon="3.20004">
        <ele>832.8</ele>
        <time>2024-11-07T12:40:22.000Z</time>
      </trkpt>
      <trkpt lat="44.1468" lon="3.19988">
        <ele>832.7</ele>
        <time>2024-11-07T12:40:25.000Z</time>
      </trkpt>
      <trkpt lat="44.14679" lon="3.19972">
        <ele>832.6</ele>
        <time>2024-11-07T12:40:28.000Z</time>
      </trkpt>
      <trkpt lat="44.14678" lon="3.19957">
        <ele>832.5</ele>
        <time>2024-11-07T12:40:31.000Z</time>
      </trkpt>
      <trkpt lat="44.1468" lon="3.19944">
        <ele>832.4</ele>
        <time>2024-11-07T12:40:35.000Z</time>
      </trkpt>
      <trkpt lat="44.14681" lon="3.19929">
        <ele>832.3</ele>
        <time>2024-11-07T12:40:40.000Z</time>
      </trkpt>
      <trkpt lat="44.14683" lon="3.19917">
        <ele>832.2</ele>
        <time>2024-11-07T12:40:43.000Z</time>
      </trkpt>
      <trkpt lat="44.14684" lon="3.19904">
        <ele>832.1</ele>
        <time>2024-11-07T12:40:46.000Z</time>
      </trkpt>
      <trkpt lat="44.14682" lon="3.19889">
        <ele>831.9</ele>
        <time>2024-11-07T12:40:50.000Z</time>
      </trkpt>
      <trkpt lat="44.14677" lon="3.19877">
        <ele>831.8</ele>
        <time>2024-11-07T12:40:54.000Z</time>
      </trkpt>
      <trkpt lat="44.14683" lon="3.19865">
        <ele>831.2</ele>
        <time>2024-11-07T12:41:44.000Z</time>
      </trkpt>
      <trkpt lat="44.14691" lon="3.19854">
        <ele>831.2</ele>
        <time>2024-11-07T12:41:49.000Z</time>
      </trkpt>
      <trkpt lat="44.14697" lon="3.19845">
        <ele>831.2</ele>
        <time>2024-11-07T12:41:54.000Z</time>
      </trkpt>
      <trkpt lat="44.14704" lon="3.19835">
        <ele>831.2</ele>
        <time>2024-11-07T12:41:59.000Z</time>
      </trkpt>
      <trkpt lat="44.1471" lon="3.19822">
        <ele>831.2</ele>
        <time>2024-11-07T12:42:03.000Z</time>
      </trkpt>
      <trkpt lat="44.14716" lon="3.19811">
        <ele>831.2</ele>
        <time>2024-11-07T12:42:06.000Z</time>
      </trkpt>
      <trkpt lat="44.14724" lon="3.19802">
        <ele>831.2</ele>
        <time>2024-11-07T12:42:09.000Z</time>
      </trkpt>
      <trkpt lat="44.14732" lon="3.19792">
        <ele>831.2</ele>
        <time>2024-11-07T12:42:12.000Z</time>
      </trkpt>
      <trkpt lat="44.14738" lon="3.19782">
        <ele>831.1</ele>
        <time>2024-11-07T12:42:15.000Z</time>
      </trkpt>
      <trkpt lat="44.14743" lon="3.19768">
        <ele>831.1</ele>
        <time>2024-11-07T12:42:18.000Z</time>
      </trkpt>
      <trkpt lat="44.14747" lon="3.19755">
        <ele>831.1</ele>
        <time>2024-11-07T12:42:21.000Z</time>
      </trkpt>
      <trkpt lat="44.1475" lon="3.19741">
        <ele>831.1</ele>
        <time>2024-11-07T12:42:24.000Z</time>
      </trkpt>
      <trkpt lat="44.14755" lon="3.19727">
        <ele>831.1</ele>
        <time>2024-11-07T12:42:27.000Z</time>
      </trkpt>
      <trkpt lat="44.14759" lon="3.19714">
        <ele>831.1</ele>
        <time>2024-11-07T12:42:30.000Z</time>
      </trkpt>
      <trkpt lat="44.14763" lon="3.19701">
        <ele>831</ele>
        <time>2024-11-07T12:42:33.000Z</time>
      </trkpt>
      <trkpt lat="44.14767" lon="3.19688">
        <ele>831</ele>
        <time>2024-11-07T12:42:36.000Z</time>
      </trkpt>
      <trkpt lat="44.14771" lon="3.19675">
        <ele>831</ele>
        <time>2024-11-07T12:42:39.000Z</time>
      </trkpt>
      <trkpt lat="44.14777" lon="3.19663">
        <ele>831</ele>
        <time>2024-11-07T12:42:42.000Z</time>
      </trkpt>
      <trkpt lat="44.14782" lon="3.1965">
        <ele>831</ele>
        <time>2024-11-07T12:42:45.000Z</time>
      </trkpt>
      <trkpt lat="44.14788" lon="3.19639">
        <ele>831</ele>
        <time>2024-11-07T12:42:48.000Z</time>
      </trkpt>
      <trkpt lat="44.14794" lon="3.19628">
        <ele>831</ele>
        <time>2024-11-07T12:42:51.000Z</time>
      </trkpt>
      <trkpt lat="44.14799" lon="3.19616">
        <ele>831</ele>
        <time>2024-11-07T12:42:54.000Z</time>
      </trkpt>
      <trkpt lat="44.14803" lon="3.19604">
        <ele>831</ele>
        <time>2024-11-07T12:42:57.000Z</time>
      </trkpt>
      <trkpt lat="44.14805" lon="3.1959">
        <ele>831</ele>
        <time>2024-11-07T12:43:00.000Z</time>
      </trkpt>
      <trkpt lat="44.14804" lon="3.19577">
        <ele>831.1</ele>
        <time>2024-11-07T12:43:03.000Z</time>
      </trkpt>
      <trkpt lat="44.14802" lon="3.1956">
        <ele>831.3</ele>
        <time>2024-11-07T12:43:07.000Z</time>
      </trkpt>
      <trkpt lat="44.14799" lon="3.19546">
        <ele>831.5</ele>
        <time>2024-11-07T12:43:11.000Z</time>
      </trkpt>
      <trkpt lat="44.14794" lon="3.19534">
        <ele>831.6</ele>
        <time>2024-11-07T12:43:15.000Z</time>
      </trkpt>
      <trkpt lat="44.14787" lon="3.19522">
        <ele>831.8</ele>
        <time>2024-11-07T12:43:20.000Z</time>
      </trkpt>
      <trkpt lat="44.14784" lon="3.19506">
        <ele>832</ele>
        <time>2024-11-07T12:43:24.000Z</time>
      </trkpt>
      <trkpt lat="44.14784" lon="3.19489">
        <ele>832</ele>
        <time>2024-11-07T12:43:27.000Z</time>
      </trkpt>
      <trkpt lat="44.14784" lon="3.19477">
        <ele>832</ele>
        <time>2024-11-07T12:43:29.000Z</time>
      </trkpt>
      <trkpt lat="44.14785" lon="3.19462">
        <ele>832</ele>
        <time>2024-11-07T12:43:31.000Z</time>
      </trkpt>
      <trkpt lat="44.14785" lon="3.19447">
        <ele>831.9</ele>
        <time>2024-11-07T12:43:33.000Z</time>
      </trkpt>
      <trkpt lat="44.14786" lon="3.19431">
        <ele>831.7</ele>
        <time>2024-11-07T12:43:35.000Z</time>
      </trkpt>
      <trkpt lat="44.14787" lon="3.19415">
        <ele>831.6</ele>
        <time>2024-11-07T12:43:37.000Z</time>
      </trkpt>
      <trkpt lat="44.14787" lon="3.19399">
        <ele>831.5</ele>
        <time>2024-11-07T12:43:39.000Z</time>
      </trkpt>
      <trkpt lat="44.14788" lon="3.19382">
        <ele>831.4</ele>
        <time>2024-11-07T12:43:41.000Z</time>
      </trkpt>
      <trkpt lat="44.14789" lon="3.19366">
        <ele>831.2</ele>
        <time>2024-11-07T12:43:43.000Z</time>
      </trkpt>
      <trkpt lat="44.1479" lon="3.1935">
        <ele>831.1</ele>
        <time>2024-11-07T12:43:45.000Z</time>
      </trkpt>
      <trkpt lat="44.1479" lon="3.19334">
        <ele>831</ele>
        <time>2024-11-07T12:43:47.000Z</time>
      </trkpt>
      <trkpt lat="44.1479" lon="3.19319">
        <ele>830.9</ele>
        <time>2024-11-07T12:43:49.000Z</time>
      </trkpt>
      <trkpt lat="44.1479" lon="3.19305">
        <ele>830.8</ele>
        <time>2024-11-07T12:43:51.000Z</time>
      </trkpt>
      <trkpt lat="44.14789" lon="3.19292">
        <ele>830.8</ele>
        <time>2024-11-07T12:43:53.000Z</time>
      </trkpt>
      <trkpt lat="44.14787" lon="3.1928">
        <ele>830.7</ele>
        <time>2024-11-07T12:43:55.000Z</time>
      </trkpt>
      <trkpt lat="44.14784" lon="3.19263">
        <ele>830.7</ele>
        <time>2024-11-07T12:43:58.000Z</time>
      </trkpt>
      <trkpt lat="44.14782" lon="3.19248">
        <ele>830.7</ele>
        <time>2024-11-07T12:44:01.000Z</time>
      </trkpt>
      <trkpt lat="44.14779" lon="3.19234">
        <ele>830.9</ele>
        <time>2024-11-07T12:44:04.000Z</time>
      </trkpt>
      <trkpt lat="44.14776" lon="3.19219">
        <ele>831.1</ele>
        <time>2024-11-07T12:44:07.000Z</time>
      </trkpt>
      <trkpt lat="44.14773" lon="3.19204">
        <ele>831.2</ele>
        <time>2024-11-07T12:44:10.000Z</time>
      </trkpt>
      <trkpt lat="44.1477" lon="3.19189">
        <ele>831.4</ele>
        <time>2024-11-07T12:44:13.000Z</time>
      </trkpt>
      <trkpt lat="44.14767" lon="3.19174">
        <ele>831.5</ele>
        <time>2024-11-07T12:44:16.000Z</time>
      </trkpt>
      <trkpt lat="44.14764" lon="3.19159">
        <ele>831.7</ele>
        <time>2024-11-07T12:44:19.000Z</time>
      </trkpt>
      <trkpt lat="44.14761" lon="3.19144">
        <ele>832</ele>
        <time>2024-11-07T12:44:22.000Z</time>
      </trkpt>
      <trkpt lat="44.14758" lon="3.1913">
        <ele>832.2</ele>
        <time>2024-11-07T12:44:25.000Z</time>
      </trkpt>
      <trkpt lat="44.14755" lon="3.19116">
        <ele>832.5</ele>
        <time>2024-11-07T12:44:28.000Z</time>
      </trkpt>
      <trkpt lat="44.14752" lon="3.19104">
        <ele>832.8</ele>
        <time>2024-11-07T12:44:31.000Z</time>
      </trkpt>
      <trkpt lat="44.14749" lon="3.19091">
        <ele>833.1</ele>
        <time>2024-11-07T12:44:34.000Z</time>
      </trkpt>
      <trkpt lat="44.14746" lon="3.19075">
        <ele>833.7</ele>
        <time>2024-11-07T12:44:38.000Z</time>
      </trkpt>
      <trkpt lat="44.14743" lon="3.1906">
        <ele>834.2</ele>
        <time>2024-11-07T12:44:42.000Z</time>
      </trkpt>
      <trkpt lat="44.1474" lon="3.19044">
        <ele>834.8</ele>
        <time>2024-11-07T12:44:46.000Z</time>
      </trkpt>
      <trkpt lat="44.14736" lon="3.19029">
        <ele>835.5</ele>
        <time>2024-11-07T12:44:50.000Z</time>
      </trkpt>
      <trkpt lat="44.14734" lon="3.19014">
        <ele>836.1</ele>
        <time>2024-11-07T12:44:54.000Z</time>
      </trkpt>
      <trkpt lat="44.14733" lon="3.18999">
        <ele>836.7</ele>
        <time>2024-11-07T12:44:58.000Z</time>
      </trkpt>
      <trkpt lat="44.14733" lon="3.18983">
        <ele>837.3</ele>
        <time>2024-11-07T12:45:02.000Z</time>
      </trkpt>
      <trkpt lat="44.14733" lon="3.18966">
        <ele>837.9</ele>
        <time>2024-11-07T12:45:06.000Z</time>
      </trkpt>
      <trkpt lat="44.14734" lon="3.18949">
        <ele>838.5</ele>
        <time>2024-11-07T12:45:10.000Z</time>
      </trkpt>
      <trkpt lat="44.14733" lon="3.18937">
        <ele>839.1</ele>
        <time>2024-11-07T12:45:13.000Z</time>
      </trkpt>
      <trkpt lat="44.14733" lon="3.1892">
        <ele>839.7</ele>
        <time>2024-11-07T12:45:17.000Z</time>
      </trkpt>
      <trkpt lat="44.14734" lon="3.18904">
        <ele>840.4</ele>
        <time>2024-11-07T12:45:21.000Z</time>
      </trkpt>
      <trkpt lat="44.14734" lon="3.18889">
        <ele>841.1</ele>
        <time>2024-11-07T12:45:25.000Z</time>
      </trkpt>
      <trkpt lat="44.14735" lon="3.18875">
        <ele>841.8</ele>
        <time>2024-11-07T12:45:29.000Z</time>
      </trkpt>
      <trkpt lat="44.14735" lon="3.18861">
        <ele>842.6</ele>
        <time>2024-11-07T12:45:33.000Z</time>
      </trkpt>
      <trkpt lat="44.14734" lon="3.18846">
        <ele>843.3</ele>
        <time>2024-11-07T12:45:37.000Z</time>
      </trkpt>
      <trkpt lat="44.14732" lon="3.18832">
        <ele>844</ele>
        <time>2024-11-07T12:45:41.000Z</time>
      </trkpt>
      <trkpt lat="44.14728" lon="3.18817">
        <ele>844.7</ele>
        <time>2024-11-07T12:45:45.000Z</time>
      </trkpt>
      <trkpt lat="44.14724" lon="3.18802">
        <ele>845.3</ele>
        <time>2024-11-07T12:45:49.000Z</time>
      </trkpt>
      <trkpt lat="44.1472" lon="3.18789">
        <ele>845.7</ele>
        <time>2024-11-07T12:45:52.000Z</time>
      </trkpt>
      <trkpt lat="44.14716" lon="3.18774">
        <ele>846</ele>
        <time>2024-11-07T12:45:55.000Z</time>
      </trkpt>
      <trkpt lat="44.14711" lon="3.18758">
        <ele>846.2</ele>
        <time>2024-11-07T12:45:58.000Z</time>
      </trkpt>
      <trkpt lat="44.14708" lon="3.18742">
        <ele>846.4</ele>
        <time>2024-11-07T12:46:01.000Z</time>
      </trkpt>
      <trkpt lat="44.14707" lon="3.18724">
        <ele>846.6</ele>
        <time>2024-11-07T12:46:04.000Z</time>
      </trkpt>
      <trkpt lat="44.14707" lon="3.18709">
        <ele>846.7</ele>
        <time>2024-11-07T12:46:07.000Z</time>
      </trkpt>
      <trkpt lat="44.14707" lon="3.18693">
        <ele>846.9</ele>
        <time>2024-11-07T12:46:10.000Z</time>
      </trkpt>
      <trkpt lat="44.14705" lon="3.18678">
        <ele>847</ele>
        <time>2024-11-07T12:46:13.000Z</time>
      </trkpt>
      <trkpt lat="44.14701" lon="3.18665">
        <ele>847.1</ele>
        <time>2024-11-07T12:46:16.000Z</time>
      </trkpt>
      <trkpt lat="44.14696" lon="3.1865">
        <ele>847.2</ele>
        <time>2024-11-07T12:46:19.000Z</time>
      </trkpt>
      <trkpt lat="44.14691" lon="3.18635">
        <ele>847.3</ele>
        <time>2024-11-07T12:46:22.000Z</time>
      </trkpt>
      <trkpt lat="44.14686" lon="3.18622">
        <ele>847.4</ele>
        <time>2024-11-07T12:46:25.000Z</time>
      </trkpt>
      <trkpt lat="44.14681" lon="3.18607">
        <ele>847.5</ele>
        <time>2024-11-07T12:46:28.000Z</time>
      </trkpt>
      <trkpt lat="44.14676" lon="3.18592">
        <ele>847.5</ele>
        <time>2024-11-07T12:46:31.000Z</time>
      </trkpt>
      <trkpt lat="44.14671" lon="3.18578">
        <ele>847.6</ele>
        <time>2024-11-07T12:46:34.000Z</time>
      </trkpt>
      <trkpt lat="44.14664" lon="3.18563">
        <ele>847.6</ele>
        <time>2024-11-07T12:46:37.000Z</time>
      </trkpt>
      <trkpt lat="44.14659" lon="3.18551">
        <ele>847.7</ele>
        <time>2024-11-07T12:46:39.000Z</time>
      </trkpt>
      <trkpt lat="44.14653" lon="3.18538">
        <ele>847.7</ele>
        <time>2024-11-07T12:46:41.000Z</time>
      </trkpt>
      <trkpt lat="44.14647" lon="3.18525">
        <ele>847.6</ele>
        <time>2024-11-07T12:46:43.000Z</time>
      </trkpt>
      <trkpt lat="44.14642" lon="3.18512">
        <ele>847.6</ele>
        <time>2024-11-07T12:46:45.000Z</time>
      </trkpt>
      <trkpt lat="44.14637" lon="3.185">
        <ele>847.5</ele>
        <time>2024-11-07T12:46:47.000Z</time>
      </trkpt>
      <trkpt lat="44.14631" lon="3.18485">
        <ele>847.4</ele>
        <time>2024-11-07T12:46:50.000Z</time>
      </trkpt>
      <trkpt lat="44.14626" lon="3.18472">
        <ele>847.4</ele>
        <time>2024-11-07T12:46:53.000Z</time>
      </trkpt>
      <trkpt lat="44.14622" lon="3.1846">
        <ele>847.3</ele>
        <time>2024-11-07T12:46:56.000Z</time>
      </trkpt>
      <trkpt lat="44.14617" lon="3.18447">
        <ele>847.2</ele>
        <time>2024-11-07T12:47:00.000Z</time>
      </trkpt>
      <trkpt lat="44.14608" lon="3.1845">
        <ele>847.4</ele>
        <time>2024-11-07T12:47:22.000Z</time>
      </trkpt>
      <trkpt lat="44.14602" lon="3.1844">
        <ele>847.5</ele>
        <time>2024-11-07T12:47:34.000Z</time>
      </trkpt>
      <trkpt lat="44.14593" lon="3.18436">
        <ele>847.5</ele>
        <time>2024-11-07T12:47:38.000Z</time>
      </trkpt>
      <trkpt lat="44.14582" lon="3.18436">
        <ele>847.5</ele>
        <time>2024-11-07T12:47:42.000Z</time>
      </trkpt>
      <trkpt lat="44.1457" lon="3.18435">
        <ele>847.5</ele>
        <time>2024-11-07T12:47:46.000Z</time>
      </trkpt>
      <trkpt lat="44.14562" lon="3.18439">
        <ele>847.5</ele>
        <time>2024-11-07T12:47:49.000Z</time>
      </trkpt>
      <trkpt lat="44.1455" lon="3.18445">
        <ele>847.5</ele>
        <time>2024-11-07T12:47:53.000Z</time>
      </trkpt>
      <trkpt lat="44.14538" lon="3.18446">
        <ele>847.5</ele>
        <time>2024-11-07T12:47:56.000Z</time>
      </trkpt>
      <trkpt lat="44.14526" lon="3.18448">
        <ele>847.4</ele>
        <time>2024-11-07T12:47:59.000Z</time>
      </trkpt>
      <trkpt lat="44.14514" lon="3.18447">
        <ele>847.2</ele>
        <time>2024-11-07T12:48:02.000Z</time>
      </trkpt>
      <trkpt lat="44.14504" lon="3.18446">
        <ele>846.9</ele>
        <time>2024-11-07T12:48:04.000Z</time>
      </trkpt>
      <trkpt lat="44.14493" lon="3.1845">
        <ele>846.6</ele>
        <time>2024-11-07T12:48:06.000Z</time>
      </trkpt>
      <trkpt lat="44.14484" lon="3.18459">
        <ele>846.2</ele>
        <time>2024-11-07T12:48:08.000Z</time>
      </trkpt>
      <trkpt lat="44.14476" lon="3.1847">
        <ele>845.6</ele>
        <time>2024-11-07T12:48:10.000Z</time>
      </trkpt>
      <trkpt lat="44.14466" lon="3.18477">
        <ele>845.1</ele>
        <time>2024-11-07T12:48:12.000Z</time>
      </trkpt>
      <trkpt lat="44.14455" lon="3.18478">
        <ele>844.6</ele>
        <time>2024-11-07T12:48:14.000Z</time>
      </trkpt>
      <trkpt lat="44.14444" lon="3.18476">
        <ele>843.9</ele>
        <time>2024-11-07T12:48:16.000Z</time>
      </trkpt>
      <trkpt lat="44.14438" lon="3.18463">
        <ele>843.3</ele>
        <time>2024-11-07T12:48:18.000Z</time>
      </trkpt>
      <trkpt lat="44.14438" lon="3.18447">
        <ele>842.4</ele>
        <time>2024-11-07T12:48:21.000Z</time>
      </trkpt>
      <trkpt lat="44.14431" lon="3.18435">
        <ele>838.2</ele>
        <time>2024-11-07T12:49:30.000Z</time>
      </trkpt>
      <trkpt lat="44.14429" lon="3.18422">
        <ele>838.1</ele>
        <time>2024-11-07T12:49:33.000Z</time>
      </trkpt>
      <trkpt lat="44.14422" lon="3.18412">
        <ele>837.6</ele>
        <time>2024-11-07T12:49:37.000Z</time>
      </trkpt>
      <trkpt lat="44.14415" lon="3.1842">
        <ele>836.7</ele>
        <time>2024-11-07T12:49:43.000Z</time>
      </trkpt>
      <trkpt lat="44.14406" lon="3.18423">
        <ele>835.9</ele>
        <time>2024-11-07T12:49:47.000Z</time>
      </trkpt>
      <trkpt lat="44.14395" lon="3.18421">
        <ele>834.3</ele>
        <time>2024-11-07T12:49:54.000Z</time>
      </trkpt>
      <trkpt lat="44.14386" lon="3.18428">
        <ele>829.4</ele>
        <time>2024-11-07T12:52:16.000Z</time>
      </trkpt>
      <trkpt lat="44.14375" lon="3.18438">
        <ele>829.1</ele>
        <time>2024-11-07T12:52:19.000Z</time>
      </trkpt>
      <trkpt lat="44.14369" lon="3.18422">
        <ele>828.3</ele>
        <time>2024-11-07T12:52:23.000Z</time>
      </trkpt>
      <trkpt lat="44.14368" lon="3.18409">
        <ele>827.7</ele>
        <time>2024-11-07T12:52:25.000Z</time>
      </trkpt>
      <trkpt lat="44.14363" lon="3.18398">
        <ele>826.6</ele>
        <time>2024-11-07T12:52:28.000Z</time>
      </trkpt>
      <trkpt lat="44.14354" lon="3.18397">
        <ele>823.1</ele>
        <time>2024-11-07T12:52:43.000Z</time>
      </trkpt>
      <trkpt lat="44.14344" lon="3.18402">
        <ele>822.3</ele>
        <time>2024-11-07T12:52:46.000Z</time>
      </trkpt>
      <trkpt lat="44.14334" lon="3.18413">
        <ele>821</ele>
        <time>2024-11-07T12:52:49.000Z</time>
      </trkpt>
      <trkpt lat="44.14327" lon="3.18424">
        <ele>820.1</ele>
        <time>2024-11-07T12:52:51.000Z</time>
      </trkpt>
      <trkpt lat="44.14319" lon="3.18431">
        <ele>819.2</ele>
        <time>2024-11-07T12:52:53.000Z</time>
      </trkpt>
      <trkpt lat="44.14311" lon="3.1844">
        <ele>817.9</ele>
        <time>2024-11-07T12:52:56.000Z</time>
      </trkpt>
      <trkpt lat="44.14301" lon="3.18449">
        <ele>816.3</ele>
        <time>2024-11-07T12:53:00.000Z</time>
      </trkpt>
      <trkpt lat="44.14296" lon="3.18438">
        <ele>815</ele>
        <time>2024-11-07T12:53:03.000Z</time>
      </trkpt>
      <trkpt lat="44.14288" lon="3.18428">
        <ele>813</ele>
        <time>2024-11-07T12:53:07.000Z</time>
      </trkpt>
      <trkpt lat="44.14279" lon="3.18434">
        <ele>811.3</ele>
        <time>2024-11-07T12:53:11.000Z</time>
      </trkpt>
      <trkpt lat="44.14272" lon="3.18441">
        <ele>808.8</ele>
        <time>2024-11-07T12:53:20.000Z</time>
      </trkpt>
      <trkpt lat="44.14261" lon="3.18442">
        <ele>808.7</ele>
        <time>2024-11-07T12:53:40.000Z</time>
      </trkpt>
      <trkpt lat="44.14252" lon="3.18441">
        <ele>809.6</ele>
        <time>2024-11-07T12:53:46.000Z</time>
      </trkpt>
      <trkpt lat="44.14242" lon="3.18444">
        <ele>810.1</ele>
        <time>2024-11-07T12:53:50.000Z</time>
      </trkpt>
      <trkpt lat="44.14231" lon="3.18447">
        <ele>810.5</ele>
        <time>2024-11-07T12:53:54.000Z</time>
      </trkpt>
      <trkpt lat="44.14223" lon="3.18452">
        <ele>810.8</ele>
        <time>2024-11-07T12:53:58.000Z</time>
      </trkpt>
      <trkpt lat="44.14217" lon="3.18462">
        <ele>811</ele>
        <time>2024-11-07T12:54:04.000Z</time>
      </trkpt>
      <trkpt lat="44.14215" lon="3.18476">
        <ele>810.6</ele>
        <time>2024-11-07T12:54:08.000Z</time>
      </trkpt>
      <trkpt lat="44.14219" lon="3.18489">
        <ele>809</ele>
        <time>2024-11-07T12:54:14.000Z</time>
      </trkpt>
      <trkpt lat="44.14224" lon="3.18503">
        <ele>807.9</ele>
        <time>2024-11-07T12:54:17.000Z</time>
      </trkpt>
      <trkpt lat="44.14231" lon="3.18513">
        <ele>806.7</ele>
        <time>2024-11-07T12:54:20.000Z</time>
      </trkpt>
      <trkpt lat="44.14237" lon="3.18526">
        <ele>804.4</ele>
        <time>2024-11-07T12:54:25.000Z</time>
      </trkpt>
      <trkpt lat="44.14227" lon="3.18529">
        <ele>801.7</ele>
        <time>2024-11-07T12:54:30.000Z</time>
      </trkpt>
      <trkpt lat="44.14222" lon="3.18543">
        <ele>798.1</ele>
        <time>2024-11-07T12:54:36.000Z</time>
      </trkpt>
      <trkpt lat="44.14214" lon="3.18551">
        <ele>794.5</ele>
        <time>2024-11-07T12:54:41.000Z</time>
      </trkpt>
      <trkpt lat="44.14202" lon="3.18548">
        <ele>791.8</ele>
        <time>2024-11-07T12:54:45.000Z</time>
      </trkpt>
      <trkpt lat="44.14192" lon="3.18551">
        <ele>789.4</ele>
        <time>2024-11-07T12:54:49.000Z</time>
      </trkpt>
      <trkpt lat="44.14185" lon="3.1856">
        <ele>787.5</ele>
        <time>2024-11-07T12:54:52.000Z</time>
      </trkpt>
      <trkpt lat="44.14176" lon="3.18565">
        <ele>785.5</ele>
        <time>2024-11-07T12:54:55.000Z</time>
      </trkpt>
      <trkpt lat="44.14165" lon="3.18568">
        <ele>782.9</ele>
        <time>2024-11-07T12:54:59.000Z</time>
      </trkpt>
      <trkpt lat="44.14156" lon="3.18562">
        <ele>781</ele>
        <time>2024-11-07T12:55:02.000Z</time>
      </trkpt>
      <trkpt lat="44.14148" lon="3.18568">
        <ele>777.8</ele>
        <time>2024-11-07T12:55:07.000Z</time>
      </trkpt>
      <trkpt lat="44.1414" lon="3.18576">
        <ele>775.8</ele>
        <time>2024-11-07T12:55:10.000Z</time>
      </trkpt>
      <trkpt lat="44.1413" lon="3.18587">
        <ele>773.7</ele>
        <time>2024-11-07T12:55:13.000Z</time>
      </trkpt>
      <trkpt lat="44.14122" lon="3.18594">
        <ele>771.8</ele>
        <time>2024-11-07T12:55:16.000Z</time>
      </trkpt>
      <trkpt lat="44.1412" lon="3.18615">
        <ele>764.8</ele>
        <time>2024-11-07T12:55:34.000Z</time>
      </trkpt>
      <trkpt lat="44.14122" lon="3.18629">
        <ele>764</ele>
        <time>2024-11-07T12:55:37.000Z</time>
      </trkpt>
      <trkpt lat="44.14123" lon="3.18642">
        <ele>762.9</ele>
        <time>2024-11-07T12:55:42.000Z</time>
      </trkpt>
      <trkpt lat="44.14113" lon="3.18645">
        <ele>762.3</ele>
        <time>2024-11-07T12:55:45.000Z</time>
      </trkpt>
      <trkpt lat="44.14103" lon="3.18653">
        <ele>761.5</ele>
        <time>2024-11-07T12:55:49.000Z</time>
      </trkpt>
      <trkpt lat="44.14097" lon="3.18662">
        <ele>760.9</ele>
        <time>2024-11-07T12:55:52.000Z</time>
      </trkpt>
      <trkpt lat="44.14094" lon="3.18679">
        <ele>760.1</ele>
        <time>2024-11-07T12:55:56.000Z</time>
      </trkpt>
      <trkpt lat="44.14098" lon="3.18691">
        <ele>759.6</ele>
        <time>2024-11-07T12:55:59.000Z</time>
      </trkpt>
      <trkpt lat="44.141" lon="3.18704">
        <ele>758.6</ele>
        <time>2024-11-07T12:56:05.000Z</time>
      </trkpt>
      <trkpt lat="44.1409" lon="3.18708">
        <ele>758.3</ele>
        <time>2024-11-07T12:56:07.000Z</time>
      </trkpt>
      <trkpt lat="44.14083" lon="3.18722">
        <ele>757.9</ele>
        <time>2024-11-07T12:56:10.000Z</time>
      </trkpt>
      <trkpt lat="44.14075" lon="3.1873">
        <ele>757.3</ele>
        <time>2024-11-07T12:56:14.000Z</time>
      </trkpt>
      <trkpt lat="44.14063" lon="3.18731">
        <ele>756.8</ele>
        <time>2024-11-07T12:56:17.000Z</time>
      </trkpt>
      <trkpt lat="44.14054" lon="3.18737">
        <ele>756.2</ele>
        <time>2024-11-07T12:56:22.000Z</time>
      </trkpt>
      <trkpt lat="44.14045" lon="3.18744">
        <ele>755.8</ele>
        <time>2024-11-07T12:56:26.000Z</time>
      </trkpt>
      <trkpt lat="44.14038" lon="3.18753">
        <ele>755.4</ele>
        <time>2024-11-07T12:56:31.000Z</time>
      </trkpt>
      <trkpt lat="44.14036" lon="3.18768">
        <ele>754.8</ele>
        <time>2024-11-07T12:56:38.000Z</time>
      </trkpt>
      <trkpt lat="44.14034" lon="3.1878">
        <ele>754.4</ele>
        <time>2024-11-07T12:56:42.000Z</time>
      </trkpt>
      <trkpt lat="44.14029" lon="3.18791">
        <ele>754.1</ele>
        <time>2024-11-07T12:56:47.000Z</time>
      </trkpt>
      <trkpt lat="44.1402" lon="3.18802">
        <ele>753.8</ele>
        <time>2024-11-07T12:56:51.000Z</time>
      </trkpt>
      <trkpt lat="44.14007" lon="3.18802">
        <ele>753.4</ele>
        <time>2024-11-07T12:56:54.000Z</time>
      </trkpt>
      <trkpt lat="44.13997" lon="3.18802">
        <ele>752.9</ele>
        <time>2024-11-07T12:56:56.000Z</time>
      </trkpt>
      <trkpt lat="44.13988" lon="3.18808">
        <ele>752.2</ele>
        <time>2024-11-07T12:56:59.000Z</time>
      </trkpt>
      <trkpt lat="44.1398" lon="3.18816">
        <ele>751.4</ele>
        <time>2024-11-07T12:57:02.000Z</time>
      </trkpt>
      <trkpt lat="44.1397" lon="3.18825">
        <ele>750.5</ele>
        <time>2024-11-07T12:57:06.000Z</time>
      </trkpt>
      <trkpt lat="44.1396" lon="3.18831">
        <ele>750</ele>
        <time>2024-11-07T12:57:08.000Z</time>
      </trkpt>
      <trkpt lat="44.13954" lon="3.18841">
        <ele>748.9</ele>
        <time>2024-11-07T12:57:16.000Z</time>
      </trkpt>
      <trkpt lat="44.13947" lon="3.1885">
        <ele>749.6</ele>
        <time>2024-11-07T12:57:26.000Z</time>
      </trkpt>
      <trkpt lat="44.13937" lon="3.18857">
        <ele>750.3</ele>
        <time>2024-11-07T12:57:32.000Z</time>
      </trkpt>
      <trkpt lat="44.13927" lon="3.18864">
        <ele>750.5</ele>
        <time>2024-11-07T12:57:36.000Z</time>
      </trkpt>
      <trkpt lat="44.13919" lon="3.18871">
        <ele>750.7</ele>
        <time>2024-11-07T12:57:41.000Z</time>
      </trkpt>
      <trkpt lat="44.13912" lon="3.18881">
        <ele>750.9</ele>
        <time>2024-11-07T12:57:47.000Z</time>
      </trkpt>
      <trkpt lat="44.13904" lon="3.18888">
        <ele>751</ele>
        <time>2024-11-07T12:57:51.000Z</time>
      </trkpt>
      <trkpt lat="44.13896" lon="3.18898">
        <ele>750.7</ele>
        <time>2024-11-07T12:57:56.000Z</time>
      </trkpt>
      <trkpt lat="44.13888" lon="3.18907">
        <ele>750.4</ele>
        <time>2024-11-07T12:58:02.000Z</time>
      </trkpt>
      <trkpt lat="44.13878" lon="3.18908">
        <ele>750.1</ele>
        <time>2024-11-07T12:58:09.000Z</time>
      </trkpt>
      <trkpt lat="44.13867" lon="3.18901">
        <ele>749.7</ele>
        <time>2024-11-07T12:58:22.000Z</time>
      </trkpt>
      <trkpt lat="44.13857" lon="3.18896">
        <ele>749.4</ele>
        <time>2024-11-07T12:58:26.000Z</time>
      </trkpt>
      <trkpt lat="44.13848" lon="3.18896">
        <ele>748.8</ele>
        <time>2024-11-07T12:58:31.000Z</time>
      </trkpt>
      <trkpt lat="44.13839" lon="3.18901">
        <ele>746.7</ele>
        <time>2024-11-07T12:58:39.000Z</time>
      </trkpt>
      <trkpt lat="44.13838" lon="3.18887">
        <ele>742.1</ele>
        <time>2024-11-07T12:58:49.000Z</time>
      </trkpt>
      <trkpt lat="44.13829" lon="3.18886">
        <ele>740.2</ele>
        <time>2024-11-07T12:58:53.000Z</time>
      </trkpt>
      <trkpt lat="44.13824" lon="3.18875">
        <ele>736.8</ele>
        <time>2024-11-07T12:59:00.000Z</time>
      </trkpt>
      <trkpt lat="44.13833" lon="3.18868">
        <ele>734.4</ele>
        <time>2024-11-07T12:59:05.000Z</time>
      </trkpt>
      <trkpt lat="44.1383" lon="3.18855">
        <ele>732.4</ele>
        <time>2024-11-07T12:59:09.000Z</time>
      </trkpt>
      <trkpt lat="44.1382" lon="3.18857">
        <ele>730.1</ele>
        <time>2024-11-07T12:59:14.000Z</time>
      </trkpt>
      <trkpt lat="44.13813" lon="3.18866">
        <ele>728.1</ele>
        <time>2024-11-07T12:59:18.000Z</time>
      </trkpt>
      <trkpt lat="44.13803" lon="3.1887">
        <ele>726.2</ele>
        <time>2024-11-07T12:59:21.000Z</time>
      </trkpt>
      <trkpt lat="44.13794" lon="3.18877">
        <ele>724.9</ele>
        <time>2024-11-07T12:59:23.000Z</time>
      </trkpt>
      <trkpt lat="44.13786" lon="3.1889">
        <ele>723.2</ele>
        <time>2024-11-07T12:59:26.000Z</time>
      </trkpt>
      <trkpt lat="44.13776" lon="3.18895">
        <ele>721.8</ele>
        <time>2024-11-07T12:59:29.000Z</time>
      </trkpt>
      <trkpt lat="44.13769" lon="3.18887">
        <ele>719.8</ele>
        <time>2024-11-07T12:59:34.000Z</time>
      </trkpt>
      <trkpt lat="44.13759" lon="3.18885">
        <ele>718</ele>
        <time>2024-11-07T12:59:40.000Z</time>
      </trkpt>
      <trkpt lat="44.13748" lon="3.18893">
        <ele>716.9</ele>
        <time>2024-11-07T12:59:44.000Z</time>
      </trkpt>
      <trkpt lat="44.1374" lon="3.18898">
        <ele>716.2</ele>
        <time>2024-11-07T12:59:47.000Z</time>
      </trkpt>
      <trkpt lat="44.13731" lon="3.18897">
        <ele>715</ele>
        <time>2024-11-07T12:59:53.000Z</time>
      </trkpt>
      <trkpt lat="44.13722" lon="3.18895">
        <ele>711.7</ele>
        <time>2024-11-07T13:00:17.000Z</time>
      </trkpt>
      <trkpt lat="44.13719" lon="3.18907">
        <ele>710.7</ele>
        <time>2024-11-07T13:00:22.000Z</time>
      </trkpt>
      <trkpt lat="44.13711" lon="3.18919">
        <ele>710.1</ele>
        <time>2024-11-07T13:00:25.000Z</time>
      </trkpt>
      <trkpt lat="44.13704" lon="3.18928">
        <ele>709.6</ele>
        <time>2024-11-07T13:00:28.000Z</time>
      </trkpt>
      <trkpt lat="44.13705" lon="3.18943">
        <ele>708.1</ele>
        <time>2024-11-07T13:00:35.000Z</time>
      </trkpt>
      <trkpt lat="44.13701" lon="3.18956">
        <ele>707</ele>
        <time>2024-11-07T13:00:40.000Z</time>
      </trkpt>
      <trkpt lat="44.13698" lon="3.18968">
        <ele>704.7</ele>
        <time>2024-11-07T13:01:00.000Z</time>
      </trkpt>
      <trkpt lat="44.1369" lon="3.18981">
        <ele>704.1</ele>
        <time>2024-11-07T13:01:04.000Z</time>
      </trkpt>
      <trkpt lat="44.13682" lon="3.18993">
        <ele>703.7</ele>
        <time>2024-11-07T13:01:06.000Z</time>
      </trkpt>
      <trkpt lat="44.13677" lon="3.19005">
        <ele>703.2</ele>
        <time>2024-11-07T13:01:08.000Z</time>
      </trkpt>
      <trkpt lat="44.13676" lon="3.19019">
        <ele>702.4</ele>
        <time>2024-11-07T13:01:12.000Z</time>
      </trkpt>
      <trkpt lat="44.13669" lon="3.19028">
        <ele>701.2</ele>
        <time>2024-11-07T13:01:19.000Z</time>
      </trkpt>
      <trkpt lat="44.13659" lon="3.19028">
        <ele>700.3</ele>
        <time>2024-11-07T13:01:26.000Z</time>
      </trkpt>
      <trkpt lat="44.13651" lon="3.19033">
        <ele>699.8</ele>
        <time>2024-11-07T13:01:30.000Z</time>
      </trkpt>
      <trkpt lat="44.1364" lon="3.19035">
        <ele>699.2</ele>
        <time>2024-11-07T13:01:33.000Z</time>
      </trkpt>
      <trkpt lat="44.13628" lon="3.19039">
        <ele>698.7</ele>
        <time>2024-11-07T13:01:36.000Z</time>
      </trkpt>
      <trkpt lat="44.13615" lon="3.1904">
        <ele>698.1</ele>
        <time>2024-11-07T13:01:39.000Z</time>
      </trkpt>
      <trkpt lat="44.13606" lon="3.19042">
        <ele>697.4</ele>
        <time>2024-11-07T13:01:42.000Z</time>
      </trkpt>
      <trkpt lat="44.13594" lon="3.19044">
        <ele>696.8</ele>
        <time>2024-11-07T13:01:45.000Z</time>
      </trkpt>
      <trkpt lat="44.13582" lon="3.19044">
        <ele>696.1</ele>
        <time>2024-11-07T13:01:48.000Z</time>
      </trkpt>
      <trkpt lat="44.13573" lon="3.19043">
        <ele>695.3</ele>
        <time>2024-11-07T13:01:52.000Z</time>
      </trkpt>
      <trkpt lat="44.13566" lon="3.19032">
        <ele>694.5</ele>
        <time>2024-11-07T13:01:57.000Z</time>
      </trkpt>
      <trkpt lat="44.13561" lon="3.19019">
        <ele>693.7</ele>
        <time>2024-11-07T13:02:04.000Z</time>
      </trkpt>
      <trkpt lat="44.13554" lon="3.19006">
        <ele>693.1</ele>
        <time>2024-11-07T13:02:07.000Z</time>
      </trkpt>
      <trkpt lat="44.13546" lon="3.18998">
        <ele>692.6</ele>
        <time>2024-11-07T13:02:10.000Z</time>
      </trkpt>
      <trkpt lat="44.13537" lon="3.18996">
        <ele>692.1</ele>
        <time>2024-11-07T13:02:14.000Z</time>
      </trkpt>
      <trkpt lat="44.13527" lon="3.18995">
        <ele>691.8</ele>
        <time>2024-11-07T13:02:16.000Z</time>
      </trkpt>
      <trkpt lat="44.13517" lon="3.18994">
        <ele>691.3</ele>
        <time>2024-11-07T13:02:18.000Z</time>
      </trkpt>
      <trkpt lat="44.13505" lon="3.18988">
        <ele>690.7</ele>
        <time>2024-11-07T13:02:21.000Z</time>
      </trkpt>
      <trkpt lat="44.13493" lon="3.18982">
        <ele>690</ele>
        <time>2024-11-07T13:02:24.000Z</time>
      </trkpt>
      <trkpt lat="44.13484" lon="3.18975">
        <ele>689.4</ele>
        <time>2024-11-07T13:02:26.000Z</time>
      </trkpt>
      <trkpt lat="44.13474" lon="3.18967">
        <ele>688.6</ele>
        <time>2024-11-07T13:02:28.000Z</time>
      </trkpt>
      <trkpt lat="44.13462" lon="3.18957">
        <ele>687.6</ele>
        <time>2024-11-07T13:02:30.000Z</time>
      </trkpt>
      <trkpt lat="44.13451" lon="3.18952">
        <ele>686.5</ele>
        <time>2024-11-07T13:02:32.000Z</time>
      </trkpt>
      <trkpt lat="44.13441" lon="3.18953">
        <ele>685.3</ele>
        <time>2024-11-07T13:02:34.000Z</time>
      </trkpt>
      <trkpt lat="44.1343" lon="3.18961">
        <ele>683.8</ele>
        <time>2024-11-07T13:02:37.000Z</time>
      </trkpt>
      <trkpt lat="44.13422" lon="3.18969">
        <ele>681.6</ele>
        <time>2024-11-07T13:02:42.000Z</time>
      </trkpt>
      <trkpt lat="44.13413" lon="3.18974">
        <ele>679.5</ele>
        <time>2024-11-07T13:02:48.000Z</time>
      </trkpt>
      <trkpt lat="44.13404" lon="3.18979">
        <ele>677.8</ele>
        <time>2024-11-07T13:02:54.000Z</time>
      </trkpt>
      <trkpt lat="44.13394" lon="3.18983">
        <ele>676.6</ele>
        <time>2024-11-07T13:03:00.000Z</time>
      </trkpt>
      <trkpt lat="44.13384" lon="3.18982">
        <ele>675.6</ele>
        <time>2024-11-07T13:03:06.000Z</time>
      </trkpt>
      <trkpt lat="44.13375" lon="3.18983">
        <ele>674.9</ele>
        <time>2024-11-07T13:03:10.000Z</time>
      </trkpt>
      <trkpt lat="44.13366" lon="3.18987">
        <ele>673</ele>
        <time>2024-11-07T13:03:18.000Z</time>
      </trkpt>
      <trkpt lat="44.13358" lon="3.18995">
        <ele>671.8</ele>
        <time>2024-11-07T13:03:27.000Z</time>
      </trkpt>
      <trkpt lat="44.13349" lon="3.19004">
        <ele>670.2</ele>
        <time>2024-11-07T13:04:21.000Z</time>
      </trkpt>
      <trkpt lat="44.13342" lon="3.19013">
        <ele>670.1</ele>
        <time>2024-11-07T13:04:26.000Z</time>
      </trkpt>
      <trkpt lat="44.1333" lon="3.19015">
        <ele>669.9</ele>
        <time>2024-11-07T13:04:31.000Z</time>
      </trkpt>
      <trkpt lat="44.1332" lon="3.19018">
        <ele>669.9</ele>
        <time>2024-11-07T13:04:33.000Z</time>
      </trkpt>
      <trkpt lat="44.13312" lon="3.19027">
        <ele>669.8</ele>
        <time>2024-11-07T13:04:36.000Z</time>
      </trkpt>
      <trkpt lat="44.13303" lon="3.19029">
        <ele>669.7</ele>
        <time>2024-11-07T13:04:41.000Z</time>
      </trkpt>
      <trkpt lat="44.13293" lon="3.1903">
        <ele>669.7</ele>
        <time>2024-11-07T13:04:48.000Z</time>
      </trkpt>
      <trkpt lat="44.13285" lon="3.19024">
        <ele>669.9</ele>
        <time>2024-11-07T13:04:56.000Z</time>
      </trkpt>
      <trkpt lat="44.13276" lon="3.19022">
        <ele>670</ele>
        <time>2024-11-07T13:05:02.000Z</time>
      </trkpt>
      <trkpt lat="44.13266" lon="3.19022">
        <ele>670.2</ele>
        <time>2024-11-07T13:05:09.000Z</time>
      </trkpt>
      <trkpt lat="44.13257" lon="3.19027">
        <ele>670.4</ele>
        <time>2024-11-07T13:05:16.000Z</time>
      </trkpt>
      <trkpt lat="44.13247" lon="3.1903">
        <ele>670.5</ele>
        <time>2024-11-07T13:05:22.000Z</time>
      </trkpt>
      <trkpt lat="44.13237" lon="3.19029">
        <ele>670.5</ele>
        <time>2024-11-07T13:05:28.000Z</time>
      </trkpt>
      <trkpt lat="44.13227" lon="3.19032">
        <ele>670.6</ele>
        <time>2024-11-07T13:05:36.000Z</time>
      </trkpt>
      <trkpt lat="44.13218" lon="3.19036">
        <ele>670.9</ele>
        <time>2024-11-07T13:05:45.000Z</time>
      </trkpt>
      <trkpt lat="44.13207" lon="3.19041">
        <ele>671.1</ele>
        <time>2024-11-07T13:05:51.000Z</time>
      </trkpt>
      <trkpt lat="44.13198" lon="3.19037">
        <ele>671.2</ele>
        <time>2024-11-07T13:05:56.000Z</time>
      </trkpt>
      <trkpt lat="44.13188" lon="3.19038">
        <ele>671.2</ele>
        <time>2024-11-07T13:06:01.000Z</time>
      </trkpt>
      <trkpt lat="44.13178" lon="3.19042">
        <ele>671.3</ele>
        <time>2024-11-07T13:06:06.000Z</time>
      </trkpt>
      <trkpt lat="44.13169" lon="3.19047">
        <ele>671.3</ele>
        <time>2024-11-07T13:06:11.000Z</time>
      </trkpt>
      <trkpt lat="44.1316" lon="3.19053">
        <ele>671.3</ele>
        <time>2024-11-07T13:06:18.000Z</time>
      </trkpt>
      <trkpt lat="44.13151" lon="3.19062">
        <ele>671.1</ele>
        <time>2024-11-07T13:06:23.000Z</time>
      </trkpt>
      <trkpt lat="44.13143" lon="3.19072">
        <ele>670.6</ele>
        <time>2024-11-07T13:06:27.000Z</time>
      </trkpt>
      <trkpt lat="44.13135" lon="3.1908">
        <ele>670.1</ele>
        <time>2024-11-07T13:06:30.000Z</time>
      </trkpt>
      <trkpt lat="44.13124" lon="3.19082">
        <ele>669.1</ele>
        <time>2024-11-07T13:06:35.000Z</time>
      </trkpt>
      <trkpt lat="44.13114" lon="3.19086">
        <ele>668.1</ele>
        <time>2024-11-07T13:06:39.000Z</time>
      </trkpt>
      <trkpt lat="44.13108" lon="3.19097">
        <ele>666.6</ele>
        <time>2024-11-07T13:06:44.000Z</time>
      </trkpt>
      <trkpt lat="44.13105" lon="3.19109">
        <ele>665</ele>
        <time>2024-11-07T13:06:48.000Z</time>
      </trkpt>
      <trkpt lat="44.13097" lon="3.19115">
        <ele>663.5</ele>
        <time>2024-11-07T13:06:52.000Z</time>
      </trkpt>
      <trkpt lat="44.13088" lon="3.19121">
        <ele>662.4</ele>
        <time>2024-11-07T13:06:56.000Z</time>
      </trkpt>
      <trkpt lat="44.13081" lon="3.19129">
        <ele>660.7</ele>
        <time>2024-11-07T13:07:03.000Z</time>
      </trkpt>
      <trkpt lat="44.13074" lon="3.19142">
        <ele>659.7</ele>
        <time>2024-11-07T13:07:07.000Z</time>
      </trkpt>
      <trkpt lat="44.13066" lon="3.1915">
        <ele>658.8</ele>
        <time>2024-11-07T13:07:11.000Z</time>
      </trkpt>
      <trkpt lat="44.13056" lon="3.19151">
        <ele>657.7</ele>
        <time>2024-11-07T13:07:17.000Z</time>
      </trkpt>
      <trkpt lat="44.13048" lon="3.19158">
        <ele>657</ele>
        <time>2024-11-07T13:07:23.000Z</time>
      </trkpt>
      <trkpt lat="44.13041" lon="3.19169">
        <ele>656.5</ele>
        <time>2024-11-07T13:07:29.000Z</time>
      </trkpt>
      <trkpt lat="44.13033" lon="3.19177">
        <ele>656.1</ele>
        <time>2024-11-07T13:07:35.000Z</time>
      </trkpt>
      <trkpt lat="44.13024" lon="3.1918">
        <ele>655.9</ele>
        <time>2024-11-07T13:07:40.000Z</time>
      </trkpt>
      <trkpt lat="44.13014" lon="3.19177">
        <ele>655.7</ele>
        <time>2024-11-07T13:07:46.000Z</time>
      </trkpt>
      <trkpt lat="44.13006" lon="3.19172">
        <ele>655.5</ele>
        <time>2024-11-07T13:07:52.000Z</time>
      </trkpt>
      <trkpt lat="44.12998" lon="3.19162">
        <ele>655.4</ele>
        <time>2024-11-07T13:07:59.000Z</time>
      </trkpt>
      <trkpt lat="44.12994" lon="3.19149">
        <ele>655.2</ele>
        <time>2024-11-07T13:08:04.000Z</time>
      </trkpt>
      <trkpt lat="44.12986" lon="3.19144">
        <ele>655</ele>
        <time>2024-11-07T13:08:09.000Z</time>
      </trkpt>
      <trkpt lat="44.12978" lon="3.19135">
        <ele>654.8</ele>
        <time>2024-11-07T13:08:15.000Z</time>
      </trkpt>
      <trkpt lat="44.1297" lon="3.19128">
        <ele>654.7</ele>
        <time>2024-11-07T13:08:20.000Z</time>
      </trkpt>
      <trkpt lat="44.1296" lon="3.19124">
        <ele>654.6</ele>
        <time>2024-11-07T13:08:25.000Z</time>
      </trkpt>
      <trkpt lat="44.12951" lon="3.1912">
        <ele>654.5</ele>
        <time>2024-11-07T13:08:29.000Z</time>
      </trkpt>
      <trkpt lat="44.12941" lon="3.1912">
        <ele>654.5</ele>
        <time>2024-11-07T13:08:35.000Z</time>
      </trkpt>
      <trkpt lat="44.12932" lon="3.19119">
        <ele>654.8</ele>
        <time>2024-11-07T13:08:42.000Z</time>
      </trkpt>
      <trkpt lat="44.12925" lon="3.19128">
        <ele>655.1</ele>
        <time>2024-11-07T13:08:55.000Z</time>
      </trkpt>
      <trkpt lat="44.12919" lon="3.19138">
        <ele>655.2</ele>
        <time>2024-11-07T13:09:08.000Z</time>
      </trkpt>
      <trkpt lat="44.12914" lon="3.19149">
        <ele>655.4</ele>
        <time>2024-11-07T13:09:38.000Z</time>
      </trkpt>
      <trkpt lat="44.1291" lon="3.1916">
        <ele>657.1</ele>
        <time>2024-11-07T13:10:01.000Z</time>
      </trkpt>
      <trkpt lat="44.12901" lon="3.19167">
        <ele>659.2</ele>
        <time>2024-11-07T13:10:16.000Z</time>
      </trkpt>
      <trkpt lat="44.12893" lon="3.19174">
        <ele>660.7</ele>
        <time>2024-11-07T13:10:32.000Z</time>
      </trkpt>
      <trkpt lat="44.12889" lon="3.19186">
        <ele>661.6</ele>
        <time>2024-11-07T13:10:53.000Z</time>
      </trkpt>
      <trkpt lat="44.12886" lon="3.19198">
        <ele>661.7</ele>
        <time>2024-11-07T13:11:05.000Z</time>
      </trkpt>
      <trkpt lat="44.12881" lon="3.19209">
        <ele>661.6</ele>
        <time>2024-11-07T13:11:19.000Z</time>
      </trkpt>
      <trkpt lat="44.12878" lon="3.19221">
        <ele>661.3</ele>
        <time>2024-11-07T13:11:28.000Z</time>
      </trkpt>
      <trkpt lat="44.1287" lon="3.19231">
        <ele>661.1</ele>
        <time>2024-11-07T13:11:34.000Z</time>
      </trkpt>
      <trkpt lat="44.12861" lon="3.19238">
        <ele>660.8</ele>
        <time>2024-11-07T13:11:38.000Z</time>
      </trkpt>
      <trkpt lat="44.12852" lon="3.19245">
        <ele>660.2</ele>
        <time>2024-11-07T13:11:44.000Z</time>
      </trkpt>
      <trkpt lat="44.12842" lon="3.19248">
        <ele>659.8</ele>
        <time>2024-11-07T13:11:49.000Z</time>
      </trkpt>
      <trkpt lat="44.12832" lon="3.19248">
        <ele>659.4</ele>
        <time>2024-11-07T13:11:53.000Z</time>
      </trkpt>
      <trkpt lat="44.12823" lon="3.19252">
        <ele>658.7</ele>
        <time>2024-11-07T13:11:59.000Z</time>
      </trkpt>
      <trkpt lat="44.12814" lon="3.19257">
        <ele>657.9</ele>
        <time>2024-11-07T13:12:04.000Z</time>
      </trkpt>
      <trkpt lat="44.12806" lon="3.19265">
        <ele>656.9</ele>
        <time>2024-11-07T13:12:10.000Z</time>
      </trkpt>
      <trkpt lat="44.12798" lon="3.19274">
        <ele>656</ele>
        <time>2024-11-07T13:12:16.000Z</time>
      </trkpt>
      <trkpt lat="44.12789" lon="3.19278">
        <ele>655.3</ele>
        <time>2024-11-07T13:12:21.000Z</time>
      </trkpt>
      <trkpt lat="44.12778" lon="3.19282">
        <ele>654.4</ele>
        <time>2024-11-07T13:12:26.000Z</time>
      </trkpt>
      <trkpt lat="44.12782" lon="3.19294">
        <ele>652.9</ele>
        <time>2024-11-07T13:14:28.000Z</time>
      </trkpt>
      <trkpt lat="44.1279" lon="3.19301">
        <ele>653.7</ele>
        <time>2024-11-07T13:14:38.000Z</time>
      </trkpt>
      <trkpt lat="44.12797" lon="3.19312">
        <ele>653.5</ele>
        <time>2024-11-07T13:14:45.000Z</time>
      </trkpt>
      <trkpt lat="44.12807" lon="3.19318">
        <ele>653.1</ele>
        <time>2024-11-07T13:14:51.000Z</time>
      </trkpt>
      <trkpt lat="44.12814" lon="3.19327">
        <ele>652.6</ele>
        <time>2024-11-07T13:14:55.000Z</time>
      </trkpt>
      <trkpt lat="44.12823" lon="3.19331">
        <ele>651.5</ele>
        <time>2024-11-07T13:15:01.000Z</time>
      </trkpt>
      <trkpt lat="44.12833" lon="3.19331">
        <ele>650.7</ele>
        <time>2024-11-07T13:15:08.000Z</time>
      </trkpt>
      <trkpt lat="44.12844" lon="3.19331">
        <ele>650.2</ele>
        <time>2024-11-07T13:15:16.000Z</time>
      </trkpt>
      <trkpt lat="44.12852" lon="3.19338">
        <ele>649.9</ele>
        <time>2024-11-07T13:15:22.000Z</time>
      </trkpt>
      <trkpt lat="44.12859" lon="3.19347">
        <ele>649.7</ele>
        <time>2024-11-07T13:15:27.000Z</time>
      </trkpt>
      <trkpt lat="44.12865" lon="3.19357">
        <ele>649.5</ele>
        <time>2024-11-07T13:15:33.000Z</time>
      </trkpt>
      <trkpt lat="44.12872" lon="3.19367">
        <ele>649.3</ele>
        <time>2024-11-07T13:15:39.000Z</time>
      </trkpt>
      <trkpt lat="44.12879" lon="3.19377">
        <ele>649.2</ele>
        <time>2024-11-07T13:15:45.000Z</time>
      </trkpt>
      <trkpt lat="44.12884" lon="3.19389">
        <ele>649</ele>
        <time>2024-11-07T13:15:51.000Z</time>
      </trkpt>
      <trkpt lat="44.12888" lon="3.19405">
        <ele>647.2</ele>
        <time>2024-11-07T13:16:11.000Z</time>
      </trkpt>
      <trkpt lat="44.12893" lon="3.19416">
        <ele>646.5</ele>
        <time>2024-11-07T13:16:22.000Z</time>
      </trkpt>
      <trkpt lat="44.12894" lon="3.19431">
        <ele>643.4</ele>
        <time>2024-11-07T13:18:02.000Z</time>
      </trkpt>
      <trkpt lat="44.1289" lon="3.19444">
        <ele>643</ele>
        <time>2024-11-07T13:18:06.000Z</time>
      </trkpt>
      <trkpt lat="44.12883" lon="3.19454">
        <ele>640.7</ele>
        <time>2024-11-07T13:18:21.000Z</time>
      </trkpt>
      <trkpt lat="44.12885" lon="3.19467">
        <ele>640.1</ele>
        <time>2024-11-07T13:18:28.000Z</time>
      </trkpt>
      <trkpt lat="44.12888" lon="3.19481">
        <ele>639.7</ele>
        <time>2024-11-07T13:18:33.000Z</time>
      </trkpt>
      <trkpt lat="44.12895" lon="3.19491">
        <ele>639.3</ele>
        <time>2024-11-07T13:18:38.000Z</time>
      </trkpt>
      <trkpt lat="44.12903" lon="3.19499">
        <ele>639</ele>
        <time>2024-11-07T13:18:43.000Z</time>
      </trkpt>
      <trkpt lat="44.12911" lon="3.19507">
        <ele>639</ele>
        <time>2024-11-07T13:18:50.000Z</time>
      </trkpt>
      <trkpt lat="44.12918" lon="3.19518">
        <ele>638.5</ele>
        <time>2024-11-07T13:18:57.000Z</time>
      </trkpt>
      <trkpt lat="44.12928" lon="3.19524">
        <ele>637.9</ele>
        <time>2024-11-07T13:19:03.000Z</time>
      </trkpt>
      <trkpt lat="44.12937" lon="3.1953">
        <ele>637.5</ele>
        <time>2024-11-07T13:19:08.000Z</time>
      </trkpt>
      <trkpt lat="44.12946" lon="3.19537">
        <ele>637.2</ele>
        <time>2024-11-07T13:19:12.000Z</time>
      </trkpt>
      <trkpt lat="44.12953" lon="3.19546">
        <ele>636.9</ele>
        <time>2024-11-07T13:19:18.000Z</time>
      </trkpt>
      <trkpt lat="44.12961" lon="3.19553">
        <ele>636.7</ele>
        <time>2024-11-07T13:19:23.000Z</time>
      </trkpt>
      <trkpt lat="44.12969" lon="3.19562">
        <ele>636.4</ele>
        <time>2024-11-07T13:19:27.000Z</time>
      </trkpt>
      <trkpt lat="44.12961" lon="3.19572">
        <ele>629</ele>
        <time>2024-11-07T13:20:42.000Z</time>
      </trkpt>
      <trkpt lat="44.1295" lon="3.19577">
        <ele>628.2</ele>
        <time>2024-11-07T13:20:45.000Z</time>
      </trkpt>
      <trkpt lat="44.12939" lon="3.19572">
        <ele>626.9</ele>
        <time>2024-11-07T13:20:49.000Z</time>
      </trkpt>
      <trkpt lat="44.12933" lon="3.19585">
        <ele>624.9</ele>
        <time>2024-11-07T13:20:54.000Z</time>
      </trkpt>
      <trkpt lat="44.12927" lon="3.19597">
        <ele>623.4</ele>
        <time>2024-11-07T13:20:58.000Z</time>
      </trkpt>
      <trkpt lat="44.12919" lon="3.19604">
        <ele>622.2</ele>
        <time>2024-11-07T13:21:02.000Z</time>
      </trkpt>
      <trkpt lat="44.12906" lon="3.19612">
        <ele>619.6</ele>
        <time>2024-11-07T13:21:14.000Z</time>
      </trkpt>
      <trkpt lat="44.12895" lon="3.1961">
        <ele>617.9</ele>
        <time>2024-11-07T13:21:18.000Z</time>
      </trkpt>
      <trkpt lat="44.12886" lon="3.19605">
        <ele>615.3</ele>
        <time>2024-11-07T13:21:23.000Z</time>
      </trkpt>
      <trkpt lat="44.12881" lon="3.19594">
        <ele>609.6</ele>
        <time>2024-11-07T13:21:33.000Z</time>
      </trkpt>
      <trkpt lat="44.1287" lon="3.19594">
        <ele>607.7</ele>
        <time>2024-11-07T13:21:36.000Z</time>
      </trkpt>
      <trkpt lat="44.12859" lon="3.19591">
        <ele>605.6</ele>
        <time>2024-11-07T13:21:39.000Z</time>
      </trkpt>
      <trkpt lat="44.1285" lon="3.1959">
        <ele>603.4</ele>
        <time>2024-11-07T13:21:42.000Z</time>
      </trkpt>
      <trkpt lat="44.1284" lon="3.1959">
        <ele>601.1</ele>
        <time>2024-11-07T13:21:45.000Z</time>
      </trkpt>
      <trkpt lat="44.12827" lon="3.19588">
        <ele>598.5</ele>
        <time>2024-11-07T13:21:48.000Z</time>
      </trkpt>
      <trkpt lat="44.12816" lon="3.19588">
        <ele>595.8</ele>
        <time>2024-11-07T13:21:51.000Z</time>
      </trkpt>
      <trkpt lat="44.12805" lon="3.19584">
        <ele>592.9</ele>
        <time>2024-11-07T13:21:54.000Z</time>
      </trkpt>
      <trkpt lat="44.12795" lon="3.19583">
        <ele>590</ele>
        <time>2024-11-07T13:21:57.000Z</time>
      </trkpt>
      <trkpt lat="44.12787" lon="3.19577">
        <ele>587</ele>
        <time>2024-11-07T13:22:00.000Z</time>
      </trkpt>
      <trkpt lat="44.12781" lon="3.19563">
        <ele>582.9</ele>
        <time>2024-11-07T13:22:04.000Z</time>
      </trkpt>
      <trkpt lat="44.12772" lon="3.19557">
        <ele>578.8</ele>
        <time>2024-11-07T13:22:08.000Z</time>
      </trkpt>
      <trkpt lat="44.12762" lon="3.19558">
        <ele>576</ele>
        <time>2024-11-07T13:22:11.000Z</time>
      </trkpt>
      <trkpt lat="44.12753" lon="3.19555">
        <ele>573.3</ele>
        <time>2024-11-07T13:22:14.000Z</time>
      </trkpt>
      <trkpt lat="44.12744" lon="3.19551">
        <ele>570.4</ele>
        <time>2024-11-07T13:22:17.000Z</time>
      </trkpt>
      <trkpt lat="44.12734" lon="3.19544">
        <ele>567.3</ele>
        <time>2024-11-07T13:22:20.000Z</time>
      </trkpt>
      <trkpt lat="44.12725" lon="3.19538">
        <ele>563.9</ele>
        <time>2024-11-07T13:22:23.000Z</time>
      </trkpt>
      <trkpt lat="44.12714" lon="3.19534">
        <ele>560.6</ele>
        <time>2024-11-07T13:22:26.000Z</time>
      </trkpt>
      <trkpt lat="44.12704" lon="3.19528">
        <ele>557.2</ele>
        <time>2024-11-07T13:22:29.000Z</time>
      </trkpt>
      <trkpt lat="44.12696" lon="3.19518">
        <ele>553.7</ele>
        <time>2024-11-07T13:22:32.000Z</time>
      </trkpt>
      <trkpt lat="44.1269" lon="3.19504">
        <ele>550.2</ele>
        <time>2024-11-07T13:22:35.000Z</time>
      </trkpt>
      <trkpt lat="44.1268" lon="3.19508">
        <ele>538.8</ele>
        <time>2024-11-07T13:22:49.000Z</time>
      </trkpt>
      <trkpt lat="44.12667" lon="3.19499">
        <ele>529.6</ele>
        <time>2024-11-07T13:23:59.000Z</time>
      </trkpt>
      <trkpt lat="44.12657" lon="3.19502">
        <ele>528.9</ele>
        <time>2024-11-07T13:24:01.000Z</time>
      </trkpt>
      <trkpt lat="44.12645" lon="3.19504">
        <ele>527.4</ele>
        <time>2024-11-07T13:24:05.000Z</time>
      </trkpt>
      <trkpt lat="44.12633" lon="3.195">
        <ele>525.1</ele>
        <time>2024-11-07T13:24:10.000Z</time>
      </trkpt>
      <trkpt lat="44.12624" lon="3.19497">
        <ele>524.2</ele>
        <time>2024-11-07T13:24:12.000Z</time>
      </trkpt>
      <trkpt lat="44.12612" lon="3.195">
        <ele>522.8</ele>
        <time>2024-11-07T13:24:15.000Z</time>
      </trkpt>
      <trkpt lat="44.12602" lon="3.19505">
        <ele>521.8</ele>
        <time>2024-11-07T13:24:17.000Z</time>
      </trkpt>
      <trkpt lat="44.12591" lon="3.19509">
        <ele>520.1</ele>
        <time>2024-11-07T13:24:20.000Z</time>
      </trkpt>
      <trkpt lat="44.12582" lon="3.19514">
        <ele>518.2</ele>
        <time>2024-11-07T13:24:24.000Z</time>
      </trkpt>
      <trkpt lat="44.12573" lon="3.19518">
        <ele>514.9</ele>
        <time>2024-11-07T13:24:36.000Z</time>
      </trkpt>
      <trkpt lat="44.12567" lon="3.19529">
        <ele>514.1</ele>
        <time>2024-11-07T13:24:41.000Z</time>
      </trkpt>
      <trkpt lat="44.12563" lon="3.19543">
        <ele>513.5</ele>
        <time>2024-11-07T13:24:47.000Z</time>
      </trkpt>
      <trkpt lat="44.12559" lon="3.19558">
        <ele>513.2</ele>
        <time>2024-11-07T13:24:51.000Z</time>
      </trkpt>
      <trkpt lat="44.12552" lon="3.1957">
        <ele>512.9</ele>
        <time>2024-11-07T13:24:54.000Z</time>
      </trkpt>
      <trkpt lat="44.12543" lon="3.19583">
        <ele>512.4</ele>
        <time>2024-11-07T13:24:57.000Z</time>
      </trkpt>
      <trkpt lat="44.12535" lon="3.19598">
        <ele>511.5</ele>
        <time>2024-11-07T13:25:00.000Z</time>
      </trkpt>
      <trkpt lat="44.12528" lon="3.19608">
        <ele>510.8</ele>
        <time>2024-11-07T13:25:02.000Z</time>
      </trkpt>
      <trkpt lat="44.12519" lon="3.19615">
        <ele>509.9</ele>
        <time>2024-11-07T13:25:04.000Z</time>
      </trkpt>
      <trkpt lat="44.12507" lon="3.19622">
        <ele>509</ele>
        <time>2024-11-07T13:25:06.000Z</time>
      </trkpt>
      <trkpt lat="44.12498" lon="3.1963">
        <ele>508.1</ele>
        <time>2024-11-07T13:25:08.000Z</time>
      </trkpt>
      <trkpt lat="44.1249" lon="3.19639">
        <ele>507.2</ele>
        <time>2024-11-07T13:25:10.000Z</time>
      </trkpt>
      <trkpt lat="44.12479" lon="3.1965">
        <ele>506.1</ele>
        <time>2024-11-07T13:25:13.000Z</time>
      </trkpt>
      <trkpt lat="44.12471" lon="3.19657">
        <ele>505.3</ele>
        <time>2024-11-07T13:25:15.000Z</time>
      </trkpt>
      <trkpt lat="44.12462" lon="3.19664">
        <ele>504.5</ele>
        <time>2024-11-07T13:25:17.000Z</time>
      </trkpt>
      <trkpt lat="44.12453" lon="3.19671">
        <ele>503.6</ele>
        <time>2024-11-07T13:25:19.000Z</time>
      </trkpt>
      <trkpt lat="44.12443" lon="3.19674">
        <ele>502.5</ele>
        <time>2024-11-07T13:25:21.000Z</time>
      </trkpt>
      <trkpt lat="44.12431" lon="3.19677">
        <ele>500.7</ele>
        <time>2024-11-07T13:25:24.000Z</time>
      </trkpt>
      <trkpt lat="44.12421" lon="3.19677">
        <ele>499.3</ele>
        <time>2024-11-07T13:25:26.000Z</time>
      </trkpt>
      <trkpt lat="44.1241" lon="3.19677">
        <ele>497.9</ele>
        <time>2024-11-07T13:25:28.000Z</time>
      </trkpt>
      <trkpt lat="44.12401" lon="3.19681">
        <ele>496.4</ele>
        <time>2024-11-07T13:25:30.000Z</time>
      </trkpt>
      <trkpt lat="44.12392" lon="3.19687">
        <ele>495</ele>
        <time>2024-11-07T13:25:32.000Z</time>
      </trkpt>
      <trkpt lat="44.12382" lon="3.19693">
        <ele>492.5</ele>
        <time>2024-11-07T13:25:36.000Z</time>
      </trkpt>
      <trkpt lat="44.12371" lon="3.19696">
        <ele>490.5</ele>
        <time>2024-11-07T13:25:40.000Z</time>
      </trkpt>
      <trkpt lat="44.1236" lon="3.19703">
        <ele>488.7</ele>
        <time>2024-11-07T13:25:44.000Z</time>
      </trkpt>
      <trkpt lat="44.12358" lon="3.19715">
        <ele>487.1</ele>
        <time>2024-11-07T13:25:48.000Z</time>
      </trkpt>
      <trkpt lat="44.1236" lon="3.19728">
        <ele>485.7</ele>
        <time>2024-11-07T13:25:52.000Z</time>
      </trkpt>
      <trkpt lat="44.12359" lon="3.19741">
        <ele>479.6</ele>
        <time>2024-11-07T13:26:58.000Z</time>
      </trkpt>
      <trkpt lat="44.1236" lon="3.19756">
        <ele>479.3</ele>
        <time>2024-11-07T13:27:03.000Z</time>
      </trkpt>
      <trkpt lat="44.12357" lon="3.1977">
        <ele>478.7</ele>
        <time>2024-11-07T13:27:06.000Z</time>
      </trkpt>
      <trkpt lat="44.12362" lon="3.19783">
        <ele>477.8</ele>
        <time>2024-11-07T13:27:09.000Z</time>
      </trkpt>
      <trkpt lat="44.12369" lon="3.19792">
        <ele>477</ele>
        <time>2024-11-07T13:27:11.000Z</time>
      </trkpt>
      <trkpt lat="44.12378" lon="3.19806">
        <ele>475.6</ele>
        <time>2024-11-07T13:27:14.000Z</time>
      </trkpt>
      <trkpt lat="44.12383" lon="3.19816">
        <ele>474.4</ele>
        <time>2024-11-07T13:27:16.000Z</time>
      </trkpt>
      <trkpt lat="44.12392" lon="3.19827">
        <ele>472.4</ele>
        <time>2024-11-07T13:27:19.000Z</time>
      </trkpt>
      <trkpt lat="44.12401" lon="3.19824">
        <ele>470</ele>
        <time>2024-11-07T13:27:23.000Z</time>
      </trkpt>
      <trkpt lat="44.12411" lon="3.19826">
        <ele>467.8</ele>
        <time>2024-11-07T13:27:27.000Z</time>
      </trkpt>
      <trkpt lat="44.12422" lon="3.1983">
        <ele>465.8</ele>
        <time>2024-11-07T13:27:31.000Z</time>
      </trkpt>
      <trkpt lat="44.12428" lon="3.19838">
        <ele>463.4</ele>
        <time>2024-11-07T13:27:36.000Z</time>
      </trkpt>
      <trkpt lat="44.12416" lon="3.19842">
        <ele>453.4</ele>
        <time>2024-11-07T13:30:22.000Z</time>
      </trkpt>
      <trkpt lat="44.12405" lon="3.19851">
        <ele>451.9</ele>
        <time>2024-11-07T13:30:25.000Z</time>
      </trkpt>
      <trkpt lat="44.12393" lon="3.19844">
        <ele>450.1</ele>
        <time>2024-11-07T13:30:28.000Z</time>
      </trkpt>
      <trkpt lat="44.12381" lon="3.19842">
        <ele>448.3</ele>
        <time>2024-11-07T13:30:31.000Z</time>
      </trkpt>
      <trkpt lat="44.12371" lon="3.19847">
        <ele>446.6</ele>
        <time>2024-11-07T13:30:34.000Z</time>
      </trkpt>
      <trkpt lat="44.12362" lon="3.19843">
        <ele>444.1</ele>
        <time>2024-11-07T13:30:38.000Z</time>
      </trkpt>
      <trkpt lat="44.1235" lon="3.1984">
        <ele>440.6</ele>
        <time>2024-11-07T13:30:43.000Z</time>
      </trkpt>
      <trkpt lat="44.12344" lon="3.19852">
        <ele>437</ele>
        <time>2024-11-07T13:30:48.000Z</time>
      </trkpt>
      <trkpt lat="44.12341" lon="3.19866">
        <ele>434.7</ele>
        <time>2024-11-07T13:30:51.000Z</time>
      </trkpt>
      <trkpt lat="44.12327" lon="3.19866">
        <ele>430.7</ele>
        <time>2024-11-07T13:30:56.000Z</time>
      </trkpt>
      <trkpt lat="44.12311" lon="3.19866">
        <ele>428</ele>
        <time>2024-11-07T13:30:59.000Z</time>
      </trkpt>
      <trkpt lat="44.12299" lon="3.19864">
        <ele>426.2</ele>
        <time>2024-11-07T13:31:01.000Z</time>
      </trkpt>
      <trkpt lat="44.1229" lon="3.19865">
        <ele>424.4</ele>
        <time>2024-11-07T13:31:03.000Z</time>
      </trkpt>
      <trkpt lat="44.12279" lon="3.19867">
        <ele>421</ele>
        <time>2024-11-07T13:31:07.000Z</time>
      </trkpt>
      <trkpt lat="44.1227" lon="3.19869">
        <ele>417.6</ele>
        <time>2024-11-07T13:31:12.000Z</time>
      </trkpt>
      <trkpt lat="44.12263" lon="3.19879">
        <ele>410.9</ele>
        <time>2024-11-07T13:31:25.000Z</time>
      </trkpt>
      <trkpt lat="44.12262" lon="3.19893">
        <ele>409.6</ele>
        <time>2024-11-07T13:31:29.000Z</time>
      </trkpt>
      <trkpt lat="44.1226" lon="3.19907">
        <ele>408.6</ele>
        <time>2024-11-07T13:31:33.000Z</time>
      </trkpt>
      <trkpt lat="44.12258" lon="3.19919">
        <ele>408</ele>
        <time>2024-11-07T13:31:36.000Z</time>
      </trkpt>
      <trkpt lat="44.12256" lon="3.19936">
        <ele>407.4</ele>
        <time>2024-11-07T13:31:40.000Z</time>
      </trkpt>
      <trkpt lat="44.12254" lon="3.19952">
        <ele>406.9</ele>
        <time>2024-11-07T13:31:44.000Z</time>
      </trkpt>
      <trkpt lat="44.12254" lon="3.19965">
        <ele>406.6</ele>
        <time>2024-11-07T13:31:47.000Z</time>
      </trkpt>
      <trkpt lat="44.12253" lon="3.19979">
        <ele>406.4</ele>
        <time>2024-11-07T13:31:50.000Z</time>
      </trkpt>
      <trkpt lat="44.12253" lon="3.19992">
        <ele>406.2</ele>
        <time>2024-11-07T13:31:53.000Z</time>
      </trkpt>
      <trkpt lat="44.12251" lon="3.20007">
        <ele>406.1</ele>
        <time>2024-11-07T13:31:56.000Z</time>
      </trkpt>
      <trkpt lat="44.1225" lon="3.2002">
        <ele>406</ele>
        <time>2024-11-07T13:31:59.000Z</time>
      </trkpt>
      <trkpt lat="44.12248" lon="3.20033">
        <ele>406</ele>
        <time>2024-11-07T13:32:02.000Z</time>
      </trkpt>
      <trkpt lat="44.12244" lon="3.20046">
        <ele>405.9</ele>
        <time>2024-11-07T13:32:05.000Z</time>
      </trkpt>
      <trkpt lat="44.12242" lon="3.2006">
        <ele>405.8</ele>
        <time>2024-11-07T13:32:08.000Z</time>
      </trkpt>
      <trkpt lat="44.12242" lon="3.20076">
        <ele>405.8</ele>
        <time>2024-11-07T13:32:11.000Z</time>
      </trkpt>
      <trkpt lat="44.12241" lon="3.20091">
        <ele>405.8</ele>
        <time>2024-11-07T13:32:14.000Z</time>
      </trkpt>
      <trkpt lat="44.1224" lon="3.20105">
        <ele>405.8</ele>
        <time>2024-11-07T13:32:17.000Z</time>
      </trkpt>
      <trkpt lat="44.1224" lon="3.20118">
        <ele>405.8</ele>
        <time>2024-11-07T13:32:20.000Z</time>
      </trkpt>
      <trkpt lat="44.12239" lon="3.20133">
        <ele>405.9</ele>
        <time>2024-11-07T13:32:23.000Z</time>
      </trkpt>
      <trkpt lat="44.12238" lon="3.20149">
        <ele>405.9</ele>
        <time>2024-11-07T13:32:26.000Z</time>
      </trkpt>
      <trkpt lat="44.12238" lon="3.20164">
        <ele>405.9</ele>
        <time>2024-11-07T13:32:29.000Z</time>
      </trkpt>
      <trkpt lat="44.12236" lon="3.20181">
        <ele>405.9</ele>
        <time>2024-11-07T13:32:32.000Z</time>
      </trkpt>
      <trkpt lat="44.12235" lon="3.20197">
        <ele>405.9</ele>
        <time>2024-11-07T13:32:35.000Z</time>
      </trkpt>
      <trkpt lat="44.12235" lon="3.20214">
        <ele>405.9</ele>
        <time>2024-11-07T13:32:38.000Z</time>
      </trkpt>
      <trkpt lat="44.12233" lon="3.20229">
        <ele>405.9</ele>
        <time>2024-11-07T13:32:41.000Z</time>
      </trkpt>
      <trkpt lat="44.12232" lon="3.20246">
        <ele>405.9</ele>
        <time>2024-11-07T13:32:44.000Z</time>
      </trkpt>
      <trkpt lat="44.1223" lon="3.20263">
        <ele>405.9</ele>
        <time>2024-11-07T13:32:47.000Z</time>
      </trkpt>
      <trkpt lat="44.12228" lon="3.20281">
        <ele>406</ele>
        <time>2024-11-07T13:32:50.000Z</time>
      </trkpt>
      <trkpt lat="44.12224" lon="3.20298">
        <ele>406</ele>
        <time>2024-11-07T13:32:53.000Z</time>
      </trkpt>
      <trkpt lat="44.1222" lon="3.20315">
        <ele>406</ele>
        <time>2024-11-07T13:32:56.000Z</time>
      </trkpt>
      <trkpt lat="44.12216" lon="3.20327">
        <ele>406</ele>
        <time>2024-11-07T13:32:58.000Z</time>
      </trkpt>
      <trkpt lat="44.12212" lon="3.20339">
        <ele>406</ele>
        <time>2024-11-07T13:33:00.000Z</time>
      </trkpt>
      <trkpt lat="44.12209" lon="3.20351">
        <ele>406</ele>
        <time>2024-11-07T13:33:02.000Z</time>
      </trkpt>
      <trkpt lat="44.12205" lon="3.20363">
        <ele>406</ele>
        <time>2024-11-07T13:33:04.000Z</time>
      </trkpt>
      <trkpt lat="44.12202" lon="3.20376">
        <ele>406</ele>
        <time>2024-11-07T13:33:06.000Z</time>
      </trkpt>
      <trkpt lat="44.12199" lon="3.20388">
        <ele>406</ele>
        <time>2024-11-07T13:33:08.000Z</time>
      </trkpt>
      <trkpt lat="44.12195" lon="3.20401">
        <ele>406</ele>
        <time>2024-11-07T13:33:10.000Z</time>
      </trkpt>
      <trkpt lat="44.1219" lon="3.20413">
        <ele>406.1</ele>
        <time>2024-11-07T13:33:12.000Z</time>
      </trkpt>
      <trkpt lat="44.12185" lon="3.20427">
        <ele>406.1</ele>
        <time>2024-11-07T13:33:14.000Z</time>
      </trkpt>
      <trkpt lat="44.12181" lon="3.20441">
        <ele>406.1</ele>
        <time>2024-11-07T13:33:16.000Z</time>
      </trkpt>
      <trkpt lat="44.12176" lon="3.20455">
        <ele>406.1</ele>
        <time>2024-11-07T13:33:18.000Z</time>
      </trkpt>
      <trkpt lat="44.12171" lon="3.20469">
        <ele>406.1</ele>
        <time>2024-11-07T13:33:20.000Z</time>
      </trkpt>
      <trkpt lat="44.12166" lon="3.20482">
        <ele>406.1</ele>
        <time>2024-11-07T13:33:22.000Z</time>
      </trkpt>
      <trkpt lat="44.12161" lon="3.20495">
        <ele>406.2</ele>
        <time>2024-11-07T13:33:24.000Z</time>
      </trkpt>
      <trkpt lat="44.12157" lon="3.20507">
        <ele>406.2</ele>
        <time>2024-11-07T13:33:26.000Z</time>
      </trkpt>
      <trkpt lat="44.12153" lon="3.2052">
        <ele>406.2</ele>
        <time>2024-11-07T13:33:28.000Z</time>
      </trkpt>
      <trkpt lat="44.12148" lon="3.20533">
        <ele>406.2</ele>
        <time>2024-11-07T13:33:30.000Z</time>
      </trkpt>
      <trkpt lat="44.12144" lon="3.20545">
        <ele>406.2</ele>
        <time>2024-11-07T13:33:32.000Z</time>
      </trkpt>
      <trkpt lat="44.12141" lon="3.20558">
        <ele>406.2</ele>
        <time>2024-11-07T13:33:34.000Z</time>
      </trkpt>
      <trkpt lat="44.12139" lon="3.20571">
        <ele>406.3</ele>
        <time>2024-11-07T13:33:36.000Z</time>
      </trkpt>
      <trkpt lat="44.12137" lon="3.20584">
        <ele>406.3</ele>
        <time>2024-11-07T13:33:38.000Z</time>
      </trkpt>
      <trkpt lat="44.12137" lon="3.20598">
        <ele>406.3</ele>
        <time>2024-11-07T13:33:40.000Z</time>
      </trkpt>
      <trkpt lat="44.12137" lon="3.20611">
        <ele>406.3</ele>
        <time>2024-11-07T13:33:42.000Z</time>
      </trkpt>
      <trkpt lat="44.12137" lon="3.20625">
        <ele>406.3</ele>
        <time>2024-11-07T13:33:44.000Z</time>
      </trkpt>
      <trkpt lat="44.12138" lon="3.20639">
        <ele>406.4</ele>
        <time>2024-11-07T13:33:46.000Z</time>
      </trkpt>
      <trkpt lat="44.1214" lon="3.20652">
        <ele>406.4</ele>
        <time>2024-11-07T13:33:48.000Z</time>
      </trkpt>
      <trkpt lat="44.12141" lon="3.20666">
        <ele>406.4</ele>
        <time>2024-11-07T13:33:50.000Z</time>
      </trkpt>
      <trkpt lat="44.12143" lon="3.2068">
        <ele>406.4</ele>
        <time>2024-11-07T13:33:52.000Z</time>
      </trkpt>
      <trkpt lat="44.12146" lon="3.20694">
        <ele>406.4</ele>
        <time>2024-11-07T13:33:54.000Z</time>
      </trkpt>
      <trkpt lat="44.12149" lon="3.20708">
        <ele>406.4</ele>
        <time>2024-11-07T13:33:56.000Z</time>
      </trkpt>
      <trkpt lat="44.12152" lon="3.20721">
        <ele>406.5</ele>
        <time>2024-11-07T13:33:58.000Z</time>
      </trkpt>
      <trkpt lat="44.12155" lon="3.20735">
        <ele>406.5</ele>
        <time>2024-11-07T13:34:00.000Z</time>
      </trkpt>
      <trkpt lat="44.12159" lon="3.20747">
        <ele>406.6</ele>
        <time>2024-11-07T13:34:02.000Z</time>
      </trkpt>
      <trkpt lat="44.12162" lon="3.20761">
        <ele>406.7</ele>
        <time>2024-11-07T13:34:04.000Z</time>
      </trkpt>
      <trkpt lat="44.12164" lon="3.20774">
        <ele>406.7</ele>
        <time>2024-11-07T13:34:06.000Z</time>
      </trkpt>
      <trkpt lat="44.12167" lon="3.20787">
        <ele>406.8</ele>
        <time>2024-11-07T13:34:08.000Z</time>
      </trkpt>
      <trkpt lat="44.1217" lon="3.208">
        <ele>406.8</ele>
        <time>2024-11-07T13:34:10.000Z</time>
      </trkpt>
      <trkpt lat="44.12172" lon="3.20814">
        <ele>406.9</ele>
        <time>2024-11-07T13:34:12.000Z</time>
      </trkpt>
      <trkpt lat="44.12175" lon="3.20827">
        <ele>406.9</ele>
        <time>2024-11-07T13:34:14.000Z</time>
      </trkpt>
      <trkpt lat="44.12177" lon="3.2084">
        <ele>407</ele>
        <time>2024-11-07T13:34:16.000Z</time>
      </trkpt>
      <trkpt lat="44.1218" lon="3.20852">
        <ele>407</ele>
        <time>2024-11-07T13:34:18.000Z</time>
      </trkpt>
      <trkpt lat="44.12182" lon="3.20865">
        <ele>407</ele>
        <time>2024-11-07T13:34:20.000Z</time>
      </trkpt>
      <trkpt lat="44.12185" lon="3.20878">
        <ele>407</ele>
        <time>2024-11-07T13:34:22.000Z</time>
      </trkpt>
      <trkpt lat="44.12187" lon="3.20891">
        <ele>407.1</ele>
        <time>2024-11-07T13:34:24.000Z</time>
      </trkpt>
      <trkpt lat="44.12189" lon="3.20904">
        <ele>407.1</ele>
        <time>2024-11-07T13:34:26.000Z</time>
      </trkpt>
      <trkpt lat="44.1219" lon="3.20916">
        <ele>407.1</ele>
        <time>2024-11-07T13:34:28.000Z</time>
      </trkpt>
      <trkpt lat="44.12191" lon="3.20929">
        <ele>407.1</ele>
        <time>2024-11-07T13:34:30.000Z</time>
      </trkpt>
      <trkpt lat="44.12192" lon="3.20942">
        <ele>407.2</ele>
        <time>2024-11-07T13:34:32.000Z</time>
      </trkpt>
      <trkpt lat="44.12193" lon="3.20955">
        <ele>407.3</ele>
        <time>2024-11-07T13:34:34.000Z</time>
      </trkpt>
      <trkpt lat="44.12194" lon="3.20969">
        <ele>407.3</ele>
        <time>2024-11-07T13:34:36.000Z</time>
      </trkpt>
      <trkpt lat="44.12196" lon="3.20982">
        <ele>407.4</ele>
        <time>2024-11-07T13:34:38.000Z</time>
      </trkpt>
      <trkpt lat="44.12197" lon="3.20995">
        <ele>407.5</ele>
        <time>2024-11-07T13:34:40.000Z</time>
      </trkpt>
      <trkpt lat="44.12199" lon="3.21008">
        <ele>407.5</ele>
        <time>2024-11-07T13:34:42.000Z</time>
      </trkpt>
      <trkpt lat="44.122" lon="3.21021">
        <ele>407.6</ele>
        <time>2024-11-07T13:34:44.000Z</time>
      </trkpt>
      <trkpt lat="44.12201" lon="3.21034">
        <ele>407.6</ele>
        <time>2024-11-07T13:34:46.000Z</time>
      </trkpt>
      <trkpt lat="44.12202" lon="3.21047">
        <ele>407.6</ele>
        <time>2024-11-07T13:34:48.000Z</time>
      </trkpt>
      <trkpt lat="44.12202" lon="3.2106">
        <ele>408</ele>
        <time>2024-11-07T13:34:50.000Z</time>
      </trkpt>
      <trkpt lat="44.12202" lon="3.21078">
        <ele>408</ele>
        <time>2024-11-07T13:34:53.000Z</time>
      </trkpt>
      <trkpt lat="44.12199" lon="3.21095">
        <ele>408.1</ele>
        <time>2024-11-07T13:34:56.000Z</time>
      </trkpt>
      <trkpt lat="44.12196" lon="3.21112">
        <ele>408.1</ele>
        <time>2024-11-07T13:34:59.000Z</time>
      </trkpt>
      <trkpt lat="44.12191" lon="3.21129">
        <ele>408.1</ele>
        <time>2024-11-07T13:35:02.000Z</time>
      </trkpt>
      <trkpt lat="44.12185" lon="3.21144">
        <ele>408.2</ele>
        <time>2024-11-07T13:35:05.000Z</time>
      </trkpt>
      <trkpt lat="44.12178" lon="3.21159">
        <ele>408.2</ele>
        <time>2024-11-07T13:35:08.000Z</time>
      </trkpt>
      <trkpt lat="44.12169" lon="3.21173">
        <ele>408.2</ele>
        <time>2024-11-07T13:35:11.000Z</time>
      </trkpt>
      <trkpt lat="44.12159" lon="3.21185">
        <ele>408.2</ele>
        <time>2024-11-07T13:35:14.000Z</time>
      </trkpt>
      <trkpt lat="44.12152" lon="3.21192">
        <ele>408.2</ele>
        <time>2024-11-07T13:35:16.000Z</time>
      </trkpt>
      <trkpt lat="44.12143" lon="3.21198">
        <ele>408.3</ele>
        <time>2024-11-07T13:35:18.000Z</time>
      </trkpt>
      <trkpt lat="44.12135" lon="3.21203">
        <ele>408.3</ele>
        <time>2024-11-07T13:35:20.000Z</time>
      </trkpt>
      <trkpt lat="44.12126" lon="3.21208">
        <ele>408.3</ele>
        <time>2024-11-07T13:35:22.000Z</time>
      </trkpt>
      <trkpt lat="44.12118" lon="3.21215">
        <ele>408.3</ele>
        <time>2024-11-07T13:35:24.000Z</time>
      </trkpt>
      <trkpt lat="44.12109" lon="3.21221">
        <ele>408.3</ele>
        <time>2024-11-07T13:35:26.000Z</time>
      </trkpt>
      <trkpt lat="44.12101" lon="3.21228">
        <ele>408.3</ele>
        <time>2024-11-07T13:35:28.000Z</time>
      </trkpt>
      <trkpt lat="44.12092" lon="3.21234">
        <ele>408.3</ele>
        <time>2024-11-07T13:35:30.000Z</time>
      </trkpt>
      <trkpt lat="44.12084" lon="3.21239">
        <ele>408.3</ele>
        <time>2024-11-07T13:35:32.000Z</time>
      </trkpt>
      <trkpt lat="44.12076" lon="3.21246">
        <ele>408.4</ele>
        <time>2024-11-07T13:35:34.000Z</time>
      </trkpt>
      <trkpt lat="44.12067" lon="3.21252">
        <ele>408.4</ele>
        <time>2024-11-07T13:35:36.000Z</time>
      </trkpt>
      <trkpt lat="44.12058" lon="3.21259">
        <ele>408.4</ele>
        <time>2024-11-07T13:35:38.000Z</time>
      </trkpt>
      <trkpt lat="44.12049" lon="3.21265">
        <ele>408.4</ele>
        <time>2024-11-07T13:35:40.000Z</time>
      </trkpt>
      <trkpt lat="44.12041" lon="3.21272">
        <ele>408.5</ele>
        <time>2024-11-07T13:35:42.000Z</time>
      </trkpt>
      <trkpt lat="44.12033" lon="3.21278">
        <ele>408.5</ele>
        <time>2024-11-07T13:35:44.000Z</time>
      </trkpt>
      <trkpt lat="44.12025" lon="3.21285">
        <ele>408.5</ele>
        <time>2024-11-07T13:35:46.000Z</time>
      </trkpt>
      <trkpt lat="44.12017" lon="3.21292">
        <ele>408.5</ele>
        <time>2024-11-07T13:35:48.000Z</time>
      </trkpt>
      <trkpt lat="44.12009" lon="3.213">
        <ele>408.6</ele>
        <time>2024-11-07T13:35:50.000Z</time>
      </trkpt>
      <trkpt lat="44.12002" lon="3.21308">
        <ele>408.6</ele>
        <time>2024-11-07T13:35:52.000Z</time>
      </trkpt>
      <trkpt lat="44.11995" lon="3.21316">
        <ele>408.6</ele>
        <time>2024-11-07T13:35:54.000Z</time>
      </trkpt>
      <trkpt lat="44.11989" lon="3.21326">
        <ele>408.7</ele>
        <time>2024-11-07T13:35:56.000Z</time>
      </trkpt>
      <trkpt lat="44.11983" lon="3.21342">
        <ele>408.7</ele>
        <time>2024-11-07T13:35:59.000Z</time>
      </trkpt>
      <trkpt lat="44.11979" lon="3.21354">
        <ele>408.7</ele>
        <time>2024-11-07T13:36:01.000Z</time>
      </trkpt>
      <trkpt lat="44.11977" lon="3.21367">
        <ele>408.8</ele>
        <time>2024-11-07T13:36:03.000Z</time>
      </trkpt>
      <trkpt lat="44.11976" lon="3.2138">
        <ele>408.8</ele>
        <time>2024-11-07T13:36:05.000Z</time>
      </trkpt>
      <trkpt lat="44.11977" lon="3.21393">
        <ele>408.8</ele>
        <time>2024-11-07T13:36:07.000Z</time>
      </trkpt>
      <trkpt lat="44.11978" lon="3.21406">
        <ele>408.9</ele>
        <time>2024-11-07T13:36:09.000Z</time>
      </trkpt>
      <trkpt lat="44.11979" lon="3.2142">
        <ele>408.9</ele>
        <time>2024-11-07T13:36:11.000Z</time>
      </trkpt>
      <trkpt lat="44.11981" lon="3.21433">
        <ele>408.9</ele>
        <time>2024-11-07T13:36:13.000Z</time>
      </trkpt>
      <trkpt lat="44.11984" lon="3.21446">
        <ele>409</ele>
        <time>2024-11-07T13:36:15.000Z</time>
      </trkpt>
      <trkpt lat="44.11987" lon="3.21458">
        <ele>409</ele>
        <time>2024-11-07T13:36:17.000Z</time>
      </trkpt>
      <trkpt lat="44.11992" lon="3.2147">
        <ele>409.1</ele>
        <time>2024-11-07T13:36:19.000Z</time>
      </trkpt>
      <trkpt lat="44.11997" lon="3.21482">
        <ele>409.1</ele>
        <time>2024-11-07T13:36:21.000Z</time>
      </trkpt>
      <trkpt lat="44.12003" lon="3.21493">
        <ele>409.2</ele>
        <time>2024-11-07T13:36:23.000Z</time>
      </trkpt>
      <trkpt lat="44.12009" lon="3.21503">
        <ele>409.2</ele>
        <time>2024-11-07T13:36:25.000Z</time>
      </trkpt>
      <trkpt lat="44.12015" lon="3.21514">
        <ele>409.2</ele>
        <time>2024-11-07T13:36:27.000Z</time>
      </trkpt>
      <trkpt lat="44.12021" lon="3.21526">
        <ele>409.2</ele>
        <time>2024-11-07T13:36:29.000Z</time>
      </trkpt>
      <trkpt lat="44.12028" lon="3.21536">
        <ele>409.3</ele>
        <time>2024-11-07T13:36:31.000Z</time>
      </trkpt>
      <trkpt lat="44.12034" lon="3.21547">
        <ele>409.3</ele>
        <time>2024-11-07T13:36:33.000Z</time>
      </trkpt>
      <trkpt lat="44.12041" lon="3.21558">
        <ele>409.3</ele>
        <time>2024-11-07T13:36:35.000Z</time>
      </trkpt>
      <trkpt lat="44.12047" lon="3.21569">
        <ele>409.4</ele>
        <time>2024-11-07T13:36:37.000Z</time>
      </trkpt>
      <trkpt lat="44.12054" lon="3.21579">
        <ele>409.4</ele>
        <time>2024-11-07T13:36:39.000Z</time>
      </trkpt>
      <trkpt lat="44.12062" lon="3.21589">
        <ele>409.4</ele>
        <time>2024-11-07T13:36:41.000Z</time>
      </trkpt>
      <trkpt lat="44.1207" lon="3.21599">
        <ele>409.4</ele>
        <time>2024-11-07T13:36:43.000Z</time>
      </trkpt>
      <trkpt lat="44.12077" lon="3.21609">
        <ele>409.5</ele>
        <time>2024-11-07T13:36:45.000Z</time>
      </trkpt>
      <trkpt lat="44.12084" lon="3.21619">
        <ele>409.5</ele>
        <time>2024-11-07T13:36:47.000Z</time>
      </trkpt>
      <trkpt lat="44.12092" lon="3.21629">
        <ele>409.5</ele>
        <time>2024-11-07T13:36:49.000Z</time>
      </trkpt>
      <trkpt lat="44.12099" lon="3.21639">
        <ele>409.6</ele>
        <time>2024-11-07T13:36:51.000Z</time>
      </trkpt>
      <trkpt lat="44.12106" lon="3.21648">
        <ele>409.7</ele>
        <time>2024-11-07T13:36:53.000Z</time>
      </trkpt>
      <trkpt lat="44.12114" lon="3.21657">
        <ele>409.8</ele>
        <time>2024-11-07T13:36:55.000Z</time>
      </trkpt>
      <trkpt lat="44.12121" lon="3.21666">
        <ele>409.9</ele>
        <time>2024-11-07T13:36:57.000Z</time>
      </trkpt>
      <trkpt lat="44.12128" lon="3.21676">
        <ele>410</ele>
        <time>2024-11-07T13:36:59.000Z</time>
      </trkpt>
      <trkpt lat="44.12135" lon="3.21685">
        <ele>410</ele>
        <time>2024-11-07T13:37:01.000Z</time>
      </trkpt>
      <trkpt lat="44.12143" lon="3.21694">
        <ele>410.1</ele>
        <time>2024-11-07T13:37:03.000Z</time>
      </trkpt>
      <trkpt lat="44.1215" lon="3.21702">
        <ele>410.1</ele>
        <time>2024-11-07T13:37:05.000Z</time>
      </trkpt>
      <trkpt lat="44.12158" lon="3.21711">
        <ele>410.2</ele>
        <time>2024-11-07T13:37:07.000Z</time>
      </trkpt>
      <trkpt lat="44.12166" lon="3.2172">
        <ele>410.2</ele>
        <time>2024-11-07T13:37:09.000Z</time>
      </trkpt>
      <trkpt lat="44.12174" lon="3.21729">
        <ele>410.3</ele>
        <time>2024-11-07T13:37:11.000Z</time>
      </trkpt>
      <trkpt lat="44.12182" lon="3.21738">
        <ele>410.3</ele>
        <time>2024-11-07T13:37:13.000Z</time>
      </trkpt>
      <trkpt lat="44.12188" lon="3.21747">
        <ele>410.3</ele>
        <time>2024-11-07T13:37:15.000Z</time>
      </trkpt>
      <trkpt lat="44.12194" lon="3.21757">
        <ele>410.4</ele>
        <time>2024-11-07T13:37:17.000Z</time>
      </trkpt>
      <trkpt lat="44.122" lon="3.21768">
        <ele>410.4</ele>
        <time>2024-11-07T13:37:19.000Z</time>
      </trkpt>
      <trkpt lat="44.12204" lon="3.21779">
        <ele>410.4</ele>
        <time>2024-11-07T13:37:21.000Z</time>
      </trkpt>
      <trkpt lat="44.12209" lon="3.2179">
        <ele>410.4</ele>
        <time>2024-11-07T13:37:23.000Z</time>
      </trkpt>
      <trkpt lat="44.12213" lon="3.21802">
        <ele>410.4</ele>
        <time>2024-11-07T13:37:25.000Z</time>
      </trkpt>
      <trkpt lat="44.12218" lon="3.21818">
        <ele>410.4</ele>
        <time>2024-11-07T13:37:28.000Z</time>
      </trkpt>
      <trkpt lat="44.12222" lon="3.2183">
        <ele>410.5</ele>
        <time>2024-11-07T13:37:30.000Z</time>
      </trkpt>
      <trkpt lat="44.12226" lon="3.21841">
        <ele>410.5</ele>
        <time>2024-11-07T13:37:32.000Z</time>
      </trkpt>
      <trkpt lat="44.12232" lon="3.21857">
        <ele>410.5</ele>
        <time>2024-11-07T13:37:35.000Z</time>
      </trkpt>
      <trkpt lat="44.12238" lon="3.21874">
        <ele>410.6</ele>
        <time>2024-11-07T13:37:38.000Z</time>
      </trkpt>
      <trkpt lat="44.12245" lon="3.21889">
        <ele>410.7</ele>
        <time>2024-11-07T13:37:41.000Z</time>
      </trkpt>
      <trkpt lat="44.12253" lon="3.21904">
        <ele>410.9</ele>
        <time>2024-11-07T13:37:44.000Z</time>
      </trkpt>
      <trkpt lat="44.12261" lon="3.21919">
        <ele>411</ele>
        <time>2024-11-07T13:37:47.000Z</time>
      </trkpt>
      <trkpt lat="44.12267" lon="3.21928">
        <ele>411.1</ele>
        <time>2024-11-07T13:37:49.000Z</time>
      </trkpt>
      <trkpt lat="44.12272" lon="3.21938">
        <ele>411.1</ele>
        <time>2024-11-07T13:37:51.000Z</time>
      </trkpt>
      <trkpt lat="44.12277" lon="3.21949">
        <ele>411.2</ele>
        <time>2024-11-07T13:37:53.000Z</time>
      </trkpt>
      <trkpt lat="44.12284" lon="3.21965">
        <ele>411.4</ele>
        <time>2024-11-07T13:37:56.000Z</time>
      </trkpt>
      <trkpt lat="44.12289" lon="3.21982">
        <ele>411.6</ele>
        <time>2024-11-07T13:37:59.000Z</time>
      </trkpt>
      <trkpt lat="44.12292" lon="3.22">
        <ele>411.8</ele>
        <time>2024-11-07T13:38:02.000Z</time>
      </trkpt>
      <trkpt lat="44.12294" lon="3.22012">
        <ele>411.9</ele>
        <time>2024-11-07T13:38:04.000Z</time>
      </trkpt>
      <trkpt lat="44.12296" lon="3.22024">
        <ele>412</ele>
        <time>2024-11-07T13:38:06.000Z</time>
      </trkpt>
      <trkpt lat="44.12299" lon="3.22042">
        <ele>412.2</ele>
        <time>2024-11-07T13:38:09.000Z</time>
      </trkpt>
      <trkpt lat="44.12303" lon="3.2206">
        <ele>412.4</ele>
        <time>2024-11-07T13:38:12.000Z</time>
      </trkpt>
      <trkpt lat="44.12305" lon="3.22076">
        <ele>412.7</ele>
        <time>2024-11-07T13:38:15.000Z</time>
      </trkpt>
      <trkpt lat="44.1231" lon="3.22093">
        <ele>413</ele>
        <time>2024-11-07T13:38:18.000Z</time>
      </trkpt>
      <trkpt lat="44.12314" lon="3.2211">
        <ele>413.2</ele>
        <time>2024-11-07T13:38:21.000Z</time>
      </trkpt>
      <trkpt lat="44.12318" lon="3.22127">
        <ele>413.4</ele>
        <time>2024-11-07T13:38:24.000Z</time>
      </trkpt>
      <trkpt lat="44.12321" lon="3.22143">
        <ele>413.7</ele>
        <time>2024-11-07T13:38:27.000Z</time>
      </trkpt>
      <trkpt lat="44.12324" lon="3.22158">
        <ele>413.9</ele>
        <time>2024-11-07T13:38:30.000Z</time>
      </trkpt>
      <trkpt lat="44.12326" lon="3.22172">
        <ele>414.1</ele>
        <time>2024-11-07T13:38:33.000Z</time>
      </trkpt>
      <trkpt lat="44.12328" lon="3.22188">
        <ele>414.2</ele>
        <time>2024-11-07T13:38:37.000Z</time>
      </trkpt>
      <trkpt lat="44.12329" lon="3.22201">
        <ele>414.3</ele>
        <time>2024-11-07T13:38:40.000Z</time>
      </trkpt>
      <trkpt lat="44.12325" lon="3.22189">
        <ele>414.4</ele>
        <time>2024-11-07T13:38:49.000Z</time>
      </trkpt>
      <trkpt lat="44.12332" lon="3.22179">
        <ele>414.3</ele>
        <time>2024-11-07T13:39:45.000Z</time>
      </trkpt>
      <trkpt lat="44.12336" lon="3.22191">
        <ele>414.6</ele>
        <time>2024-11-07T13:39:51.000Z</time>
      </trkpt>
      <trkpt lat="44.12339" lon="3.22203">
        <ele>414.8</ele>
        <time>2024-11-07T13:39:55.000Z</time>
      </trkpt>
      <trkpt lat="44.12344" lon="3.22217">
        <ele>415</ele>
        <time>2024-11-07T13:39:59.000Z</time>
      </trkpt>
      <trkpt lat="44.12348" lon="3.2223">
        <ele>415.2</ele>
        <time>2024-11-07T13:40:03.000Z</time>
      </trkpt>
      <trkpt lat="44.12354" lon="3.2224">
        <ele>415.4</ele>
        <time>2024-11-07T13:40:06.000Z</time>
      </trkpt>
      <trkpt lat="44.12361" lon="3.22252">
        <ele>415.5</ele>
        <time>2024-11-07T13:40:10.000Z</time>
      </trkpt>
      <trkpt lat="44.12369" lon="3.22256">
        <ele>415.6</ele>
        <time>2024-11-07T13:40:13.000Z</time>
      </trkpt>
      <trkpt lat="44.12378" lon="3.2226">
        <ele>415.7</ele>
        <time>2024-11-07T13:40:16.000Z</time>
      </trkpt>
      <trkpt lat="44.12387" lon="3.22264">
        <ele>415.9</ele>
        <time>2024-11-07T13:40:20.000Z</time>
      </trkpt>
      <trkpt lat="44.12397" lon="3.22266">
        <ele>416.1</ele>
        <time>2024-11-07T13:40:23.000Z</time>
      </trkpt>
      <trkpt lat="44.12407" lon="3.22267">
        <ele>416.3</ele>
        <time>2024-11-07T13:40:27.000Z</time>
      </trkpt>
      <trkpt lat="44.12419" lon="3.22269">
        <ele>416.5</ele>
        <time>2024-11-07T13:40:31.000Z</time>
      </trkpt>
      <trkpt lat="44.12428" lon="3.22274">
        <ele>416.6</ele>
        <time>2024-11-07T13:40:34.000Z</time>
      </trkpt>
      <trkpt lat="44.12437" lon="3.22277">
        <ele>416.7</ele>
        <time>2024-11-07T13:40:37.000Z</time>
      </trkpt>
      <trkpt lat="44.12447" lon="3.22279">
        <ele>417.8</ele>
        <time>2024-11-07T13:40:56.000Z</time>
      </trkpt>
      <trkpt lat="44.12457" lon="3.22284">
        <ele>418.3</ele>
        <time>2024-11-07T13:41:00.000Z</time>
      </trkpt>
      <trkpt lat="44.12467" lon="3.22284">
        <ele>419.2</ele>
        <time>2024-11-07T13:41:06.000Z</time>
      </trkpt>
      <trkpt lat="44.12472" lon="3.22296">
        <ele>420.9</ele>
        <time>2024-11-07T13:41:17.000Z</time>
      </trkpt>
      <trkpt lat="44.12477" lon="3.22307">
        <ele>422.6</ele>
        <time>2024-11-07T13:41:27.000Z</time>
      </trkpt>
      <trkpt lat="44.12485" lon="3.22313">
        <ele>425.2</ele>
        <time>2024-11-07T13:41:42.000Z</time>
      </trkpt>
      <trkpt lat="44.12495" lon="3.22318">
        <ele>426.6</ele>
        <time>2024-11-07T13:41:50.000Z</time>
      </trkpt>
      <trkpt lat="44.12502" lon="3.22326">
        <ele>427.9</ele>
        <time>2024-11-07T13:41:58.000Z</time>
      </trkpt>
      <trkpt lat="44.1251" lon="3.22332">
        <ele>429.1</ele>
        <time>2024-11-07T13:42:05.000Z</time>
      </trkpt>
      <trkpt lat="44.12517" lon="3.22342">
        <ele>430.2</ele>
        <time>2024-11-07T13:42:12.000Z</time>
      </trkpt>
      <trkpt lat="44.12525" lon="3.22349">
        <ele>431.7</ele>
        <time>2024-11-07T13:42:20.000Z</time>
      </trkpt>
      <trkpt lat="44.1253" lon="3.2236">
        <ele>433.8</ele>
        <time>2024-11-07T13:42:30.000Z</time>
      </trkpt>
      <trkpt lat="44.12535" lon="3.22371">
        <ele>435.5</ele>
        <time>2024-11-07T13:42:39.000Z</time>
      </trkpt>
      <trkpt lat="44.12539" lon="3.22358">
        <ele>438.6</ele>
        <time>2024-11-07T13:42:56.000Z</time>
      </trkpt>
      <trkpt lat="44.12545" lon="3.22369">
        <ele>439.9</ele>
        <time>2024-11-07T13:43:05.000Z</time>
      </trkpt>
      <trkpt lat="44.12549" lon="3.22381">
        <ele>440.9</ele>
        <time>2024-11-07T13:43:12.000Z</time>
      </trkpt>
      <trkpt lat="44.12553" lon="3.22394">
        <ele>442.3</ele>
        <time>2024-11-07T13:43:20.000Z</time>
      </trkpt>
      <trkpt lat="44.12556" lon="3.22407">
        <ele>443.6</ele>
        <time>2024-11-07T13:43:30.000Z</time>
      </trkpt>
      <trkpt lat="44.12561" lon="3.22418">
        <ele>444.4</ele>
        <time>2024-11-07T13:43:39.000Z</time>
      </trkpt>
      <trkpt lat="44.12564" lon="3.22432">
        <ele>445.3</ele>
        <time>2024-11-07T13:43:46.000Z</time>
      </trkpt>
      <trkpt lat="44.12567" lon="3.22444">
        <ele>446.1</ele>
        <time>2024-11-07T13:43:53.000Z</time>
      </trkpt>
      <trkpt lat="44.12569" lon="3.22456">
        <ele>446.8</ele>
        <time>2024-11-07T13:43:59.000Z</time>
      </trkpt>
      <trkpt lat="44.1257" lon="3.22468">
        <ele>447.7</ele>
        <time>2024-11-07T13:44:06.000Z</time>
      </trkpt>
      <trkpt lat="44.12571" lon="3.22483">
        <ele>448.5</ele>
        <time>2024-11-07T13:44:13.000Z</time>
      </trkpt>
      <trkpt lat="44.12571" lon="3.22498">
        <ele>449.3</ele>
        <time>2024-11-07T13:44:19.000Z</time>
      </trkpt>
      <trkpt lat="44.12572" lon="3.22511">
        <ele>450.1</ele>
        <time>2024-11-07T13:44:25.000Z</time>
      </trkpt>
      <trkpt lat="44.12574" lon="3.22525">
        <ele>450.9</ele>
        <time>2024-11-07T13:44:31.000Z</time>
      </trkpt>
      <trkpt lat="44.12576" lon="3.22539">
        <ele>451.6</ele>
        <time>2024-11-07T13:44:37.000Z</time>
      </trkpt>
      <trkpt lat="44.12577" lon="3.22552">
        <ele>452.3</ele>
        <time>2024-11-07T13:44:43.000Z</time>
      </trkpt>
      <trkpt lat="44.12578" lon="3.22566">
        <ele>452.8</ele>
        <time>2024-11-07T13:44:49.000Z</time>
      </trkpt>
      <trkpt lat="44.12575" lon="3.22579">
        <ele>453.6</ele>
        <time>2024-11-07T13:44:55.000Z</time>
      </trkpt>
      <trkpt lat="44.12573" lon="3.22593">
        <ele>454.5</ele>
        <time>2024-11-07T13:45:01.000Z</time>
      </trkpt>
      <trkpt lat="44.12575" lon="3.22606">
        <ele>458.4</ele>
        <time>2024-11-07T13:46:52.000Z</time>
      </trkpt>
      <trkpt lat="44.12584" lon="3.22612">
        <ele>458.4</ele>
        <time>2024-11-07T13:47:00.000Z</time>
      </trkpt>
      <trkpt lat="44.12591" lon="3.22621">
        <ele>458.9</ele>
        <time>2024-11-07T13:47:17.000Z</time>
      </trkpt>
      <trkpt lat="44.12601" lon="3.22624">
        <ele>459.2</ele>
        <time>2024-11-07T13:47:25.000Z</time>
      </trkpt>
      <trkpt lat="44.1261" lon="3.22625">
        <ele>459.8</ele>
        <time>2024-11-07T13:47:33.000Z</time>
      </trkpt>
      <trkpt lat="44.12601" lon="3.22631">
        <ele>463</ele>
        <time>2024-11-07T13:50:50.000Z</time>
      </trkpt>
      <trkpt lat="44.12592" lon="3.22624">
        <ele>462.3</ele>
        <time>2024-11-07T13:50:55.000Z</time>
      </trkpt>
      <trkpt lat="44.12594" lon="3.22612">
        <ele>461.3</ele>
        <time>2024-11-07T13:51:04.000Z</time>
      </trkpt>
      <trkpt lat="44.12597" lon="3.22599">
        <ele>460.8</ele>
        <time>2024-11-07T13:51:11.000Z</time>
      </trkpt>
      <trkpt lat="44.12595" lon="3.22586">
        <ele>460.7</ele>
        <time>2024-11-07T13:51:17.000Z</time>
      </trkpt>
      <trkpt lat="44.12593" lon="3.22573">
        <ele>460.8</ele>
        <time>2024-11-07T13:51:22.000Z</time>
      </trkpt>
      <trkpt lat="44.12593" lon="3.2256">
        <ele>460.9</ele>
        <time>2024-11-07T13:51:27.000Z</time>
      </trkpt>
      <trkpt lat="44.12594" lon="3.22547">
        <ele>461.2</ele>
        <time>2024-11-07T13:51:32.000Z</time>
      </trkpt>
      <trkpt lat="44.12594" lon="3.22534">
        <ele>461.6</ele>
        <time>2024-11-07T13:51:37.000Z</time>
      </trkpt>
      <trkpt lat="44.12595" lon="3.22521">
        <ele>462.1</ele>
        <time>2024-11-07T13:51:42.000Z</time>
      </trkpt>
      <trkpt lat="44.12596" lon="3.22506">
        <ele>462.9</ele>
        <time>2024-11-07T13:51:48.000Z</time>
      </trkpt>
      <trkpt lat="44.12596" lon="3.22493">
        <ele>463.9</ele>
        <time>2024-11-07T13:51:54.000Z</time>
      </trkpt>
      <trkpt lat="44.12597" lon="3.2248">
        <ele>464.6</ele>
        <time>2024-11-07T13:51:59.000Z</time>
      </trkpt>
      <trkpt lat="44.12598" lon="3.22465">
        <ele>465.5</ele>
        <time>2024-11-07T13:52:05.000Z</time>
      </trkpt>
      <trkpt lat="44.12598" lon="3.22452">
        <ele>466.2</ele>
        <time>2024-11-07T13:52:10.000Z</time>
      </trkpt>
      <trkpt lat="44.12598" lon="3.22438">
        <ele>466.8</ele>
        <time>2024-11-07T13:52:15.000Z</time>
      </trkpt>
      <trkpt lat="44.126" lon="3.22423">
        <ele>467.5</ele>
        <time>2024-11-07T13:52:21.000Z</time>
      </trkpt>
      <trkpt lat="44.12603" lon="3.22411">
        <ele>468.4</ele>
        <time>2024-11-07T13:52:27.000Z</time>
      </trkpt>
      <trkpt lat="44.1261" lon="3.22402">
        <ele>469.5</ele>
        <time>2024-11-07T13:52:33.000Z</time>
      </trkpt>
      <trkpt lat="44.12618" lon="3.22396">
        <ele>470.3</ele>
        <time>2024-11-07T13:52:38.000Z</time>
      </trkpt>
      <trkpt lat="44.12627" lon="3.2239">
        <ele>471.3</ele>
        <time>2024-11-07T13:52:43.000Z</time>
      </trkpt>
      <trkpt lat="44.12636" lon="3.22385">
        <ele>472.2</ele>
        <time>2024-11-07T13:52:48.000Z</time>
      </trkpt>
      <trkpt lat="44.12645" lon="3.2238">
        <ele>473.1</ele>
        <time>2024-11-07T13:52:53.000Z</time>
      </trkpt>
      <trkpt lat="44.12654" lon="3.22375">
        <ele>474</ele>
        <time>2024-11-07T13:52:59.000Z</time>
      </trkpt>
      <trkpt lat="44.12664" lon="3.2237">
        <ele>475</ele>
        <time>2024-11-07T13:53:05.000Z</time>
      </trkpt>
      <trkpt lat="44.12673" lon="3.22365">
        <ele>476</ele>
        <time>2024-11-07T13:53:11.000Z</time>
      </trkpt>
      <trkpt lat="44.12683" lon="3.2236">
        <ele>477.1</ele>
        <time>2024-11-07T13:53:17.000Z</time>
      </trkpt>
      <trkpt lat="44.12692" lon="3.22354">
        <ele>478</ele>
        <time>2024-11-07T13:53:23.000Z</time>
      </trkpt>
      <trkpt lat="44.127" lon="3.22348">
        <ele>478.8</ele>
        <time>2024-11-07T13:53:28.000Z</time>
      </trkpt>
      <trkpt lat="44.1271" lon="3.22342">
        <ele>479.8</ele>
        <time>2024-11-07T13:53:34.000Z</time>
      </trkpt>
      <trkpt lat="44.12719" lon="3.22336">
        <ele>480.8</ele>
        <time>2024-11-07T13:53:40.000Z</time>
      </trkpt>
      <trkpt lat="44.12729" lon="3.22331">
        <ele>481.7</ele>
        <time>2024-11-07T13:53:46.000Z</time>
      </trkpt>
      <trkpt lat="44.12737" lon="3.22324">
        <ele>482.6</ele>
        <time>2024-11-07T13:53:51.000Z</time>
      </trkpt>
      <trkpt lat="44.12746" lon="3.22316">
        <ele>483.5</ele>
        <time>2024-11-07T13:53:57.000Z</time>
      </trkpt>
      <trkpt lat="44.12753" lon="3.22308">
        <ele>484.4</ele>
        <time>2024-11-07T13:54:02.000Z</time>
      </trkpt>
      <trkpt lat="44.12761" lon="3.22298">
        <ele>485.2</ele>
        <time>2024-11-07T13:54:08.000Z</time>
      </trkpt>
      <trkpt lat="44.12768" lon="3.22288">
        <ele>486.1</ele>
        <time>2024-11-07T13:54:14.000Z</time>
      </trkpt>
      <trkpt lat="44.12776" lon="3.22279">
        <ele>487.2</ele>
        <time>2024-11-07T13:54:20.000Z</time>
      </trkpt>
      <trkpt lat="44.12783" lon="3.22268">
        <ele>488.1</ele>
        <time>2024-11-07T13:54:26.000Z</time>
      </trkpt>
      <trkpt lat="44.1279" lon="3.22258">
        <ele>489</ele>
        <time>2024-11-07T13:54:32.000Z</time>
      </trkpt>
      <trkpt lat="44.12796" lon="3.22247">
        <ele>489.8</ele>
        <time>2024-11-07T13:54:38.000Z</time>
      </trkpt>
      <trkpt lat="44.12804" lon="3.22237">
        <ele>490.6</ele>
        <time>2024-11-07T13:54:44.000Z</time>
      </trkpt>
      <trkpt lat="44.12811" lon="3.22228">
        <ele>491.4</ele>
        <time>2024-11-07T13:54:49.000Z</time>
      </trkpt>
      <trkpt lat="44.12822" lon="3.22224">
        <ele>492.3</ele>
        <time>2024-11-07T13:54:55.000Z</time>
      </trkpt>
      <trkpt lat="44.12832" lon="3.22227">
        <ele>493.3</ele>
        <time>2024-11-07T13:55:01.000Z</time>
      </trkpt>
      <trkpt lat="44.12842" lon="3.22229">
        <ele>494.5</ele>
        <time>2024-11-07T13:55:07.000Z</time>
      </trkpt>
      <trkpt lat="44.12852" lon="3.22232">
        <ele>495.6</ele>
        <time>2024-11-07T13:55:13.000Z</time>
      </trkpt>
      <trkpt lat="44.12862" lon="3.22233">
        <ele>496.7</ele>
        <time>2024-11-07T13:55:19.000Z</time>
      </trkpt>
      <trkpt lat="44.12871" lon="3.22236">
        <ele>497.6</ele>
        <time>2024-11-07T13:55:24.000Z</time>
      </trkpt>
      <trkpt lat="44.12881" lon="3.2224">
        <ele>498.5</ele>
        <time>2024-11-07T13:55:29.000Z</time>
      </trkpt>
      <trkpt lat="44.12891" lon="3.22244">
        <ele>499.5</ele>
        <time>2024-11-07T13:55:34.000Z</time>
      </trkpt>
      <trkpt lat="44.129" lon="3.22247">
        <ele>500.4</ele>
        <time>2024-11-07T13:55:39.000Z</time>
      </trkpt>
      <trkpt lat="44.12909" lon="3.2225">
        <ele>501.1</ele>
        <time>2024-11-07T13:55:44.000Z</time>
      </trkpt>
      <trkpt lat="44.12919" lon="3.22252">
        <ele>501.9</ele>
        <time>2024-11-07T13:55:49.000Z</time>
      </trkpt>
      <trkpt lat="44.12929" lon="3.2225">
        <ele>502.6</ele>
        <time>2024-11-07T13:55:54.000Z</time>
      </trkpt>
      <trkpt lat="44.12938" lon="3.2225">
        <ele>503.5</ele>
        <time>2024-11-07T13:55:59.000Z</time>
      </trkpt>
      <trkpt lat="44.12949" lon="3.22252">
        <ele>504.3</ele>
        <time>2024-11-07T13:56:04.000Z</time>
      </trkpt>
      <trkpt lat="44.12959" lon="3.22253">
        <ele>505.1</ele>
        <time>2024-11-07T13:56:09.000Z</time>
      </trkpt>
      <trkpt lat="44.12969" lon="3.22251">
        <ele>506.3</ele>
        <time>2024-11-07T13:56:14.000Z</time>
      </trkpt>
      <trkpt lat="44.12979" lon="3.22245">
        <ele>507.1</ele>
        <time>2024-11-07T13:56:19.000Z</time>
      </trkpt>
      <trkpt lat="44.12989" lon="3.22242">
        <ele>507.8</ele>
        <time>2024-11-07T13:56:24.000Z</time>
      </trkpt>
      <trkpt lat="44.12998" lon="3.22243">
        <ele>508.5</ele>
        <time>2024-11-07T13:56:29.000Z</time>
      </trkpt>
      <trkpt lat="44.13009" lon="3.22243">
        <ele>509.1</ele>
        <time>2024-11-07T13:56:34.000Z</time>
      </trkpt>
      <trkpt lat="44.13019" lon="3.22239">
        <ele>509.8</ele>
        <time>2024-11-07T13:56:39.000Z</time>
      </trkpt>
      <trkpt lat="44.13028" lon="3.22232">
        <ele>510.5</ele>
        <time>2024-11-07T13:56:44.000Z</time>
      </trkpt>
      <trkpt lat="44.13036" lon="3.22223">
        <ele>511.3</ele>
        <time>2024-11-07T13:56:49.000Z</time>
      </trkpt>
      <trkpt lat="44.13042" lon="3.22211">
        <ele>512.1</ele>
        <time>2024-11-07T13:56:55.000Z</time>
      </trkpt>
      <trkpt lat="44.13046" lon="3.22197">
        <ele>512.7</ele>
        <time>2024-11-07T13:57:00.000Z</time>
      </trkpt>
      <trkpt lat="44.1305" lon="3.22184">
        <ele>513.2</ele>
        <time>2024-11-07T13:57:05.000Z</time>
      </trkpt>
      <trkpt lat="44.13054" lon="3.2217">
        <ele>513.6</ele>
        <time>2024-11-07T13:57:10.000Z</time>
      </trkpt>
      <trkpt lat="44.1306" lon="3.22158">
        <ele>514</ele>
        <time>2024-11-07T13:57:15.000Z</time>
      </trkpt>
      <trkpt lat="44.13066" lon="3.22146">
        <ele>514.5</ele>
        <time>2024-11-07T13:57:20.000Z</time>
      </trkpt>
      <trkpt lat="44.13073" lon="3.22136">
        <ele>515.2</ele>
        <time>2024-11-07T13:57:25.000Z</time>
      </trkpt>
      <trkpt lat="44.13081" lon="3.22125">
        <ele>515.9</ele>
        <time>2024-11-07T13:57:30.000Z</time>
      </trkpt>
      <trkpt lat="44.13089" lon="3.22114">
        <ele>516.8</ele>
        <time>2024-11-07T13:57:35.000Z</time>
      </trkpt>
      <trkpt lat="44.13096" lon="3.22104">
        <ele>517.6</ele>
        <time>2024-11-07T13:57:40.000Z</time>
      </trkpt>
      <trkpt lat="44.13104" lon="3.22095">
        <ele>518.3</ele>
        <time>2024-11-07T13:57:45.000Z</time>
      </trkpt>
      <trkpt lat="44.13114" lon="3.22088">
        <ele>519.2</ele>
        <time>2024-11-07T13:57:50.000Z</time>
      </trkpt>
      <trkpt lat="44.13122" lon="3.22079">
        <ele>520.2</ele>
        <time>2024-11-07T13:57:55.000Z</time>
      </trkpt>
      <trkpt lat="44.13131" lon="3.22072">
        <ele>521.1</ele>
        <time>2024-11-07T13:58:00.000Z</time>
      </trkpt>
      <trkpt lat="44.13138" lon="3.22066">
        <ele>522</ele>
        <time>2024-11-07T13:58:05.000Z</time>
      </trkpt>
      <trkpt lat="44.13147" lon="3.2206">
        <ele>522.9</ele>
        <time>2024-11-07T13:58:10.000Z</time>
      </trkpt>
      <trkpt lat="44.13157" lon="3.22052">
        <ele>523.8</ele>
        <time>2024-11-07T13:58:15.000Z</time>
      </trkpt>
      <trkpt lat="44.13167" lon="3.22047">
        <ele>524.7</ele>
        <time>2024-11-07T13:58:20.000Z</time>
      </trkpt>
      <trkpt lat="44.13177" lon="3.22041">
        <ele>525.6</ele>
        <time>2024-11-07T13:58:25.000Z</time>
      </trkpt>
      <trkpt lat="44.13185" lon="3.22033">
        <ele>526.4</ele>
        <time>2024-11-07T13:58:30.000Z</time>
      </trkpt>
      <trkpt lat="44.13194" lon="3.22024">
        <ele>527.2</ele>
        <time>2024-11-07T13:58:35.000Z</time>
      </trkpt>
      <trkpt lat="44.13202" lon="3.22015">
        <ele>528</ele>
        <time>2024-11-07T13:58:40.000Z</time>
      </trkpt>
      <trkpt lat="44.13211" lon="3.22006">
        <ele>528.7</ele>
        <time>2024-11-07T13:58:45.000Z</time>
      </trkpt>
      <trkpt lat="44.1322" lon="3.21999">
        <ele>529.5</ele>
        <time>2024-11-07T13:58:50.000Z</time>
      </trkpt>
      <trkpt lat="44.13228" lon="3.21991">
        <ele>530.3</ele>
        <time>2024-11-07T13:58:55.000Z</time>
      </trkpt>
      <trkpt lat="44.13236" lon="3.21984">
        <ele>531.1</ele>
        <time>2024-11-07T13:59:00.000Z</time>
      </trkpt>
      <trkpt lat="44.13246" lon="3.2198">
        <ele>531.8</ele>
        <time>2024-11-07T13:59:05.000Z</time>
      </trkpt>
      <trkpt lat="44.13256" lon="3.21977">
        <ele>532.6</ele>
        <time>2024-11-07T13:59:10.000Z</time>
      </trkpt>
      <trkpt lat="44.13266" lon="3.21974">
        <ele>533.5</ele>
        <time>2024-11-07T13:59:15.000Z</time>
      </trkpt>
      <trkpt lat="44.13277" lon="3.21972">
        <ele>534.4</ele>
        <time>2024-11-07T13:59:20.000Z</time>
      </trkpt>
      <trkpt lat="44.13288" lon="3.21973">
        <ele>535.3</ele>
        <time>2024-11-07T13:59:25.000Z</time>
      </trkpt>
      <trkpt lat="44.13298" lon="3.21974">
        <ele>536.2</ele>
        <time>2024-11-07T13:59:30.000Z</time>
      </trkpt>
      <trkpt lat="44.13309" lon="3.21975">
        <ele>537</ele>
        <time>2024-11-07T13:59:35.000Z</time>
      </trkpt>
      <trkpt lat="44.13319" lon="3.21976">
        <ele>538</ele>
        <time>2024-11-07T13:59:40.000Z</time>
      </trkpt>
      <trkpt lat="44.13329" lon="3.21975">
        <ele>538.9</ele>
        <time>2024-11-07T13:59:45.000Z</time>
      </trkpt>
      <trkpt lat="44.13338" lon="3.21969">
        <ele>539.7</ele>
        <time>2024-11-07T13:59:50.000Z</time>
      </trkpt>
      <trkpt lat="44.13344" lon="3.21958">
        <ele>540.4</ele>
        <time>2024-11-07T13:59:55.000Z</time>
      </trkpt>
      <trkpt lat="44.13348" lon="3.21945">
        <ele>541</ele>
        <time>2024-11-07T14:00:00.000Z</time>
      </trkpt>
      <trkpt lat="44.13355" lon="3.21935">
        <ele>541.6</ele>
        <time>2024-11-07T14:00:05.000Z</time>
      </trkpt>
      <trkpt lat="44.13362" lon="3.21927">
        <ele>542.2</ele>
        <time>2024-11-07T14:00:09.000Z</time>
      </trkpt>
      <trkpt lat="44.1337" lon="3.21916">
        <ele>542.9</ele>
        <time>2024-11-07T14:00:14.000Z</time>
      </trkpt>
      <trkpt lat="44.13378" lon="3.21905">
        <ele>543.6</ele>
        <time>2024-11-07T14:00:19.000Z</time>
      </trkpt>
      <trkpt lat="44.13386" lon="3.21896">
        <ele>544.4</ele>
        <time>2024-11-07T14:00:24.000Z</time>
      </trkpt>
      <trkpt lat="44.13394" lon="3.21888">
        <ele>545.2</ele>
        <time>2024-11-07T14:00:29.000Z</time>
      </trkpt>
      <trkpt lat="44.13403" lon="3.21881">
        <ele>545.7</ele>
        <time>2024-11-07T14:00:33.000Z</time>
      </trkpt>
      <trkpt lat="44.13412" lon="3.21876">
        <ele>546.6</ele>
        <time>2024-11-07T14:00:38.000Z</time>
      </trkpt>
      <trkpt lat="44.13422" lon="3.21872">
        <ele>547.6</ele>
        <time>2024-11-07T14:00:44.000Z</time>
      </trkpt>
      <trkpt lat="44.13431" lon="3.21867">
        <ele>548.5</ele>
        <time>2024-11-07T14:00:49.000Z</time>
      </trkpt>
      <trkpt lat="44.13439" lon="3.2186">
        <ele>549.4</ele>
        <time>2024-11-07T14:00:54.000Z</time>
      </trkpt>
      <trkpt lat="44.13446" lon="3.21851">
        <ele>550</ele>
        <time>2024-11-07T14:00:58.000Z</time>
      </trkpt>
      <trkpt lat="44.13454" lon="3.21842">
        <ele>550.6</ele>
        <time>2024-11-07T14:01:02.000Z</time>
      </trkpt>
      <trkpt lat="44.13463" lon="3.21833">
        <ele>551.4</ele>
        <time>2024-11-07T14:01:07.000Z</time>
      </trkpt>
      <trkpt lat="44.13472" lon="3.21827">
        <ele>552.2</ele>
        <time>2024-11-07T14:01:12.000Z</time>
      </trkpt>
      <trkpt lat="44.13482" lon="3.21823">
        <ele>553.1</ele>
        <time>2024-11-07T14:01:17.000Z</time>
      </trkpt>
      <trkpt lat="44.13493" lon="3.21821">
        <ele>553.8</ele>
        <time>2024-11-07T14:01:22.000Z</time>
      </trkpt>
      <trkpt lat="44.13503" lon="3.2182">
        <ele>554.6</ele>
        <time>2024-11-07T14:01:27.000Z</time>
      </trkpt>
      <trkpt lat="44.13513" lon="3.21825">
        <ele>555.4</ele>
        <time>2024-11-07T14:01:32.000Z</time>
      </trkpt>
      <trkpt lat="44.13522" lon="3.21829">
        <ele>556.3</ele>
        <time>2024-11-07T14:01:37.000Z</time>
      </trkpt>
      <trkpt lat="44.13531" lon="3.2183">
        <ele>557</ele>
        <time>2024-11-07T14:01:41.000Z</time>
      </trkpt>
      <trkpt lat="44.13541" lon="3.21832">
        <ele>557.8</ele>
        <time>2024-11-07T14:01:46.000Z</time>
      </trkpt>
      <trkpt lat="44.13551" lon="3.21834">
        <ele>558.6</ele>
        <time>2024-11-07T14:01:51.000Z</time>
      </trkpt>
      <trkpt lat="44.1356" lon="3.21837">
        <ele>559.4</ele>
        <time>2024-11-07T14:01:56.000Z</time>
      </trkpt>
      <trkpt lat="44.1357" lon="3.21841">
        <ele>560.3</ele>
        <time>2024-11-07T14:02:01.000Z</time>
      </trkpt>
      <trkpt lat="44.1358" lon="3.21844">
        <ele>561.3</ele>
        <time>2024-11-07T14:02:06.000Z</time>
      </trkpt>
      <trkpt lat="44.13589" lon="3.21844">
        <ele>562.1</ele>
        <time>2024-11-07T14:02:11.000Z</time>
      </trkpt>
      <trkpt lat="44.13599" lon="3.21843">
        <ele>563</ele>
        <time>2024-11-07T14:02:16.000Z</time>
      </trkpt>
      <trkpt lat="44.13609" lon="3.21841">
        <ele>564</ele>
        <time>2024-11-07T14:02:22.000Z</time>
      </trkpt>
      <trkpt lat="44.13619" lon="3.21841">
        <ele>564.9</ele>
        <time>2024-11-07T14:02:27.000Z</time>
      </trkpt>
      <trkpt lat="44.13629" lon="3.21841">
        <ele>565.8</ele>
        <time>2024-11-07T14:02:32.000Z</time>
      </trkpt>
      <trkpt lat="44.1364" lon="3.21842">
        <ele>566.7</ele>
        <time>2024-11-07T14:02:37.000Z</time>
      </trkpt>
      <trkpt lat="44.1365" lon="3.21842">
        <ele>567.3</ele>
        <time>2024-11-07T14:02:41.000Z</time>
      </trkpt>
      <trkpt lat="44.13659" lon="3.2184">
        <ele>567.9</ele>
        <time>2024-11-07T14:02:45.000Z</time>
      </trkpt>
      <trkpt lat="44.13668" lon="3.21835">
        <ele>568.5</ele>
        <time>2024-11-07T14:02:49.000Z</time>
      </trkpt>
      <trkpt lat="44.13671" lon="3.21822">
        <ele>569</ele>
        <time>2024-11-07T14:02:53.000Z</time>
      </trkpt>
      <trkpt lat="44.13671" lon="3.21808">
        <ele>569.5</ele>
        <time>2024-11-07T14:02:57.000Z</time>
      </trkpt>
      <trkpt lat="44.13667" lon="3.21795">
        <ele>570.1</ele>
        <time>2024-11-07T14:03:01.000Z</time>
      </trkpt>
      <trkpt lat="44.13658" lon="3.21787">
        <ele>570.8</ele>
        <time>2024-11-07T14:03:06.000Z</time>
      </trkpt>
      <trkpt lat="44.13649" lon="3.21783">
        <ele>571.4</ele>
        <time>2024-11-07T14:03:10.000Z</time>
      </trkpt>
      <trkpt lat="44.13639" lon="3.21777">
        <ele>572</ele>
        <time>2024-11-07T14:03:15.000Z</time>
      </trkpt>
      <trkpt lat="44.1363" lon="3.21771">
        <ele>572.8</ele>
        <time>2024-11-07T14:03:20.000Z</time>
      </trkpt>
      <trkpt lat="44.1362" lon="3.21764">
        <ele>573.4</ele>
        <time>2024-11-07T14:03:25.000Z</time>
      </trkpt>
      <trkpt lat="44.13615" lon="3.21752">
        <ele>574.1</ele>
        <time>2024-11-07T14:03:30.000Z</time>
      </trkpt>
      <trkpt lat="44.13621" lon="3.21742">
        <ele>574.8</ele>
        <time>2024-11-07T14:03:35.000Z</time>
      </trkpt>
      <trkpt lat="44.1363" lon="3.21746">
        <ele>575.4</ele>
        <time>2024-11-07T14:03:40.000Z</time>
      </trkpt>
      <trkpt lat="44.13637" lon="3.21755">
        <ele>576.2</ele>
        <time>2024-11-07T14:03:45.000Z</time>
      </trkpt>
      <trkpt lat="44.13645" lon="3.21763">
        <ele>577</ele>
        <time>2024-11-07T14:03:50.000Z</time>
      </trkpt>
      <trkpt lat="44.13653" lon="3.2177">
        <ele>577.8</ele>
        <time>2024-11-07T14:03:55.000Z</time>
      </trkpt>
      <trkpt lat="44.13663" lon="3.21777">
        <ele>578.7</ele>
        <time>2024-11-07T14:04:00.000Z</time>
      </trkpt>
      <trkpt lat="44.13673" lon="3.21782">
        <ele>579.4</ele>
        <time>2024-11-07T14:04:05.000Z</time>
      </trkpt>
      <trkpt lat="44.13682" lon="3.21786">
        <ele>580.1</ele>
        <time>2024-11-07T14:04:09.000Z</time>
      </trkpt>
      <trkpt lat="44.13691" lon="3.21788">
        <ele>580.7</ele>
        <time>2024-11-07T14:04:13.000Z</time>
      </trkpt>
      <trkpt lat="44.13701" lon="3.21788">
        <ele>581.2</ele>
        <time>2024-11-07T14:04:17.000Z</time>
      </trkpt>
      <trkpt lat="44.1371" lon="3.21786">
        <ele>581.9</ele>
        <time>2024-11-07T14:04:21.000Z</time>
      </trkpt>
      <trkpt lat="44.13718" lon="3.21778">
        <ele>582.7</ele>
        <time>2024-11-07T14:04:26.000Z</time>
      </trkpt>
      <trkpt lat="44.13726" lon="3.21767">
        <ele>583.6</ele>
        <time>2024-11-07T14:04:31.000Z</time>
      </trkpt>
      <trkpt lat="44.13731" lon="3.21756">
        <ele>584.5</ele>
        <time>2024-11-07T14:04:36.000Z</time>
      </trkpt>
      <trkpt lat="44.13735" lon="3.21745">
        <ele>585.3</ele>
        <time>2024-11-07T14:04:41.000Z</time>
      </trkpt>
      <trkpt lat="44.13743" lon="3.21734">
        <ele>586.2</ele>
        <time>2024-11-07T14:04:46.000Z</time>
      </trkpt>
      <trkpt lat="44.13752" lon="3.21725">
        <ele>586.9</ele>
        <time>2024-11-07T14:04:51.000Z</time>
      </trkpt>
      <trkpt lat="44.1376" lon="3.21719">
        <ele>587.7</ele>
        <time>2024-11-07T14:04:55.000Z</time>
      </trkpt>
      <trkpt lat="44.1377" lon="3.21715">
        <ele>588.7</ele>
        <time>2024-11-07T14:05:00.000Z</time>
      </trkpt>
      <trkpt lat="44.13779" lon="3.21715">
        <ele>589.5</ele>
        <time>2024-11-07T14:05:05.000Z</time>
      </trkpt>
      <trkpt lat="44.13789" lon="3.21718">
        <ele>590.6</ele>
        <time>2024-11-07T14:05:11.000Z</time>
      </trkpt>
      <trkpt lat="44.13798" lon="3.21722">
        <ele>591.5</ele>
        <time>2024-11-07T14:05:16.000Z</time>
      </trkpt>
      <trkpt lat="44.13807" lon="3.21729">
        <ele>592.4</ele>
        <time>2024-11-07T14:05:21.000Z</time>
      </trkpt>
      <trkpt lat="44.13815" lon="3.21735">
        <ele>593.1</ele>
        <time>2024-11-07T14:05:26.000Z</time>
      </trkpt>
      <trkpt lat="44.13824" lon="3.21743">
        <ele>594.1</ele>
        <time>2024-11-07T14:05:32.000Z</time>
      </trkpt>
      <trkpt lat="44.13832" lon="3.2175">
        <ele>595</ele>
        <time>2024-11-07T14:05:38.000Z</time>
      </trkpt>
      <trkpt lat="44.13841" lon="3.21759">
        <ele>595.8</ele>
        <time>2024-11-07T14:05:44.000Z</time>
      </trkpt>
      <trkpt lat="44.1385" lon="3.21762">
        <ele>596.6</ele>
        <time>2024-11-07T14:05:49.000Z</time>
      </trkpt>
      <trkpt lat="44.1386" lon="3.21758">
        <ele>597.5</ele>
        <time>2024-11-07T14:05:54.000Z</time>
      </trkpt>
      <trkpt lat="44.13868" lon="3.2175">
        <ele>598.1</ele>
        <time>2024-11-07T14:05:59.000Z</time>
      </trkpt>
      <trkpt lat="44.13875" lon="3.21739">
        <ele>598.9</ele>
        <time>2024-11-07T14:06:04.000Z</time>
      </trkpt>
      <trkpt lat="44.1388" lon="3.21728">
        <ele>599.5</ele>
        <time>2024-11-07T14:06:09.000Z</time>
      </trkpt>
      <trkpt lat="44.13886" lon="3.21717">
        <ele>600.3</ele>
        <time>2024-11-07T14:06:14.000Z</time>
      </trkpt>
      <trkpt lat="44.13893" lon="3.21706">
        <ele>601.2</ele>
        <time>2024-11-07T14:06:20.000Z</time>
      </trkpt>
      <trkpt lat="44.139" lon="3.21695">
        <ele>602</ele>
        <time>2024-11-07T14:06:26.000Z</time>
      </trkpt>
      <trkpt lat="44.13907" lon="3.21687">
        <ele>602.7</ele>
        <time>2024-11-07T14:06:31.000Z</time>
      </trkpt>
      <trkpt lat="44.13916" lon="3.21679">
        <ele>603.3</ele>
        <time>2024-11-07T14:06:36.000Z</time>
      </trkpt>
      <trkpt lat="44.13926" lon="3.21674">
        <ele>604.1</ele>
        <time>2024-11-07T14:06:41.000Z</time>
      </trkpt>
      <trkpt lat="44.13935" lon="3.21675">
        <ele>604.9</ele>
        <time>2024-11-07T14:06:46.000Z</time>
      </trkpt>
      <trkpt lat="44.13946" lon="3.21676">
        <ele>606</ele>
        <time>2024-11-07T14:06:52.000Z</time>
      </trkpt>
      <trkpt lat="44.13955" lon="3.21677">
        <ele>606.8</ele>
        <time>2024-11-07T14:06:57.000Z</time>
      </trkpt>
      <trkpt lat="44.13966" lon="3.21677">
        <ele>607.8</ele>
        <time>2024-11-07T14:07:03.000Z</time>
      </trkpt>
      <trkpt lat="44.13977" lon="3.21679">
        <ele>608.8</ele>
        <time>2024-11-07T14:07:09.000Z</time>
      </trkpt>
      <trkpt lat="44.13986" lon="3.21681">
        <ele>609.6</ele>
        <time>2024-11-07T14:07:14.000Z</time>
      </trkpt>
      <trkpt lat="44.13995" lon="3.21683">
        <ele>610.5</ele>
        <time>2024-11-07T14:07:19.000Z</time>
      </trkpt>
      <trkpt lat="44.14005" lon="3.21685">
        <ele>611.3</ele>
        <time>2024-11-07T14:07:24.000Z</time>
      </trkpt>
      <trkpt lat="44.14014" lon="3.21686">
        <ele>612.3</ele>
        <time>2024-11-07T14:07:29.000Z</time>
      </trkpt>
      <trkpt lat="44.14024" lon="3.21683">
        <ele>613.1</ele>
        <time>2024-11-07T14:07:34.000Z</time>
      </trkpt>
      <trkpt lat="44.14034" lon="3.2168">
        <ele>613.9</ele>
        <time>2024-11-07T14:07:39.000Z</time>
      </trkpt>
      <trkpt lat="44.14045" lon="3.21676">
        <ele>614.6</ele>
        <time>2024-11-07T14:07:44.000Z</time>
      </trkpt>
      <trkpt lat="44.14055" lon="3.21673">
        <ele>615.2</ele>
        <time>2024-11-07T14:07:49.000Z</time>
      </trkpt>
      <trkpt lat="44.14064" lon="3.21671">
        <ele>616.1</ele>
        <time>2024-11-07T14:07:54.000Z</time>
      </trkpt>
      <trkpt lat="44.14074" lon="3.2167">
        <ele>617.1</ele>
        <time>2024-11-07T14:07:59.000Z</time>
      </trkpt>
      <trkpt lat="44.14084" lon="3.21667">
        <ele>618</ele>
        <time>2024-11-07T14:08:04.000Z</time>
      </trkpt>
      <trkpt lat="44.14093" lon="3.21663">
        <ele>618.8</ele>
        <time>2024-11-07T14:08:09.000Z</time>
      </trkpt>
      <trkpt lat="44.14104" lon="3.21658">
        <ele>619.7</ele>
        <time>2024-11-07T14:08:14.000Z</time>
      </trkpt>
      <trkpt lat="44.14114" lon="3.21654">
        <ele>620.4</ele>
        <time>2024-11-07T14:08:19.000Z</time>
      </trkpt>
      <trkpt lat="44.14123" lon="3.21651">
        <ele>621.1</ele>
        <time>2024-11-07T14:08:24.000Z</time>
      </trkpt>
      <trkpt lat="44.14133" lon="3.21649">
        <ele>621.8</ele>
        <time>2024-11-07T14:08:29.000Z</time>
      </trkpt>
      <trkpt lat="44.14142" lon="3.21646">
        <ele>622.6</ele>
        <time>2024-11-07T14:08:34.000Z</time>
      </trkpt>
      <trkpt lat="44.1415" lon="3.21643">
        <ele>623.3</ele>
        <time>2024-11-07T14:08:39.000Z</time>
      </trkpt>
      <trkpt lat="44.1416" lon="3.21637">
        <ele>624.2</ele>
        <time>2024-11-07T14:08:44.000Z</time>
      </trkpt>
      <trkpt lat="44.14168" lon="3.21632">
        <ele>625</ele>
        <time>2024-11-07T14:08:49.000Z</time>
      </trkpt>
      <trkpt lat="44.14177" lon="3.21625">
        <ele>625.9</ele>
        <time>2024-11-07T14:08:54.000Z</time>
      </trkpt>
      <trkpt lat="44.14186" lon="3.21621">
        <ele>626.7</ele>
        <time>2024-11-07T14:08:59.000Z</time>
      </trkpt>
      <trkpt lat="44.14196" lon="3.21618">
        <ele>627.6</ele>
        <time>2024-11-07T14:09:04.000Z</time>
      </trkpt>
      <trkpt lat="44.14205" lon="3.21617">
        <ele>628.5</ele>
        <time>2024-11-07T14:09:09.000Z</time>
      </trkpt>
      <trkpt lat="44.14214" lon="3.21618">
        <ele>629.4</ele>
        <time>2024-11-07T14:09:14.000Z</time>
      </trkpt>
      <trkpt lat="44.14224" lon="3.21621">
        <ele>630.3</ele>
        <time>2024-11-07T14:09:19.000Z</time>
      </trkpt>
      <trkpt lat="44.14233" lon="3.21622">
        <ele>631.2</ele>
        <time>2024-11-07T14:09:24.000Z</time>
      </trkpt>
      <trkpt lat="44.14243" lon="3.21622">
        <ele>632.2</ele>
        <time>2024-11-07T14:09:29.000Z</time>
      </trkpt>
      <trkpt lat="44.14252" lon="3.21619">
        <ele>633.1</ele>
        <time>2024-11-07T14:09:34.000Z</time>
      </trkpt>
      <trkpt lat="44.1426" lon="3.21612">
        <ele>634</ele>
        <time>2024-11-07T14:09:39.000Z</time>
      </trkpt>
      <trkpt lat="44.14268" lon="3.21604">
        <ele>634.9</ele>
        <time>2024-11-07T14:09:44.000Z</time>
      </trkpt>
      <trkpt lat="44.14277" lon="3.21596">
        <ele>635.6</ele>
        <time>2024-11-07T14:09:49.000Z</time>
      </trkpt>
      <trkpt lat="44.14286" lon="3.21593">
        <ele>636.4</ele>
        <time>2024-11-07T14:09:54.000Z</time>
      </trkpt>
      <trkpt lat="44.14296" lon="3.21592">
        <ele>637.2</ele>
        <time>2024-11-07T14:09:59.000Z</time>
      </trkpt>
      <trkpt lat="44.14305" lon="3.21593">
        <ele>637.9</ele>
        <time>2024-11-07T14:10:04.000Z</time>
      </trkpt>
      <trkpt lat="44.14314" lon="3.21597">
        <ele>638.6</ele>
        <time>2024-11-07T14:10:09.000Z</time>
      </trkpt>
      <trkpt lat="44.14323" lon="3.21605">
        <ele>639.2</ele>
        <time>2024-11-07T14:10:14.000Z</time>
      </trkpt>
      <trkpt lat="44.1433" lon="3.21613">
        <ele>639.7</ele>
        <time>2024-11-07T14:10:18.000Z</time>
      </trkpt>
      <trkpt lat="44.14336" lon="3.21622">
        <ele>640.2</ele>
        <time>2024-11-07T14:10:22.000Z</time>
      </trkpt>
      <trkpt lat="44.14343" lon="3.2163">
        <ele>640.6</ele>
        <time>2024-11-07T14:10:26.000Z</time>
      </trkpt>
      <trkpt lat="44.14351" lon="3.21638">
        <ele>641.1</ele>
        <time>2024-11-07T14:10:30.000Z</time>
      </trkpt>
      <trkpt lat="44.14358" lon="3.21647">
        <ele>641.5</ele>
        <time>2024-11-07T14:10:34.000Z</time>
      </trkpt>
      <trkpt lat="44.14367" lon="3.21656">
        <ele>641.9</ele>
        <time>2024-11-07T14:10:38.000Z</time>
      </trkpt>
      <trkpt lat="44.14375" lon="3.21664">
        <ele>642.3</ele>
        <time>2024-11-07T14:10:42.000Z</time>
      </trkpt>
      <trkpt lat="44.14385" lon="3.21671">
        <ele>642.8</ele>
        <time>2024-11-07T14:10:46.000Z</time>
      </trkpt>
      <trkpt lat="44.14395" lon="3.21677">
        <ele>643.2</ele>
        <time>2024-11-07T14:10:50.000Z</time>
      </trkpt>
      <trkpt lat="44.14406" lon="3.21681">
        <ele>643.5</ele>
        <time>2024-11-07T14:10:54.000Z</time>
      </trkpt>
      <trkpt lat="44.14417" lon="3.21685">
        <ele>644</ele>
        <time>2024-11-07T14:10:58.000Z</time>
      </trkpt>
      <trkpt lat="44.14428" lon="3.21689">
        <ele>644.3</ele>
        <time>2024-11-07T14:11:02.000Z</time>
      </trkpt>
      <trkpt lat="44.14437" lon="3.21693">
        <ele>644.5</ele>
        <time>2024-11-07T14:11:05.000Z</time>
      </trkpt>
      <trkpt lat="44.14446" lon="3.21695">
        <ele>644.8</ele>
        <time>2024-11-07T14:11:08.000Z</time>
      </trkpt>
      <trkpt lat="44.14456" lon="3.21697">
        <ele>645</ele>
        <time>2024-11-07T14:11:11.000Z</time>
      </trkpt>
      <trkpt lat="44.14466" lon="3.21698">
        <ele>645.3</ele>
        <time>2024-11-07T14:11:14.000Z</time>
      </trkpt>
      <trkpt lat="44.14476" lon="3.217">
        <ele>645.6</ele>
        <time>2024-11-07T14:11:17.000Z</time>
      </trkpt>
      <trkpt lat="44.14485" lon="3.21705">
        <ele>645.9</ele>
        <time>2024-11-07T14:11:20.000Z</time>
      </trkpt>
      <trkpt lat="44.14494" lon="3.21707">
        <ele>646.1</ele>
        <time>2024-11-07T14:11:23.000Z</time>
      </trkpt>
      <trkpt lat="44.14505" lon="3.21705">
        <ele>646.3</ele>
        <time>2024-11-07T14:11:26.000Z</time>
      </trkpt>
      <trkpt lat="44.14515" lon="3.217">
        <ele>646.5</ele>
        <time>2024-11-07T14:11:29.000Z</time>
      </trkpt>
      <trkpt lat="44.14524" lon="3.21696">
        <ele>646.8</ele>
        <time>2024-11-07T14:11:32.000Z</time>
      </trkpt>
      <trkpt lat="44.14534" lon="3.21694">
        <ele>647.1</ele>
        <time>2024-11-07T14:11:35.000Z</time>
      </trkpt>
      <trkpt lat="44.14544" lon="3.21692">
        <ele>647.4</ele>
        <time>2024-11-07T14:11:38.000Z</time>
      </trkpt>
      <trkpt lat="44.14553" lon="3.21691">
        <ele>647.7</ele>
        <time>2024-11-07T14:11:41.000Z</time>
      </trkpt>
      <trkpt lat="44.14564" lon="3.21691">
        <ele>648.1</ele>
        <time>2024-11-07T14:11:45.000Z</time>
      </trkpt>
      <trkpt lat="44.14576" lon="3.21693">
        <ele>648.6</ele>
        <time>2024-11-07T14:11:49.000Z</time>
      </trkpt>
      <trkpt lat="44.14586" lon="3.21697">
        <ele>649.2</ele>
        <time>2024-11-07T14:11:53.000Z</time>
      </trkpt>
      <trkpt lat="44.14596" lon="3.217">
        <ele>649.6</ele>
        <time>2024-11-07T14:11:57.000Z</time>
      </trkpt>
      <trkpt lat="44.14607" lon="3.21699">
        <ele>650.2</ele>
        <time>2024-11-07T14:12:01.000Z</time>
      </trkpt>
      <trkpt lat="44.14617" lon="3.21693">
        <ele>650.6</ele>
        <time>2024-11-07T14:12:05.000Z</time>
      </trkpt>
      <trkpt lat="44.14625" lon="3.21683">
        <ele>651.1</ele>
        <time>2024-11-07T14:12:09.000Z</time>
      </trkpt>
      <trkpt lat="44.14633" lon="3.21674">
        <ele>651.7</ele>
        <time>2024-11-07T14:12:13.000Z</time>
      </trkpt>
      <trkpt lat="44.14641" lon="3.21665">
        <ele>652.3</ele>
        <time>2024-11-07T14:12:17.000Z</time>
      </trkpt>
      <trkpt lat="44.14649" lon="3.21656">
        <ele>652.8</ele>
        <time>2024-11-07T14:12:21.000Z</time>
      </trkpt>
      <trkpt lat="44.14657" lon="3.21645">
        <ele>653.3</ele>
        <time>2024-11-07T14:12:25.000Z</time>
      </trkpt>
      <trkpt lat="44.14665" lon="3.21635">
        <ele>653.8</ele>
        <time>2024-11-07T14:12:29.000Z</time>
      </trkpt>
      <trkpt lat="44.14674" lon="3.21628">
        <ele>654.3</ele>
        <time>2024-11-07T14:12:33.000Z</time>
      </trkpt>
      <trkpt lat="44.14682" lon="3.21619">
        <ele>655</ele>
        <time>2024-11-07T14:12:38.000Z</time>
      </trkpt>
      <trkpt lat="44.14684" lon="3.21605">
        <ele>656</ele>
        <time>2024-11-07T14:12:46.000Z</time>
      </trkpt>
      <trkpt lat="44.14693" lon="3.21603">
        <ele>658.3</ele>
        <time>2024-11-07T14:12:59.000Z</time>
      </trkpt>
      <trkpt lat="44.14701" lon="3.21608">
        <ele>661.5</ele>
        <time>2024-11-07T14:15:26.000Z</time>
      </trkpt>
      <trkpt lat="44.1471" lon="3.21611">
        <ele>662</ele>
        <time>2024-11-07T14:15:34.000Z</time>
      </trkpt>
      <trkpt lat="44.1472" lon="3.21613">
        <ele>662.5</ele>
        <time>2024-11-07T14:15:42.000Z</time>
      </trkpt>
      <trkpt lat="44.14729" lon="3.21612">
        <ele>663.2</ele>
        <time>2024-11-07T14:15:50.000Z</time>
      </trkpt>
      <trkpt lat="44.14725" lon="3.216">
        <ele>664.6</ele>
        <time>2024-11-07T14:16:01.000Z</time>
      </trkpt>
      <trkpt lat="44.14718" lon="3.21592">
        <ele>665.6</ele>
        <time>2024-11-07T14:16:09.000Z</time>
      </trkpt>
      <trkpt lat="44.14714" lon="3.2158">
        <ele>667</ele>
        <time>2024-11-07T14:16:20.000Z</time>
      </trkpt>
      <trkpt lat="44.14722" lon="3.21576">
        <ele>668.4</ele>
        <time>2024-11-07T14:16:29.000Z</time>
      </trkpt>
      <trkpt lat="44.14731" lon="3.2157">
        <ele>669.6</ele>
        <time>2024-11-07T14:16:38.000Z</time>
      </trkpt>
      <trkpt lat="44.1474" lon="3.21566">
        <ele>671.4</ele>
        <time>2024-11-07T14:16:49.000Z</time>
      </trkpt>
      <trkpt lat="44.14749" lon="3.21563">
        <ele>673</ele>
        <time>2024-11-07T14:16:59.000Z</time>
      </trkpt>
      <trkpt lat="44.14758" lon="3.2156">
        <ele>674.4</ele>
        <time>2024-11-07T14:17:08.000Z</time>
      </trkpt>
      <trkpt lat="44.14767" lon="3.21559">
        <ele>675.8</ele>
        <time>2024-11-07T14:17:16.000Z</time>
      </trkpt>
      <trkpt lat="44.14776" lon="3.21558">
        <ele>677.4</ele>
        <time>2024-11-07T14:17:26.000Z</time>
      </trkpt>
      <trkpt lat="44.14785" lon="3.21558">
        <ele>678.9</ele>
        <time>2024-11-07T14:17:35.000Z</time>
      </trkpt>
      <trkpt lat="44.14794" lon="3.21562">
        <ele>680.6</ele>
        <time>2024-11-07T14:17:44.000Z</time>
      </trkpt>
      <trkpt lat="44.14803" lon="3.21567">
        <ele>682.8</ele>
        <time>2024-11-07T14:17:54.000Z</time>
      </trkpt>
      <trkpt lat="44.14812" lon="3.21571">
        <ele>684.8</ele>
        <time>2024-11-07T14:18:05.000Z</time>
      </trkpt>
      <trkpt lat="44.14821" lon="3.21575">
        <ele>686.4</ele>
        <time>2024-11-07T14:18:15.000Z</time>
      </trkpt>
      <trkpt lat="44.14831" lon="3.21577">
        <ele>687.7</ele>
        <time>2024-11-07T14:18:23.000Z</time>
      </trkpt>
      <trkpt lat="44.14837" lon="3.21566">
        <ele>689.7</ele>
        <time>2024-11-07T14:18:35.000Z</time>
      </trkpt>
      <trkpt lat="44.14833" lon="3.21553">
        <ele>691.7</ele>
        <time>2024-11-07T14:18:47.000Z</time>
      </trkpt>
      <trkpt lat="44.14829" lon="3.21541">
        <ele>693.3</ele>
        <time>2024-11-07T14:18:57.000Z</time>
      </trkpt>
      <trkpt lat="44.14826" lon="3.21529">
        <ele>694.8</ele>
        <time>2024-11-07T14:19:07.000Z</time>
      </trkpt>
      <trkpt lat="44.14822" lon="3.21518">
        <ele>696.2</ele>
        <time>2024-11-07T14:19:17.000Z</time>
      </trkpt>
      <trkpt lat="44.14818" lon="3.21505">
        <ele>697.7</ele>
        <time>2024-11-07T14:19:27.000Z</time>
      </trkpt>
      <trkpt lat="44.14812" lon="3.21494">
        <ele>699.8</ele>
        <time>2024-11-07T14:19:39.000Z</time>
      </trkpt>
      <trkpt lat="44.14822" lon="3.21492">
        <ele>702.1</ele>
        <time>2024-11-07T14:19:51.000Z</time>
      </trkpt>
      <trkpt lat="44.14831" lon="3.21488">
        <ele>703.6</ele>
        <time>2024-11-07T14:20:00.000Z</time>
      </trkpt>
      <trkpt lat="44.1484" lon="3.21486">
        <ele>704.9</ele>
        <time>2024-11-07T14:20:08.000Z</time>
      </trkpt>
      <trkpt lat="44.14851" lon="3.21485">
        <ele>706.1</ele>
        <time>2024-11-07T14:20:16.000Z</time>
      </trkpt>
      <trkpt lat="44.14861" lon="3.21481">
        <ele>707.4</ele>
        <time>2024-11-07T14:20:24.000Z</time>
      </trkpt>
      <trkpt lat="44.14871" lon="3.2148">
        <ele>708.6</ele>
        <time>2024-11-07T14:20:31.000Z</time>
      </trkpt>
      <trkpt lat="44.14881" lon="3.21478">
        <ele>709.3</ele>
        <time>2024-11-07T14:20:36.000Z</time>
      </trkpt>
      <trkpt lat="44.1489" lon="3.21478">
        <ele>709.8</ele>
        <time>2024-11-07T14:20:40.000Z</time>
      </trkpt>
      <trkpt lat="44.149" lon="3.21476">
        <ele>710.2</ele>
        <time>2024-11-07T14:20:44.000Z</time>
      </trkpt>
      <trkpt lat="44.1491" lon="3.21472">
        <ele>710.6</ele>
        <time>2024-11-07T14:20:48.000Z</time>
      </trkpt>
      <trkpt lat="44.1492" lon="3.21469">
        <ele>711.1</ele>
        <time>2024-11-07T14:20:52.000Z</time>
      </trkpt>
      <trkpt lat="44.14929" lon="3.21467">
        <ele>711.6</ele>
        <time>2024-11-07T14:20:56.000Z</time>
      </trkpt>
      <trkpt lat="44.14938" lon="3.21462">
        <ele>712.1</ele>
        <time>2024-11-07T14:21:00.000Z</time>
      </trkpt>
      <trkpt lat="44.14945" lon="3.21452">
        <ele>712.9</ele>
        <time>2024-11-07T14:21:05.000Z</time>
      </trkpt>
      <trkpt lat="44.14951" lon="3.21441">
        <ele>714.2</ele>
        <time>2024-11-07T14:21:12.000Z</time>
      </trkpt>
      <trkpt lat="44.14956" lon="3.21429">
        <ele>715.4</ele>
        <time>2024-11-07T14:21:18.000Z</time>
      </trkpt>
      <trkpt lat="44.1496" lon="3.21417">
        <ele>716.6</ele>
        <time>2024-11-07T14:21:24.000Z</time>
      </trkpt>
      <trkpt lat="44.14963" lon="3.21404">
        <ele>717.7</ele>
        <time>2024-11-07T14:21:30.000Z</time>
      </trkpt>
      <trkpt lat="44.14965" lon="3.21391">
        <ele>718.8</ele>
        <time>2024-11-07T14:21:36.000Z</time>
      </trkpt>
      <trkpt lat="44.14966" lon="3.21379">
        <ele>720</ele>
        <time>2024-11-07T14:21:42.000Z</time>
      </trkpt>
      <trkpt lat="44.14967" lon="3.21366">
        <ele>721.3</ele>
        <time>2024-11-07T14:21:48.000Z</time>
      </trkpt>
      <trkpt lat="44.14968" lon="3.21353">
        <ele>722.3</ele>
        <time>2024-11-07T14:21:53.000Z</time>
      </trkpt>
      <trkpt lat="44.1497" lon="3.2134">
        <ele>723.3</ele>
        <time>2024-11-07T14:21:59.000Z</time>
      </trkpt>
      <trkpt lat="44.14972" lon="3.21326">
        <ele>724.3</ele>
        <time>2024-11-07T14:22:05.000Z</time>
      </trkpt>
      <trkpt lat="44.14975" lon="3.21313">
        <ele>725.6</ele>
        <time>2024-11-07T14:22:12.000Z</time>
      </trkpt>
      <trkpt lat="44.14977" lon="3.21301">
        <ele>726.5</ele>
        <time>2024-11-07T14:22:18.000Z</time>
      </trkpt>
      <trkpt lat="44.14977" lon="3.21288">
        <ele>727.6</ele>
        <time>2024-11-07T14:22:24.000Z</time>
      </trkpt>
      <trkpt lat="44.1498" lon="3.21275">
        <ele>729</ele>
        <time>2024-11-07T14:22:33.000Z</time>
      </trkpt>
      <trkpt lat="44.14982" lon="3.21261">
        <ele>730.5</ele>
        <time>2024-11-07T14:22:42.000Z</time>
      </trkpt>
      <trkpt lat="44.14984" lon="3.21249">
        <ele>732</ele>
        <time>2024-11-07T14:22:50.000Z</time>
      </trkpt>
      <trkpt lat="44.14985" lon="3.21236">
        <ele>733.4</ele>
        <time>2024-11-07T14:22:58.000Z</time>
      </trkpt>
      <trkpt lat="44.14987" lon="3.21223">
        <ele>734.8</ele>
        <time>2024-11-07T14:23:06.000Z</time>
      </trkpt>
      <trkpt lat="44.14986" lon="3.2121">
        <ele>736.4</ele>
        <time>2024-11-07T14:23:14.000Z</time>
      </trkpt>
      <trkpt lat="44.14983" lon="3.21196">
        <ele>737.8</ele>
        <time>2024-11-07T14:23:22.000Z</time>
      </trkpt>
      <trkpt lat="44.14981" lon="3.21183">
        <ele>738.9</ele>
        <time>2024-11-07T14:23:28.000Z</time>
      </trkpt>
      <trkpt lat="44.14981" lon="3.2117">
        <ele>740.3</ele>
        <time>2024-11-07T14:23:35.000Z</time>
      </trkpt>
      <trkpt lat="44.14979" lon="3.21158">
        <ele>741.3</ele>
        <time>2024-11-07T14:23:41.000Z</time>
      </trkpt>
      <trkpt lat="44.14976" lon="3.21144">
        <ele>742.2</ele>
        <time>2024-11-07T14:23:47.000Z</time>
      </trkpt>
      <trkpt lat="44.14974" lon="3.21131">
        <ele>742.9</ele>
        <time>2024-11-07T14:23:53.000Z</time>
      </trkpt>
      <trkpt lat="44.1497" lon="3.21117">
        <ele>743.4</ele>
        <time>2024-11-07T14:23:58.000Z</time>
      </trkpt>
      <trkpt lat="44.14964" lon="3.21105">
        <ele>744</ele>
        <time>2024-11-07T14:24:03.000Z</time>
      </trkpt>
      <trkpt lat="44.14959" lon="3.21094">
        <ele>744.5</ele>
        <time>2024-11-07T14:24:07.000Z</time>
      </trkpt>
      <trkpt lat="44.14954" lon="3.21081">
        <ele>745.1</ele>
        <time>2024-11-07T14:24:12.000Z</time>
      </trkpt>
      <trkpt lat="44.1495" lon="3.21068">
        <ele>745.5</ele>
        <time>2024-11-07T14:24:16.000Z</time>
      </trkpt>
      <trkpt lat="44.14948" lon="3.21055">
        <ele>745.9</ele>
        <time>2024-11-07T14:24:20.000Z</time>
      </trkpt>
      <trkpt lat="44.14945" lon="3.21041">
        <ele>746.3</ele>
        <time>2024-11-07T14:24:24.000Z</time>
      </trkpt>
      <trkpt lat="44.14942" lon="3.21028">
        <ele>746.8</ele>
        <time>2024-11-07T14:24:28.000Z</time>
      </trkpt>
      <trkpt lat="44.14938" lon="3.21013">
        <ele>747.5</ele>
        <time>2024-11-07T14:24:33.000Z</time>
      </trkpt>
      <trkpt lat="44.14933" lon="3.21002">
        <ele>748.1</ele>
        <time>2024-11-07T14:24:37.000Z</time>
      </trkpt>
      <trkpt lat="44.14927" lon="3.2099">
        <ele>748.6</ele>
        <time>2024-11-07T14:24:41.000Z</time>
      </trkpt>
      <trkpt lat="44.14921" lon="3.20978">
        <ele>749.1</ele>
        <time>2024-11-07T14:24:45.000Z</time>
      </trkpt>
      <trkpt lat="44.14915" lon="3.20968">
        <ele>749.3</ele>
        <time>2024-11-07T14:24:48.000Z</time>
      </trkpt>
      <trkpt lat="44.14912" lon="3.20955">
        <ele>749.5</ele>
        <time>2024-11-07T14:24:51.000Z</time>
      </trkpt>
      <trkpt lat="44.14912" lon="3.2094">
        <ele>749.7</ele>
        <time>2024-11-07T14:24:54.000Z</time>
      </trkpt>
      <trkpt lat="44.14912" lon="3.20925">
        <ele>749.9</ele>
        <time>2024-11-07T14:24:57.000Z</time>
      </trkpt>
      <trkpt lat="44.14913" lon="3.20911">
        <ele>750.1</ele>
        <time>2024-11-07T14:25:00.000Z</time>
      </trkpt>
      <trkpt lat="44.14917" lon="3.20898">
        <ele>750.3</ele>
        <time>2024-11-07T14:25:03.000Z</time>
      </trkpt>
      <trkpt lat="44.14924" lon="3.20888">
        <ele>750.5</ele>
        <time>2024-11-07T14:25:06.000Z</time>
      </trkpt>
      <trkpt lat="44.14928" lon="3.20874">
        <ele>750.8</ele>
        <time>2024-11-07T14:25:09.000Z</time>
      </trkpt>
      <trkpt lat="44.14928" lon="3.2086">
        <ele>751.1</ele>
        <time>2024-11-07T14:25:12.000Z</time>
      </trkpt>
      <trkpt lat="44.14929" lon="3.20845">
        <ele>751.3</ele>
        <time>2024-11-07T14:25:15.000Z</time>
      </trkpt>
      <trkpt lat="44.1493" lon="3.20831">
        <ele>751.5</ele>
        <time>2024-11-07T14:25:18.000Z</time>
      </trkpt>
      <trkpt lat="44.14929" lon="3.20817">
        <ele>751.6</ele>
        <time>2024-11-07T14:25:21.000Z</time>
      </trkpt>
      <trkpt lat="44.14925" lon="3.20805">
        <ele>751.7</ele>
        <time>2024-11-07T14:25:24.000Z</time>
      </trkpt>
      <trkpt lat="44.14917" lon="3.20795">
        <ele>751.9</ele>
        <time>2024-11-07T14:25:28.000Z</time>
      </trkpt>
      <trkpt lat="44.14907" lon="3.20788">
        <ele>752</ele>
        <time>2024-11-07T14:25:32.000Z</time>
      </trkpt>
      <trkpt lat="44.14898" lon="3.20783">
        <ele>752.1</ele>
        <time>2024-11-07T14:25:36.000Z</time>
      </trkpt>
      <trkpt lat="44.14889" lon="3.20777">
        <ele>752.1</ele>
        <time>2024-11-07T14:25:40.000Z</time>
      </trkpt>
      <trkpt lat="44.14879" lon="3.20773">
        <ele>752.2</ele>
        <time>2024-11-07T14:25:45.000Z</time>
      </trkpt>
      <trkpt lat="44.14869" lon="3.20767">
        <ele>752.2</ele>
        <time>2024-11-07T14:25:50.000Z</time>
      </trkpt>
      <trkpt lat="44.1486" lon="3.20762">
        <ele>752.2</ele>
        <time>2024-11-07T14:25:54.000Z</time>
      </trkpt>
      <trkpt lat="44.1485" lon="3.20755">
        <ele>752.2</ele>
        <time>2024-11-07T14:25:58.000Z</time>
      </trkpt>
      <trkpt lat="44.1484" lon="3.20751">
        <ele>752</ele>
        <time>2024-11-07T14:26:01.000Z</time>
      </trkpt>
      <trkpt lat="44.14828" lon="3.20748">
        <ele>751.6</ele>
        <time>2024-11-07T14:26:04.000Z</time>
      </trkpt>
      <trkpt lat="44.14815" lon="3.20744">
        <ele>751.3</ele>
        <time>2024-11-07T14:26:07.000Z</time>
      </trkpt>
      <trkpt lat="44.14806" lon="3.20735">
        <ele>751</ele>
        <time>2024-11-07T14:26:10.000Z</time>
      </trkpt>
      <trkpt lat="44.14802" lon="3.20719">
        <ele>750.7</ele>
        <time>2024-11-07T14:26:13.000Z</time>
      </trkpt>
      <trkpt lat="44.14803" lon="3.20704">
        <ele>750.3</ele>
        <time>2024-11-07T14:26:16.000Z</time>
      </trkpt>
      <trkpt lat="44.148" lon="3.20688">
        <ele>749.8</ele>
        <time>2024-11-07T14:26:19.000Z</time>
      </trkpt>
      <trkpt lat="44.1479" lon="3.20687">
        <ele>749.4</ele>
        <time>2024-11-07T14:26:22.000Z</time>
      </trkpt>
      <trkpt lat="44.14783" lon="3.20695">
        <ele>748.8</ele>
        <time>2024-11-07T14:26:26.000Z</time>
      </trkpt>
      <trkpt lat="44.14773" lon="3.20701">
        <ele>746.2</ele>
        <time>2024-11-07T14:27:58.000Z</time>
      </trkpt>
      <trkpt lat="44.14765" lon="3.20707">
        <ele>746.2</ele>
        <time>2024-11-07T14:28:01.000Z</time>
      </trkpt>
      <trkpt lat="44.14758" lon="3.20715">
        <ele>746.2</ele>
        <time>2024-11-07T14:28:05.000Z</time>
      </trkpt>
      <trkpt lat="44.14757" lon="3.2073">
        <ele>746.3</ele>
        <time>2024-11-07T14:28:11.000Z</time>
      </trkpt>
      <trkpt lat="44.14756" lon="3.20745">
        <ele>746.4</ele>
        <time>2024-11-07T14:28:16.000Z</time>
      </trkpt>
      <trkpt lat="44.14754" lon="3.20759">
        <ele>746.8</ele>
        <time>2024-11-07T14:28:21.000Z</time>
      </trkpt>
      <trkpt lat="44.14754" lon="3.20772">
        <ele>747</ele>
        <time>2024-11-07T14:28:25.000Z</time>
      </trkpt>
      <trkpt lat="44.14752" lon="3.20786">
        <ele>747.2</ele>
        <time>2024-11-07T14:28:29.000Z</time>
      </trkpt>
      <trkpt lat="44.14749" lon="3.208">
        <ele>747.4</ele>
        <time>2024-11-07T14:28:33.000Z</time>
      </trkpt>
      <trkpt lat="44.14745" lon="3.20816">
        <ele>747.5</ele>
        <time>2024-11-07T14:28:37.000Z</time>
      </trkpt>
      <trkpt lat="44.1474" lon="3.20826">
        <ele>747.6</ele>
        <time>2024-11-07T14:28:40.000Z</time>
      </trkpt>
      <trkpt lat="44.14735" lon="3.20838">
        <ele>747.7</ele>
        <time>2024-11-07T14:28:44.000Z</time>
      </trkpt>
      <trkpt lat="44.14732" lon="3.20851">
        <ele>747.7</ele>
        <time>2024-11-07T14:28:48.000Z</time>
      </trkpt>
      <trkpt lat="44.14727" lon="3.20862">
        <ele>747.8</ele>
        <time>2024-11-07T14:28:52.000Z</time>
      </trkpt>
      <trkpt lat="44.1472" lon="3.20872">
        <ele>748.1</ele>
        <time>2024-11-07T14:28:57.000Z</time>
      </trkpt>
      <trkpt lat="44.14714" lon="3.20883">
        <ele>748.4</ele>
        <time>2024-11-07T14:29:02.000Z</time>
      </trkpt>
      <trkpt lat="44.14708" lon="3.20893">
        <ele>748.8</ele>
        <time>2024-11-07T14:29:06.000Z</time>
      </trkpt>
      <trkpt lat="44.14701" lon="3.20905">
        <ele>749.1</ele>
        <time>2024-11-07T14:29:10.000Z</time>
      </trkpt>
      <trkpt lat="44.14692" lon="3.20917">
        <ele>749.3</ele>
        <time>2024-11-07T14:29:14.000Z</time>
      </trkpt>
      <trkpt lat="44.14684" lon="3.20922">
        <ele>749.4</ele>
        <time>2024-11-07T14:29:17.000Z</time>
      </trkpt>
      <trkpt lat="44.14672" lon="3.20926">
        <ele>749.6</ele>
        <time>2024-11-07T14:29:21.000Z</time>
      </trkpt>
      <trkpt lat="44.14661" lon="3.20928">
        <ele>749.5</ele>
        <time>2024-11-07T14:29:24.000Z</time>
      </trkpt>
      <trkpt lat="44.14652" lon="3.20931">
        <ele>749.3</ele>
        <time>2024-11-07T14:29:26.000Z</time>
      </trkpt>
      <trkpt lat="44.14642" lon="3.20937">
        <ele>748.9</ele>
        <time>2024-11-07T14:29:28.000Z</time>
      </trkpt>
      <trkpt lat="44.14631" lon="3.20946">
        <ele>748.6</ele>
        <time>2024-11-07T14:29:30.000Z</time>
      </trkpt>
      <trkpt lat="44.14621" lon="3.2096">
        <ele>748.1</ele>
        <time>2024-11-07T14:29:32.000Z</time>
      </trkpt>
      <trkpt lat="44.14613" lon="3.20971">
        <ele>747.7</ele>
        <time>2024-11-07T14:29:34.000Z</time>
      </trkpt>
      <trkpt lat="44.14604" lon="3.2097">
        <ele>747.3</ele>
        <time>2024-11-07T14:29:37.000Z</time>
      </trkpt>
      <trkpt lat="44.14595" lon="3.20973">
        <ele>747.1</ele>
        <time>2024-11-07T14:29:42.000Z</time>
      </trkpt>
      <trkpt lat="44.14586" lon="3.20966">
        <ele>747</ele>
        <time>2024-11-07T14:29:49.000Z</time>
      </trkpt>
      <trkpt lat="44.14582" lon="3.20955">
        <ele>747.3</ele>
        <time>2024-11-07T14:29:55.000Z</time>
      </trkpt>
      <trkpt lat="44.14575" lon="3.20946">
        <ele>747.9</ele>
        <time>2024-11-07T14:30:02.000Z</time>
      </trkpt>
      <trkpt lat="44.14567" lon="3.20938">
        <ele>748.6</ele>
        <time>2024-11-07T14:30:09.000Z</time>
      </trkpt>
      <trkpt lat="44.1456" lon="3.20929">
        <ele>749.5</ele>
        <time>2024-11-07T14:30:17.000Z</time>
      </trkpt>
      <trkpt lat="44.14551" lon="3.20924">
        <ele>750.4</ele>
        <time>2024-11-07T14:30:25.000Z</time>
      </trkpt>
      <trkpt lat="44.14541" lon="3.20921">
        <ele>751.5</ele>
        <time>2024-11-07T14:30:33.000Z</time>
      </trkpt>
      <trkpt lat="44.14532" lon="3.20921">
        <ele>752.8</ele>
        <time>2024-11-07T14:30:42.000Z</time>
      </trkpt>
      <trkpt lat="44.14523" lon="3.20921">
        <ele>754.3</ele>
        <time>2024-11-07T14:30:51.000Z</time>
      </trkpt>
      <trkpt lat="44.14513" lon="3.20921">
        <ele>755.6</ele>
        <time>2024-11-07T14:30:59.000Z</time>
      </trkpt>
      <trkpt lat="44.14503" lon="3.20924">
        <ele>757.1</ele>
        <time>2024-11-07T14:31:08.000Z</time>
      </trkpt>
      <trkpt lat="44.14496" lon="3.20935">
        <ele>758.4</ele>
        <time>2024-11-07T14:31:17.000Z</time>
      </trkpt>
      <trkpt lat="44.14495" lon="3.20948">
        <ele>759.1</ele>
        <time>2024-11-07T14:31:24.000Z</time>
      </trkpt>
      <trkpt lat="44.14487" lon="3.20957">
        <ele>760.2</ele>
        <time>2024-11-07T14:31:33.000Z</time>
      </trkpt>
      <trkpt lat="44.14483" lon="3.20945">
        <ele>761.5</ele>
        <time>2024-11-07T14:31:42.000Z</time>
      </trkpt>
      <trkpt lat="44.14481" lon="3.20931">
        <ele>762.8</ele>
        <time>2024-11-07T14:31:52.000Z</time>
      </trkpt>
      <trkpt lat="44.14482" lon="3.20919">
        <ele>763.4</ele>
        <time>2024-11-07T14:31:58.000Z</time>
      </trkpt>
      <trkpt lat="44.14485" lon="3.20905">
        <ele>764.3</ele>
        <time>2024-11-07T14:32:05.000Z</time>
      </trkpt>
      <trkpt lat="44.14489" lon="3.20893">
        <ele>765.1</ele>
        <time>2024-11-07T14:32:11.000Z</time>
      </trkpt>
      <trkpt lat="44.14494" lon="3.20882">
        <ele>765.8</ele>
        <time>2024-11-07T14:32:17.000Z</time>
      </trkpt>
      <trkpt lat="44.145" lon="3.20872">
        <ele>766.3</ele>
        <time>2024-11-07T14:32:23.000Z</time>
      </trkpt>
      <trkpt lat="44.14499" lon="3.20859">
        <ele>766.5</ele>
        <time>2024-11-07T14:32:27.000Z</time>
      </trkpt>
      <trkpt lat="44.14497" lon="3.20844">
        <ele>766.7</ele>
        <time>2024-11-07T14:32:31.000Z</time>
      </trkpt>
      <trkpt lat="44.14498" lon="3.2083">
        <ele>766.8</ele>
        <time>2024-11-07T14:32:35.000Z</time>
      </trkpt>
      <trkpt lat="44.145" lon="3.20817">
        <ele>766.9</ele>
        <time>2024-11-07T14:32:40.000Z</time>
      </trkpt>
      <trkpt lat="44.14501" lon="3.20801">
        <ele>767.1</ele>
        <time>2024-11-07T14:32:46.000Z</time>
      </trkpt>
      <trkpt lat="44.14503" lon="3.20787">
        <ele>767.4</ele>
        <time>2024-11-07T14:32:51.000Z</time>
      </trkpt>
      <trkpt lat="44.14505" lon="3.20773">
        <ele>767.8</ele>
        <time>2024-11-07T14:32:56.000Z</time>
      </trkpt>
      <trkpt lat="44.14509" lon="3.2076">
        <ele>768.3</ele>
        <time>2024-11-07T14:33:02.000Z</time>
      </trkpt>
      <trkpt lat="44.14513" lon="3.20748">
        <ele>768.6</ele>
        <time>2024-11-07T14:33:07.000Z</time>
      </trkpt>
      <trkpt lat="44.14518" lon="3.20737">
        <ele>769</ele>
        <time>2024-11-07T14:33:12.000Z</time>
      </trkpt>
      <trkpt lat="44.14525" lon="3.20726">
        <ele>769.4</ele>
        <time>2024-11-07T14:33:17.000Z</time>
      </trkpt>
      <trkpt lat="44.14531" lon="3.20714">
        <ele>769.7</ele>
        <time>2024-11-07T14:33:22.000Z</time>
      </trkpt>
      <trkpt lat="44.14536" lon="3.20703">
        <ele>770</ele>
        <time>2024-11-07T14:33:26.000Z</time>
      </trkpt>
      <trkpt lat="44.14545" lon="3.20695">
        <ele>770.4</ele>
        <time>2024-11-07T14:33:31.000Z</time>
      </trkpt>
      <trkpt lat="44.14553" lon="3.20688">
        <ele>771.2</ele>
        <time>2024-11-07T14:33:37.000Z</time>
      </trkpt>
      <trkpt lat="44.14561" lon="3.20679">
        <ele>772.2</ele>
        <time>2024-11-07T14:33:44.000Z</time>
      </trkpt>
      <trkpt lat="44.14567" lon="3.20669">
        <ele>773.1</ele>
        <time>2024-11-07T14:33:50.000Z</time>
      </trkpt>
      <trkpt lat="44.14571" lon="3.20658">
        <ele>773.8</ele>
        <time>2024-11-07T14:33:55.000Z</time>
      </trkpt>
      <trkpt lat="44.14578" lon="3.20647">
        <ele>774.6</ele>
        <time>2024-11-07T14:34:01.000Z</time>
      </trkpt>
      <trkpt lat="44.14587" lon="3.2064">
        <ele>776</ele>
        <time>2024-11-07T14:34:10.000Z</time>
      </trkpt>
      <trkpt lat="44.14593" lon="3.20629">
        <ele>777.4</ele>
        <time>2024-11-07T14:34:18.000Z</time>
      </trkpt>
      <trkpt lat="44.14598" lon="3.20618">
        <ele>778.3</ele>
        <time>2024-11-07T14:34:25.000Z</time>
      </trkpt>
      <trkpt lat="44.14605" lon="3.20609">
        <ele>779.5</ele>
        <time>2024-11-07T14:34:33.000Z</time>
      </trkpt>
      <trkpt lat="44.14613" lon="3.20602">
        <ele>780.7</ele>
        <time>2024-11-07T14:34:41.000Z</time>
      </trkpt>
      <trkpt lat="44.14619" lon="3.20592">
        <ele>782</ele>
        <time>2024-11-07T14:34:49.000Z</time>
      </trkpt>
      <trkpt lat="44.1462" lon="3.20578">
        <ele>783.4</ele>
        <time>2024-11-07T14:34:59.000Z</time>
      </trkpt>
      <trkpt lat="44.14622" lon="3.20564">
        <ele>784.6</ele>
        <time>2024-11-07T14:35:08.000Z</time>
      </trkpt>
      <trkpt lat="44.14621" lon="3.20551">
        <ele>785.9</ele>
        <time>2024-11-07T14:35:16.000Z</time>
      </trkpt>
      <trkpt lat="44.14621" lon="3.20537">
        <ele>787.5</ele>
        <time>2024-11-07T14:35:24.000Z</time>
      </trkpt>
      <trkpt lat="44.14616" lon="3.20525">
        <ele>788.9</ele>
        <time>2024-11-07T14:35:32.000Z</time>
      </trkpt>
      <trkpt lat="44.14612" lon="3.20513">
        <ele>790</ele>
        <time>2024-11-07T14:35:40.000Z</time>
      </trkpt>
      <trkpt lat="44.14613" lon="3.205">
        <ele>791</ele>
        <time>2024-11-07T14:35:48.000Z</time>
      </trkpt>
      <trkpt lat="44.14615" lon="3.20486">
        <ele>791.7</ele>
        <time>2024-11-07T14:35:55.000Z</time>
      </trkpt>
      <trkpt lat="44.14615" lon="3.20473">
        <ele>792.4</ele>
        <time>2024-11-07T14:36:01.000Z</time>
      </trkpt>
      <trkpt lat="44.14615" lon="3.20459">
        <ele>792.9</ele>
        <time>2024-11-07T14:36:07.000Z</time>
      </trkpt>
      <trkpt lat="44.14615" lon="3.20446">
        <ele>793.4</ele>
        <time>2024-11-07T14:36:13.000Z</time>
      </trkpt>
      <trkpt lat="44.14618" lon="3.20432">
        <ele>794</ele>
        <time>2024-11-07T14:36:20.000Z</time>
      </trkpt>
      <trkpt lat="44.14622" lon="3.20421">
        <ele>794.8</ele>
        <time>2024-11-07T14:36:27.000Z</time>
      </trkpt>
      <trkpt lat="44.14624" lon="3.20408">
        <ele>795.9</ele>
        <time>2024-11-07T14:36:36.000Z</time>
      </trkpt>
      <trkpt lat="44.14634" lon="3.20405">
        <ele>797.2</ele>
        <time>2024-11-07T14:36:46.000Z</time>
      </trkpt>
      <trkpt lat="44.1464" lon="3.20396">
        <ele>799.1</ele>
        <time>2024-11-07T14:36:59.000Z</time>
      </trkpt>
      <trkpt lat="44.14642" lon="3.20382">
        <ele>800.8</ele>
        <time>2024-11-07T14:37:09.000Z</time>
      </trkpt>
      <trkpt lat="44.14639" lon="3.2037">
        <ele>802.3</ele>
        <time>2024-11-07T14:37:18.000Z</time>
      </trkpt>
      <trkpt lat="44.14635" lon="3.20359">
        <ele>804.2</ele>
        <time>2024-11-07T14:37:28.000Z</time>
      </trkpt>
      <trkpt lat="44.14633" lon="3.20345">
        <ele>805.9</ele>
        <time>2024-11-07T14:37:38.000Z</time>
      </trkpt>
      <trkpt lat="44.14632" lon="3.20333">
        <ele>807.2</ele>
        <time>2024-11-07T14:37:46.000Z</time>
      </trkpt>
      <trkpt lat="44.14635" lon="3.2032">
        <ele>808.6</ele>
        <time>2024-11-07T14:37:55.000Z</time>
      </trkpt>
      <trkpt lat="44.14638" lon="3.20307">
        <ele>810.4</ele>
        <time>2024-11-07T14:38:05.000Z</time>
      </trkpt>
      <trkpt lat="44.14641" lon="3.20295">
        <ele>812.5</ele>
        <time>2024-11-07T14:38:15.000Z</time>
      </trkpt>
      <trkpt lat="44.14643" lon="3.20282">
        <ele>814.5</ele>
        <time>2024-11-07T14:38:25.000Z</time>
      </trkpt>
      <trkpt lat="44.14641" lon="3.20269">
        <ele>816.1</ele>
        <time>2024-11-07T14:38:34.000Z</time>
      </trkpt>
      <trkpt lat="44.14641" lon="3.20255">
        <ele>817.6</ele>
        <time>2024-11-07T14:38:42.000Z</time>
      </trkpt>
      <trkpt lat="44.1464" lon="3.20241">
        <ele>818.7</ele>
        <time>2024-11-07T14:38:50.000Z</time>
      </trkpt>
      <trkpt lat="44.14639" lon="3.20227">
        <ele>819.4</ele>
        <time>2024-11-07T14:38:57.000Z</time>
      </trkpt>
      <trkpt lat="44.14638" lon="3.20212">
        <ele>820</ele>
        <time>2024-11-07T14:39:03.000Z</time>
      </trkpt>
      <trkpt lat="44.14636" lon="3.202">
        <ele>820.4</ele>
        <time>2024-11-07T14:39:07.000Z</time>
      </trkpt>
      <trkpt lat="44.14639" lon="3.20185">
        <ele>820.7</ele>
        <time>2024-11-07T14:39:12.000Z</time>
      </trkpt>
      <trkpt lat="44.14643" lon="3.20173">
        <ele>820.9</ele>
        <time>2024-11-07T14:39:16.000Z</time>
      </trkpt>
      <trkpt lat="44.1465" lon="3.20164">
        <ele>821.2</ele>
        <time>2024-11-07T14:39:20.000Z</time>
      </trkpt>
      <trkpt lat="44.14655" lon="3.20153">
        <ele>821.4</ele>
        <time>2024-11-07T14:39:24.000Z</time>
      </trkpt>
      <trkpt lat="44.1466" lon="3.20139">
        <ele>821.5</ele>
        <time>2024-11-07T14:39:28.000Z</time>
      </trkpt>
      <trkpt lat="44.14663" lon="3.20127">
        <ele>821.6</ele>
        <time>2024-11-07T14:39:31.000Z</time>
      </trkpt>
      <trkpt lat="44.14663" lon="3.20113">
        <ele>821.7</ele>
        <time>2024-11-07T14:39:34.000Z</time>
      </trkpt>
      <trkpt lat="44.14665" lon="3.20101">
        <ele>821.7</ele>
        <time>2024-11-07T14:39:37.000Z</time>
      </trkpt>
      <trkpt lat="44.14669" lon="3.20088">
        <ele>821.8</ele>
        <time>2024-11-07T14:39:40.000Z</time>
      </trkpt>
      <trkpt lat="44.14672" lon="3.20075">
        <ele>821.8</ele>
        <time>2024-11-07T14:39:43.000Z</time>
      </trkpt>
      <trkpt lat="44.14675" lon="3.20059">
        <ele>821.8</ele>
        <time>2024-11-07T14:39:46.000Z</time>
      </trkpt>
      <trkpt lat="44.14676" lon="3.20041">
        <ele>821.8</ele>
        <time>2024-11-07T14:39:49.000Z</time>
      </trkpt>
      <trkpt lat="44.14675" lon="3.20023">
        <ele>821.7</ele>
        <time>2024-11-07T14:39:52.000Z</time>
      </trkpt>
      <trkpt lat="44.14675" lon="3.20005">
        <ele>821.5</ele>
        <time>2024-11-07T14:39:55.000Z</time>
      </trkpt>
      <trkpt lat="44.14676" lon="3.19986">
        <ele>821.3</ele>
        <time>2024-11-07T14:39:58.000Z</time>
      </trkpt>
      <trkpt lat="44.14675" lon="3.19973">
        <ele>821.2</ele>
        <time>2024-11-07T14:40:00.000Z</time>
      </trkpt>
      <trkpt lat="44.14675" lon="3.19957">
        <ele>821.1</ele>
        <time>2024-11-07T14:40:03.000Z</time>
      </trkpt>
      <trkpt lat="44.14677" lon="3.19943">
        <ele>820.9</ele>
        <time>2024-11-07T14:40:06.000Z</time>
      </trkpt>
      <trkpt lat="44.14678" lon="3.19928">
        <ele>820.6</ele>
        <time>2024-11-07T14:40:09.000Z</time>
      </trkpt>
      <trkpt lat="44.14681" lon="3.19915">
        <ele>820.4</ele>
        <time>2024-11-07T14:40:11.000Z</time>
      </trkpt>
      <trkpt lat="44.14682" lon="3.19902">
        <ele>820.2</ele>
        <time>2024-11-07T14:40:13.000Z</time>
      </trkpt>
      <trkpt lat="44.14677" lon="3.19887">
        <ele>819.9</ele>
        <time>2024-11-07T14:40:16.000Z</time>
      </trkpt>
      <trkpt lat="44.14668" lon="3.19881">
        <ele>819.6</ele>
        <time>2024-11-07T14:40:19.000Z</time>
      </trkpt>
      <trkpt lat="44.14657" lon="3.19886">
        <ele>819.4</ele>
        <time>2024-11-07T14:40:23.000Z</time>
      </trkpt>
      <trkpt lat="44.14648" lon="3.19893">
        <ele>819.2</ele>
        <time>2024-11-07T14:40:26.000Z</time>
      </trkpt>
      <trkpt lat="44.14638" lon="3.19902">
        <ele>819.1</ele>
        <time>2024-11-07T14:40:29.000Z</time>
      </trkpt>
      <trkpt lat="44.14628" lon="3.19913">
        <ele>819</ele>
        <time>2024-11-07T14:40:32.000Z</time>
      </trkpt>
      <trkpt lat="44.14619" lon="3.19925">
        <ele>818.9</ele>
        <time>2024-11-07T14:40:35.000Z</time>
      </trkpt>
      <trkpt lat="44.14611" lon="3.19936">
        <ele>818.8</ele>
        <time>2024-11-07T14:40:38.000Z</time>
      </trkpt>
      <trkpt lat="44.14604" lon="3.19946">
        <ele>818.8</ele>
        <time>2024-11-07T14:40:41.000Z</time>
      </trkpt>
      <trkpt lat="44.14596" lon="3.19955">
        <ele>818.7</ele>
        <time>2024-11-07T14:40:44.000Z</time>
      </trkpt>
      <trkpt lat="44.14588" lon="3.19964">
        <ele>818.7</ele>
        <time>2024-11-07T14:40:47.000Z</time>
      </trkpt>
      <trkpt lat="44.14581" lon="3.19973">
        <ele>818.8</ele>
        <time>2024-11-07T14:40:50.000Z</time>
      </trkpt>
      <trkpt lat="44.14574" lon="3.19982">
        <ele>818.9</ele>
        <time>2024-11-07T14:40:53.000Z</time>
      </trkpt>
      <trkpt lat="44.14566" lon="3.19991">
        <ele>819.1</ele>
        <time>2024-11-07T14:40:56.000Z</time>
      </trkpt>
      <trkpt lat="44.14558" lon="3.20001">
        <ele>819.3</ele>
        <time>2024-11-07T14:40:59.000Z</time>
      </trkpt>
      <trkpt lat="44.14552" lon="3.20012">
        <ele>819.4</ele>
        <time>2024-11-07T14:41:02.000Z</time>
      </trkpt>
      <trkpt lat="44.14544" lon="3.20024">
        <ele>819.6</ele>
        <time>2024-11-07T14:41:05.000Z</time>
      </trkpt>
      <trkpt lat="44.14536" lon="3.20036">
        <ele>819.9</ele>
        <time>2024-11-07T14:41:08.000Z</time>
      </trkpt>
      <trkpt lat="44.14529" lon="3.20048">
        <ele>820.2</ele>
        <time>2024-11-07T14:41:11.000Z</time>
      </trkpt>
      <trkpt lat="44.14522" lon="3.20059">
        <ele>820.5</ele>
        <time>2024-11-07T14:41:14.000Z</time>
      </trkpt>
      <trkpt lat="44.14513" lon="3.20072">
        <ele>820.7</ele>
        <time>2024-11-07T14:41:17.000Z</time>
      </trkpt>
      <trkpt lat="44.14505" lon="3.20086">
        <ele>820.9</ele>
        <time>2024-11-07T14:41:20.000Z</time>
      </trkpt>
      <trkpt lat="44.14496" lon="3.201">
        <ele>821.1</ele>
        <time>2024-11-07T14:41:23.000Z</time>
      </trkpt>
      <trkpt lat="44.14488" lon="3.20114">
        <ele>821.3</ele>
        <time>2024-11-07T14:41:26.000Z</time>
      </trkpt>
      <trkpt lat="44.14482" lon="3.20124">
        <ele>821.3</ele>
        <time>2024-11-07T14:41:28.000Z</time>
      </trkpt>
      <trkpt lat="44.14474" lon="3.2014">
        <ele>821.4</ele>
        <time>2024-11-07T14:41:31.000Z</time>
      </trkpt>
      <trkpt lat="44.14468" lon="3.2015">
        <ele>821.5</ele>
        <time>2024-11-07T14:41:33.000Z</time>
      </trkpt>
      <trkpt lat="44.14462" lon="3.2016">
        <ele>821.6</ele>
        <time>2024-11-07T14:41:35.000Z</time>
      </trkpt>
      <trkpt lat="44.14455" lon="3.20169">
        <ele>821.6</ele>
        <time>2024-11-07T14:41:37.000Z</time>
      </trkpt>
      <trkpt lat="44.14447" lon="3.20178">
        <ele>821.6</ele>
        <time>2024-11-07T14:41:39.000Z</time>
      </trkpt>
      <trkpt lat="44.14438" lon="3.20185">
        <ele>821.7</ele>
        <time>2024-11-07T14:41:41.000Z</time>
      </trkpt>
      <trkpt lat="44.14428" lon="3.2019">
        <ele>821.6</ele>
        <time>2024-11-07T14:41:43.000Z</time>
      </trkpt>
      <trkpt lat="44.14416" lon="3.20192">
        <ele>821.6</ele>
        <time>2024-11-07T14:41:45.000Z</time>
      </trkpt>
      <trkpt lat="44.14404" lon="3.20193">
        <ele>821.4</ele>
        <time>2024-11-07T14:41:47.000Z</time>
      </trkpt>
      <trkpt lat="44.14392" lon="3.20195">
        <ele>821.3</ele>
        <time>2024-11-07T14:41:49.000Z</time>
      </trkpt>
      <trkpt lat="44.1438" lon="3.20197">
        <ele>821.1</ele>
        <time>2024-11-07T14:41:51.000Z</time>
      </trkpt>
      <trkpt lat="44.14369" lon="3.20197">
        <ele>820.9</ele>
        <time>2024-11-07T14:41:53.000Z</time>
      </trkpt>
      <trkpt lat="44.14358" lon="3.20198">
        <ele>820.8</ele>
        <time>2024-11-07T14:41:55.000Z</time>
      </trkpt>
      <trkpt lat="44.14347" lon="3.20198">
        <ele>820.7</ele>
        <time>2024-11-07T14:41:57.000Z</time>
      </trkpt>
      <trkpt lat="44.14337" lon="3.20198">
        <ele>820.6</ele>
        <time>2024-11-07T14:41:59.000Z</time>
      </trkpt>
      <trkpt lat="44.14328" lon="3.20198">
        <ele>820.5</ele>
        <time>2024-11-07T14:42:01.000Z</time>
      </trkpt>
      <trkpt lat="44.14319" lon="3.20199">
        <ele>820.5</ele>
        <time>2024-11-07T14:42:03.000Z</time>
      </trkpt>
      <trkpt lat="44.14306" lon="3.20201">
        <ele>820.5</ele>
        <time>2024-11-07T14:42:06.000Z</time>
      </trkpt>
      <trkpt lat="44.14293" lon="3.20203">
        <ele>820.6</ele>
        <time>2024-11-07T14:42:09.000Z</time>
      </trkpt>
      <trkpt lat="44.14282" lon="3.20206">
        <ele>820.6</ele>
        <time>2024-11-07T14:42:12.000Z</time>
      </trkpt>
      <trkpt lat="44.14269" lon="3.2021">
        <ele>820.7</ele>
        <time>2024-11-07T14:42:15.000Z</time>
      </trkpt>
      <trkpt lat="44.14257" lon="3.20214">
        <ele>820.7</ele>
        <time>2024-11-07T14:42:18.000Z</time>
      </trkpt>
      <trkpt lat="44.14244" lon="3.20216">
        <ele>820.8</ele>
        <time>2024-11-07T14:42:21.000Z</time>
      </trkpt>
      <trkpt lat="44.14232" lon="3.20219">
        <ele>820.8</ele>
        <time>2024-11-07T14:42:24.000Z</time>
      </trkpt>
      <trkpt lat="44.14222" lon="3.20219">
        <ele>821</ele>
        <time>2024-11-07T14:42:27.000Z</time>
      </trkpt>
      <trkpt lat="44.14213" lon="3.20219">
        <ele>821.3</ele>
        <time>2024-11-07T14:42:30.000Z</time>
      </trkpt>
      <trkpt lat="44.14201" lon="3.20219">
        <ele>821.7</ele>
        <time>2024-11-07T14:42:34.000Z</time>
      </trkpt>
      <trkpt lat="44.14192" lon="3.20223">
        <ele>822</ele>
        <time>2024-11-07T14:42:38.000Z</time>
      </trkpt>
      <trkpt lat="44.14181" lon="3.20222">
        <ele>822.3</ele>
        <time>2024-11-07T14:42:43.000Z</time>
      </trkpt>
      <trkpt lat="44.14176" lon="3.20209">
        <ele>822.9</ele>
        <time>2024-11-07T14:42:50.000Z</time>
      </trkpt>
      <trkpt lat="44.14176" lon="3.20195">
        <ele>823.6</ele>
        <time>2024-11-07T14:42:57.000Z</time>
      </trkpt>
      <trkpt lat="44.14178" lon="3.20182">
        <ele>824.3</ele>
        <time>2024-11-07T14:43:03.000Z</time>
      </trkpt>
      <trkpt lat="44.14177" lon="3.20169">
        <ele>824.8</ele>
        <time>2024-11-07T14:43:08.000Z</time>
      </trkpt>
      <trkpt lat="44.1418" lon="3.20156">
        <ele>825.3</ele>
        <time>2024-11-07T14:43:14.000Z</time>
      </trkpt>
      <trkpt lat="44.14179" lon="3.20143">
        <ele>825.7</ele>
        <time>2024-11-07T14:43:21.000Z</time>
      </trkpt>
      <trkpt lat="44.14185" lon="3.20134">
        <ele>825.8</ele>
        <time>2024-11-07T14:43:25.000Z</time>
      </trkpt>
      <trkpt lat="44.14189" lon="3.2012">
        <ele>825.8</ele>
        <time>2024-11-07T14:43:29.000Z</time>
      </trkpt>
      <trkpt lat="44.14191" lon="3.20105">
        <ele>825.5</ele>
        <time>2024-11-07T14:43:34.000Z</time>
      </trkpt>
      <trkpt lat="44.14192" lon="3.20089">
        <ele>825.2</ele>
        <time>2024-11-07T14:43:38.000Z</time>
      </trkpt>
      <trkpt lat="44.14192" lon="3.20073">
        <ele>824.7</ele>
        <time>2024-11-07T14:43:41.000Z</time>
      </trkpt>
      <trkpt lat="44.14193" lon="3.20056">
        <ele>824.3</ele>
        <time>2024-11-07T14:43:44.000Z</time>
      </trkpt>
      <trkpt lat="44.14198" lon="3.2004">
        <ele>823.8</ele>
        <time>2024-11-07T14:43:47.000Z</time>
      </trkpt>
      <trkpt lat="44.14201" lon="3.20023">
        <ele>823.4</ele>
        <time>2024-11-07T14:43:50.000Z</time>
      </trkpt>
      <trkpt lat="44.14203" lon="3.20009">
        <ele>822.9</ele>
        <time>2024-11-07T14:43:53.000Z</time>
      </trkpt>
      <trkpt lat="44.14202" lon="3.19995">
        <ele>822.4</ele>
        <time>2024-11-07T14:43:56.000Z</time>
      </trkpt>
      <trkpt lat="44.14203" lon="3.19979">
        <ele>821.8</ele>
        <time>2024-11-07T14:43:59.000Z</time>
      </trkpt>
      <trkpt lat="44.14204" lon="3.19966">
        <ele>821.3</ele>
        <time>2024-11-07T14:44:01.000Z</time>
      </trkpt>
      <trkpt lat="44.14201" lon="3.19953">
        <ele>820.8</ele>
        <time>2024-11-07T14:44:03.000Z</time>
      </trkpt>
      <trkpt lat="44.14196" lon="3.19943">
        <ele>820.3</ele>
        <time>2024-11-07T14:44:05.000Z</time>
      </trkpt>
      <trkpt lat="44.14188" lon="3.19948">
        <ele>817.2</ele>
        <time>2024-11-07T14:44:14.000Z</time>
      </trkpt>
      <trkpt lat="44.1418" lon="3.19959">
        <ele>815</ele>
        <time>2024-11-07T14:44:19.000Z</time>
      </trkpt>
      <trkpt lat="44.14171" lon="3.19958">
        <ele>812.6</ele>
        <time>2024-11-07T14:44:24.000Z</time>
      </trkpt>
      <trkpt lat="44.14161" lon="3.1996">
        <ele>807.8</ele>
        <time>2024-11-07T14:44:37.000Z</time>
      </trkpt>
      <trkpt lat="44.1415" lon="3.19962">
        <ele>806.7</ele>
        <time>2024-11-07T14:44:40.000Z</time>
      </trkpt>
      <trkpt lat="44.14138" lon="3.19961">
        <ele>805.3</ele>
        <time>2024-11-07T14:44:43.000Z</time>
      </trkpt>
      <trkpt lat="44.14125" lon="3.19963">
        <ele>803.6</ele>
        <time>2024-11-07T14:44:46.000Z</time>
      </trkpt>
      <trkpt lat="44.14116" lon="3.19968">
        <ele>802.2</ele>
        <time>2024-11-07T14:44:48.000Z</time>
      </trkpt>
      <trkpt lat="44.14105" lon="3.19974">
        <ele>800.8</ele>
        <time>2024-11-07T14:44:50.000Z</time>
      </trkpt>
      <trkpt lat="44.14093" lon="3.19978">
        <ele>798.7</ele>
        <time>2024-11-07T14:44:53.000Z</time>
      </trkpt>
      <trkpt lat="44.14082" lon="3.19979">
        <ele>796.7</ele>
        <time>2024-11-07T14:44:56.000Z</time>
      </trkpt>
      <trkpt lat="44.14072" lon="3.1998">
        <ele>794.5</ele>
        <time>2024-11-07T14:45:00.000Z</time>
      </trkpt>
      <trkpt lat="44.14062" lon="3.19986">
        <ele>793</ele>
        <time>2024-11-07T14:45:03.000Z</time>
      </trkpt>
      <trkpt lat="44.14051" lon="3.19988">
        <ele>791.7</ele>
        <time>2024-11-07T14:45:06.000Z</time>
      </trkpt>
      <trkpt lat="44.14041" lon="3.19987">
        <ele>790.4</ele>
        <time>2024-11-07T14:45:09.000Z</time>
      </trkpt>
      <trkpt lat="44.14029" lon="3.19983">
        <ele>789.3</ele>
        <time>2024-11-07T14:45:12.000Z</time>
      </trkpt>
      <trkpt lat="44.14019" lon="3.19981">
        <ele>788.5</ele>
        <time>2024-11-07T14:45:14.000Z</time>
      </trkpt>
      <trkpt lat="44.14009" lon="3.19984">
        <ele>787.7</ele>
        <time>2024-11-07T14:45:16.000Z</time>
      </trkpt>
      <trkpt lat="44.14" lon="3.19982">
        <ele>786.9</ele>
        <time>2024-11-07T14:45:18.000Z</time>
      </trkpt>
      <trkpt lat="44.13987" lon="3.19986">
        <ele>785.8</ele>
        <time>2024-11-07T14:45:21.000Z</time>
      </trkpt>
      <trkpt lat="44.13975" lon="3.19988">
        <ele>784.9</ele>
        <time>2024-11-07T14:45:24.000Z</time>
      </trkpt>
      <trkpt lat="44.13961" lon="3.19987">
        <ele>784</ele>
        <time>2024-11-07T14:45:27.000Z</time>
      </trkpt>
      <trkpt lat="44.13951" lon="3.19987">
        <ele>783.3</ele>
        <time>2024-11-07T14:45:29.000Z</time>
      </trkpt>
      <trkpt lat="44.13941" lon="3.19985">
        <ele>782.6</ele>
        <time>2024-11-07T14:45:31.000Z</time>
      </trkpt>
      <trkpt lat="44.13932" lon="3.19986">
        <ele>782</ele>
        <time>2024-11-07T14:45:33.000Z</time>
      </trkpt>
      <trkpt lat="44.13923" lon="3.19989">
        <ele>781.4</ele>
        <time>2024-11-07T14:45:35.000Z</time>
      </trkpt>
      <trkpt lat="44.13911" lon="3.19988">
        <ele>780.5</ele>
        <time>2024-11-07T14:45:38.000Z</time>
      </trkpt>
      <trkpt lat="44.13901" lon="3.19981">
        <ele>779.7</ele>
        <time>2024-11-07T14:45:41.000Z</time>
      </trkpt>
      <trkpt lat="44.13894" lon="3.19973">
        <ele>779.1</ele>
        <time>2024-11-07T14:45:44.000Z</time>
      </trkpt>
      <trkpt lat="44.13884" lon="3.19968">
        <ele>778.4</ele>
        <time>2024-11-07T14:45:48.000Z</time>
      </trkpt>
      <trkpt lat="44.13873" lon="3.19965">
        <ele>777.7</ele>
        <time>2024-11-07T14:45:52.000Z</time>
      </trkpt>
      <trkpt lat="44.13859" lon="3.19964">
        <ele>777</ele>
        <time>2024-11-07T14:45:55.000Z</time>
      </trkpt>
      <trkpt lat="44.13847" lon="3.19961">
        <ele>776.4</ele>
        <time>2024-11-07T14:45:58.000Z</time>
      </trkpt>
      <trkpt lat="44.13837" lon="3.1996">
        <ele>775.9</ele>
        <time>2024-11-07T14:46:01.000Z</time>
      </trkpt>
      <trkpt lat="44.13827" lon="3.19961">
        <ele>775.4</ele>
        <time>2024-11-07T14:46:05.000Z</time>
      </trkpt>
      <trkpt lat="44.13818" lon="3.1996">
        <ele>775</ele>
        <time>2024-11-07T14:46:10.000Z</time>
      </trkpt>
      <trkpt lat="44.13809" lon="3.19957">
        <ele>773.5</ele>
        <time>2024-11-07T14:46:45.000Z</time>
      </trkpt>
      <trkpt lat="44.138" lon="3.19951">
        <ele>773.4</ele>
        <time>2024-11-07T14:46:50.000Z</time>
      </trkpt>
      <trkpt lat="44.1379" lon="3.19952">
        <ele>773.4</ele>
        <time>2024-11-07T14:46:54.000Z</time>
      </trkpt>
      <trkpt lat="44.1378" lon="3.19952">
        <ele>774</ele>
        <time>2024-11-07T14:47:01.000Z</time>
      </trkpt>
      <trkpt lat="44.13771" lon="3.19945">
        <ele>774.7</ele>
        <time>2024-11-07T14:47:07.000Z</time>
      </trkpt>
      <trkpt lat="44.13763" lon="3.19939">
        <ele>775.4</ele>
        <time>2024-11-07T14:47:13.000Z</time>
      </trkpt>
      <trkpt lat="44.13753" lon="3.19937">
        <ele>775.7</ele>
        <time>2024-11-07T14:47:17.000Z</time>
      </trkpt>
      <trkpt lat="44.13743" lon="3.19941">
        <ele>776.4</ele>
        <time>2024-11-07T14:47:28.000Z</time>
      </trkpt>
      <trkpt lat="44.13735" lon="3.19949">
        <ele>775.9</ele>
        <time>2024-11-07T14:47:32.000Z</time>
      </trkpt>
      <trkpt lat="44.13725" lon="3.19956">
        <ele>775.1</ele>
        <time>2024-11-07T14:47:36.000Z</time>
      </trkpt>
      <trkpt lat="44.13717" lon="3.19961">
        <ele>774.3</ele>
        <time>2024-11-07T14:47:41.000Z</time>
      </trkpt>
      <trkpt lat="44.13708" lon="3.19965">
        <ele>773.5</ele>
        <time>2024-11-07T14:47:46.000Z</time>
      </trkpt>
      <trkpt lat="44.13698" lon="3.1997">
        <ele>772.1</ele>
        <time>2024-11-07T14:47:52.000Z</time>
      </trkpt>
      <trkpt lat="44.13687" lon="3.19976">
        <ele>769.5</ele>
        <time>2024-11-07T14:47:58.000Z</time>
      </trkpt>
      <trkpt lat="44.13681" lon="3.19985">
        <ele>767.1</ele>
        <time>2024-11-07T14:48:03.000Z</time>
      </trkpt>
      <trkpt lat="44.13674" lon="3.19993">
        <ele>762.8</ele>
        <time>2024-11-07T14:48:17.000Z</time>
      </trkpt>
      <trkpt lat="44.13664" lon="3.19994">
        <ele>762.1</ele>
        <time>2024-11-07T14:48:20.000Z</time>
      </trkpt>
      <trkpt lat="44.13652" lon="3.19996">
        <ele>761.3</ele>
        <time>2024-11-07T14:48:24.000Z</time>
      </trkpt>
      <trkpt lat="44.13643" lon="3.19998">
        <ele>760.6</ele>
        <time>2024-11-07T14:48:28.000Z</time>
      </trkpt>
      <trkpt lat="44.13634" lon="3.20004">
        <ele>759.4</ele>
        <time>2024-11-07T14:48:37.000Z</time>
      </trkpt>
      <trkpt lat="44.13624" lon="3.20005">
        <ele>757.8</ele>
        <time>2024-11-07T14:48:54.000Z</time>
      </trkpt>
      <trkpt lat="44.13579" lon="3.19983">
        <ele>753</ele>
        <time>2024-11-07T14:56:25.000Z</time>
      </trkpt>
      <trkpt lat="44.13562" lon="3.19971">
        <ele>752.5</ele>
        <time>2024-11-07T14:56:30.000Z</time>
      </trkpt>
      <trkpt lat="44.13554" lon="3.19961">
        <ele>752.1</ele>
        <time>2024-11-07T14:56:32.000Z</time>
      </trkpt>
      <trkpt lat="44.13544" lon="3.19958">
        <ele>751.3</ele>
        <time>2024-11-07T14:56:35.000Z</time>
      </trkpt>
      <trkpt lat="44.13532" lon="3.19952">
        <ele>750.5</ele>
        <time>2024-11-07T14:56:38.000Z</time>
      </trkpt>
      <trkpt lat="44.13524" lon="3.19942">
        <ele>749.8</ele>
        <time>2024-11-07T14:56:41.000Z</time>
      </trkpt>
      <trkpt lat="44.13515" lon="3.1994">
        <ele>748.8</ele>
        <time>2024-11-07T14:56:46.000Z</time>
      </trkpt>
      <trkpt lat="44.13504" lon="3.1994">
        <ele>747.9</ele>
        <time>2024-11-07T14:56:50.000Z</time>
      </trkpt>
      <trkpt lat="44.13494" lon="3.19934">
        <ele>747.1</ele>
        <time>2024-11-07T14:56:54.000Z</time>
      </trkpt>
      <trkpt lat="44.13484" lon="3.19932">
        <ele>746.6</ele>
        <time>2024-11-07T14:56:57.000Z</time>
      </trkpt>
      <trkpt lat="44.13474" lon="3.19923">
        <ele>745.9</ele>
        <time>2024-11-07T14:57:01.000Z</time>
      </trkpt>
      <trkpt lat="44.13467" lon="3.19911">
        <ele>745.3</ele>
        <time>2024-11-07T14:57:05.000Z</time>
      </trkpt>
      <trkpt lat="44.13463" lon="3.19897">
        <ele>744.8</ele>
        <time>2024-11-07T14:57:09.000Z</time>
      </trkpt>
      <trkpt lat="44.13463" lon="3.19884">
        <ele>744.3</ele>
        <time>2024-11-07T14:57:15.000Z</time>
      </trkpt>
      <trkpt lat="44.13459" lon="3.1987">
        <ele>744.7</ele>
        <time>2024-11-07T14:57:22.000Z</time>
      </trkpt>
      <trkpt lat="44.13455" lon="3.19858">
        <ele>745.4</ele>
        <time>2024-11-07T14:57:28.000Z</time>
      </trkpt>
      <trkpt lat="44.13447" lon="3.1985">
        <ele>746.3</ele>
        <time>2024-11-07T14:57:38.000Z</time>
      </trkpt>
      <trkpt lat="44.13438" lon="3.19852">
        <ele>747.8</ele>
        <time>2024-11-07T14:57:47.000Z</time>
      </trkpt>
      <trkpt lat="44.13426" lon="3.19848">
        <ele>748.8</ele>
        <time>2024-11-07T14:57:52.000Z</time>
      </trkpt>
      <trkpt lat="44.13416" lon="3.19848">
        <ele>750.5</ele>
        <time>2024-11-07T14:58:01.000Z</time>
      </trkpt>
      <trkpt lat="44.13407" lon="3.19849">
        <ele>751.9</ele>
        <time>2024-11-07T14:58:12.000Z</time>
      </trkpt>
      <trkpt lat="44.13401" lon="3.19839">
        <ele>753</ele>
        <time>2024-11-07T14:58:24.000Z</time>
      </trkpt>
      <trkpt lat="44.13409" lon="3.1983">
        <ele>754.8</ele>
        <time>2024-11-07T14:58:43.000Z</time>
      </trkpt>
      <trkpt lat="44.13415" lon="3.19821">
        <ele>756</ele>
        <time>2024-11-07T14:58:56.000Z</time>
      </trkpt>
      <trkpt lat="44.1341" lon="3.1981">
        <ele>754.5</ele>
        <time>2024-11-07T14:59:09.000Z</time>
      </trkpt>
      <trkpt lat="44.13401" lon="3.19806">
        <ele>754.1</ele>
        <time>2024-11-07T14:59:12.000Z</time>
      </trkpt>
      <trkpt lat="44.13391" lon="3.19799">
        <ele>752.9</ele>
        <time>2024-11-07T14:59:16.000Z</time>
      </trkpt>
      <trkpt lat="44.13381" lon="3.19801">
        <ele>740.9</ele>
        <time>2024-11-07T15:00:06.000Z</time>
      </trkpt>
      <trkpt lat="44.13373" lon="3.19809">
        <ele>740.1</ele>
        <time>2024-11-07T15:00:09.000Z</time>
      </trkpt>
      <trkpt lat="44.13363" lon="3.19808">
        <ele>738.5</ele>
        <time>2024-11-07T15:00:14.000Z</time>
      </trkpt>
      <trkpt lat="44.13353" lon="3.19808">
        <ele>737</ele>
        <time>2024-11-07T15:00:20.000Z</time>
      </trkpt>
      <trkpt lat="44.13345" lon="3.19805">
        <ele>729.3</ele>
        <time>2024-11-07T15:01:02.000Z</time>
      </trkpt>
      <trkpt lat="44.13336" lon="3.19801">
        <ele>726.5</ele>
        <time>2024-11-07T15:01:22.000Z</time>
      </trkpt>
      <trkpt lat="44.13327" lon="3.19801">
        <ele>723.1</ele>
        <time>2024-11-07T15:01:40.000Z</time>
      </trkpt>
      <trkpt lat="44.13321" lon="3.19791">
        <ele>719</ele>
        <time>2024-11-07T15:02:03.000Z</time>
      </trkpt>
      <trkpt lat="44.13317" lon="3.1978">
        <ele>716.3</ele>
        <time>2024-11-07T15:02:16.000Z</time>
      </trkpt>
      <trkpt lat="44.13306" lon="3.19779">
        <ele>714.6</ele>
        <time>2024-11-07T15:02:27.000Z</time>
      </trkpt>
      <trkpt lat="44.13297" lon="3.19777">
        <ele>712.3</ele>
        <time>2024-11-07T15:02:34.000Z</time>
      </trkpt>
      <trkpt lat="44.13293" lon="3.1976">
        <ele>708.8</ele>
        <time>2024-11-07T15:02:46.000Z</time>
      </trkpt>
      <trkpt lat="44.13289" lon="3.19747">
        <ele>708</ele>
        <time>2024-11-07T15:02:48.000Z</time>
      </trkpt>
      <trkpt lat="44.13285" lon="3.19735">
        <ele>707.4</ele>
        <time>2024-11-07T15:02:50.000Z</time>
      </trkpt>
      <trkpt lat="44.13279" lon="3.19724">
        <ele>706.7</ele>
        <time>2024-11-07T15:02:52.000Z</time>
      </trkpt>
      <trkpt lat="44.1328" lon="3.19711">
        <ele>702.6</ele>
        <time>2024-11-07T15:03:08.000Z</time>
      </trkpt>
      <trkpt lat="44.13283" lon="3.19698">
        <ele>701.6</ele>
        <time>2024-11-07T15:03:12.000Z</time>
      </trkpt>
      <trkpt lat="44.13273" lon="3.19697">
        <ele>699.3</ele>
        <time>2024-11-07T15:03:20.000Z</time>
      </trkpt>
      <trkpt lat="44.13264" lon="3.19691">
        <ele>695.5</ele>
        <time>2024-11-07T15:03:32.000Z</time>
      </trkpt>
      <trkpt lat="44.13256" lon="3.197">
        <ele>692</ele>
        <time>2024-11-07T15:03:40.000Z</time>
      </trkpt>
      <trkpt lat="44.13248" lon="3.19694">
        <ele>688.2</ele>
        <time>2024-11-07T15:03:54.000Z</time>
      </trkpt>
      <trkpt lat="44.13237" lon="3.19689">
        <ele>686.8</ele>
        <time>2024-11-07T15:04:05.000Z</time>
      </trkpt>
      <trkpt lat="44.13226" lon="3.19694">
        <ele>686.2</ele>
        <time>2024-11-07T15:04:08.000Z</time>
      </trkpt>
      <trkpt lat="44.13212" lon="3.19694">
        <ele>685.4</ele>
        <time>2024-11-07T15:04:11.000Z</time>
      </trkpt>
      <trkpt lat="44.132" lon="3.19696">
        <ele>684.5</ele>
        <time>2024-11-07T15:04:14.000Z</time>
      </trkpt>
      <trkpt lat="44.13189" lon="3.19699">
        <ele>683.5</ele>
        <time>2024-11-07T15:04:18.000Z</time>
      </trkpt>
      <trkpt lat="44.13179" lon="3.19697">
        <ele>682</ele>
        <time>2024-11-07T15:04:25.000Z</time>
      </trkpt>
      <trkpt lat="44.13167" lon="3.19695">
        <ele>678.7</ele>
        <time>2024-11-07T15:04:43.000Z</time>
      </trkpt>
      <trkpt lat="44.1316" lon="3.19681">
        <ele>677.3</ele>
        <time>2024-11-07T15:04:47.000Z</time>
      </trkpt>
      <trkpt lat="44.13153" lon="3.19669">
        <ele>675.7</ele>
        <time>2024-11-07T15:04:51.000Z</time>
      </trkpt>
      <trkpt lat="44.13145" lon="3.19662">
        <ele>673.4</ele>
        <time>2024-11-07T15:04:56.000Z</time>
      </trkpt>
      <trkpt lat="44.13141" lon="3.19651">
        <ele>671.9</ele>
        <time>2024-11-07T15:04:59.000Z</time>
      </trkpt>
      <trkpt lat="44.13132" lon="3.19648">
        <ele>669.6</ele>
        <time>2024-11-07T15:05:04.000Z</time>
      </trkpt>
      <trkpt lat="44.13123" lon="3.19655">
        <ele>667.7</ele>
        <time>2024-11-07T15:05:10.000Z</time>
      </trkpt>
      <trkpt lat="44.13113" lon="3.19661">
        <ele>666.5</ele>
        <time>2024-11-07T15:05:16.000Z</time>
      </trkpt>
      <trkpt lat="44.13108" lon="3.19671">
        <ele>666</ele>
        <time>2024-11-07T15:05:21.000Z</time>
      </trkpt>
      <trkpt lat="44.131" lon="3.1968">
        <ele>665.6</ele>
        <time>2024-11-07T15:05:25.000Z</time>
      </trkpt>
      <trkpt lat="44.13089" lon="3.19687">
        <ele>665.4</ele>
        <time>2024-11-07T15:05:29.000Z</time>
      </trkpt>
      <trkpt lat="44.1308" lon="3.19682">
        <ele>665</ele>
        <time>2024-11-07T15:05:32.000Z</time>
      </trkpt>
      <trkpt lat="44.13069" lon="3.19682">
        <ele>664.4</ele>
        <time>2024-11-07T15:05:35.000Z</time>
      </trkpt>
      <trkpt lat="44.13056" lon="3.1968">
        <ele>663.7</ele>
        <time>2024-11-07T15:05:38.000Z</time>
      </trkpt>
      <trkpt lat="44.13047" lon="3.19678">
        <ele>663.2</ele>
        <time>2024-11-07T15:05:40.000Z</time>
      </trkpt>
      <trkpt lat="44.13038" lon="3.19671">
        <ele>662.6</ele>
        <time>2024-11-07T15:05:42.000Z</time>
      </trkpt>
      <trkpt lat="44.13029" lon="3.19665">
        <ele>662</ele>
        <time>2024-11-07T15:05:44.000Z</time>
      </trkpt>
      <trkpt lat="44.13038" lon="3.19658">
        <ele>657.3</ele>
        <time>2024-11-07T15:05:55.000Z</time>
      </trkpt>
      <trkpt lat="44.13032" lon="3.19647">
        <ele>655.4</ele>
        <time>2024-11-07T15:06:00.000Z</time>
      </trkpt>
      <trkpt lat="44.13023" lon="3.19652">
        <ele>652.4</ele>
        <time>2024-11-07T15:06:15.000Z</time>
      </trkpt>
      <trkpt lat="44.13011" lon="3.19652">
        <ele>651.9</ele>
        <time>2024-11-07T15:06:19.000Z</time>
      </trkpt>
      <trkpt lat="44.12999" lon="3.19646">
        <ele>651.2</ele>
        <time>2024-11-07T15:06:22.000Z</time>
      </trkpt>
      <trkpt lat="44.12987" lon="3.19646">
        <ele>650</ele>
        <time>2024-11-07T15:06:25.000Z</time>
      </trkpt>
      <trkpt lat="44.12978" lon="3.19649">
        <ele>649.2</ele>
        <time>2024-11-07T15:06:27.000Z</time>
      </trkpt>
      <trkpt lat="44.12971" lon="3.19639">
        <ele>648.4</ele>
        <time>2024-11-07T15:06:29.000Z</time>
      </trkpt>
      <trkpt lat="44.12963" lon="3.19633">
        <ele>647.3</ele>
        <time>2024-11-07T15:06:32.000Z</time>
      </trkpt>
      <trkpt lat="44.12953" lon="3.19632">
        <ele>645.7</ele>
        <time>2024-11-07T15:06:36.000Z</time>
      </trkpt>
      <trkpt lat="44.12943" lon="3.19638">
        <ele>643.3</ele>
        <time>2024-11-07T15:06:41.000Z</time>
      </trkpt>
      <trkpt lat="44.12934" lon="3.19634">
        <ele>641.5</ele>
        <time>2024-11-07T15:06:45.000Z</time>
      </trkpt>
      <trkpt lat="44.12924" lon="3.19632">
        <ele>640.1</ele>
        <time>2024-11-07T15:06:49.000Z</time>
      </trkpt>
      <trkpt lat="44.12915" lon="3.19631">
        <ele>638.8</ele>
        <time>2024-11-07T15:06:52.000Z</time>
      </trkpt>
      <trkpt lat="44.12905" lon="3.19624">
        <ele>637.5</ele>
        <time>2024-11-07T15:06:55.000Z</time>
      </trkpt>
      <trkpt lat="44.12895" lon="3.19623">
        <ele>635.9</ele>
        <time>2024-11-07T15:06:58.000Z</time>
      </trkpt>
      <trkpt lat="44.12894" lon="3.19638">
        <ele>633.5</ele>
        <time>2024-11-07T15:07:03.000Z</time>
      </trkpt>
      <trkpt lat="44.12884" lon="3.19644">
        <ele>632</ele>
        <time>2024-11-07T15:07:07.000Z</time>
      </trkpt>
      <trkpt lat="44.12875" lon="3.19651">
        <ele>630.4</ele>
        <time>2024-11-07T15:07:12.000Z</time>
      </trkpt>
      <trkpt lat="44.12867" lon="3.19646">
        <ele>628.6</ele>
        <time>2024-11-07T15:07:16.000Z</time>
      </trkpt>
      <trkpt lat="44.12858" lon="3.19637">
        <ele>626.1</ele>
        <time>2024-11-07T15:07:20.000Z</time>
      </trkpt>
      <trkpt lat="44.12861" lon="3.19622">
        <ele>622.2</ele>
        <time>2024-11-07T15:07:26.000Z</time>
      </trkpt>
      <trkpt lat="44.12852" lon="3.1962">
        <ele>618.7</ele>
        <time>2024-11-07T15:07:32.000Z</time>
      </trkpt>
      <trkpt lat="44.1284" lon="3.19618">
        <ele>616.7</ele>
        <time>2024-11-07T15:07:35.000Z</time>
      </trkpt>
      <trkpt lat="44.12831" lon="3.19615">
        <ele>614.5</ele>
        <time>2024-11-07T15:07:38.000Z</time>
      </trkpt>
      <trkpt lat="44.12822" lon="3.19613">
        <ele>612.2</ele>
        <time>2024-11-07T15:07:41.000Z</time>
      </trkpt>
      <trkpt lat="44.12811" lon="3.19611">
        <ele>609.7</ele>
        <time>2024-11-07T15:07:44.000Z</time>
      </trkpt>
      <trkpt lat="44.12801" lon="3.1961">
        <ele>606.9</ele>
        <time>2024-11-07T15:07:47.000Z</time>
      </trkpt>
      <trkpt lat="44.12792" lon="3.19609">
        <ele>604</ele>
        <time>2024-11-07T15:07:50.000Z</time>
      </trkpt>
      <trkpt lat="44.12783" lon="3.19596">
        <ele>601.1</ele>
        <time>2024-11-07T15:07:53.000Z</time>
      </trkpt>
      <trkpt lat="44.12777" lon="3.1958">
        <ele>599.1</ele>
        <time>2024-11-07T15:07:55.000Z</time>
      </trkpt>
      <trkpt lat="44.12772" lon="3.19562">
        <ele>597</ele>
        <time>2024-11-07T15:07:57.000Z</time>
      </trkpt>
      <trkpt lat="44.12773" lon="3.19545">
        <ele>592.8</ele>
        <time>2024-11-07T15:08:01.000Z</time>
      </trkpt>
      <trkpt lat="44.12766" lon="3.19534">
        <ele>588.8</ele>
        <time>2024-11-07T15:08:05.000Z</time>
      </trkpt>
      <trkpt lat="44.12753" lon="3.19533">
        <ele>585.9</ele>
        <time>2024-11-07T15:08:08.000Z</time>
      </trkpt>
      <trkpt lat="44.12743" lon="3.19529">
        <ele>583.1</ele>
        <time>2024-11-07T15:08:11.000Z</time>
      </trkpt>
      <trkpt lat="44.12731" lon="3.19521">
        <ele>580</ele>
        <time>2024-11-07T15:08:14.000Z</time>
      </trkpt>
      <trkpt lat="44.1272" lon="3.19516">
        <ele>576.7</ele>
        <time>2024-11-07T15:08:17.000Z</time>
      </trkpt>
      <trkpt lat="44.1271" lon="3.19512">
        <ele>573.1</ele>
        <time>2024-11-07T15:08:20.000Z</time>
      </trkpt>
      <trkpt lat="44.12697" lon="3.19509">
        <ele>569.5</ele>
        <time>2024-11-07T15:08:23.000Z</time>
      </trkpt>
      <trkpt lat="44.12689" lon="3.19502">
        <ele>565.9</ele>
        <time>2024-11-07T15:08:26.000Z</time>
      </trkpt>
      <trkpt lat="44.12681" lon="3.19493">
        <ele>562.5</ele>
        <time>2024-11-07T15:08:29.000Z</time>
      </trkpt>
      <trkpt lat="44.1267" lon="3.19487">
        <ele>556.7</ele>
        <time>2024-11-07T15:08:34.000Z</time>
      </trkpt>
      <trkpt lat="44.1266" lon="3.19488">
        <ele>553.7</ele>
        <time>2024-11-07T15:08:37.000Z</time>
      </trkpt>
      <trkpt lat="44.12651" lon="3.19491">
        <ele>551.6</ele>
        <time>2024-11-07T15:08:39.000Z</time>
      </trkpt>
      <trkpt lat="44.1264" lon="3.19501">
        <ele>549.5</ele>
        <time>2024-11-07T15:08:41.000Z</time>
      </trkpt>
      <trkpt lat="44.12632" lon="3.1951">
        <ele>547.4</ele>
        <time>2024-11-07T15:08:43.000Z</time>
      </trkpt>
      <trkpt lat="44.12628" lon="3.19521">
        <ele>545.5</ele>
        <time>2024-11-07T15:08:45.000Z</time>
      </trkpt>
      <trkpt lat="44.1262" lon="3.19529">
        <ele>542.7</ele>
        <time>2024-11-07T15:08:48.000Z</time>
      </trkpt>
      <trkpt lat="44.12609" lon="3.19528">
        <ele>540.2</ele>
        <time>2024-11-07T15:08:51.000Z</time>
      </trkpt>
      <trkpt lat="44.12598" lon="3.19527">
        <ele>538</ele>
        <time>2024-11-07T15:08:54.000Z</time>
      </trkpt>
      <trkpt lat="44.12588" lon="3.19531">
        <ele>536.6</ele>
        <time>2024-11-07T15:08:56.000Z</time>
      </trkpt>
      <trkpt lat="44.12578" lon="3.19535">
        <ele>534.9</ele>
        <time>2024-11-07T15:08:58.000Z</time>
      </trkpt>
      <trkpt lat="44.12567" lon="3.19538">
        <ele>533.5</ele>
        <time>2024-11-07T15:09:00.000Z</time>
      </trkpt>
      <trkpt lat="44.12558" lon="3.19543">
        <ele>531.6</ele>
        <time>2024-11-07T15:09:03.000Z</time>
      </trkpt>
      <trkpt lat="44.12549" lon="3.19547">
        <ele>529.3</ele>
        <time>2024-11-07T15:09:08.000Z</time>
      </trkpt>
      <trkpt lat="44.12544" lon="3.19561">
        <ele>527.6</ele>
        <time>2024-11-07T15:09:13.000Z</time>
      </trkpt>
      <trkpt lat="44.12541" lon="3.19574">
        <ele>526.7</ele>
        <time>2024-11-07T15:09:17.000Z</time>
      </trkpt>
      <trkpt lat="44.12537" lon="3.1959">
        <ele>526</ele>
        <time>2024-11-07T15:09:21.000Z</time>
      </trkpt>
      <trkpt lat="44.1253" lon="3.19604">
        <ele>525.6</ele>
        <time>2024-11-07T15:09:24.000Z</time>
      </trkpt>
      <trkpt lat="44.1252" lon="3.19617">
        <ele>525</ele>
        <time>2024-11-07T15:09:27.000Z</time>
      </trkpt>
      <trkpt lat="44.12514" lon="3.19628">
        <ele>524.1</ele>
        <time>2024-11-07T15:09:30.000Z</time>
      </trkpt>
      <trkpt lat="44.12507" lon="3.1964">
        <ele>522.9</ele>
        <time>2024-11-07T15:09:33.000Z</time>
      </trkpt>
      <trkpt lat="44.12494" lon="3.19642">
        <ele>521.4</ele>
        <time>2024-11-07T15:09:36.000Z</time>
      </trkpt>
      <trkpt lat="44.12485" lon="3.19645">
        <ele>520.4</ele>
        <time>2024-11-07T15:09:38.000Z</time>
      </trkpt>
      <trkpt lat="44.12476" lon="3.19652">
        <ele>519.1</ele>
        <time>2024-11-07T15:09:41.000Z</time>
      </trkpt>
      <trkpt lat="44.12465" lon="3.19657">
        <ele>517.9</ele>
        <time>2024-11-07T15:09:44.000Z</time>
      </trkpt>
      <trkpt lat="44.12455" lon="3.19664">
        <ele>516.8</ele>
        <time>2024-11-07T15:09:47.000Z</time>
      </trkpt>
      <trkpt lat="44.12443" lon="3.19671">
        <ele>515.7</ele>
        <time>2024-11-07T15:09:50.000Z</time>
      </trkpt>
      <trkpt lat="44.1243" lon="3.19672">
        <ele>514.3</ele>
        <time>2024-11-07T15:09:53.000Z</time>
      </trkpt>
      <trkpt lat="44.12419" lon="3.19675">
        <ele>512.4</ele>
        <time>2024-11-07T15:09:56.000Z</time>
      </trkpt>
      <trkpt lat="44.12409" lon="3.19674">
        <ele>510.9</ele>
        <time>2024-11-07T15:09:58.000Z</time>
      </trkpt>
      <trkpt lat="44.12399" lon="3.19676">
        <ele>509.4</ele>
        <time>2024-11-07T15:10:00.000Z</time>
      </trkpt>
      <trkpt lat="44.12389" lon="3.19683">
        <ele>507.8</ele>
        <time>2024-11-07T15:10:02.000Z</time>
      </trkpt>
      <trkpt lat="44.12378" lon="3.1969">
        <ele>506.4</ele>
        <time>2024-11-07T15:10:04.000Z</time>
      </trkpt>
      <trkpt lat="44.12369" lon="3.19695">
        <ele>505.1</ele>
        <time>2024-11-07T15:10:06.000Z</time>
      </trkpt>
      <trkpt lat="44.12358" lon="3.19701">
        <ele>503.5</ele>
        <time>2024-11-07T15:10:09.000Z</time>
      </trkpt>
      <trkpt lat="44.12354" lon="3.19713">
        <ele>501.3</ele>
        <time>2024-11-07T15:10:13.000Z</time>
      </trkpt>
      <trkpt lat="44.1236" lon="3.19725">
        <ele>499.4</ele>
        <time>2024-11-07T15:10:17.000Z</time>
      </trkpt>
      <trkpt lat="44.12357" lon="3.19738">
        <ele>498</ele>
        <time>2024-11-07T15:10:20.000Z</time>
      </trkpt>
      <trkpt lat="44.12361" lon="3.1975">
        <ele>497</ele>
        <time>2024-11-07T15:10:23.000Z</time>
      </trkpt>
      <trkpt lat="44.1236" lon="3.19765">
        <ele>495.7</ele>
        <time>2024-11-07T15:10:26.000Z</time>
      </trkpt>
      <trkpt lat="44.12359" lon="3.19781">
        <ele>494.1</ele>
        <time>2024-11-07T15:10:29.000Z</time>
      </trkpt>
      <trkpt lat="44.12366" lon="3.19789">
        <ele>492.9</ele>
        <time>2024-11-07T15:10:31.000Z</time>
      </trkpt>
      <trkpt lat="44.12375" lon="3.19799">
        <ele>491.6</ele>
        <time>2024-11-07T15:10:33.000Z</time>
      </trkpt>
      <trkpt lat="44.12381" lon="3.1981">
        <ele>490.3</ele>
        <time>2024-11-07T15:10:35.000Z</time>
      </trkpt>
      <trkpt lat="44.12387" lon="3.1982">
        <ele>488.9</ele>
        <time>2024-11-07T15:10:37.000Z</time>
      </trkpt>
      <trkpt lat="44.12397" lon="3.19827">
        <ele>486.4</ele>
        <time>2024-11-07T15:10:40.000Z</time>
      </trkpt>
      <trkpt lat="44.12406" lon="3.19823">
        <ele>484.9</ele>
        <time>2024-11-07T15:10:42.000Z</time>
      </trkpt>
      <trkpt lat="44.12415" lon="3.19824">
        <ele>483.5</ele>
        <time>2024-11-07T15:10:44.000Z</time>
      </trkpt>
      <trkpt lat="44.12425" lon="3.19829">
        <ele>482.1</ele>
        <time>2024-11-07T15:10:46.000Z</time>
      </trkpt>
      <trkpt lat="44.12427" lon="3.19843">
        <ele>479.9</ele>
        <time>2024-11-07T15:10:49.000Z</time>
      </trkpt>
      <trkpt lat="44.12416" lon="3.19844">
        <ele>477.6</ele>
        <time>2024-11-07T15:10:52.000Z</time>
      </trkpt>
      <trkpt lat="44.12405" lon="3.19845">
        <ele>476</ele>
        <time>2024-11-07T15:10:54.000Z</time>
      </trkpt>
      <trkpt lat="44.12395" lon="3.19852">
        <ele>474.2</ele>
        <time>2024-11-07T15:10:56.000Z</time>
      </trkpt>
      <trkpt lat="44.12386" lon="3.1986">
        <ele>472.3</ele>
        <time>2024-11-07T15:10:58.000Z</time>
      </trkpt>
      <trkpt lat="44.12373" lon="3.19862">
        <ele>469.3</ele>
        <time>2024-11-07T15:11:01.000Z</time>
      </trkpt>
      <trkpt lat="44.12364" lon="3.19863">
        <ele>467.3</ele>
        <time>2024-11-07T15:11:03.000Z</time>
      </trkpt>
      <trkpt lat="44.12355" lon="3.19865">
        <ele>465.4</ele>
        <time>2024-11-07T15:11:05.000Z</time>
      </trkpt>
      <trkpt lat="44.12346" lon="3.19861">
        <ele>463.4</ele>
        <time>2024-11-07T15:11:07.000Z</time>
      </trkpt>
      <trkpt lat="44.12337" lon="3.19856">
        <ele>461.4</ele>
        <time>2024-11-07T15:11:09.000Z</time>
      </trkpt>
      <trkpt lat="44.12327" lon="3.19854">
        <ele>459.4</ele>
        <time>2024-11-07T15:11:11.000Z</time>
      </trkpt>
      <trkpt lat="44.12318" lon="3.19863">
        <ele>456.3</ele>
        <time>2024-11-07T15:11:14.000Z</time>
      </trkpt>
      <trkpt lat="44.12316" lon="3.19876">
        <ele>454.2</ele>
        <time>2024-11-07T15:11:16.000Z</time>
      </trkpt>
      <trkpt lat="44.12305" lon="3.19885">
        <ele>451</ele>
        <time>2024-11-07T15:11:19.000Z</time>
      </trkpt>
      <trkpt lat="44.12296" lon="3.1988">
        <ele>448.9</ele>
        <time>2024-11-07T15:11:21.000Z</time>
      </trkpt>
      <trkpt lat="44.12286" lon="3.1988">
        <ele>446.8</ele>
        <time>2024-11-07T15:11:23.000Z</time>
      </trkpt>
      <trkpt lat="44.12274" lon="3.19878">
        <ele>444.6</ele>
        <time>2024-11-07T15:11:25.000Z</time>
      </trkpt>
      <trkpt lat="44.12265" lon="3.19872">
        <ele>442.4</ele>
        <time>2024-11-07T15:11:27.000Z</time>
      </trkpt>
      <trkpt lat="44.12257" lon="3.19865">
        <ele>440.2</ele>
        <time>2024-11-07T15:11:29.000Z</time>
      </trkpt>
      <trkpt lat="44.12248" lon="3.19865">
        <ele>435.2</ele>
        <time>2024-11-07T15:11:34.000Z</time>
      </trkpt>
      <trkpt lat="44.12243" lon="3.19877">
        <ele>428.7</ele>
        <time>2024-11-07T15:11:43.000Z</time>
      </trkpt>
      <trkpt lat="44.12243" lon="3.19891">
        <ele>427.2</ele>
        <time>2024-11-07T15:11:46.000Z</time>
      </trkpt>
      <trkpt lat="44.12244" lon="3.19906">
        <ele>425.9</ele>
        <time>2024-11-07T15:11:49.000Z</time>
      </trkpt>
      <trkpt lat="44.12245" lon="3.1992">
        <ele>425</ele>
        <time>2024-11-07T15:11:52.000Z</time>
      </trkpt>
      <trkpt lat="44.12246" lon="3.19934">
        <ele>424.2</ele>
        <time>2024-11-07T15:11:55.000Z</time>
      </trkpt>
      <trkpt lat="44.12245" lon="3.1995">
        <ele>423.5</ele>
        <time>2024-11-07T15:11:58.000Z</time>
      </trkpt>
      <trkpt lat="44.12244" lon="3.19965">
        <ele>423</ele>
        <time>2024-11-07T15:12:01.000Z</time>
      </trkpt>
      <trkpt lat="44.12242" lon="3.19983">
        <ele>422.6</ele>
        <time>2024-11-07T15:12:04.000Z</time>
      </trkpt>
      <trkpt lat="44.12241" lon="3.2">
        <ele>422.2</ele>
        <time>2024-11-07T15:12:07.000Z</time>
      </trkpt>
      <trkpt lat="44.12239" lon="3.20017">
        <ele>422</ele>
        <time>2024-11-07T15:12:10.000Z</time>
      </trkpt>
      <trkpt lat="44.12238" lon="3.20034">
        <ele>421.9</ele>
        <time>2024-11-07T15:12:13.000Z</time>
      </trkpt>
      <trkpt lat="44.12236" lon="3.20051">
        <ele>421.8</ele>
        <time>2024-11-07T15:12:16.000Z</time>
      </trkpt>
      <trkpt lat="44.12235" lon="3.20068">
        <ele>421.8</ele>
        <time>2024-11-07T15:12:19.000Z</time>
      </trkpt>
      <trkpt lat="44.12234" lon="3.20085">
        <ele>421.8</ele>
        <time>2024-11-07T15:12:22.000Z</time>
      </trkpt>
      <trkpt lat="44.12234" lon="3.20103">
        <ele>421.8</ele>
        <time>2024-11-07T15:12:25.000Z</time>
      </trkpt>
      <trkpt lat="44.12234" lon="3.20121">
        <ele>421.9</ele>
        <time>2024-11-07T15:12:28.000Z</time>
      </trkpt>
      <trkpt lat="44.12234" lon="3.20134">
        <ele>421.9</ele>
        <time>2024-11-07T15:12:30.000Z</time>
      </trkpt>
      <trkpt lat="44.12234" lon="3.20147">
        <ele>421.9</ele>
        <time>2024-11-07T15:12:32.000Z</time>
      </trkpt>
      <trkpt lat="44.12234" lon="3.2016">
        <ele>421.9</ele>
        <time>2024-11-07T15:12:34.000Z</time>
      </trkpt>
      <trkpt lat="44.12234" lon="3.20173">
        <ele>422</ele>
        <time>2024-11-07T15:12:36.000Z</time>
      </trkpt>
      <trkpt lat="44.12233" lon="3.20187">
        <ele>422</ele>
        <time>2024-11-07T15:12:38.000Z</time>
      </trkpt>
      <trkpt lat="44.12233" lon="3.202">
        <ele>422.1</ele>
        <time>2024-11-07T15:12:40.000Z</time>
      </trkpt>
      <trkpt lat="44.12233" lon="3.20213">
        <ele>422.1</ele>
        <time>2024-11-07T15:12:42.000Z</time>
      </trkpt>
      <trkpt lat="44.12233" lon="3.20226">
        <ele>422.1</ele>
        <time>2024-11-07T15:12:44.000Z</time>
      </trkpt>
      <trkpt lat="44.12233" lon="3.20245">
        <ele>422.2</ele>
        <time>2024-11-07T15:12:47.000Z</time>
      </trkpt>
      <trkpt lat="44.12232" lon="3.20258">
        <ele>422.2</ele>
        <time>2024-11-07T15:12:49.000Z</time>
      </trkpt>
      <trkpt lat="44.1223" lon="3.20271">
        <ele>422.3</ele>
        <time>2024-11-07T15:12:51.000Z</time>
      </trkpt>
      <trkpt lat="44.12228" lon="3.20285">
        <ele>422.3</ele>
        <time>2024-11-07T15:12:53.000Z</time>
      </trkpt>
      <trkpt lat="44.12225" lon="3.20297">
        <ele>422.4</ele>
        <time>2024-11-07T15:12:55.000Z</time>
      </trkpt>
      <trkpt lat="44.12221" lon="3.20309">
        <ele>422.4</ele>
        <time>2024-11-07T15:12:57.000Z</time>
      </trkpt>
      <trkpt lat="44.12221" lon="3.20322">
        <ele>422.5</ele>
        <time>2024-11-07T15:13:00.000Z</time>
      </trkpt>
      <trkpt lat="44.12228" lon="3.20314">
        <ele>422.6</ele>
        <time>2024-11-07T15:13:04.000Z</time>
      </trkpt>
      <trkpt lat="44.12231" lon="3.20301">
        <ele>422.9</ele>
        <time>2024-11-07T15:13:14.000Z</time>
      </trkpt>
      <trkpt lat="44.12232" lon="3.20289">
        <ele>423.1</ele>
        <time>2024-11-07T15:13:19.000Z</time>
      </trkpt>
      <trkpt lat="44.12225" lon="3.20299">
        <ele>423.7</ele>
        <time>2024-11-07T15:13:35.000Z</time>
      </trkpt>
      <trkpt lat="44.12222" lon="3.20312">
        <ele>423.8</ele>
        <time>2024-11-07T15:13:38.000Z</time>
      </trkpt>
      <trkpt lat="44.12218" lon="3.20323">
        <ele>423.8</ele>
        <time>2024-11-07T15:13:41.000Z</time>
      </trkpt>
      <trkpt lat="44.12215" lon="3.20335">
        <ele>423.9</ele>
        <time>2024-11-07T15:13:44.000Z</time>
      </trkpt>
      <trkpt lat="44.12211" lon="3.20348">
        <ele>424</ele>
        <time>2024-11-07T15:13:47.000Z</time>
      </trkpt>
      <trkpt lat="44.12207" lon="3.2036">
        <ele>424.1</ele>
        <time>2024-11-07T15:13:50.000Z</time>
      </trkpt>
      <trkpt lat="44.12202" lon="3.20374">
        <ele>424.2</ele>
        <time>2024-11-07T15:13:53.000Z</time>
      </trkpt>
      <trkpt lat="44.12198" lon="3.20388">
        <ele>424.3</ele>
        <time>2024-11-07T15:13:56.000Z</time>
      </trkpt>
      <trkpt lat="44.12193" lon="3.20402">
        <ele>424.3</ele>
        <time>2024-11-07T15:13:59.000Z</time>
      </trkpt>
      <trkpt lat="44.12187" lon="3.20417">
        <ele>424.4</ele>
        <time>2024-11-07T15:14:02.000Z</time>
      </trkpt>
      <trkpt lat="44.12182" lon="3.20432">
        <ele>424.5</ele>
        <time>2024-11-07T15:14:05.000Z</time>
      </trkpt>
      <trkpt lat="44.12176" lon="3.20448">
        <ele>424.6</ele>
        <time>2024-11-07T15:14:08.000Z</time>
      </trkpt>
      <trkpt lat="44.12171" lon="3.20463">
        <ele>424.7</ele>
        <time>2024-11-07T15:14:11.000Z</time>
      </trkpt>
      <trkpt lat="44.12165" lon="3.20479">
        <ele>424.8</ele>
        <time>2024-11-07T15:14:14.000Z</time>
      </trkpt>
      <trkpt lat="44.1216" lon="3.20494">
        <ele>424.8</ele>
        <time>2024-11-07T15:14:17.000Z</time>
      </trkpt>
      <trkpt lat="44.12155" lon="3.2051">
        <ele>424.9</ele>
        <time>2024-11-07T15:14:20.000Z</time>
      </trkpt>
      <trkpt lat="44.12149" lon="3.20526">
        <ele>425</ele>
        <time>2024-11-07T15:14:23.000Z</time>
      </trkpt>
      <trkpt lat="44.12144" lon="3.20542">
        <ele>425.1</ele>
        <time>2024-11-07T15:14:26.000Z</time>
      </trkpt>
      <trkpt lat="44.12139" lon="3.20558">
        <ele>425.1</ele>
        <time>2024-11-07T15:14:29.000Z</time>
      </trkpt>
      <trkpt lat="44.12136" lon="3.20575">
        <ele>425.2</ele>
        <time>2024-11-07T15:14:32.000Z</time>
      </trkpt>
      <trkpt lat="44.12134" lon="3.20593">
        <ele>425.3</ele>
        <time>2024-11-07T15:14:35.000Z</time>
      </trkpt>
      <trkpt lat="44.12133" lon="3.20607">
        <ele>425.4</ele>
        <time>2024-11-07T15:14:37.000Z</time>
      </trkpt>
      <trkpt lat="44.12134" lon="3.20621">
        <ele>425.4</ele>
        <time>2024-11-07T15:14:39.000Z</time>
      </trkpt>
      <trkpt lat="44.12135" lon="3.20633">
        <ele>425.5</ele>
        <time>2024-11-07T15:14:41.000Z</time>
      </trkpt>
      <trkpt lat="44.12136" lon="3.20646">
        <ele>425.5</ele>
        <time>2024-11-07T15:14:43.000Z</time>
      </trkpt>
      <trkpt lat="44.12138" lon="3.20659">
        <ele>425.6</ele>
        <time>2024-11-07T15:14:45.000Z</time>
      </trkpt>
      <trkpt lat="44.1214" lon="3.20672">
        <ele>425.6</ele>
        <time>2024-11-07T15:14:47.000Z</time>
      </trkpt>
      <trkpt lat="44.12144" lon="3.2069">
        <ele>425.8</ele>
        <time>2024-11-07T15:14:50.000Z</time>
      </trkpt>
      <trkpt lat="44.12146" lon="3.20702">
        <ele>425.9</ele>
        <time>2024-11-07T15:14:52.000Z</time>
      </trkpt>
      <trkpt lat="44.12151" lon="3.20719">
        <ele>426</ele>
        <time>2024-11-07T15:14:55.000Z</time>
      </trkpt>
      <trkpt lat="44.12156" lon="3.20736">
        <ele>426.1</ele>
        <time>2024-11-07T15:14:58.000Z</time>
      </trkpt>
      <trkpt lat="44.12161" lon="3.20753">
        <ele>426.3</ele>
        <time>2024-11-07T15:15:01.000Z</time>
      </trkpt>
      <trkpt lat="44.12166" lon="3.20769">
        <ele>426.4</ele>
        <time>2024-11-07T15:15:04.000Z</time>
      </trkpt>
      <trkpt lat="44.12169" lon="3.20786">
        <ele>426.5</ele>
        <time>2024-11-07T15:15:07.000Z</time>
      </trkpt>
      <trkpt lat="44.12173" lon="3.20802">
        <ele>426.6</ele>
        <time>2024-11-07T15:15:10.000Z</time>
      </trkpt>
      <trkpt lat="44.12177" lon="3.20819">
        <ele>426.7</ele>
        <time>2024-11-07T15:15:13.000Z</time>
      </trkpt>
      <trkpt lat="44.12181" lon="3.20835">
        <ele>426.8</ele>
        <time>2024-11-07T15:15:16.000Z</time>
      </trkpt>
      <trkpt lat="44.12184" lon="3.20853">
        <ele>426.9</ele>
        <time>2024-11-07T15:15:19.000Z</time>
      </trkpt>
      <trkpt lat="44.12187" lon="3.20869">
        <ele>427</ele>
        <time>2024-11-07T15:15:22.000Z</time>
      </trkpt>
      <trkpt lat="44.1219" lon="3.20887">
        <ele>427.1</ele>
        <time>2024-11-07T15:15:25.000Z</time>
      </trkpt>
      <trkpt lat="44.12193" lon="3.20904">
        <ele>427.2</ele>
        <time>2024-11-07T15:15:28.000Z</time>
      </trkpt>
      <trkpt lat="44.12195" lon="3.20922">
        <ele>427.2</ele>
        <time>2024-11-07T15:15:31.000Z</time>
      </trkpt>
      <trkpt lat="44.12196" lon="3.20939">
        <ele>427.3</ele>
        <time>2024-11-07T15:15:34.000Z</time>
      </trkpt>
      <trkpt lat="44.12198" lon="3.20957">
        <ele>427.4</ele>
        <time>2024-11-07T15:15:37.000Z</time>
      </trkpt>
      <trkpt lat="44.12199" lon="3.2097">
        <ele>427.5</ele>
        <time>2024-11-07T15:15:39.000Z</time>
      </trkpt>
      <trkpt lat="44.122" lon="3.20982">
        <ele>427.6</ele>
        <time>2024-11-07T15:15:41.000Z</time>
      </trkpt>
      <trkpt lat="44.12201" lon="3.20999">
        <ele>427.7</ele>
        <time>2024-11-07T15:15:44.000Z</time>
      </trkpt>
      <trkpt lat="44.12202" lon="3.21017">
        <ele>427.9</ele>
        <time>2024-11-07T15:15:47.000Z</time>
      </trkpt>
      <trkpt lat="44.12203" lon="3.21034">
        <ele>428</ele>
        <time>2024-11-07T15:15:50.000Z</time>
      </trkpt>
      <trkpt lat="44.12203" lon="3.21051">
        <ele>428.2</ele>
        <time>2024-11-07T15:15:53.000Z</time>
      </trkpt>
      <trkpt lat="44.12203" lon="3.21069">
        <ele>428.3</ele>
        <time>2024-11-07T15:15:56.000Z</time>
      </trkpt>
      <trkpt lat="44.12202" lon="3.21086">
        <ele>428.4</ele>
        <time>2024-11-07T15:15:59.000Z</time>
      </trkpt>
      <trkpt lat="44.12199" lon="3.21102">
        <ele>428.5</ele>
        <time>2024-11-07T15:16:02.000Z</time>
      </trkpt>
      <trkpt lat="44.12194" lon="3.21119">
        <ele>428.6</ele>
        <time>2024-11-07T15:16:05.000Z</time>
      </trkpt>
      <trkpt lat="44.12189" lon="3.21136">
        <ele>428.7</ele>
        <time>2024-11-07T15:16:08.000Z</time>
      </trkpt>
      <trkpt lat="44.12185" lon="3.21149">
        <ele>428.8</ele>
        <time>2024-11-07T15:16:10.000Z</time>
      </trkpt>
      <trkpt lat="44.12177" lon="3.21163">
        <ele>429</ele>
        <time>2024-11-07T15:16:13.000Z</time>
      </trkpt>
      <trkpt lat="44.1217" lon="3.21171">
        <ele>429.1</ele>
        <time>2024-11-07T15:16:15.000Z</time>
      </trkpt>
      <trkpt lat="44.12162" lon="3.21178">
        <ele>429.2</ele>
        <time>2024-11-07T15:16:17.000Z</time>
      </trkpt>
      <trkpt lat="44.12155" lon="3.21186">
        <ele>429.3</ele>
        <time>2024-11-07T15:16:19.000Z</time>
      </trkpt>
      <trkpt lat="44.12147" lon="3.21193">
        <ele>429.4</ele>
        <time>2024-11-07T15:16:21.000Z</time>
      </trkpt>
      <trkpt lat="44.12139" lon="3.21199">
        <ele>429.5</ele>
        <time>2024-11-07T15:16:23.000Z</time>
      </trkpt>
      <trkpt lat="44.12131" lon="3.21205">
        <ele>429.6</ele>
        <time>2024-11-07T15:16:25.000Z</time>
      </trkpt>
      <trkpt lat="44.12122" lon="3.21211">
        <ele>429.7</ele>
        <time>2024-11-07T15:16:27.000Z</time>
      </trkpt>
      <trkpt lat="44.12114" lon="3.21217">
        <ele>429.8</ele>
        <time>2024-11-07T15:16:29.000Z</time>
      </trkpt>
      <trkpt lat="44.12105" lon="3.21223">
        <ele>429.9</ele>
        <time>2024-11-07T15:16:31.000Z</time>
      </trkpt>
      <trkpt lat="44.12097" lon="3.21229">
        <ele>430</ele>
        <time>2024-11-07T15:16:33.000Z</time>
      </trkpt>
      <trkpt lat="44.12089" lon="3.21234">
        <ele>430.1</ele>
        <time>2024-11-07T15:16:35.000Z</time>
      </trkpt>
      <trkpt lat="44.1208" lon="3.2124">
        <ele>430.2</ele>
        <time>2024-11-07T15:16:37.000Z</time>
      </trkpt>
      <trkpt lat="44.12071" lon="3.21246">
        <ele>430.3</ele>
        <time>2024-11-07T15:16:39.000Z</time>
      </trkpt>
      <trkpt lat="44.12062" lon="3.21251">
        <ele>430.4</ele>
        <time>2024-11-07T15:16:41.000Z</time>
      </trkpt>
      <trkpt lat="44.12053" lon="3.21256">
        <ele>430.6</ele>
        <time>2024-11-07T15:16:43.000Z</time>
      </trkpt>
      <trkpt lat="44.12045" lon="3.2126">
        <ele>430.7</ele>
        <time>2024-11-07T15:16:45.000Z</time>
      </trkpt>
      <trkpt lat="44.12032" lon="3.21267">
        <ele>430.9</ele>
        <time>2024-11-07T15:16:48.000Z</time>
      </trkpt>
      <trkpt lat="44.12025" lon="3.21274">
        <ele>431</ele>
        <time>2024-11-07T15:16:50.000Z</time>
      </trkpt>
      <trkpt lat="44.12017" lon="3.21282">
        <ele>431.2</ele>
        <time>2024-11-07T15:16:52.000Z</time>
      </trkpt>
      <trkpt lat="44.1201" lon="3.21291">
        <ele>431.3</ele>
        <time>2024-11-07T15:16:54.000Z</time>
      </trkpt>
      <trkpt lat="44.12003" lon="3.213">
        <ele>431.5</ele>
        <time>2024-11-07T15:16:56.000Z</time>
      </trkpt>
      <trkpt lat="44.11996" lon="3.2131">
        <ele>431.6</ele>
        <time>2024-11-07T15:16:58.000Z</time>
      </trkpt>
      <trkpt lat="44.11988" lon="3.21327">
        <ele>431.8</ele>
        <time>2024-11-07T15:17:01.000Z</time>
      </trkpt>
      <trkpt lat="44.11984" lon="3.21339">
        <ele>431.9</ele>
        <time>2024-11-07T15:17:03.000Z</time>
      </trkpt>
      <trkpt lat="44.1198" lon="3.21352">
        <ele>432</ele>
        <time>2024-11-07T15:17:05.000Z</time>
      </trkpt>
      <trkpt lat="44.11978" lon="3.21366">
        <ele>432.1</ele>
        <time>2024-11-07T15:17:07.000Z</time>
      </trkpt>
      <trkpt lat="44.11976" lon="3.2138">
        <ele>432.2</ele>
        <time>2024-11-07T15:17:09.000Z</time>
      </trkpt>
      <trkpt lat="44.11976" lon="3.21395">
        <ele>432.3</ele>
        <time>2024-11-07T15:17:11.000Z</time>
      </trkpt>
      <trkpt lat="44.11977" lon="3.21411">
        <ele>432.4</ele>
        <time>2024-11-07T15:17:13.000Z</time>
      </trkpt>
      <trkpt lat="44.11978" lon="3.21426">
        <ele>432.4</ele>
        <time>2024-11-07T15:17:15.000Z</time>
      </trkpt>
      <trkpt lat="44.11981" lon="3.21439">
        <ele>432.5</ele>
        <time>2024-11-07T15:17:17.000Z</time>
      </trkpt>
      <trkpt lat="44.11985" lon="3.21451">
        <ele>432.6</ele>
        <time>2024-11-07T15:17:19.000Z</time>
      </trkpt>
      <trkpt lat="44.1199" lon="3.21463">
        <ele>432.7</ele>
        <time>2024-11-07T15:17:21.000Z</time>
      </trkpt>
      <trkpt lat="44.11995" lon="3.21474">
        <ele>432.7</ele>
        <time>2024-11-07T15:17:23.000Z</time>
      </trkpt>
      <trkpt lat="44.12001" lon="3.21486">
        <ele>432.8</ele>
        <time>2024-11-07T15:17:25.000Z</time>
      </trkpt>
      <trkpt lat="44.12007" lon="3.21497">
        <ele>432.9</ele>
        <time>2024-11-07T15:17:27.000Z</time>
      </trkpt>
      <trkpt lat="44.12013" lon="3.21507">
        <ele>432.9</ele>
        <time>2024-11-07T15:17:29.000Z</time>
      </trkpt>
      <trkpt lat="44.1202" lon="3.21518">
        <ele>433</ele>
        <time>2024-11-07T15:17:31.000Z</time>
      </trkpt>
      <trkpt lat="44.12026" lon="3.21529">
        <ele>433</ele>
        <time>2024-11-07T15:17:33.000Z</time>
      </trkpt>
      <trkpt lat="44.12033" lon="3.2154">
        <ele>433.1</ele>
        <time>2024-11-07T15:17:35.000Z</time>
      </trkpt>
      <trkpt lat="44.12039" lon="3.2155">
        <ele>433.2</ele>
        <time>2024-11-07T15:17:37.000Z</time>
      </trkpt>
      <trkpt lat="44.12047" lon="3.2156">
        <ele>434.4</ele>
        <time>2024-11-07T15:18:21.000Z</time>
      </trkpt>
      <trkpt lat="44.12053" lon="3.2157">
        <ele>434.5</ele>
        <time>2024-11-07T15:18:24.000Z</time>
      </trkpt>
      <trkpt lat="44.1206" lon="3.2158">
        <ele>434.6</ele>
        <time>2024-11-07T15:18:27.000Z</time>
      </trkpt>
      <trkpt lat="44.12068" lon="3.2159">
        <ele>434.7</ele>
        <time>2024-11-07T15:18:30.000Z</time>
      </trkpt>
      <trkpt lat="44.12075" lon="3.21601">
        <ele>434.8</ele>
        <time>2024-11-07T15:18:33.000Z</time>
      </trkpt>
      <trkpt lat="44.12084" lon="3.21612">
        <ele>435</ele>
        <time>2024-11-07T15:18:36.000Z</time>
      </trkpt>
      <trkpt lat="44.12092" lon="3.21624">
        <ele>435.1</ele>
        <time>2024-11-07T15:18:39.000Z</time>
      </trkpt>
      <trkpt lat="44.12101" lon="3.21634">
        <ele>435.2</ele>
        <time>2024-11-07T15:18:42.000Z</time>
      </trkpt>
      <trkpt lat="44.1211" lon="3.21646">
        <ele>435.2</ele>
        <time>2024-11-07T15:18:45.000Z</time>
      </trkpt>
      <trkpt lat="44.1212" lon="3.21655">
        <ele>435.3</ele>
        <time>2024-11-07T15:18:48.000Z</time>
      </trkpt>
      <trkpt lat="44.12129" lon="3.21666">
        <ele>435.4</ele>
        <time>2024-11-07T15:18:51.000Z</time>
      </trkpt>
      <trkpt lat="44.12139" lon="3.21678">
        <ele>435.5</ele>
        <time>2024-11-07T15:18:54.000Z</time>
      </trkpt>
      <trkpt lat="44.12149" lon="3.2169">
        <ele>435.6</ele>
        <time>2024-11-07T15:18:57.000Z</time>
      </trkpt>
      <trkpt lat="44.12159" lon="3.21702">
        <ele>435.7</ele>
        <time>2024-11-07T15:19:00.000Z</time>
      </trkpt>
      <trkpt lat="44.12168" lon="3.21714">
        <ele>435.8</ele>
        <time>2024-11-07T15:19:03.000Z</time>
      </trkpt>
      <trkpt lat="44.12178" lon="3.21726">
        <ele>435.9</ele>
        <time>2024-11-07T15:19:06.000Z</time>
      </trkpt>
      <trkpt lat="44.12188" lon="3.21739">
        <ele>435.9</ele>
        <time>2024-11-07T15:19:09.000Z</time>
      </trkpt>
      <trkpt lat="44.12194" lon="3.21748">
        <ele>436</ele>
        <time>2024-11-07T15:19:11.000Z</time>
      </trkpt>
      <trkpt lat="44.122" lon="3.21758">
        <ele>436</ele>
        <time>2024-11-07T15:19:13.000Z</time>
      </trkpt>
      <trkpt lat="44.12207" lon="3.21773">
        <ele>436.1</ele>
        <time>2024-11-07T15:19:16.000Z</time>
      </trkpt>
      <trkpt lat="44.12214" lon="3.21788">
        <ele>436.2</ele>
        <time>2024-11-07T15:19:19.000Z</time>
      </trkpt>
      <trkpt lat="44.1222" lon="3.21804">
        <ele>436.3</ele>
        <time>2024-11-07T15:19:22.000Z</time>
      </trkpt>
      <trkpt lat="44.12224" lon="3.21816">
        <ele>436.4</ele>
        <time>2024-11-07T15:19:24.000Z</time>
      </trkpt>
      <trkpt lat="44.1223" lon="3.21832">
        <ele>436.5</ele>
        <time>2024-11-07T15:19:27.000Z</time>
      </trkpt>
      <trkpt lat="44.12236" lon="3.21848">
        <ele>436.7</ele>
        <time>2024-11-07T15:19:30.000Z</time>
      </trkpt>
      <trkpt lat="44.1224" lon="3.21864">
        <ele>436.8</ele>
        <time>2024-11-07T15:19:33.000Z</time>
      </trkpt>
      <trkpt lat="44.12247" lon="3.21878">
        <ele>437</ele>
        <time>2024-11-07T15:19:36.000Z</time>
      </trkpt>
      <trkpt lat="44.12253" lon="3.21892">
        <ele>437.2</ele>
        <time>2024-11-07T15:19:39.000Z</time>
      </trkpt>
      <trkpt lat="44.12261" lon="3.21906">
        <ele>437.5</ele>
        <time>2024-11-07T15:19:42.000Z</time>
      </trkpt>
      <trkpt lat="44.12268" lon="3.21921">
        <ele>437.7</ele>
        <time>2024-11-07T15:19:45.000Z</time>
      </trkpt>
      <trkpt lat="44.12275" lon="3.21935">
        <ele>438.2</ele>
        <time>2024-11-07T15:19:48.000Z</time>
      </trkpt>
      <trkpt lat="44.12281" lon="3.21949">
        <ele>438.5</ele>
        <time>2024-11-07T15:19:51.000Z</time>
      </trkpt>
      <trkpt lat="44.12287" lon="3.21964">
        <ele>438.8</ele>
        <time>2024-11-07T15:19:54.000Z</time>
      </trkpt>
      <trkpt lat="44.12292" lon="3.2198">
        <ele>439.1</ele>
        <time>2024-11-07T15:19:57.000Z</time>
      </trkpt>
      <trkpt lat="44.12295" lon="3.21996">
        <ele>439.3</ele>
        <time>2024-11-07T15:20:00.000Z</time>
      </trkpt>
      <trkpt lat="44.12297" lon="3.22013">
        <ele>439.5</ele>
        <time>2024-11-07T15:20:03.000Z</time>
      </trkpt>
      <trkpt lat="44.123" lon="3.22029">
        <ele>439.7</ele>
        <time>2024-11-07T15:20:06.000Z</time>
      </trkpt>
      <trkpt lat="44.12302" lon="3.22046">
        <ele>439.9</ele>
        <time>2024-11-07T15:20:09.000Z</time>
      </trkpt>
      <trkpt lat="44.12305" lon="3.22062">
        <ele>440.1</ele>
        <time>2024-11-07T15:20:12.000Z</time>
      </trkpt>
      <trkpt lat="44.12308" lon="3.22078">
        <ele>440.3</ele>
        <time>2024-11-07T15:20:15.000Z</time>
      </trkpt>
      <trkpt lat="44.12311" lon="3.22094">
        <ele>440.5</ele>
        <time>2024-11-07T15:20:18.000Z</time>
      </trkpt>
      <trkpt lat="44.12314" lon="3.22111">
        <ele>440.6</ele>
        <time>2024-11-07T15:20:21.000Z</time>
      </trkpt>
      <trkpt lat="44.12317" lon="3.22128">
        <ele>440.8</ele>
        <time>2024-11-07T15:20:24.000Z</time>
      </trkpt>
      <trkpt lat="44.12321" lon="3.22144">
        <ele>441</ele>
        <time>2024-11-07T15:20:27.000Z</time>
      </trkpt>
      <trkpt lat="44.12324" lon="3.2216">
        <ele>441.2</ele>
        <time>2024-11-07T15:20:30.000Z</time>
      </trkpt>
      <trkpt lat="44.12326" lon="3.22176">
        <ele>441.4</ele>
        <time>2024-11-07T15:20:33.000Z</time>
      </trkpt>
      <trkpt lat="44.12328" lon="3.2219">
        <ele>441.6</ele>
        <time>2024-11-07T15:20:36.000Z</time>
      </trkpt>
      <trkpt lat="44.12326" lon="3.22205">
        <ele>441.7</ele>
        <time>2024-11-07T15:20:40.000Z</time>
      </trkpt>
      <trkpt lat="44.12329" lon="3.22216">
        <ele>447.8</ele>
        <time>2024-11-07T15:24:16.000Z</time>
      </trkpt>
    </trkseg>
  </trk>
  <trk>
    <name><![CDATA[Raccord vers la Combe depuis La Citée De Pierres]]></name>
    <desc><![CDATA[Avec un petit jardinage dans La Citée De Pierres (Passage Interdit !)]]></desc>
    <extensions>
      <line xmlns="http://www.topografix.com/GPX/gpx_style/0/2">
        <color>ff0000</color>
        <width>4</width>
          <extensions>
            <sens>1</sens>
          </extensions>
      </line>
    </extensions>
    <trkseg>
      <trkpt lat="44.13619" lon="3.20073">
        <ele>765.6</ele>
        <time>2024-11-13T13:22:52.000Z</time>
      </trkpt>
      <trkpt lat="44.13619" lon="3.20073">
        <ele>765.6</ele>
        <time>2024-11-13T13:22:53.000Z</time>
      </trkpt>
      <trkpt lat="44.13612" lon="3.20062">
        <ele>764.9</ele>
        <time>2024-11-13T13:23:02.000Z</time>
      </trkpt>
      <trkpt lat="44.13602" lon="3.20057">
        <ele>763.9</ele>
        <time>2024-11-13T13:23:05.000Z</time>
      </trkpt>
      <trkpt lat="44.13588" lon="3.20055">
        <ele>763.1</ele>
        <time>2024-11-13T13:23:08.000Z</time>
      </trkpt>
      <trkpt lat="44.13579" lon="3.20051">
        <ele>762</ele>
        <time>2024-11-13T13:23:10.000Z</time>
      </trkpt>
      <trkpt lat="44.13568" lon="3.20048">
        <ele>759.8</ele>
        <time>2024-11-13T13:23:12.000Z</time>
      </trkpt>
      <trkpt lat="44.13556" lon="3.20047">
        <ele>757.3</ele>
        <time>2024-11-13T13:23:14.000Z</time>
      </trkpt>
      <trkpt lat="44.13546" lon="3.20048">
        <ele>756</ele>
        <time>2024-11-13T13:23:16.000Z</time>
      </trkpt>
      <trkpt lat="44.13539" lon="3.20061">
        <ele>754.4</ele>
        <time>2024-11-13T13:23:19.000Z</time>
      </trkpt>
      <trkpt lat="44.13535" lon="3.20078">
        <ele>752.7</ele>
        <time>2024-11-13T13:23:22.000Z</time>
      </trkpt>
      <trkpt lat="44.13527" lon="3.20084">
        <ele>750</ele>
        <time>2024-11-13T13:23:24.000Z</time>
      </trkpt>
      <trkpt lat="44.13514" lon="3.20083">
        <ele>748.6</ele>
        <time>2024-11-13T13:23:26.000Z</time>
      </trkpt>
      <trkpt lat="44.135" lon="3.20081">
        <ele>747.4</ele>
        <time>2024-11-13T13:23:28.000Z</time>
      </trkpt>
      <trkpt lat="44.13486" lon="3.20078">
        <ele>747.4</ele>
        <time>2024-11-13T13:23:30.000Z</time>
      </trkpt>
      <trkpt lat="44.13473" lon="3.20069">
        <ele>747</ele>
        <time>2024-11-13T13:23:32.000Z</time>
      </trkpt>
      <trkpt lat="44.13459" lon="3.20064">
        <ele>747.8</ele>
        <time>2024-11-13T13:23:34.000Z</time>
      </trkpt>
      <trkpt lat="44.13446" lon="3.2006">
        <ele>747.2</ele>
        <time>2024-11-13T13:23:36.000Z</time>
      </trkpt>
      <trkpt lat="44.13436" lon="3.20062">
        <ele>748.3</ele>
        <time>2024-11-13T13:23:38.000Z</time>
      </trkpt>
      <trkpt lat="44.13427" lon="3.20061">
        <ele>748.7</ele>
        <time>2024-11-13T13:23:42.000Z</time>
      </trkpt>
      <trkpt lat="44.13417" lon="3.20057">
        <ele>748.5</ele>
        <time>2024-11-13T13:23:48.000Z</time>
      </trkpt>
      <trkpt lat="44.13408" lon="3.20054">
        <ele>749.5</ele>
        <time>2024-11-13T13:23:52.000Z</time>
      </trkpt>
      <trkpt lat="44.13399" lon="3.20052">
        <ele>750.8</ele>
        <time>2024-11-13T13:23:56.000Z</time>
      </trkpt>
      <trkpt lat="44.13389" lon="3.20048">
        <ele>752</ele>
        <time>2024-11-13T13:24:01.000Z</time>
      </trkpt>
      <trkpt lat="44.13379" lon="3.2004">
        <ele>751.2</ele>
        <time>2024-11-13T13:24:07.000Z</time>
      </trkpt>
      <trkpt lat="44.13372" lon="3.20032">
        <ele>750</ele>
        <time>2024-11-13T13:24:10.000Z</time>
      </trkpt>
      <trkpt lat="44.13364" lon="3.20026">
        <ele>749.6</ele>
        <time>2024-11-13T13:24:12.000Z</time>
      </trkpt>
      <trkpt lat="44.13355" lon="3.20021">
        <ele>748.6</ele>
        <time>2024-11-13T13:24:14.000Z</time>
      </trkpt>
      <trkpt lat="44.13344" lon="3.20015">
        <ele>745.8</ele>
        <time>2024-11-13T13:24:17.000Z</time>
      </trkpt>
      <trkpt lat="44.13332" lon="3.20021">
        <ele>745.3</ele>
        <time>2024-11-13T13:24:21.000Z</time>
      </trkpt>
      <trkpt lat="44.13324" lon="3.20026">
        <ele>747</ele>
        <time>2024-11-13T13:24:24.000Z</time>
      </trkpt>
      <trkpt lat="44.13313" lon="3.20031">
        <ele>748</ele>
        <time>2024-11-13T13:24:28.000Z</time>
      </trkpt>
      <trkpt lat="44.13303" lon="3.2003">
        <ele>748.8</ele>
        <time>2024-11-13T13:24:32.000Z</time>
      </trkpt>
      <trkpt lat="44.13297" lon="3.2002">
        <ele>750.2</ele>
        <time>2024-11-13T13:24:37.000Z</time>
      </trkpt>
      <trkpt lat="44.13286" lon="3.20023">
        <ele>752.6</ele>
        <time>2024-11-13T13:24:43.000Z</time>
      </trkpt>
      <trkpt lat="44.13289" lon="3.20036">
        <ele>752.7</ele>
        <time>2024-11-13T13:24:48.000Z</time>
      </trkpt>
      <trkpt lat="44.13294" lon="3.20047">
        <ele>752.9</ele>
        <time>2024-11-13T13:24:54.000Z</time>
      </trkpt>
      <trkpt lat="44.13298" lon="3.20059">
        <ele>754.4</ele>
        <time>2024-11-13T13:25:00.000Z</time>
      </trkpt>
      <trkpt lat="44.13288" lon="3.20062">
        <ele>758.3</ele>
        <time>2024-11-13T13:25:07.000Z</time>
      </trkpt>
      <trkpt lat="44.1328" lon="3.20057">
        <ele>758.2</ele>
        <time>2024-11-13T13:25:13.000Z</time>
      </trkpt>
      <trkpt lat="44.13271" lon="3.20052">
        <ele>759.2</ele>
        <time>2024-11-13T13:25:19.000Z</time>
      </trkpt>
      <trkpt lat="44.13262" lon="3.20049">
        <ele>761.1</ele>
        <time>2024-11-13T13:25:25.000Z</time>
      </trkpt>
      <trkpt lat="44.13253" lon="3.20045">
        <ele>763.2</ele>
        <time>2024-11-13T13:25:31.000Z</time>
      </trkpt>
      <trkpt lat="44.13243" lon="3.20045">
        <ele>764</ele>
        <time>2024-11-13T13:25:37.000Z</time>
      </trkpt>
      <trkpt lat="44.13234" lon="3.20053">
        <ele>762.7</ele>
        <time>2024-11-13T13:25:41.000Z</time>
      </trkpt>
      <trkpt lat="44.13227" lon="3.20062">
        <ele>760</ele>
        <time>2024-11-13T13:25:44.000Z</time>
      </trkpt>
      <trkpt lat="44.13222" lon="3.20086">
        <ele>752.3</ele>
        <time>2024-11-13T13:27:17.000Z</time>
      </trkpt>
      <trkpt lat="44.13226" lon="3.20098">
        <ele>750.2</ele>
        <time>2024-11-13T13:27:20.000Z</time>
      </trkpt>
      <trkpt lat="44.13242" lon="3.20119">
        <ele>745.8</ele>
        <time>2024-11-13T13:27:26.000Z</time>
      </trkpt>
      <trkpt lat="44.13253" lon="3.20126">
        <ele>745.4</ele>
        <time>2024-11-13T13:27:29.000Z</time>
      </trkpt>
      <trkpt lat="44.13263" lon="3.20131">
        <ele>747.3</ele>
        <time>2024-11-13T13:27:32.000Z</time>
      </trkpt>
      <trkpt lat="44.13272" lon="3.20137">
        <ele>747.1</ele>
        <time>2024-11-13T13:27:35.000Z</time>
      </trkpt>
      <trkpt lat="44.1328" lon="3.20146">
        <ele>746.8</ele>
        <time>2024-11-13T13:27:38.000Z</time>
      </trkpt>
      <trkpt lat="44.13287" lon="3.20158">
        <ele>745.1</ele>
        <time>2024-11-13T13:27:41.000Z</time>
      </trkpt>
      <trkpt lat="44.13294" lon="3.2017">
        <ele>742.2</ele>
        <time>2024-11-13T13:27:44.000Z</time>
      </trkpt>
      <trkpt lat="44.13297" lon="3.20182">
        <ele>742</ele>
        <time>2024-11-13T13:27:47.000Z</time>
      </trkpt>
      <trkpt lat="44.13294" lon="3.20196">
        <ele>739.4</ele>
        <time>2024-11-13T13:27:51.000Z</time>
      </trkpt>
      <trkpt lat="44.13286" lon="3.20204">
        <ele>734.7</ele>
        <time>2024-11-13T13:27:58.000Z</time>
      </trkpt>
      <trkpt lat="44.13295" lon="3.2021">
        <ele>736.8</ele>
        <time>2024-11-13T13:28:20.000Z</time>
      </trkpt>
      <trkpt lat="44.13304" lon="3.20215">
        <ele>739</ele>
        <time>2024-11-13T13:28:24.000Z</time>
      </trkpt>
      <trkpt lat="44.13314" lon="3.20215">
        <ele>740.5</ele>
        <time>2024-11-13T13:28:28.000Z</time>
      </trkpt>
      <trkpt lat="44.13325" lon="3.20217">
        <ele>741.4</ele>
        <time>2024-11-13T13:28:33.000Z</time>
      </trkpt>
      <trkpt lat="44.13333" lon="3.20221">
        <ele>741.4</ele>
        <time>2024-11-13T13:28:38.000Z</time>
      </trkpt>
      <trkpt lat="44.13341" lon="3.20229">
        <ele>741.3</ele>
        <time>2024-11-13T13:28:45.000Z</time>
      </trkpt>
      <trkpt lat="44.13344" lon="3.20241">
        <ele>740.4</ele>
        <time>2024-11-13T13:28:52.000Z</time>
      </trkpt>
      <trkpt lat="44.13343" lon="3.20254">
        <ele>739.2</ele>
        <time>2024-11-13T13:28:57.000Z</time>
      </trkpt>
      <trkpt lat="44.13337" lon="3.20264">
        <ele>738.7</ele>
        <time>2024-11-13T13:29:01.000Z</time>
      </trkpt>
      <trkpt lat="44.13328" lon="3.20274">
        <ele>737.8</ele>
        <time>2024-11-13T13:29:06.000Z</time>
      </trkpt>
      <trkpt lat="44.1332" lon="3.2028">
        <ele>736.5</ele>
        <time>2024-11-13T13:29:10.000Z</time>
      </trkpt>
      <trkpt lat="44.1331" lon="3.20284">
        <ele>734.6</ele>
        <time>2024-11-13T13:29:15.000Z</time>
      </trkpt>
      <trkpt lat="44.133" lon="3.20287">
        <ele>731.9</ele>
        <time>2024-11-13T13:29:20.000Z</time>
      </trkpt>
      <trkpt lat="44.13304" lon="3.203">
        <ele>736</ele>
        <time>2024-11-13T13:29:26.000Z</time>
      </trkpt>
      <trkpt lat="44.13304" lon="3.20315">
        <ele>737</ele>
        <time>2024-11-13T13:29:31.000Z</time>
      </trkpt>
      <trkpt lat="44.13294" lon="3.20319">
        <ele>733.9</ele>
        <time>2024-11-13T13:29:36.000Z</time>
      </trkpt>
      <trkpt lat="44.13282" lon="3.20317">
        <ele>730</ele>
        <time>2024-11-13T13:29:40.000Z</time>
      </trkpt>
      <trkpt lat="44.1327" lon="3.20317">
        <ele>727.6</ele>
        <time>2024-11-13T13:29:44.000Z</time>
      </trkpt>
      <trkpt lat="44.1326" lon="3.20318">
        <ele>726.4</ele>
        <time>2024-11-13T13:29:47.000Z</time>
      </trkpt>
      <trkpt lat="44.1325" lon="3.20317">
        <ele>724.8</ele>
        <time>2024-11-13T13:29:50.000Z</time>
      </trkpt>
      <trkpt lat="44.13241" lon="3.2031">
        <ele>726.8</ele>
        <time>2024-11-13T13:29:53.000Z</time>
      </trkpt>
      <trkpt lat="44.13234" lon="3.203">
        <ele>727.4</ele>
        <time>2024-11-13T13:29:56.000Z</time>
      </trkpt>
      <trkpt lat="44.13228" lon="3.2029">
        <ele>725.8</ele>
        <time>2024-11-13T13:29:59.000Z</time>
      </trkpt>
      <trkpt lat="44.13221" lon="3.20282">
        <ele>724</ele>
        <time>2024-11-13T13:30:04.000Z</time>
      </trkpt>
      <trkpt lat="44.13212" lon="3.2028">
        <ele>724.8</ele>
        <time>2024-11-13T13:30:09.000Z</time>
      </trkpt>
      <trkpt lat="44.13203" lon="3.20279">
        <ele>726.2</ele>
        <time>2024-11-13T13:30:13.000Z</time>
      </trkpt>
      <trkpt lat="44.13194" lon="3.2028">
        <ele>728.5</ele>
        <time>2024-11-13T13:30:18.000Z</time>
      </trkpt>
      <trkpt lat="44.13184" lon="3.20281">
        <ele>731.1</ele>
        <time>2024-11-13T13:30:25.000Z</time>
      </trkpt>
      <trkpt lat="44.13174" lon="3.20285">
        <ele>734.7</ele>
        <time>2024-11-13T13:30:33.000Z</time>
      </trkpt>
      <trkpt lat="44.13166" lon="3.20282">
        <ele>734.9</ele>
        <time>2024-11-13T13:30:38.000Z</time>
      </trkpt>
      <trkpt lat="44.13158" lon="3.20275">
        <ele>731.6</ele>
        <time>2024-11-13T13:30:42.000Z</time>
      </trkpt>
      <trkpt lat="44.13148" lon="3.20279">
        <ele>730.9</ele>
        <time>2024-11-13T13:30:49.000Z</time>
      </trkpt>
      <trkpt lat="44.13143" lon="3.2029">
        <ele>733.2</ele>
        <time>2024-11-13T13:30:55.000Z</time>
      </trkpt>
      <trkpt lat="44.13137" lon="3.20301">
        <ele>736.2</ele>
        <time>2024-11-13T13:31:03.000Z</time>
      </trkpt>
      <trkpt lat="44.13135" lon="3.20315">
        <ele>738.9</ele>
        <time>2024-11-13T13:31:10.000Z</time>
      </trkpt>
      <trkpt lat="44.13136" lon="3.2033">
        <ele>739.9</ele>
        <time>2024-11-13T13:31:16.000Z</time>
      </trkpt>
      <trkpt lat="44.13137" lon="3.20344">
        <ele>738.9</ele>
        <time>2024-11-13T13:31:21.000Z</time>
      </trkpt>
      <trkpt lat="44.13129" lon="3.20351">
        <ele>737.7</ele>
        <time>2024-11-13T13:31:28.000Z</time>
      </trkpt>
      <trkpt lat="44.13124" lon="3.20363">
        <ele>735.7</ele>
        <time>2024-11-13T13:31:35.000Z</time>
      </trkpt>
      <trkpt lat="44.13131" lon="3.20372">
        <ele>736.9</ele>
        <time>2024-11-13T13:31:43.000Z</time>
      </trkpt>
      <trkpt lat="44.13124" lon="3.20364">
        <ele>735.8</ele>
        <time>2024-11-13T13:32:51.000Z</time>
      </trkpt>
      <trkpt lat="44.13114" lon="3.20362">
        <ele>734.5</ele>
        <time>2024-11-13T13:32:56.000Z</time>
      </trkpt>
      <trkpt lat="44.13104" lon="3.20358">
        <ele>735.3</ele>
        <time>2024-11-13T13:33:00.000Z</time>
      </trkpt>
      <trkpt lat="44.13094" lon="3.2036">
        <ele>735.5</ele>
        <time>2024-11-13T13:33:05.000Z</time>
      </trkpt>
      <trkpt lat="44.13084" lon="3.20361">
        <ele>736</ele>
        <time>2024-11-13T13:33:10.000Z</time>
      </trkpt>
      <trkpt lat="44.13074" lon="3.20366">
        <ele>735.6</ele>
        <time>2024-11-13T13:33:14.000Z</time>
      </trkpt>
      <trkpt lat="44.13073" lon="3.20412">
        <ele>728.7</ele>
        <time>2024-11-13T13:33:45.000Z</time>
      </trkpt>
      <trkpt lat="44.13079" lon="3.20433">
        <ele>727.8</ele>
        <time>2024-11-13T13:33:50.000Z</time>
      </trkpt>
      <trkpt lat="44.13085" lon="3.20444">
        <ele>727.3</ele>
        <time>2024-11-13T13:33:55.000Z</time>
      </trkpt>
      <trkpt lat="44.13093" lon="3.20454">
        <ele>728.6</ele>
        <time>2024-11-13T13:34:02.000Z</time>
      </trkpt>
      <trkpt lat="44.13099" lon="3.20464">
        <ele>729.2</ele>
        <time>2024-11-13T13:34:06.000Z</time>
      </trkpt>
      <trkpt lat="44.13106" lon="3.20472">
        <ele>729.2</ele>
        <time>2024-11-13T13:34:10.000Z</time>
      </trkpt>
      <trkpt lat="44.13113" lon="3.20484">
        <ele>731.2</ele>
        <time>2024-11-13T13:34:14.000Z</time>
      </trkpt>
      <trkpt lat="44.1312" lon="3.20494">
        <ele>732.9</ele>
        <time>2024-11-13T13:34:18.000Z</time>
      </trkpt>
      <trkpt lat="44.13125" lon="3.20505">
        <ele>732.8</ele>
        <time>2024-11-13T13:34:24.000Z</time>
      </trkpt>
      <trkpt lat="44.13124" lon="3.20518">
        <ele>730.9</ele>
        <time>2024-11-13T13:34:30.000Z</time>
      </trkpt>
      <trkpt lat="44.13122" lon="3.2053">
        <ele>729.2</ele>
        <time>2024-11-13T13:34:35.000Z</time>
      </trkpt>
      <trkpt lat="44.1312" lon="3.20544">
        <ele>727.5</ele>
        <time>2024-11-13T13:34:38.000Z</time>
      </trkpt>
      <trkpt lat="44.13122" lon="3.20559">
        <ele>726.7</ele>
        <time>2024-11-13T13:34:45.000Z</time>
      </trkpt>
      <trkpt lat="44.13129" lon="3.20569">
        <ele>728.1</ele>
        <time>2024-11-13T13:34:51.000Z</time>
      </trkpt>
      <trkpt lat="44.1313" lon="3.20583">
        <ele>728.7</ele>
        <time>2024-11-13T13:34:57.000Z</time>
      </trkpt>
      <trkpt lat="44.13139" lon="3.20591">
        <ele>728.8</ele>
        <time>2024-11-13T13:35:04.000Z</time>
      </trkpt>
      <trkpt lat="44.13147" lon="3.20602">
        <ele>727.9</ele>
        <time>2024-11-13T13:35:08.000Z</time>
      </trkpt>
      <trkpt lat="44.13156" lon="3.20616">
        <ele>726.5</ele>
        <time>2024-11-13T13:35:11.000Z</time>
      </trkpt>
      <trkpt lat="44.13162" lon="3.20626">
        <ele>725.9</ele>
        <time>2024-11-13T13:35:13.000Z</time>
      </trkpt>
      <trkpt lat="44.13169" lon="3.20636">
        <ele>724.6</ele>
        <time>2024-11-13T13:35:15.000Z</time>
      </trkpt>
      <trkpt lat="44.13178" lon="3.20645">
        <ele>725.5</ele>
        <time>2024-11-13T13:35:18.000Z</time>
      </trkpt>
      <trkpt lat="44.13174" lon="3.20656">
        <ele>726.7</ele>
        <time>2024-11-13T13:35:26.000Z</time>
      </trkpt>
      <trkpt lat="44.13164" lon="3.20659">
        <ele>727.2</ele>
        <time>2024-11-13T13:35:31.000Z</time>
      </trkpt>
      <trkpt lat="44.13155" lon="3.20658">
        <ele>728.3</ele>
        <time>2024-11-13T13:35:35.000Z</time>
      </trkpt>
      <trkpt lat="44.13145" lon="3.20657">
        <ele>729.5</ele>
        <time>2024-11-13T13:35:41.000Z</time>
      </trkpt>
      <trkpt lat="44.13136" lon="3.20658">
        <ele>730.5</ele>
        <time>2024-11-13T13:35:47.000Z</time>
      </trkpt>
      <trkpt lat="44.13126" lon="3.20659">
        <ele>731.1</ele>
        <time>2024-11-13T13:35:53.000Z</time>
      </trkpt>
      <trkpt lat="44.13116" lon="3.20659">
        <ele>731.5</ele>
        <time>2024-11-13T13:36:00.000Z</time>
      </trkpt>
      <trkpt lat="44.13107" lon="3.20663">
        <ele>731</ele>
        <time>2024-11-13T13:36:03.000Z</time>
      </trkpt>
      <trkpt lat="44.13097" lon="3.20665">
        <ele>729</ele>
        <time>2024-11-13T13:36:05.000Z</time>
      </trkpt>
      <trkpt lat="44.13088" lon="3.20668">
        <ele>727.2</ele>
        <time>2024-11-13T13:36:07.000Z</time>
      </trkpt>
      <trkpt lat="44.13078" lon="3.20667">
        <ele>725.9</ele>
        <time>2024-11-13T13:36:09.000Z</time>
      </trkpt>
      <trkpt lat="44.13068" lon="3.20662">
        <ele>725.3</ele>
        <time>2024-11-13T13:36:11.000Z</time>
      </trkpt>
      <trkpt lat="44.1306" lon="3.20659">
        <ele>724.5</ele>
        <time>2024-11-13T13:36:13.000Z</time>
      </trkpt>
      <trkpt lat="44.1305" lon="3.20652">
        <ele>723.9</ele>
        <time>2024-11-13T13:36:16.000Z</time>
      </trkpt>
      <trkpt lat="44.13038" lon="3.20647">
        <ele>723.8</ele>
        <time>2024-11-13T13:36:20.000Z</time>
      </trkpt>
      <trkpt lat="44.13029" lon="3.20648">
        <ele>724.6</ele>
        <time>2024-11-13T13:36:23.000Z</time>
      </trkpt>
      <trkpt lat="44.13019" lon="3.20651">
        <ele>724.8</ele>
        <time>2024-11-13T13:36:27.000Z</time>
      </trkpt>
      <trkpt lat="44.13009" lon="3.20651">
        <ele>724</ele>
        <time>2024-11-13T13:36:31.000Z</time>
      </trkpt>
      <trkpt lat="44.13002" lon="3.20661">
        <ele>725.3</ele>
        <time>2024-11-13T13:36:38.000Z</time>
      </trkpt>
      <trkpt lat="44.12994" lon="3.20669">
        <ele>726.2</ele>
        <time>2024-11-13T13:36:47.000Z</time>
      </trkpt>
      <trkpt lat="44.12984" lon="3.20666">
        <ele>724.7</ele>
        <time>2024-11-13T13:37:02.000Z</time>
      </trkpt>
      <trkpt lat="44.12975" lon="3.2067">
        <ele>725.1</ele>
        <time>2024-11-13T13:37:08.000Z</time>
      </trkpt>
      <trkpt lat="44.12965" lon="3.20673">
        <ele>727.5</ele>
        <time>2024-11-13T13:37:14.000Z</time>
      </trkpt>
      <trkpt lat="44.12964" lon="3.20685">
        <ele>730.2</ele>
        <time>2024-11-13T13:37:29.000Z</time>
      </trkpt>
      <trkpt lat="44.12961" lon="3.20697">
        <ele>732.4</ele>
        <time>2024-11-13T13:37:39.000Z</time>
      </trkpt>
      <trkpt lat="44.12954" lon="3.20706">
        <ele>733.1</ele>
        <time>2024-11-13T13:37:49.000Z</time>
      </trkpt>
      <trkpt lat="44.12943" lon="3.20708">
        <ele>732.1</ele>
        <time>2024-11-13T13:37:53.000Z</time>
      </trkpt>
      <trkpt lat="44.12932" lon="3.20711">
        <ele>729.8</ele>
        <time>2024-11-13T13:37:57.000Z</time>
      </trkpt>
      <trkpt lat="44.12928" lon="3.20725">
        <ele>729.8</ele>
        <time>2024-11-13T13:38:01.000Z</time>
      </trkpt>
      <trkpt lat="44.12918" lon="3.20726">
        <ele>728.5</ele>
        <time>2024-11-13T13:38:04.000Z</time>
      </trkpt>
      <trkpt lat="44.12906" lon="3.20728">
        <ele>727.2</ele>
        <time>2024-11-13T13:38:07.000Z</time>
      </trkpt>
      <trkpt lat="44.12897" lon="3.20731">
        <ele>726.5</ele>
        <time>2024-11-13T13:38:10.000Z</time>
      </trkpt>
      <trkpt lat="44.12888" lon="3.20728">
        <ele>724.4</ele>
        <time>2024-11-13T13:38:15.000Z</time>
      </trkpt>
      <trkpt lat="44.12878" lon="3.20723">
        <ele>720.9</ele>
        <time>2024-11-13T13:38:20.000Z</time>
      </trkpt>
      <trkpt lat="44.1287" lon="3.20729">
        <ele>719.8</ele>
        <time>2024-11-13T13:38:26.000Z</time>
      </trkpt>
      <trkpt lat="44.12866" lon="3.20717">
        <ele>717.1</ele>
        <time>2024-11-13T13:38:32.000Z</time>
      </trkpt>
      <trkpt lat="44.12865" lon="3.20703">
        <ele>715.6</ele>
        <time>2024-11-13T13:38:37.000Z</time>
      </trkpt>
      <trkpt lat="44.12864" lon="3.2069">
        <ele>713.8</ele>
        <time>2024-11-13T13:38:42.000Z</time>
      </trkpt>
      <trkpt lat="44.12861" lon="3.20678">
        <ele>711.2</ele>
        <time>2024-11-13T13:39:33.000Z</time>
      </trkpt>
      <trkpt lat="44.12855" lon="3.20665">
        <ele>707.9</ele>
        <time>2024-11-13T13:39:37.000Z</time>
      </trkpt>
      <trkpt lat="44.12847" lon="3.20656">
        <ele>705.8</ele>
        <time>2024-11-13T13:39:41.000Z</time>
      </trkpt>
      <trkpt lat="44.12841" lon="3.20645">
        <ele>705</ele>
        <time>2024-11-13T13:42:03.000Z</time>
      </trkpt>
      <trkpt lat="44.12843" lon="3.20632">
        <ele>706.7</ele>
        <time>2024-11-13T13:42:10.000Z</time>
      </trkpt>
      <trkpt lat="44.12844" lon="3.20618">
        <ele>708.5</ele>
        <time>2024-11-13T13:42:18.000Z</time>
      </trkpt>
      <trkpt lat="44.12849" lon="3.20607">
        <ele>709.9</ele>
        <time>2024-11-13T13:42:27.000Z</time>
      </trkpt>
      <trkpt lat="44.12856" lon="3.20598">
        <ele>709.9</ele>
        <time>2024-11-13T13:42:40.000Z</time>
      </trkpt>
      <trkpt lat="44.12864" lon="3.20592">
        <ele>709.5</ele>
        <time>2024-11-13T13:42:48.000Z</time>
      </trkpt>
      <trkpt lat="44.12873" lon="3.20585">
        <ele>709.1</ele>
        <time>2024-11-13T13:42:56.000Z</time>
      </trkpt>
      <trkpt lat="44.12882" lon="3.20584">
        <ele>709</ele>
        <time>2024-11-13T13:43:03.000Z</time>
      </trkpt>
      <trkpt lat="44.12891" lon="3.20581">
        <ele>709.4</ele>
        <time>2024-11-13T13:43:09.000Z</time>
      </trkpt>
      <trkpt lat="44.12901" lon="3.20581">
        <ele>709.6</ele>
        <time>2024-11-13T13:43:15.000Z</time>
      </trkpt>
      <trkpt lat="44.1291" lon="3.20578">
        <ele>709.9</ele>
        <time>2024-11-13T13:43:21.000Z</time>
      </trkpt>
      <trkpt lat="44.1292" lon="3.20574">
        <ele>710.1</ele>
        <time>2024-11-13T13:43:27.000Z</time>
      </trkpt>
      <trkpt lat="44.12929" lon="3.20574">
        <ele>710.3</ele>
        <time>2024-11-13T13:43:36.000Z</time>
      </trkpt>
      <trkpt lat="44.12929" lon="3.20574">
        <ele>710.3</ele>
        <time>2024-11-13T13:45:03.000Z</time>
      </trkpt>
      <trkpt lat="44.12939" lon="3.20575">
        <ele>710.5</ele>
        <time>2024-11-13T13:45:08.000Z</time>
      </trkpt>
      <trkpt lat="44.12948" lon="3.20574">
        <ele>710.9</ele>
        <time>2024-11-13T13:45:13.000Z</time>
      </trkpt>
      <trkpt lat="44.12958" lon="3.20576">
        <ele>711.2</ele>
        <time>2024-11-13T13:45:18.000Z</time>
      </trkpt>
      <trkpt lat="44.12967" lon="3.20572">
        <ele>711.8</ele>
        <time>2024-11-13T13:45:23.000Z</time>
      </trkpt>
      <trkpt lat="44.12974" lon="3.20563">
        <ele>712.1</ele>
        <time>2024-11-13T13:45:28.000Z</time>
      </trkpt>
      <trkpt lat="44.12979" lon="3.20551">
        <ele>712.6</ele>
        <time>2024-11-13T13:45:33.000Z</time>
      </trkpt>
      <trkpt lat="44.12984" lon="3.20539">
        <ele>713.5</ele>
        <time>2024-11-13T13:45:38.000Z</time>
      </trkpt>
      <trkpt lat="44.12986" lon="3.20526">
        <ele>714.1</ele>
        <time>2024-11-13T13:45:43.000Z</time>
      </trkpt>
      <trkpt lat="44.12982" lon="3.20513">
        <ele>714.7</ele>
        <time>2024-11-13T13:45:50.000Z</time>
      </trkpt>
      <trkpt lat="44.12976" lon="3.20502">
        <ele>715</ele>
        <time>2024-11-13T13:45:57.000Z</time>
      </trkpt>
      <trkpt lat="44.12974" lon="3.20489">
        <ele>716.6</ele>
        <time>2024-11-13T13:46:05.000Z</time>
      </trkpt>
      <trkpt lat="44.12971" lon="3.20476">
        <ele>718.7</ele>
        <time>2024-11-13T13:46:13.000Z</time>
      </trkpt>
      <trkpt lat="44.1297" lon="3.20462">
        <ele>720.8</ele>
        <time>2024-11-13T13:46:22.000Z</time>
      </trkpt>
      <trkpt lat="44.12971" lon="3.20449">
        <ele>721.9</ele>
        <time>2024-11-13T13:46:31.000Z</time>
      </trkpt>
      <trkpt lat="44.12975" lon="3.20437">
        <ele>723.4</ele>
        <time>2024-11-13T13:46:40.000Z</time>
      </trkpt>
      <trkpt lat="44.12978" lon="3.20425">
        <ele>725.4</ele>
        <time>2024-11-13T13:46:50.000Z</time>
      </trkpt>
      <trkpt lat="44.12979" lon="3.20412">
        <ele>727.6</ele>
        <time>2024-11-13T13:47:02.000Z</time>
      </trkpt>
      <trkpt lat="44.12986" lon="3.20402">
        <ele>727.9</ele>
        <time>2024-11-13T13:47:11.000Z</time>
      </trkpt>
      <trkpt lat="44.12995" lon="3.20399">
        <ele>727</ele>
        <time>2024-11-13T13:47:17.000Z</time>
      </trkpt>
      <trkpt lat="44.13004" lon="3.20393">
        <ele>727.4</ele>
        <time>2024-11-13T13:47:21.000Z</time>
      </trkpt>
      <trkpt lat="44.13015" lon="3.20393">
        <ele>727.7</ele>
        <time>2024-11-13T13:47:26.000Z</time>
      </trkpt>
      <trkpt lat="44.13024" lon="3.20391">
        <ele>728.5</ele>
        <time>2024-11-13T13:47:32.000Z</time>
      </trkpt>
      <trkpt lat="44.13034" lon="3.2039">
        <ele>728.6</ele>
        <time>2024-11-13T13:47:37.000Z</time>
      </trkpt>
      <trkpt lat="44.13043" lon="3.20391">
        <ele>728.2</ele>
        <time>2024-11-13T13:47:41.000Z</time>
      </trkpt>
      <trkpt lat="44.13052" lon="3.2039">
        <ele>728</ele>
        <time>2024-11-13T13:47:47.000Z</time>
      </trkpt>
      <trkpt lat="44.13061" lon="3.20388">
        <ele>729.6</ele>
        <time>2024-11-13T13:47:54.000Z</time>
      </trkpt>
      <trkpt lat="44.13069" lon="3.20395">
        <ele>730.2</ele>
        <time>2024-11-13T13:48:01.000Z</time>
      </trkpt>
      <trkpt lat="44.1307" lon="3.2041">
        <ele>728.5</ele>
        <time>2024-11-13T13:48:07.000Z</time>
      </trkpt>
      <trkpt lat="44.13076" lon="3.20421">
        <ele>728.5</ele>
        <time>2024-11-13T13:48:25.000Z</time>
      </trkpt>
      <trkpt lat="44.13085" lon="3.20431">
        <ele>728.8</ele>
        <time>2024-11-13T13:48:30.000Z</time>
      </trkpt>
      <trkpt lat="44.13093" lon="3.20443">
        <ele>728.2</ele>
        <time>2024-11-13T13:48:34.000Z</time>
      </trkpt>
      <trkpt lat="44.13096" lon="3.20455">
        <ele>728.8</ele>
        <time>2024-11-13T13:48:37.000Z</time>
      </trkpt>
      <trkpt lat="44.13103" lon="3.20468">
        <ele>729.3</ele>
        <time>2024-11-13T13:48:41.000Z</time>
      </trkpt>
      <trkpt lat="44.13111" lon="3.2048">
        <ele>730.4</ele>
        <time>2024-11-13T13:48:45.000Z</time>
      </trkpt>
      <trkpt lat="44.13118" lon="3.2049">
        <ele>732.3</ele>
        <time>2024-11-13T13:48:49.000Z</time>
      </trkpt>
      <trkpt lat="44.1312" lon="3.20503">
        <ele>733.2</ele>
        <time>2024-11-13T13:48:55.000Z</time>
      </trkpt>
      <trkpt lat="44.13119" lon="3.20516">
        <ele>731.2</ele>
        <time>2024-11-13T13:49:01.000Z</time>
      </trkpt>
      <trkpt lat="44.13117" lon="3.2053">
        <ele>728.9</ele>
        <time>2024-11-13T13:49:06.000Z</time>
      </trkpt>
      <trkpt lat="44.1312" lon="3.20544">
        <ele>727.5</ele>
        <time>2024-11-13T13:49:09.000Z</time>
      </trkpt>
      <trkpt lat="44.13125" lon="3.20557">
        <ele>727.1</ele>
        <time>2024-11-13T13:49:14.000Z</time>
      </trkpt>
      <trkpt lat="44.13127" lon="3.20571">
        <ele>727.9</ele>
        <time>2024-11-13T13:49:20.000Z</time>
      </trkpt>
      <trkpt lat="44.13132" lon="3.20582">
        <ele>728.9</ele>
        <time>2024-11-13T13:49:26.000Z</time>
      </trkpt>
      <trkpt lat="44.13141" lon="3.2059">
        <ele>729.2</ele>
        <time>2024-11-13T13:49:32.000Z</time>
      </trkpt>
      <trkpt lat="44.13148" lon="3.20601">
        <ele>728.4</ele>
        <time>2024-11-13T13:49:35.000Z</time>
      </trkpt>
      <trkpt lat="44.13157" lon="3.20614">
        <ele>726.7</ele>
        <time>2024-11-13T13:49:38.000Z</time>
      </trkpt>
      <trkpt lat="44.13162" lon="3.20626">
        <ele>725.9</ele>
        <time>2024-11-13T13:49:40.000Z</time>
      </trkpt>
      <trkpt lat="44.13172" lon="3.20637">
        <ele>724.7</ele>
        <time>2024-11-13T13:49:43.000Z</time>
      </trkpt>
      <trkpt lat="44.13181" lon="3.20642">
        <ele>725.4</ele>
        <time>2024-11-13T13:49:47.000Z</time>
      </trkpt>
      <trkpt lat="44.13173" lon="3.20651">
        <ele>726</ele>
        <time>2024-11-13T13:50:08.000Z</time>
      </trkpt>
      <trkpt lat="44.13162" lon="3.20654">
        <ele>726.7</ele>
        <time>2024-11-13T13:50:13.000Z</time>
      </trkpt>
      <trkpt lat="44.13153" lon="3.20653">
        <ele>727.8</ele>
        <time>2024-11-13T13:50:18.000Z</time>
      </trkpt>
      <trkpt lat="44.13143" lon="3.20652">
        <ele>728.8</ele>
        <time>2024-11-13T13:50:25.000Z</time>
      </trkpt>
      <trkpt lat="44.13133" lon="3.20654">
        <ele>730.1</ele>
        <time>2024-11-13T13:50:33.000Z</time>
      </trkpt>
      <trkpt lat="44.13123" lon="3.20653">
        <ele>730.7</ele>
        <time>2024-11-13T13:50:40.000Z</time>
      </trkpt>
      <trkpt lat="44.13114" lon="3.20655">
        <ele>731.4</ele>
        <time>2024-11-13T13:51:13.000Z</time>
      </trkpt>
      <trkpt lat="44.13102" lon="3.20656">
        <ele>729.9</ele>
        <time>2024-11-13T13:51:18.000Z</time>
      </trkpt>
      <trkpt lat="44.13093" lon="3.20658">
        <ele>728.1</ele>
        <time>2024-11-13T13:51:21.000Z</time>
      </trkpt>
      <trkpt lat="44.13081" lon="3.20661">
        <ele>726.1</ele>
        <time>2024-11-13T13:51:25.000Z</time>
      </trkpt>
      <trkpt lat="44.13071" lon="3.20659">
        <ele>725.3</ele>
        <time>2024-11-13T13:51:29.000Z</time>
      </trkpt>
      <trkpt lat="44.13061" lon="3.20655">
        <ele>724.2</ele>
        <time>2024-11-13T13:51:34.000Z</time>
      </trkpt>
      <trkpt lat="44.1305" lon="3.20647">
        <ele>723.2</ele>
        <time>2024-11-13T13:51:40.000Z</time>
      </trkpt>
      <trkpt lat="44.1304" lon="3.20641">
        <ele>722.5</ele>
        <time>2024-11-13T13:51:44.000Z</time>
      </trkpt>
      <trkpt lat="44.13029" lon="3.20642">
        <ele>722.8</ele>
        <time>2024-11-13T13:51:48.000Z</time>
      </trkpt>
      <trkpt lat="44.1302" lon="3.20647">
        <ele>723.7</ele>
        <time>2024-11-13T13:51:53.000Z</time>
      </trkpt>
      <trkpt lat="44.1301" lon="3.20647">
        <ele>723.2</ele>
        <time>2024-11-13T13:51:58.000Z</time>
      </trkpt>
      <trkpt lat="44.12999" lon="3.20649">
        <ele>722.8</ele>
        <time>2024-11-13T13:52:16.000Z</time>
      </trkpt>
      <trkpt lat="44.12997" lon="3.20633">
        <ele>720.2</ele>
        <time>2024-11-13T13:52:22.000Z</time>
      </trkpt>
      <trkpt lat="44.12992" lon="3.20618">
        <ele>717.6</ele>
        <time>2024-11-13T13:52:26.000Z</time>
      </trkpt>
      <trkpt lat="44.12984" lon="3.20609">
        <ele>715.5</ele>
        <time>2024-11-13T13:52:29.000Z</time>
      </trkpt>
      <trkpt lat="44.12975" lon="3.20605">
        <ele>714.5</ele>
        <time>2024-11-13T13:52:32.000Z</time>
      </trkpt>
      <trkpt lat="44.12964" lon="3.20602">
        <ele>714</ele>
        <time>2024-11-13T13:52:36.000Z</time>
      </trkpt>
      <trkpt lat="44.12959" lon="3.20592">
        <ele>712.3</ele>
        <time>2024-11-13T13:52:48.000Z</time>
      </trkpt>
      <trkpt lat="44.12957" lon="3.20579">
        <ele>711.1</ele>
        <time>2024-11-13T13:52:55.000Z</time>
      </trkpt>
      <trkpt lat="44.12948" lon="3.20573">
        <ele>710.9</ele>
        <time>2024-11-13T13:53:04.000Z</time>
      </trkpt>
      <trkpt lat="44.12937" lon="3.20573">
        <ele>710.6</ele>
        <time>2024-11-13T13:53:09.000Z</time>
      </trkpt>
      <trkpt lat="44.12929" lon="3.20579">
        <ele>710.1</ele>
        <time>2024-11-13T13:53:13.000Z</time>
      </trkpt>
      <trkpt lat="44.12926" lon="3.20592">
        <ele>711.5</ele>
        <time>2024-11-13T13:53:18.000Z</time>
      </trkpt>
      <trkpt lat="44.1292" lon="3.20604">
        <ele>713.2</ele>
        <time>2024-11-13T13:53:24.000Z</time>
      </trkpt>
      <trkpt lat="44.12911" lon="3.2061">
        <ele>714.2</ele>
        <time>2024-11-13T13:53:32.000Z</time>
      </trkpt>
      <trkpt lat="44.12917" lon="3.20619">
        <ele>716.6</ele>
        <time>2024-11-13T13:53:46.000Z</time>
      </trkpt>
      <trkpt lat="44.12928" lon="3.20624">
        <ele>718.4</ele>
        <time>2024-11-13T13:54:11.000Z</time>
      </trkpt>
      <trkpt lat="44.12934" lon="3.20633">
        <ele>720.9</ele>
        <time>2024-11-13T13:54:27.000Z</time>
      </trkpt>
      <trkpt lat="44.12943" lon="3.20631">
        <ele>720.2</ele>
        <time>2024-11-13T13:54:39.000Z</time>
      </trkpt>
      <trkpt lat="44.12949" lon="3.20642">
        <ele>723</ele>
        <time>2024-11-13T13:55:02.000Z</time>
      </trkpt>
      <trkpt lat="44.12959" lon="3.20649">
        <ele>724</ele>
        <time>2024-11-13T13:55:06.000Z</time>
      </trkpt>
      <trkpt lat="44.12968" lon="3.20653">
        <ele>723.2</ele>
        <time>2024-11-13T13:55:11.000Z</time>
      </trkpt>
      <trkpt lat="44.12976" lon="3.2066">
        <ele>723.4</ele>
        <time>2024-11-13T13:55:21.000Z</time>
      </trkpt>
      <trkpt lat="44.1297" lon="3.2067">
        <ele>725.6</ele>
        <time>2024-11-13T13:55:33.000Z</time>
      </trkpt>
      <trkpt lat="44.12961" lon="3.2067">
        <ele>728.1</ele>
        <time>2024-11-13T13:55:43.000Z</time>
      </trkpt>
      <trkpt lat="44.1296" lon="3.20682">
        <ele>730.2</ele>
        <time>2024-11-13T13:56:11.000Z</time>
      </trkpt>
      <trkpt lat="44.12959" lon="3.20695">
        <ele>732</ele>
        <time>2024-11-13T13:56:26.000Z</time>
      </trkpt>
      <trkpt lat="44.12953" lon="3.20704">
        <ele>732.9</ele>
        <time>2024-11-13T13:56:46.000Z</time>
      </trkpt>
      <trkpt lat="44.12943" lon="3.20706">
        <ele>732.1</ele>
        <time>2024-11-13T13:56:58.000Z</time>
      </trkpt>
      <trkpt lat="44.12933" lon="3.20706">
        <ele>729.9</ele>
        <time>2024-11-13T13:57:08.000Z</time>
      </trkpt>
      <trkpt lat="44.12927" lon="3.20716">
        <ele>729</ele>
        <time>2024-11-13T13:57:19.000Z</time>
      </trkpt>
      <trkpt lat="44.12933" lon="3.20725">
        <ele>730.8</ele>
        <time>2024-11-13T13:57:33.000Z</time>
      </trkpt>
      <trkpt lat="44.12937" lon="3.20737">
        <ele>732.5</ele>
        <time>2024-11-13T13:57:51.000Z</time>
      </trkpt>
      <trkpt lat="44.12934" lon="3.20751">
        <ele>733.8</ele>
        <time>2024-11-13T13:58:03.000Z</time>
      </trkpt>
      <trkpt lat="44.1293" lon="3.20763">
        <ele>734.9</ele>
        <time>2024-11-13T13:58:10.000Z</time>
      </trkpt>
      <trkpt lat="44.12927" lon="3.20775">
        <ele>736.1</ele>
        <time>2024-11-13T13:58:17.000Z</time>
      </trkpt>
      <trkpt lat="44.12926" lon="3.20788">
        <ele>735.5</ele>
        <time>2024-11-13T13:58:24.000Z</time>
      </trkpt>
      <trkpt lat="44.1292" lon="3.20798">
        <ele>734.7</ele>
        <time>2024-11-13T13:58:30.000Z</time>
      </trkpt>
      <trkpt lat="44.12915" lon="3.2081">
        <ele>733.7</ele>
        <time>2024-11-13T13:58:35.000Z</time>
      </trkpt>
      <trkpt lat="44.12912" lon="3.20824">
        <ele>732.9</ele>
        <time>2024-11-13T13:58:40.000Z</time>
      </trkpt>
      <trkpt lat="44.12906" lon="3.20836">
        <ele>732.4</ele>
        <time>2024-11-13T13:58:44.000Z</time>
      </trkpt>
      <trkpt lat="44.12915" lon="3.20845">
        <ele>730.2</ele>
        <time>2024-11-13T13:58:54.000Z</time>
      </trkpt>
      <trkpt lat="44.12924" lon="3.20844">
        <ele>728</ele>
        <time>2024-11-13T13:58:57.000Z</time>
      </trkpt>
      <trkpt lat="44.12933" lon="3.2084">
        <ele>726.8</ele>
        <time>2024-11-13T13:59:00.000Z</time>
      </trkpt>
      <trkpt lat="44.12942" lon="3.20833">
        <ele>726.5</ele>
        <time>2024-11-13T13:59:04.000Z</time>
      </trkpt>
      <trkpt lat="44.12952" lon="3.20829">
        <ele>726</ele>
        <time>2024-11-13T13:59:07.000Z</time>
      </trkpt>
      <trkpt lat="44.12961" lon="3.20824">
        <ele>725.7</ele>
        <time>2024-11-13T13:59:10.000Z</time>
      </trkpt>
      <trkpt lat="44.1297" lon="3.20831">
        <ele>722.2</ele>
        <time>2024-11-13T14:00:00.000Z</time>
      </trkpt>
      <trkpt lat="44.12975" lon="3.20841">
        <ele>720</ele>
        <time>2024-11-13T14:00:04.000Z</time>
      </trkpt>
      <trkpt lat="44.12971" lon="3.20853">
        <ele>717</ele>
        <time>2024-11-13T14:00:12.000Z</time>
      </trkpt>
      <trkpt lat="44.12964" lon="3.20865">
        <ele>714.9</ele>
        <time>2024-11-13T14:00:16.000Z</time>
      </trkpt>
      <trkpt lat="44.12965" lon="3.2088">
        <ele>712</ele>
        <time>2024-11-13T14:00:21.000Z</time>
      </trkpt>
      <trkpt lat="44.12967" lon="3.20897">
        <ele>710.3</ele>
        <time>2024-11-13T14:00:25.000Z</time>
      </trkpt>
      <trkpt lat="44.12966" lon="3.20914">
        <ele>708.7</ele>
        <time>2024-11-13T14:00:29.000Z</time>
      </trkpt>
      <trkpt lat="44.12967" lon="3.20927">
        <ele>707</ele>
        <time>2024-11-13T14:00:34.000Z</time>
      </trkpt>
      <trkpt lat="44.12965" lon="3.20944">
        <ele>703.4</ele>
        <time>2024-11-13T14:00:38.000Z</time>
      </trkpt>
      <trkpt lat="44.12965" lon="3.20957">
        <ele>700.3</ele>
        <time>2024-11-13T14:00:41.000Z</time>
      </trkpt>
      <trkpt lat="44.12968" lon="3.20972">
        <ele>699.4</ele>
        <time>2024-11-13T14:00:44.000Z</time>
      </trkpt>
      <trkpt lat="44.12969" lon="3.20988">
        <ele>700</ele>
        <time>2024-11-13T14:00:47.000Z</time>
      </trkpt>
      <trkpt lat="44.12966" lon="3.21001">
        <ele>697.6</ele>
        <time>2024-11-13T14:00:50.000Z</time>
      </trkpt>
      <trkpt lat="44.12963" lon="3.21016">
        <ele>695.2</ele>
        <time>2024-11-13T14:00:53.000Z</time>
      </trkpt>
      <trkpt lat="44.1296" lon="3.21029">
        <ele>692.1</ele>
        <time>2024-11-13T14:00:57.000Z</time>
      </trkpt>
      <trkpt lat="44.12957" lon="3.21044">
        <ele>687.4</ele>
        <time>2024-11-13T14:01:03.000Z</time>
      </trkpt>
      <trkpt lat="44.12956" lon="3.21058">
        <ele>684.4</ele>
        <time>2024-11-13T14:01:08.000Z</time>
      </trkpt>
      <trkpt lat="44.12965" lon="3.21069">
        <ele>682.9</ele>
        <time>2024-11-13T14:01:12.000Z</time>
      </trkpt>
      <trkpt lat="44.12973" lon="3.21078">
        <ele>681.8</ele>
        <time>2024-11-13T14:01:15.000Z</time>
      </trkpt>
      <trkpt lat="44.12982" lon="3.21087">
        <ele>680.6</ele>
        <time>2024-11-13T14:01:19.000Z</time>
      </trkpt>
      <trkpt lat="44.12989" lon="3.21098">
        <ele>678.3</ele>
        <time>2024-11-13T14:01:25.000Z</time>
      </trkpt>
      <trkpt lat="44.12979" lon="3.21099">
        <ele>676.2</ele>
        <time>2024-11-13T14:01:48.000Z</time>
      </trkpt>
      <trkpt lat="44.12965" lon="3.21096">
        <ele>674.8</ele>
        <time>2024-11-13T14:01:51.000Z</time>
      </trkpt>
      <trkpt lat="44.12955" lon="3.21094">
        <ele>673.6</ele>
        <time>2024-11-13T14:01:53.000Z</time>
      </trkpt>
      <trkpt lat="44.12946" lon="3.21091">
        <ele>672.9</ele>
        <time>2024-11-13T14:01:55.000Z</time>
      </trkpt>
      <trkpt lat="44.12938" lon="3.21083">
        <ele>671.6</ele>
        <time>2024-11-13T14:01:59.000Z</time>
      </trkpt>
      <trkpt lat="44.12933" lon="3.21072">
        <ele>670.8</ele>
        <time>2024-11-13T14:02:02.000Z</time>
      </trkpt>
      <trkpt lat="44.12925" lon="3.21063">
        <ele>667.6</ele>
        <time>2024-11-13T14:02:06.000Z</time>
      </trkpt>
      <trkpt lat="44.12919" lon="3.21053">
        <ele>665.1</ele>
        <time>2024-11-13T14:02:10.000Z</time>
      </trkpt>
      <trkpt lat="44.12916" lon="3.21066">
        <ele>661.8</ele>
        <time>2024-11-13T14:03:01.000Z</time>
      </trkpt>
      <trkpt lat="44.12916" lon="3.21079">
        <ele>659.7</ele>
        <time>2024-11-13T14:03:06.000Z</time>
      </trkpt>
      <trkpt lat="44.12906" lon="3.21083">
        <ele>658.8</ele>
        <time>2024-11-13T14:03:20.000Z</time>
      </trkpt>
      <trkpt lat="44.12902" lon="3.21095">
        <ele>655.9</ele>
        <time>2024-11-13T14:03:41.000Z</time>
      </trkpt>
      <trkpt lat="44.12896" lon="3.21106">
        <ele>650.9</ele>
        <time>2024-11-13T14:03:48.000Z</time>
      </trkpt>
      <trkpt lat="44.12888" lon="3.21113">
        <ele>645.8</ele>
        <time>2024-11-13T14:03:51.000Z</time>
      </trkpt>
      <trkpt lat="44.12878" lon="3.21122">
        <ele>643.2</ele>
        <time>2024-11-13T14:03:54.000Z</time>
      </trkpt>
      <trkpt lat="44.12869" lon="3.21124">
        <ele>640.9</ele>
        <time>2024-11-13T14:03:58.000Z</time>
      </trkpt>
      <trkpt lat="44.12856" lon="3.21125">
        <ele>637.2</ele>
        <time>2024-11-13T14:04:02.000Z</time>
      </trkpt>
      <trkpt lat="44.12846" lon="3.21123">
        <ele>633.8</ele>
        <time>2024-11-13T14:04:07.000Z</time>
      </trkpt>
      <trkpt lat="44.12836" lon="3.21114">
        <ele>633.6</ele>
        <time>2024-11-13T14:04:12.000Z</time>
      </trkpt>
      <trkpt lat="44.12826" lon="3.21113">
        <ele>630.5</ele>
        <time>2024-11-13T14:04:17.000Z</time>
      </trkpt>
      <trkpt lat="44.12826" lon="3.21129">
        <ele>623.6</ele>
        <time>2024-11-13T14:04:24.000Z</time>
      </trkpt>
      <trkpt lat="44.12818" lon="3.21136">
        <ele>617</ele>
        <time>2024-11-13T14:04:32.000Z</time>
      </trkpt>
      <trkpt lat="44.12808" lon="3.21132">
        <ele>615.5</ele>
        <time>2024-11-13T14:04:35.000Z</time>
      </trkpt>
      <trkpt lat="44.12798" lon="3.21136">
        <ele>611.9</ele>
        <time>2024-11-13T14:04:38.000Z</time>
      </trkpt>
      <trkpt lat="44.12788" lon="3.21138">
        <ele>610.9</ele>
        <time>2024-11-13T14:04:41.000Z</time>
      </trkpt>
      <trkpt lat="44.12778" lon="3.21139">
        <ele>610.2</ele>
        <time>2024-11-13T14:04:44.000Z</time>
      </trkpt>
      <trkpt lat="44.12787" lon="3.21147">
        <ele>607.5</ele>
        <time>2024-11-13T14:04:54.000Z</time>
      </trkpt>
      <trkpt lat="44.12779" lon="3.21158">
        <ele>601.4</ele>
        <time>2024-11-13T14:05:09.000Z</time>
      </trkpt>
      <trkpt lat="44.12771" lon="3.21166">
        <ele>597.5</ele>
        <time>2024-11-13T14:05:12.000Z</time>
      </trkpt>
      <trkpt lat="44.1276" lon="3.21167">
        <ele>596.9</ele>
        <time>2024-11-13T14:05:15.000Z</time>
      </trkpt>
      <trkpt lat="44.12749" lon="3.21164">
        <ele>598.3</ele>
        <time>2024-11-13T14:05:18.000Z</time>
      </trkpt>
      <trkpt lat="44.1274" lon="3.21168">
        <ele>594.9</ele>
        <time>2024-11-13T14:05:21.000Z</time>
      </trkpt>
      <trkpt lat="44.12731" lon="3.21167">
        <ele>593.4</ele>
        <time>2024-11-13T14:05:24.000Z</time>
      </trkpt>
      <trkpt lat="44.12719" lon="3.21167">
        <ele>591.3</ele>
        <time>2024-11-13T14:05:27.000Z</time>
      </trkpt>
      <trkpt lat="44.12707" lon="3.21166">
        <ele>588.8</ele>
        <time>2024-11-13T14:05:30.000Z</time>
      </trkpt>
      <trkpt lat="44.12698" lon="3.21161">
        <ele>589.4</ele>
        <time>2024-11-13T14:05:33.000Z</time>
      </trkpt>
      <trkpt lat="44.12688" lon="3.21158">
        <ele>588.7</ele>
        <time>2024-11-13T14:05:45.000Z</time>
      </trkpt>
      <trkpt lat="44.12676" lon="3.21155">
        <ele>586.8</ele>
        <time>2024-11-13T14:05:49.000Z</time>
      </trkpt>
      <trkpt lat="44.12664" lon="3.2115">
        <ele>585.6</ele>
        <time>2024-11-13T14:05:52.000Z</time>
      </trkpt>
      <trkpt lat="44.12656" lon="3.21143">
        <ele>586</ele>
        <time>2024-11-13T14:05:55.000Z</time>
      </trkpt>
      <trkpt lat="44.12663" lon="3.21154">
        <ele>583.2</ele>
        <time>2024-11-13T14:06:03.000Z</time>
      </trkpt>
      <trkpt lat="44.12671" lon="3.21165">
        <ele>581.1</ele>
        <time>2024-11-13T14:06:07.000Z</time>
      </trkpt>
      <trkpt lat="44.12679" lon="3.21175">
        <ele>578.5</ele>
        <time>2024-11-13T14:06:10.000Z</time>
      </trkpt>
      <trkpt lat="44.12687" lon="3.21184">
        <ele>577</ele>
        <time>2024-11-13T14:06:13.000Z</time>
      </trkpt>
      <trkpt lat="44.12693" lon="3.21194">
        <ele>574.8</ele>
        <time>2024-11-13T14:06:16.000Z</time>
      </trkpt>
      <trkpt lat="44.12699" lon="3.21203">
        <ele>574</ele>
        <time>2024-11-13T14:06:18.000Z</time>
      </trkpt>
      <trkpt lat="44.12707" lon="3.21212">
        <ele>574.1</ele>
        <time>2024-11-13T14:06:20.000Z</time>
      </trkpt>
      <trkpt lat="44.12706" lon="3.21225">
        <ele>572.6</ele>
        <time>2024-11-13T14:06:26.000Z</time>
      </trkpt>
      <trkpt lat="44.12695" lon="3.21226">
        <ele>568.6</ele>
        <time>2024-11-13T14:06:30.000Z</time>
      </trkpt>
      <trkpt lat="44.12686" lon="3.2123">
        <ele>566.5</ele>
        <time>2024-11-13T14:06:34.000Z</time>
      </trkpt>
      <trkpt lat="44.12695" lon="3.21224">
        <ele>568.5</ele>
        <time>2024-11-13T14:14:14.000Z</time>
      </trkpt>
      <trkpt lat="44.12689" lon="3.21233">
        <ele>568.1</ele>
        <time>2024-11-13T14:14:17.000Z</time>
      </trkpt>
      <trkpt lat="44.12679" lon="3.21241">
        <ele>566.4</ele>
        <time>2024-11-13T14:14:20.000Z</time>
      </trkpt>
      <trkpt lat="44.12668" lon="3.21247">
        <ele>563.7</ele>
        <time>2024-11-13T14:14:23.000Z</time>
      </trkpt>
      <trkpt lat="44.12656" lon="3.21249">
        <ele>560.8</ele>
        <time>2024-11-13T14:14:26.000Z</time>
      </trkpt>
      <trkpt lat="44.12646" lon="3.21251">
        <ele>558.6</ele>
        <time>2024-11-13T14:14:29.000Z</time>
      </trkpt>
      <trkpt lat="44.12636" lon="3.21252">
        <ele>556.3</ele>
        <time>2024-11-13T14:14:32.000Z</time>
      </trkpt>
      <trkpt lat="44.12625" lon="3.21252">
        <ele>553.9</ele>
        <time>2024-11-13T14:14:35.000Z</time>
      </trkpt>
      <trkpt lat="44.12614" lon="3.21248">
        <ele>550</ele>
        <time>2024-11-13T14:14:39.000Z</time>
      </trkpt>
      <trkpt lat="44.12606" lon="3.21254">
        <ele>548.6</ele>
        <time>2024-11-13T14:14:43.000Z</time>
      </trkpt>
      <trkpt lat="44.12596" lon="3.21259">
        <ele>546.1</ele>
        <time>2024-11-13T14:14:47.000Z</time>
      </trkpt>
      <trkpt lat="44.12586" lon="3.21264">
        <ele>543.6</ele>
        <time>2024-11-13T14:14:58.000Z</time>
      </trkpt>
      <trkpt lat="44.12575" lon="3.2127">
        <ele>540.9</ele>
        <time>2024-11-13T14:15:01.000Z</time>
      </trkpt>
      <trkpt lat="44.12564" lon="3.21277">
        <ele>538.8</ele>
        <time>2024-11-13T14:15:04.000Z</time>
      </trkpt>
      <trkpt lat="44.12553" lon="3.21286">
        <ele>538.3</ele>
        <time>2024-11-13T14:15:07.000Z</time>
      </trkpt>
      <trkpt lat="44.12541" lon="3.21287">
        <ele>535.4</ele>
        <time>2024-11-13T14:15:11.000Z</time>
      </trkpt>
      <trkpt lat="44.12531" lon="3.21291">
        <ele>534.4</ele>
        <time>2024-11-13T14:15:14.000Z</time>
      </trkpt>
      <trkpt lat="44.12521" lon="3.21297">
        <ele>534.5</ele>
        <time>2024-11-13T14:15:18.000Z</time>
      </trkpt>
      <trkpt lat="44.12513" lon="3.21307">
        <ele>536.7</ele>
        <time>2024-11-13T14:15:22.000Z</time>
      </trkpt>
      <trkpt lat="44.12505" lon="3.21313">
        <ele>537.8</ele>
        <time>2024-11-13T14:15:27.000Z</time>
      </trkpt>
      <trkpt lat="44.12496" lon="3.21314">
        <ele>536.7</ele>
        <time>2024-11-13T14:15:32.000Z</time>
      </trkpt>
      <trkpt lat="44.12486" lon="3.21311">
        <ele>534.4</ele>
        <time>2024-11-13T14:15:47.000Z</time>
      </trkpt>
      <trkpt lat="44.12474" lon="3.2131">
        <ele>533.2</ele>
        <time>2024-11-13T14:15:51.000Z</time>
      </trkpt>
      <trkpt lat="44.12463" lon="3.2131">
        <ele>532.9</ele>
        <time>2024-11-13T14:15:54.000Z</time>
      </trkpt>
      <trkpt lat="44.12453" lon="3.2131">
        <ele>532.3</ele>
        <time>2024-11-13T14:15:57.000Z</time>
      </trkpt>
      <trkpt lat="44.12443" lon="3.2131">
        <ele>532</ele>
        <time>2024-11-13T14:16:00.000Z</time>
      </trkpt>
      <trkpt lat="44.12432" lon="3.21312">
        <ele>532.1</ele>
        <time>2024-11-13T14:16:04.000Z</time>
      </trkpt>
      <trkpt lat="44.12423" lon="3.21314">
        <ele>531.8</ele>
        <time>2024-11-13T14:16:08.000Z</time>
      </trkpt>
      <trkpt lat="44.12413" lon="3.21316">
        <ele>531.8</ele>
        <time>2024-11-13T14:16:12.000Z</time>
      </trkpt>
      <trkpt lat="44.12404" lon="3.21319">
        <ele>531.2</ele>
        <time>2024-11-13T14:16:16.000Z</time>
      </trkpt>
      <trkpt lat="44.12394" lon="3.21324">
        <ele>531.9</ele>
        <time>2024-11-13T14:16:20.000Z</time>
      </trkpt>
      <trkpt lat="44.12385" lon="3.2133">
        <ele>532.2</ele>
        <time>2024-11-13T14:16:25.000Z</time>
      </trkpt>
      <trkpt lat="44.12376" lon="3.21339">
        <ele>533.4</ele>
        <time>2024-11-13T14:16:30.000Z</time>
      </trkpt>
      <trkpt lat="44.1237" lon="3.21349">
        <ele>535.8</ele>
        <time>2024-11-13T14:16:37.000Z</time>
      </trkpt>
      <trkpt lat="44.12364" lon="3.21358">
        <ele>536.9</ele>
        <time>2024-11-13T14:16:45.000Z</time>
      </trkpt>
      <trkpt lat="44.12356" lon="3.21366">
        <ele>537.7</ele>
        <time>2024-11-13T14:16:50.000Z</time>
      </trkpt>
      <trkpt lat="44.12348" lon="3.21375">
        <ele>539</ele>
        <time>2024-11-13T14:16:56.000Z</time>
      </trkpt>
      <trkpt lat="44.1234" lon="3.2138">
        <ele>538.3</ele>
        <time>2024-11-13T14:17:00.000Z</time>
      </trkpt>
      <trkpt lat="44.12331" lon="3.21387">
        <ele>537.7</ele>
        <time>2024-11-13T14:17:04.000Z</time>
      </trkpt>
      <trkpt lat="44.1232" lon="3.21391">
        <ele>536.8</ele>
        <time>2024-11-13T14:17:09.000Z</time>
      </trkpt>
      <trkpt lat="44.1231" lon="3.21392">
        <ele>534.7</ele>
        <time>2024-11-13T14:17:12.000Z</time>
      </trkpt>
      <trkpt lat="44.123" lon="3.21396">
        <ele>533.1</ele>
        <time>2024-11-13T14:17:16.000Z</time>
      </trkpt>
      <trkpt lat="44.12291" lon="3.21398">
        <ele>531</ele>
        <time>2024-11-13T14:17:23.000Z</time>
      </trkpt>
      <trkpt lat="44.12282" lon="3.21401">
        <ele>529</ele>
        <time>2024-11-13T14:17:26.000Z</time>
      </trkpt>
      <trkpt lat="44.12272" lon="3.21409">
        <ele>527.2</ele>
        <time>2024-11-13T14:17:31.000Z</time>
      </trkpt>
      <trkpt lat="44.12262" lon="3.21414">
        <ele>524.8</ele>
        <time>2024-11-13T14:17:35.000Z</time>
      </trkpt>
      <trkpt lat="44.12252" lon="3.21423">
        <ele>522.6</ele>
        <time>2024-11-13T14:17:39.000Z</time>
      </trkpt>
      <trkpt lat="44.12244" lon="3.21429">
        <ele>519.6</ele>
        <time>2024-11-13T14:17:42.000Z</time>
      </trkpt>
      <trkpt lat="44.12236" lon="3.21439">
        <ele>517.7</ele>
        <time>2024-11-13T14:17:46.000Z</time>
      </trkpt>
      <trkpt lat="44.12229" lon="3.21451">
        <ele>515.8</ele>
        <time>2024-11-13T14:17:50.000Z</time>
      </trkpt>
      <trkpt lat="44.12223" lon="3.21461">
        <ele>513.9</ele>
        <time>2024-11-13T14:17:53.000Z</time>
      </trkpt>
      <trkpt lat="44.12217" lon="3.21473">
        <ele>511.8</ele>
        <time>2024-11-13T14:17:57.000Z</time>
      </trkpt>
      <trkpt lat="44.12218" lon="3.21486">
        <ele>510.5</ele>
        <time>2024-11-13T14:18:03.000Z</time>
      </trkpt>
      <trkpt lat="44.1222" lon="3.21502">
        <ele>510</ele>
        <time>2024-11-13T14:18:20.000Z</time>
      </trkpt>
      <trkpt lat="44.12221" lon="3.21514">
        <ele>508.2</ele>
        <time>2024-11-13T14:18:24.000Z</time>
      </trkpt>
      <trkpt lat="44.12224" lon="3.21532">
        <ele>507.7</ele>
        <time>2024-11-13T14:18:35.000Z</time>
      </trkpt>
      <trkpt lat="44.12227" lon="3.21548">
        <ele>506.3</ele>
        <time>2024-11-13T14:18:39.000Z</time>
      </trkpt>
      <trkpt lat="44.1223" lon="3.21562">
        <ele>504.6</ele>
        <time>2024-11-13T14:18:43.000Z</time>
      </trkpt>
      <trkpt lat="44.12232" lon="3.21574">
        <ele>502.8</ele>
        <time>2024-11-13T14:18:47.000Z</time>
      </trkpt>
      <trkpt lat="44.12239" lon="3.21587">
        <ele>502.9</ele>
        <time>2024-11-13T14:18:52.000Z</time>
      </trkpt>
      <trkpt lat="44.12241" lon="3.216">
        <ele>500</ele>
        <time>2024-11-13T14:18:56.000Z</time>
      </trkpt>
      <trkpt lat="44.12242" lon="3.21615">
        <ele>496.7</ele>
        <time>2024-11-13T14:19:00.000Z</time>
      </trkpt>
      <trkpt lat="44.12245" lon="3.2163">
        <ele>495</ele>
        <time>2024-11-13T14:19:04.000Z</time>
      </trkpt>
      <trkpt lat="44.12243" lon="3.21643">
        <ele>490.9</ele>
        <time>2024-11-13T14:19:07.000Z</time>
      </trkpt>
      <trkpt lat="44.12249" lon="3.21654">
        <ele>493</ele>
        <time>2024-11-13T14:19:12.000Z</time>
      </trkpt>
      <trkpt lat="44.12257" lon="3.21659">
        <ele>495</ele>
        <time>2024-11-13T14:19:29.000Z</time>
      </trkpt>
      <trkpt lat="44.12267" lon="3.21663">
        <ele>495.4</ele>
        <time>2024-11-13T14:19:32.000Z</time>
      </trkpt>
      <trkpt lat="44.12276" lon="3.21669">
        <ele>494</ele>
        <time>2024-11-13T14:19:35.000Z</time>
      </trkpt>
      <trkpt lat="44.12287" lon="3.21677">
        <ele>492.3</ele>
        <time>2024-11-13T14:19:38.000Z</time>
      </trkpt>
      <trkpt lat="44.12298" lon="3.21681">
        <ele>493.2</ele>
        <time>2024-11-13T14:19:42.000Z</time>
      </trkpt>
      <trkpt lat="44.12308" lon="3.21682">
        <ele>496.1</ele>
        <time>2024-11-13T14:19:47.000Z</time>
      </trkpt>
      <trkpt lat="44.12318" lon="3.21685">
        <ele>499</ele>
        <time>2024-11-13T14:19:53.000Z</time>
      </trkpt>
      <trkpt lat="44.12326" lon="3.21691">
        <ele>499.4</ele>
        <time>2024-11-13T14:19:59.000Z</time>
      </trkpt>
      <trkpt lat="44.12333" lon="3.217">
        <ele>499.1</ele>
        <time>2024-11-13T14:20:04.000Z</time>
      </trkpt>
      <trkpt lat="44.1234" lon="3.21709">
        <ele>499</ele>
        <time>2024-11-13T14:20:09.000Z</time>
      </trkpt>
      <trkpt lat="44.12346" lon="3.21719">
        <ele>498.8</ele>
        <time>2024-11-13T14:20:14.000Z</time>
      </trkpt>
      <trkpt lat="44.12352" lon="3.2173">
        <ele>497.4</ele>
        <time>2024-11-13T14:20:18.000Z</time>
      </trkpt>
      <trkpt lat="44.1236" lon="3.21739">
        <ele>497.5</ele>
        <time>2024-11-13T14:20:22.000Z</time>
      </trkpt>
      <trkpt lat="44.12371" lon="3.21747">
        <ele>497.3</ele>
        <time>2024-11-13T14:20:26.000Z</time>
      </trkpt>
      <trkpt lat="44.12378" lon="3.21761">
        <ele>495</ele>
        <time>2024-11-13T14:20:30.000Z</time>
      </trkpt>
      <trkpt lat="44.12383" lon="3.21774">
        <ele>493.1</ele>
        <time>2024-11-13T14:20:33.000Z</time>
      </trkpt>
      <trkpt lat="44.12384" lon="3.21792">
        <ele>490.3</ele>
        <time>2024-11-13T14:20:36.000Z</time>
      </trkpt>
      <trkpt lat="44.12382" lon="3.21807">
        <ele>486.3</ele>
        <time>2024-11-13T14:20:39.000Z</time>
      </trkpt>
      <trkpt lat="44.12378" lon="3.21821">
        <ele>481.7</ele>
        <time>2024-11-13T14:20:42.000Z</time>
      </trkpt>
      <trkpt lat="44.12378" lon="3.21837">
        <ele>479.3</ele>
        <time>2024-11-13T14:20:46.000Z</time>
      </trkpt>
      <trkpt lat="44.12381" lon="3.21849">
        <ele>477.9</ele>
        <time>2024-11-13T14:20:49.000Z</time>
      </trkpt>
      <trkpt lat="44.12383" lon="3.21864">
        <ele>475.7</ele>
        <time>2024-11-13T14:20:53.000Z</time>
      </trkpt>
      <trkpt lat="44.12386" lon="3.2188">
        <ele>473.1</ele>
        <time>2024-11-13T14:20:57.000Z</time>
      </trkpt>
      <trkpt lat="44.1239" lon="3.21893">
        <ele>471.8</ele>
        <time>2024-11-13T14:21:05.000Z</time>
      </trkpt>
      <trkpt lat="44.1239" lon="3.21908">
        <ele>468.8</ele>
        <time>2024-11-13T14:21:09.000Z</time>
      </trkpt>
      <trkpt lat="44.12391" lon="3.21921">
        <ele>466.6</ele>
        <time>2024-11-13T14:21:13.000Z</time>
      </trkpt>
      <trkpt lat="44.1239" lon="3.21934">
        <ele>463.3</ele>
        <time>2024-11-13T14:21:17.000Z</time>
      </trkpt>
      <trkpt lat="44.12388" lon="3.21949">
        <ele>460.2</ele>
        <time>2024-11-13T14:21:21.000Z</time>
      </trkpt>
      <trkpt lat="44.12385" lon="3.21962">
        <ele>456.8</ele>
        <time>2024-11-13T14:21:24.000Z</time>
      </trkpt>
      <trkpt lat="44.12386" lon="3.21976">
        <ele>455.8</ele>
        <time>2024-11-13T14:21:27.000Z</time>
      </trkpt>
      <trkpt lat="44.12386" lon="3.21989">
        <ele>454.1</ele>
        <time>2024-11-13T14:21:30.000Z</time>
      </trkpt>
      <trkpt lat="44.12387" lon="3.22002">
        <ele>452.2</ele>
        <time>2024-11-13T14:21:33.000Z</time>
      </trkpt>
      <trkpt lat="44.12395" lon="3.22012">
        <ele>451.2</ele>
        <time>2024-11-13T14:21:37.000Z</time>
      </trkpt>
      <trkpt lat="44.12403" lon="3.22019">
        <ele>451</ele>
        <time>2024-11-13T14:21:41.000Z</time>
      </trkpt>
      <trkpt lat="44.12413" lon="3.22023">
        <ele>452.1</ele>
        <time>2024-11-13T14:21:45.000Z</time>
      </trkpt>
      <trkpt lat="44.12419" lon="3.22033">
        <ele>452.9</ele>
        <time>2024-11-13T14:21:49.000Z</time>
      </trkpt>
      <trkpt lat="44.12416" lon="3.22046">
        <ele>452</ele>
        <time>2024-11-13T14:21:53.000Z</time>
      </trkpt>
      <trkpt lat="44.1241" lon="3.22059">
        <ele>447.6</ele>
        <time>2024-11-13T14:21:57.000Z</time>
      </trkpt>
      <trkpt lat="44.124" lon="3.22059">
        <ele>441.4</ele>
        <time>2024-11-13T14:22:03.000Z</time>
      </trkpt>
      <trkpt lat="44.12389" lon="3.22061">
        <ele>434</ele>
        <time>2024-11-13T14:22:08.000Z</time>
      </trkpt>
      <trkpt lat="44.12399" lon="3.22077">
        <ele>438.4</ele>
        <time>2024-11-13T14:22:12.000Z</time>
      </trkpt>
      <trkpt lat="44.12403" lon="3.22092">
        <ele>437.7</ele>
        <time>2024-11-13T14:22:15.000Z</time>
      </trkpt>
      <trkpt lat="44.12397" lon="3.22105">
        <ele>433.7</ele>
        <time>2024-11-13T14:22:23.000Z</time>
      </trkpt>
      <trkpt lat="44.12394" lon="3.22118">
        <ele>430.3</ele>
        <time>2024-11-13T14:22:28.000Z</time>
      </trkpt>
      <trkpt lat="44.12389" lon="3.22129">
        <ele>426.5</ele>
        <time>2024-11-13T14:22:35.000Z</time>
      </trkpt>
      <trkpt lat="44.1238" lon="3.22134">
        <ele>423</ele>
        <time>2024-11-13T14:22:51.000Z</time>
      </trkpt>
      <trkpt lat="44.12373" lon="3.22142">
        <ele>419.8</ele>
        <time>2024-11-13T14:22:55.000Z</time>
      </trkpt>
      <trkpt lat="44.12365" lon="3.22152">
        <ele>416.5</ele>
        <time>2024-11-13T14:23:01.000Z</time>
      </trkpt>
      <trkpt lat="44.12357" lon="3.2214">
        <ele>416.1</ele>
        <time>2024-11-13T14:23:07.000Z</time>
      </trkpt>
      <trkpt lat="44.1235" lon="3.22124">
        <ele>413.9</ele>
        <time>2024-11-13T14:23:10.000Z</time>
      </trkpt>
      <trkpt lat="44.12347" lon="3.22107">
        <ele>413.6</ele>
        <time>2024-11-13T14:23:13.000Z</time>
      </trkpt>
      <trkpt lat="44.1234" lon="3.22096">
        <ele>411.8</ele>
        <time>2024-11-13T14:23:16.000Z</time>
      </trkpt>
      <trkpt lat="44.12333" lon="3.22103">
        <ele>408.3</ele>
        <time>2024-11-13T14:23:19.000Z</time>
      </trkpt>
      <trkpt lat="44.12331" lon="3.22116">
        <ele>406.7</ele>
        <time>2024-11-13T14:23:22.000Z</time>
      </trkpt>
      <trkpt lat="44.1233" lon="3.22132">
        <ele>404.9</ele>
        <time>2024-11-13T14:23:25.000Z</time>
      </trkpt>
      <trkpt lat="44.12331" lon="3.22149">
        <ele>403.3</ele>
        <time>2024-11-13T14:23:28.000Z</time>
      </trkpt>
      <trkpt lat="44.1233" lon="3.22162">
        <ele>401.8</ele>
        <time>2024-11-13T14:23:32.000Z</time>
      </trkpt>
    </trkseg>
  </trk>
  <trk>
    <name><![CDATA[Raccord Le Bouxes / La Combe]]></name>
    <desc><![CDATA[Un portage peu après avoir quitté le début du Bouxes . Mais la suite vaut le coup (vue sur la Citée & très jolie baume aménagée d'un puits et d'une vasque) . Tout passe sur le vélo ensuite .
]]></desc>
    <extensions>
      <line xmlns="http://www.topografix.com/GPX/gpx_style/0/2">
        <color>ff8000</color>
        <width>4</width>
          <extensions>
            <sens>1</sens>
          </extensions>
      </line>
    </extensions>
    <trkseg>
      <trkpt lat="44.14553" lon="3.20915">
        <ele>716.6</ele>
        <time>2024-11-28T15:27:19.093Z</time>
      </trkpt>
      <trkpt lat="44.14548" lon="3.20913">
        <ele>716</ele>
        <time>2024-11-28T15:27:21.000Z</time>
      </trkpt>
      <trkpt lat="44.14538" lon="3.20915">
        <ele>717</ele>
        <time>2024-11-28T15:27:33.000Z</time>
      </trkpt>
      <trkpt lat="44.14529" lon="3.20912">
        <ele>717</ele>
        <time>2024-11-28T15:27:41.000Z</time>
      </trkpt>
      <trkpt lat="44.14519" lon="3.20913">
        <ele>718</ele>
        <time>2024-11-28T15:27:49.000Z</time>
      </trkpt>
      <trkpt lat="44.14508" lon="3.20915">
        <ele>719</ele>
        <time>2024-11-28T15:27:57.000Z</time>
      </trkpt>
      <trkpt lat="44.14497" lon="3.20927">
        <ele>720</ele>
        <time>2024-11-28T15:28:05.000Z</time>
      </trkpt>
      <trkpt lat="44.14491" lon="3.2094">
        <ele>721</ele>
        <time>2024-11-28T15:28:13.000Z</time>
      </trkpt>
      <trkpt lat="44.14499" lon="3.20931">
        <ele>724</ele>
        <time>2024-11-28T15:28:37.000Z</time>
      </trkpt>
      <trkpt lat="44.14501" lon="3.20917">
        <ele>725</ele>
        <time>2024-11-28T15:28:45.000Z</time>
      </trkpt>
      <trkpt lat="44.14506" lon="3.20906">
        <ele>726</ele>
        <time>2024-11-28T15:28:53.000Z</time>
      </trkpt>
      <trkpt lat="44.14515" lon="3.2089">
        <ele>728</ele>
        <time>2024-11-28T15:29:05.000Z</time>
      </trkpt>
      <trkpt lat="44.14515" lon="3.20875">
        <ele>728</ele>
        <time>2024-11-28T15:29:09.000Z</time>
      </trkpt>
      <trkpt lat="44.14513" lon="3.20859">
        <ele>728</ele>
        <time>2024-11-28T15:29:13.000Z</time>
      </trkpt>
      <trkpt lat="44.14513" lon="3.20846">
        <ele>729</ele>
        <time>2024-11-28T15:29:17.000Z</time>
      </trkpt>
      <trkpt lat="44.14504" lon="3.20837">
        <ele>729</ele>
        <time>2024-11-28T15:29:25.000Z</time>
      </trkpt>
      <trkpt lat="44.14491" lon="3.20844">
        <ele>729</ele>
        <time>2024-11-28T15:29:33.000Z</time>
      </trkpt>
      <trkpt lat="44.1448" lon="3.20855">
        <ele>729</ele>
        <time>2024-11-28T15:29:45.000Z</time>
      </trkpt>
      <trkpt lat="44.1447" lon="3.20862">
        <ele>751.5</ele>
        <time>2024-11-28T15:30:47.000Z</time>
      </trkpt>
      <trkpt lat="44.14461" lon="3.20866">
        <ele>751.4</ele>
        <time>2024-11-28T15:30:49.000Z</time>
      </trkpt>
      <trkpt lat="44.14448" lon="3.20867">
        <ele>751.1</ele>
        <time>2024-11-28T15:30:52.000Z</time>
      </trkpt>
      <trkpt lat="44.14438" lon="3.20862">
        <ele>750.4</ele>
        <time>2024-11-28T15:30:55.000Z</time>
      </trkpt>
      <trkpt lat="44.14429" lon="3.20856">
        <ele>749.8</ele>
        <time>2024-11-28T15:30:57.000Z</time>
      </trkpt>
      <trkpt lat="44.14418" lon="3.20852">
        <ele>749.3</ele>
        <time>2024-11-28T15:30:59.000Z</time>
      </trkpt>
      <trkpt lat="44.14406" lon="3.20848">
        <ele>748.5</ele>
        <time>2024-11-28T15:31:01.000Z</time>
      </trkpt>
      <trkpt lat="44.14395" lon="3.20839">
        <ele>747.7</ele>
        <time>2024-11-28T15:31:03.000Z</time>
      </trkpt>
      <trkpt lat="44.14382" lon="3.20832">
        <ele>746.7</ele>
        <time>2024-11-28T15:31:05.000Z</time>
      </trkpt>
      <trkpt lat="44.14369" lon="3.20834">
        <ele>745.7</ele>
        <time>2024-11-28T15:31:07.000Z</time>
      </trkpt>
      <trkpt lat="44.1436" lon="3.2084">
        <ele>744.5</ele>
        <time>2024-11-28T15:31:09.000Z</time>
      </trkpt>
      <trkpt lat="44.14351" lon="3.20842">
        <ele>741.4</ele>
        <time>2024-11-28T15:31:14.000Z</time>
      </trkpt>
      <trkpt lat="44.14349" lon="3.20828">
        <ele>739.1</ele>
        <time>2024-11-28T15:31:18.000Z</time>
      </trkpt>
      <trkpt lat="44.14349" lon="3.20815">
        <ele>737.4</ele>
        <time>2024-11-28T15:31:21.000Z</time>
      </trkpt>
      <trkpt lat="44.14345" lon="3.20802">
        <ele>735.9</ele>
        <time>2024-11-28T15:31:24.000Z</time>
      </trkpt>
      <trkpt lat="44.1434" lon="3.20788">
        <ele>734.4</ele>
        <time>2024-11-28T15:31:27.000Z</time>
      </trkpt>
      <trkpt lat="44.14328" lon="3.20786">
        <ele>732.6</ele>
        <time>2024-11-28T15:31:30.000Z</time>
      </trkpt>
      <trkpt lat="44.14316" lon="3.20783">
        <ele>731.4</ele>
        <time>2024-11-28T15:31:32.000Z</time>
      </trkpt>
      <trkpt lat="44.14305" lon="3.20778">
        <ele>729.6</ele>
        <time>2024-11-28T15:31:35.000Z</time>
      </trkpt>
      <trkpt lat="44.14296" lon="3.20768">
        <ele>727.9</ele>
        <time>2024-11-28T15:31:38.000Z</time>
      </trkpt>
      <trkpt lat="44.14288" lon="3.20762">
        <ele>726.9</ele>
        <time>2024-11-28T15:31:40.000Z</time>
      </trkpt>
      <trkpt lat="44.14279" lon="3.20759">
        <ele>726</ele>
        <time>2024-11-28T15:31:42.000Z</time>
      </trkpt>
      <trkpt lat="44.1427" lon="3.20762">
        <ele>724.6</ele>
        <time>2024-11-28T15:31:45.000Z</time>
      </trkpt>
      <trkpt lat="44.14261" lon="3.2077">
        <ele>723.5</ele>
        <time>2024-11-28T15:31:48.000Z</time>
      </trkpt>
      <trkpt lat="44.1425" lon="3.20776">
        <ele>722.4</ele>
        <time>2024-11-28T15:31:51.000Z</time>
      </trkpt>
      <trkpt lat="44.1424" lon="3.20781">
        <ele>721.1</ele>
        <time>2024-11-28T15:31:55.000Z</time>
      </trkpt>
      <trkpt lat="44.14227" lon="3.20781">
        <ele>720.1</ele>
        <time>2024-11-28T15:31:58.000Z</time>
      </trkpt>
      <trkpt lat="44.14217" lon="3.20783">
        <ele>719.5</ele>
        <time>2024-11-28T15:32:00.000Z</time>
      </trkpt>
      <trkpt lat="44.14205" lon="3.20787">
        <ele>718.6</ele>
        <time>2024-11-28T15:32:02.000Z</time>
      </trkpt>
      <trkpt lat="44.14191" lon="3.20792">
        <ele>717.7</ele>
        <time>2024-11-28T15:32:04.000Z</time>
      </trkpt>
      <trkpt lat="44.14178" lon="3.20801">
        <ele>716.6</ele>
        <time>2024-11-28T15:32:06.000Z</time>
      </trkpt>
      <trkpt lat="44.14165" lon="3.20804">
        <ele>715.7</ele>
        <time>2024-11-28T15:32:08.000Z</time>
      </trkpt>
      <trkpt lat="44.14155" lon="3.20809">
        <ele>714.8</ele>
        <time>2024-11-28T15:32:10.000Z</time>
      </trkpt>
      <trkpt lat="44.14144" lon="3.20815">
        <ele>714</ele>
        <time>2024-11-28T15:32:12.000Z</time>
      </trkpt>
      <trkpt lat="44.14135" lon="3.20821">
        <ele>713.2</ele>
        <time>2024-11-28T15:32:14.000Z</time>
      </trkpt>
      <trkpt lat="44.14125" lon="3.20828">
        <ele>712.4</ele>
        <time>2024-11-28T15:32:16.000Z</time>
      </trkpt>
      <trkpt lat="44.14117" lon="3.20833">
        <ele>711.5</ele>
        <time>2024-11-28T15:32:18.000Z</time>
      </trkpt>
      <trkpt lat="44.14106" lon="3.20833">
        <ele>710.7</ele>
        <time>2024-11-28T15:32:20.000Z</time>
      </trkpt>
      <trkpt lat="44.14095" lon="3.20836">
        <ele>709.8</ele>
        <time>2024-11-28T15:32:22.000Z</time>
      </trkpt>
      <trkpt lat="44.14086" lon="3.20839">
        <ele>709.1</ele>
        <time>2024-11-28T15:32:24.000Z</time>
      </trkpt>
      <trkpt lat="44.14077" lon="3.20845">
        <ele>708.4</ele>
        <time>2024-11-28T15:32:26.000Z</time>
      </trkpt>
      <trkpt lat="44.14067" lon="3.20848">
        <ele>708</ele>
        <time>2024-11-28T15:32:27.000Z</time>
      </trkpt>
      <trkpt lat="44.14026" lon="3.20861">
        <ele>706</ele>
        <time>2024-11-28T15:32:33.000Z</time>
      </trkpt>
      <trkpt lat="44.14014" lon="3.20878">
        <ele>705.3</ele>
        <time>2024-11-28T15:32:38.000Z</time>
      </trkpt>
      <trkpt lat="44.14007" lon="3.20886">
        <ele>704.9</ele>
        <time>2024-11-28T15:32:41.000Z</time>
      </trkpt>
      <trkpt lat="44.13998" lon="3.20894">
        <ele>704.3</ele>
        <time>2024-11-28T15:32:44.000Z</time>
      </trkpt>
      <trkpt lat="44.13988" lon="3.20887">
        <ele>703.8</ele>
        <time>2024-11-28T15:32:47.000Z</time>
      </trkpt>
      <trkpt lat="44.13979" lon="3.20903">
        <ele>700.7</ele>
        <time>2024-11-28T15:33:54.000Z</time>
      </trkpt>
      <trkpt lat="44.13972" lon="3.20917">
        <ele>700.6</ele>
        <time>2024-11-28T15:33:56.000Z</time>
      </trkpt>
      <trkpt lat="44.13964" lon="3.20932">
        <ele>700.3</ele>
        <time>2024-11-28T15:33:59.000Z</time>
      </trkpt>
      <trkpt lat="44.13956" lon="3.2094">
        <ele>700</ele>
        <time>2024-11-28T15:34:01.000Z</time>
      </trkpt>
      <trkpt lat="44.13946" lon="3.20949">
        <ele>699.4</ele>
        <time>2024-11-28T15:34:04.000Z</time>
      </trkpt>
      <trkpt lat="44.13937" lon="3.20958">
        <ele>699</ele>
        <time>2024-11-28T15:34:07.000Z</time>
      </trkpt>
      <trkpt lat="44.13931" lon="3.20969">
        <ele>698.4</ele>
        <time>2024-11-28T15:34:12.000Z</time>
      </trkpt>
      <trkpt lat="44.13922" lon="3.20976">
        <ele>698</ele>
        <time>2024-11-28T15:34:18.000Z</time>
      </trkpt>
      <trkpt lat="44.13913" lon="3.2098">
        <ele>697.9</ele>
        <time>2024-11-28T15:34:21.000Z</time>
      </trkpt>
      <trkpt lat="44.139" lon="3.20987">
        <ele>697.8</ele>
        <time>2024-11-28T15:34:24.000Z</time>
      </trkpt>
      <trkpt lat="44.13889" lon="3.20997">
        <ele>697.3</ele>
        <time>2024-11-28T15:34:27.000Z</time>
      </trkpt>
      <trkpt lat="44.1388" lon="3.20991">
        <ele>695.8</ele>
        <time>2024-11-28T15:34:32.000Z</time>
      </trkpt>
      <trkpt lat="44.13871" lon="3.20985">
        <ele>694.7</ele>
        <time>2024-11-28T15:34:36.000Z</time>
      </trkpt>
      <trkpt lat="44.13863" lon="3.20978">
        <ele>693.7</ele>
        <time>2024-11-28T15:34:39.000Z</time>
      </trkpt>
      <trkpt lat="44.13848" lon="3.20979">
        <ele>692.7</ele>
        <time>2024-11-28T15:34:43.000Z</time>
      </trkpt>
      <trkpt lat="44.13838" lon="3.20986">
        <ele>692</ele>
        <time>2024-11-28T15:34:46.000Z</time>
      </trkpt>
      <trkpt lat="44.13829" lon="3.20994">
        <ele>691</ele>
        <time>2024-11-28T15:34:49.000Z</time>
      </trkpt>
      <trkpt lat="44.13821" lon="3.21">
        <ele>689.7</ele>
        <time>2024-11-28T15:34:54.000Z</time>
      </trkpt>
      <trkpt lat="44.13811" lon="3.21001">
        <ele>688.5</ele>
        <time>2024-11-28T15:34:59.000Z</time>
      </trkpt>
      <trkpt lat="44.13805" lon="3.20991">
        <ele>686.4</ele>
        <time>2024-11-28T15:35:10.000Z</time>
      </trkpt>
      <trkpt lat="44.1381" lon="3.20978">
        <ele>685.1</ele>
        <time>2024-11-28T15:35:16.000Z</time>
      </trkpt>
      <trkpt lat="44.13817" lon="3.20967">
        <ele>684.4</ele>
        <time>2024-11-28T15:35:22.000Z</time>
      </trkpt>
      <trkpt lat="44.13819" lon="3.20953">
        <ele>684.4</ele>
        <time>2024-11-28T15:35:27.000Z</time>
      </trkpt>
      <trkpt lat="44.13821" lon="3.20939">
        <ele>684.5</ele>
        <time>2024-11-28T15:35:32.000Z</time>
      </trkpt>
      <trkpt lat="44.13824" lon="3.20927">
        <ele>684.7</ele>
        <time>2024-11-28T15:35:37.000Z</time>
      </trkpt>
      <trkpt lat="44.13825" lon="3.20914">
        <ele>684.9</ele>
        <time>2024-11-28T15:35:43.000Z</time>
      </trkpt>
      <trkpt lat="44.13828" lon="3.20901">
        <ele>685.4</ele>
        <time>2024-11-28T15:35:54.000Z</time>
      </trkpt>
      <trkpt lat="44.13835" lon="3.20893">
        <ele>686.1</ele>
        <time>2024-11-28T15:36:03.000Z</time>
      </trkpt>
      <trkpt lat="44.13842" lon="3.20883">
        <ele>686.9</ele>
        <time>2024-11-28T15:36:13.000Z</time>
      </trkpt>
      <trkpt lat="44.13851" lon="3.20876">
        <ele>687.5</ele>
        <time>2024-11-28T15:36:19.000Z</time>
      </trkpt>
      <trkpt lat="44.13859" lon="3.20867">
        <ele>688</ele>
        <time>2024-11-28T15:36:25.000Z</time>
      </trkpt>
      <trkpt lat="44.13865" lon="3.20857">
        <ele>688.4</ele>
        <time>2024-11-28T15:36:30.000Z</time>
      </trkpt>
      <trkpt lat="44.13873" lon="3.2085">
        <ele>688.9</ele>
        <time>2024-11-28T15:36:36.000Z</time>
      </trkpt>
      <trkpt lat="44.13875" lon="3.20837">
        <ele>690</ele>
        <time>2024-11-28T15:36:46.000Z</time>
      </trkpt>
      <trkpt lat="44.13872" lon="3.20824">
        <ele>690.5</ele>
        <time>2024-11-28T15:36:52.000Z</time>
      </trkpt>
      <trkpt lat="44.13867" lon="3.20812">
        <ele>691.3</ele>
        <time>2024-11-28T15:37:00.000Z</time>
      </trkpt>
      <trkpt lat="44.13861" lon="3.20803">
        <ele>692</ele>
        <time>2024-11-28T15:37:08.000Z</time>
      </trkpt>
      <trkpt lat="44.13855" lon="3.20793">
        <ele>692.3</ele>
        <time>2024-11-28T15:37:13.000Z</time>
      </trkpt>
      <trkpt lat="44.13846" lon="3.20797">
        <ele>692.7</ele>
        <time>2024-11-28T15:37:18.000Z</time>
      </trkpt>
      <trkpt lat="44.13836" lon="3.20794">
        <ele>693.4</ele>
        <time>2024-11-28T15:37:27.000Z</time>
      </trkpt>
      <trkpt lat="44.13828" lon="3.20803">
        <ele>694.6</ele>
        <time>2024-11-28T15:37:40.000Z</time>
      </trkpt>
      <trkpt lat="44.13836" lon="3.20796">
        <ele>693.9</ele>
        <time>2024-11-28T15:38:03.000Z</time>
      </trkpt>
      <trkpt lat="44.13845" lon="3.20804">
        <ele>693.5</ele>
        <time>2024-11-28T15:38:10.000Z</time>
      </trkpt>
      <trkpt lat="44.13851" lon="3.20815">
        <ele>693.3</ele>
        <time>2024-11-28T15:38:15.000Z</time>
      </trkpt>
      <trkpt lat="44.13855" lon="3.20827">
        <ele>693</ele>
        <time>2024-11-28T15:38:20.000Z</time>
      </trkpt>
      <trkpt lat="44.13845" lon="3.20832">
        <ele>692.3</ele>
        <time>2024-11-28T15:38:27.000Z</time>
      </trkpt>
      <trkpt lat="44.13835" lon="3.20834">
        <ele>691.8</ele>
        <time>2024-11-28T15:38:32.000Z</time>
      </trkpt>
      <trkpt lat="44.13827" lon="3.20842">
        <ele>691.4</ele>
        <time>2024-11-28T15:38:35.000Z</time>
      </trkpt>
      <trkpt lat="44.1382" lon="3.20852">
        <ele>690.8</ele>
        <time>2024-11-28T15:38:39.000Z</time>
      </trkpt>
      <trkpt lat="44.13811" lon="3.2086">
        <ele>690.3</ele>
        <time>2024-11-28T15:38:42.000Z</time>
      </trkpt>
      <trkpt lat="44.13803" lon="3.20853">
        <ele>689.1</ele>
        <time>2024-11-28T15:38:48.000Z</time>
      </trkpt>
      <trkpt lat="44.1381" lon="3.20861">
        <ele>688.5</ele>
        <time>2024-11-28T15:38:51.000Z</time>
      </trkpt>
      <trkpt lat="44.13819" lon="3.20868">
        <ele>689</ele>
        <time>2024-11-28T15:39:07.000Z</time>
      </trkpt>
      <trkpt lat="44.13804" lon="3.20866">
        <ele>691.6</ele>
        <time>2024-11-28T15:39:36.000Z</time>
      </trkpt>
      <trkpt lat="44.13795" lon="3.20864">
        <ele>694.7</ele>
        <time>2024-11-28T15:39:54.000Z</time>
      </trkpt>
      <trkpt lat="44.13782" lon="3.20852">
        <ele>701.7</ele>
        <time>2024-11-28T15:40:52.000Z</time>
      </trkpt>
      <trkpt lat="44.13761" lon="3.20837">
        <ele>712</ele>
        <time>2024-11-28T15:42:08.000Z</time>
      </trkpt>
      <trkpt lat="44.13753" lon="3.20831">
        <ele>715.2</ele>
        <time>2024-11-28T15:42:23.000Z</time>
      </trkpt>
      <trkpt lat="44.13744" lon="3.20826">
        <ele>718.6</ele>
        <time>2024-11-28T15:42:46.000Z</time>
      </trkpt>
      <trkpt lat="44.13733" lon="3.20824">
        <ele>722</ele>
        <time>2024-11-28T15:43:08.000Z</time>
      </trkpt>
      <trkpt lat="44.13727" lon="3.20834">
        <ele>724.7</ele>
        <time>2024-11-28T15:43:24.000Z</time>
      </trkpt>
      <trkpt lat="44.13721" lon="3.20844">
        <ele>727.7</ele>
        <time>2024-11-28T15:43:43.000Z</time>
      </trkpt>
      <trkpt lat="44.13711" lon="3.20842">
        <ele>730.3</ele>
        <time>2024-11-28T15:44:01.000Z</time>
      </trkpt>
      <trkpt lat="44.13703" lon="3.20848">
        <ele>732.8</ele>
        <time>2024-11-28T15:44:22.000Z</time>
      </trkpt>
      <trkpt lat="44.13694" lon="3.2085">
        <ele>734.8</ele>
        <time>2024-11-28T15:44:43.000Z</time>
      </trkpt>
      <trkpt lat="44.13686" lon="3.20856">
        <ele>735.3</ele>
        <time>2024-11-28T15:44:55.000Z</time>
      </trkpt>
      <trkpt lat="44.13677" lon="3.20859">
        <ele>736.2</ele>
        <time>2024-11-28T15:45:10.000Z</time>
      </trkpt>
      <trkpt lat="44.13667" lon="3.20861">
        <ele>737.3</ele>
        <time>2024-11-28T15:45:24.000Z</time>
      </trkpt>
      <trkpt lat="44.13658" lon="3.20864">
        <ele>738</ele>
        <time>2024-11-28T15:45:32.000Z</time>
      </trkpt>
      <trkpt lat="44.13649" lon="3.20865">
        <ele>739.1</ele>
        <time>2024-11-28T15:45:41.000Z</time>
      </trkpt>
      <trkpt lat="44.13639" lon="3.20866">
        <ele>739.9</ele>
        <time>2024-11-28T15:45:48.000Z</time>
      </trkpt>
      <trkpt lat="44.1363" lon="3.20869">
        <ele>740.7</ele>
        <time>2024-11-28T15:45:55.000Z</time>
      </trkpt>
      <trkpt lat="44.13621" lon="3.20874">
        <ele>742</ele>
        <time>2024-11-28T15:46:03.000Z</time>
      </trkpt>
      <trkpt lat="44.13613" lon="3.20878">
        <ele>743.5</ele>
        <time>2024-11-28T15:46:13.000Z</time>
      </trkpt>
      <trkpt lat="44.13603" lon="3.20882">
        <ele>745</ele>
        <time>2024-11-28T15:46:22.000Z</time>
      </trkpt>
      <trkpt lat="44.13594" lon="3.20886">
        <ele>745.6</ele>
        <time>2024-11-28T15:46:26.000Z</time>
      </trkpt>
      <trkpt lat="44.13586" lon="3.20888">
        <ele>746.8</ele>
        <time>2024-11-28T15:46:37.000Z</time>
      </trkpt>
      <trkpt lat="44.13576" lon="3.2089">
        <ele>747.2</ele>
        <time>2024-11-28T15:46:46.000Z</time>
      </trkpt>
      <trkpt lat="44.13566" lon="3.20893">
        <ele>747.5</ele>
        <time>2024-11-28T15:46:55.000Z</time>
      </trkpt>
      <trkpt lat="44.13557" lon="3.20895">
        <ele>747.6</ele>
        <time>2024-11-28T15:47:00.000Z</time>
      </trkpt>
      <trkpt lat="44.13547" lon="3.20899">
        <ele>747.7</ele>
        <time>2024-11-28T15:47:06.000Z</time>
      </trkpt>
      <trkpt lat="44.13538" lon="3.20903">
        <ele>748.4</ele>
        <time>2024-11-28T15:47:14.000Z</time>
      </trkpt>
      <trkpt lat="44.13529" lon="3.20905">
        <ele>749.3</ele>
        <time>2024-11-28T15:47:21.000Z</time>
      </trkpt>
      <trkpt lat="44.13519" lon="3.20916">
        <ele>753.5</ele>
        <time>2024-11-28T15:47:56.000Z</time>
      </trkpt>
      <trkpt lat="44.1351" lon="3.20921">
        <ele>755.8</ele>
        <time>2024-11-28T15:48:08.000Z</time>
      </trkpt>
      <trkpt lat="44.135" lon="3.20924">
        <ele>757.9</ele>
        <time>2024-11-28T15:48:28.000Z</time>
      </trkpt>
      <trkpt lat="44.1349" lon="3.20923">
        <ele>759.1</ele>
        <time>2024-11-28T15:48:55.000Z</time>
      </trkpt>
      <trkpt lat="44.13485" lon="3.20936">
        <ele>759.4</ele>
        <time>2024-11-28T15:49:27.000Z</time>
      </trkpt>
      <trkpt lat="44.13477" lon="3.20942">
        <ele>759.6</ele>
        <time>2024-11-28T15:49:33.000Z</time>
      </trkpt>
      <trkpt lat="44.13467" lon="3.2094">
        <ele>760.8</ele>
        <time>2024-11-28T15:49:41.000Z</time>
      </trkpt>
      <trkpt lat="44.13458" lon="3.20941">
        <ele>761.5</ele>
        <time>2024-11-28T15:49:50.000Z</time>
      </trkpt>
      <trkpt lat="44.13449" lon="3.20945">
        <ele>763.1</ele>
        <time>2024-11-28T15:49:59.000Z</time>
      </trkpt>
      <trkpt lat="44.1344" lon="3.20949">
        <ele>764.1</ele>
        <time>2024-11-28T15:50:07.000Z</time>
      </trkpt>
      <trkpt lat="44.13432" lon="3.20956">
        <ele>765.1</ele>
        <time>2024-11-28T15:50:15.000Z</time>
      </trkpt>
      <trkpt lat="44.13422" lon="3.20958">
        <ele>766.1</ele>
        <time>2024-11-28T15:50:21.000Z</time>
      </trkpt>
      <trkpt lat="44.13413" lon="3.20962">
        <ele>767</ele>
        <time>2024-11-28T15:50:28.000Z</time>
      </trkpt>
      <trkpt lat="44.13405" lon="3.2097">
        <ele>767.8</ele>
        <time>2024-11-28T15:50:33.000Z</time>
      </trkpt>
      <trkpt lat="44.13396" lon="3.20975">
        <ele>768.3</ele>
        <time>2024-11-28T15:50:40.000Z</time>
      </trkpt>
      <trkpt lat="44.13387" lon="3.20979">
        <ele>768.7</ele>
        <time>2024-11-28T15:50:47.000Z</time>
      </trkpt>
      <trkpt lat="44.13378" lon="3.2098">
        <ele>769.5</ele>
        <time>2024-11-28T15:50:55.000Z</time>
      </trkpt>
      <trkpt lat="44.13369" lon="3.20989">
        <ele>770.1</ele>
        <time>2024-11-28T15:51:05.000Z</time>
      </trkpt>
      <trkpt lat="44.13358" lon="3.20998">
        <ele>770.1</ele>
        <time>2024-11-28T15:51:09.000Z</time>
      </trkpt>
      <trkpt lat="44.13349" lon="3.21004">
        <ele>769.9</ele>
        <time>2024-11-28T15:51:13.000Z</time>
      </trkpt>
      <trkpt lat="44.13339" lon="3.21006">
        <ele>769.8</ele>
        <time>2024-11-28T15:51:20.000Z</time>
      </trkpt>
      <trkpt lat="44.13329" lon="3.21009">
        <ele>769.7</ele>
        <time>2024-11-28T15:51:24.000Z</time>
      </trkpt>
      <trkpt lat="44.1332" lon="3.21011">
        <ele>769</ele>
        <time>2024-11-28T15:51:32.000Z</time>
      </trkpt>
      <trkpt lat="44.13311" lon="3.21005">
        <ele>769</ele>
        <time>2024-11-28T15:51:37.000Z</time>
      </trkpt>
      <trkpt lat="44.13305" lon="3.20994">
        <ele>769.3</ele>
        <time>2024-11-28T15:51:42.000Z</time>
      </trkpt>
      <trkpt lat="44.13301" lon="3.20982">
        <ele>770.2</ele>
        <time>2024-11-28T15:51:52.000Z</time>
      </trkpt>
      <trkpt lat="44.13293" lon="3.20972">
        <ele>770.6</ele>
        <time>2024-11-28T15:51:56.000Z</time>
      </trkpt>
      <trkpt lat="44.13284" lon="3.20964">
        <ele>771.1</ele>
        <time>2024-11-28T15:52:01.000Z</time>
      </trkpt>
      <trkpt lat="44.13277" lon="3.20956">
        <ele>771.4</ele>
        <time>2024-11-28T15:52:10.000Z</time>
      </trkpt>
      <trkpt lat="44.1327" lon="3.20942">
        <ele>772.4</ele>
        <time>2024-11-28T15:53:19.000Z</time>
      </trkpt>
      <trkpt lat="44.13268" lon="3.20955">
        <ele>772.2</ele>
        <time>2024-11-28T15:53:33.000Z</time>
      </trkpt>
      <trkpt lat="44.13272" lon="3.20967">
        <ele>770</ele>
        <time>2024-11-28T15:54:04.000Z</time>
      </trkpt>
      <trkpt lat="44.13268" lon="3.20953">
        <ele>769.9</ele>
        <time>2024-11-28T15:54:08.000Z</time>
      </trkpt>
      <trkpt lat="44.1326" lon="3.20946">
        <ele>769.7</ele>
        <time>2024-11-28T15:54:16.000Z</time>
      </trkpt>
      <trkpt lat="44.13252" lon="3.2094">
        <ele>770.3</ele>
        <time>2024-11-28T15:55:25.000Z</time>
      </trkpt>
      <trkpt lat="44.13253" lon="3.20927">
        <ele>769.9</ele>
        <time>2024-11-28T15:55:31.000Z</time>
      </trkpt>
      <trkpt lat="44.13258" lon="3.20915">
        <ele>768.8</ele>
        <time>2024-11-28T15:55:37.000Z</time>
      </trkpt>
      <trkpt lat="44.13254" lon="3.20903">
        <ele>766.2</ele>
        <time>2024-11-28T15:55:45.000Z</time>
      </trkpt>
      <trkpt lat="44.13257" lon="3.20891">
        <ele>764.6</ele>
        <time>2024-11-28T15:55:49.000Z</time>
      </trkpt>
      <trkpt lat="44.13257" lon="3.20878">
        <ele>762.7</ele>
        <time>2024-11-28T15:55:53.000Z</time>
      </trkpt>
      <trkpt lat="44.13249" lon="3.2087">
        <ele>759.7</ele>
        <time>2024-11-28T15:56:00.000Z</time>
      </trkpt>
      <trkpt lat="44.13239" lon="3.20866">
        <ele>758.3</ele>
        <time>2024-11-28T15:56:04.000Z</time>
      </trkpt>
      <trkpt lat="44.13234" lon="3.20854">
        <ele>756.6</ele>
        <time>2024-11-28T15:56:08.000Z</time>
      </trkpt>
      <trkpt lat="44.13228" lon="3.20842">
        <ele>754.2</ele>
        <time>2024-11-28T15:56:14.000Z</time>
      </trkpt>
      <trkpt lat="44.13219" lon="3.20843">
        <ele>752.1</ele>
        <time>2024-11-28T15:56:20.000Z</time>
      </trkpt>
      <trkpt lat="44.13209" lon="3.20841">
        <ele>750.9</ele>
        <time>2024-11-28T15:56:23.000Z</time>
      </trkpt>
      <trkpt lat="44.132" lon="3.20835">
        <ele>748.4</ele>
        <time>2024-11-28T15:56:29.000Z</time>
      </trkpt>
      <trkpt lat="44.13192" lon="3.20843">
        <ele>746.5</ele>
        <time>2024-11-28T15:56:34.000Z</time>
      </trkpt>
      <trkpt lat="44.13182" lon="3.20846">
        <ele>745</ele>
        <time>2024-11-28T15:56:39.000Z</time>
      </trkpt>
      <trkpt lat="44.13173" lon="3.20847">
        <ele>743.5</ele>
        <time>2024-11-28T15:56:44.000Z</time>
      </trkpt>
      <trkpt lat="44.13161" lon="3.20852">
        <ele>742</ele>
        <time>2024-11-28T15:56:48.000Z</time>
      </trkpt>
      <trkpt lat="44.13152" lon="3.20859">
        <ele>740.7</ele>
        <time>2024-11-28T15:56:52.000Z</time>
      </trkpt>
      <trkpt lat="44.13143" lon="3.20861">
        <ele>739.6</ele>
        <time>2024-11-28T15:56:55.000Z</time>
      </trkpt>
      <trkpt lat="44.13135" lon="3.20851">
        <ele>737.9</ele>
        <time>2024-11-28T15:56:59.000Z</time>
      </trkpt>
      <trkpt lat="44.13126" lon="3.20846">
        <ele>736.1</ele>
        <time>2024-11-28T15:57:03.000Z</time>
      </trkpt>
      <trkpt lat="44.13117" lon="3.20844">
        <ele>734.1</ele>
        <time>2024-11-28T15:57:08.000Z</time>
      </trkpt>
      <trkpt lat="44.13108" lon="3.2084">
        <ele>732.8</ele>
        <time>2024-11-28T15:57:13.000Z</time>
      </trkpt>
      <trkpt lat="44.13099" lon="3.20834">
        <ele>731.4</ele>
        <time>2024-11-28T15:57:18.000Z</time>
      </trkpt>
      <trkpt lat="44.13089" lon="3.20833">
        <ele>730.1</ele>
        <time>2024-11-28T15:57:23.000Z</time>
      </trkpt>
      <trkpt lat="44.13081" lon="3.20825">
        <ele>729.5</ele>
        <time>2024-11-28T15:57:26.000Z</time>
      </trkpt>
      <trkpt lat="44.13069" lon="3.20819">
        <ele>728.9</ele>
        <time>2024-11-28T15:57:29.000Z</time>
      </trkpt>
      <trkpt lat="44.13058" lon="3.20819">
        <ele>728.1</ele>
        <time>2024-11-28T15:57:32.000Z</time>
      </trkpt>
      <trkpt lat="44.13048" lon="3.2082">
        <ele>727.7</ele>
        <time>2024-11-28T15:57:34.000Z</time>
      </trkpt>
      <trkpt lat="44.13036" lon="3.20822">
        <ele>726.9</ele>
        <time>2024-11-28T15:57:37.000Z</time>
      </trkpt>
      <trkpt lat="44.13028" lon="3.2083">
        <ele>726.3</ele>
        <time>2024-11-28T15:57:40.000Z</time>
      </trkpt>
      <trkpt lat="44.13019" lon="3.20826">
        <ele>725.2</ele>
        <time>2024-11-28T15:57:45.000Z</time>
      </trkpt>
      <trkpt lat="44.1301" lon="3.20823">
        <ele>724</ele>
        <time>2024-11-28T15:57:49.000Z</time>
      </trkpt>
      <trkpt lat="44.12999" lon="3.20822">
        <ele>722.9</ele>
        <time>2024-11-28T15:57:53.000Z</time>
      </trkpt>
      <trkpt lat="44.1299" lon="3.20823">
        <ele>722</ele>
        <time>2024-11-28T15:57:57.000Z</time>
      </trkpt>
      <trkpt lat="44.12983" lon="3.20833">
        <ele>719.6</ele>
        <time>2024-11-28T15:58:06.000Z</time>
      </trkpt>
      <trkpt lat="44.12983" lon="3.20845">
        <ele>718</ele>
        <time>2024-11-28T15:58:10.000Z</time>
      </trkpt>
      <trkpt lat="44.12974" lon="3.20852">
        <ele>715.5</ele>
        <time>2024-11-28T15:58:16.000Z</time>
      </trkpt>
      <trkpt lat="44.12967" lon="3.20862">
        <ele>713.8</ele>
        <time>2024-11-28T15:58:20.000Z</time>
      </trkpt>
      <trkpt lat="44.12964" lon="3.20874">
        <ele>711.3</ele>
        <time>2024-11-28T15:58:27.000Z</time>
      </trkpt>
      <trkpt lat="44.12966" lon="3.20888">
        <ele>709.5</ele>
        <time>2024-11-28T15:58:32.000Z</time>
      </trkpt>
      <trkpt lat="44.12964" lon="3.20904">
        <ele>707.7</ele>
        <time>2024-11-28T15:58:37.000Z</time>
      </trkpt>
      <trkpt lat="44.12962" lon="3.20918">
        <ele>706.4</ele>
        <time>2024-11-28T15:58:42.000Z</time>
      </trkpt>
      <trkpt lat="44.1296" lon="3.20933">
        <ele>705.1</ele>
        <time>2024-11-28T15:58:47.000Z</time>
      </trkpt>
      <trkpt lat="44.12961" lon="3.20947">
        <ele>704.2</ele>
        <time>2024-11-28T15:58:50.000Z</time>
      </trkpt>
      <trkpt lat="44.12964" lon="3.20963">
        <ele>703.3</ele>
        <time>2024-11-28T15:58:53.000Z</time>
      </trkpt>
      <trkpt lat="44.12966" lon="3.20977">
        <ele>702.1</ele>
        <time>2024-11-28T15:58:56.000Z</time>
      </trkpt>
      <trkpt lat="44.12961" lon="3.20991">
        <ele>700.1</ele>
        <time>2024-11-28T15:59:00.000Z</time>
      </trkpt>
      <trkpt lat="44.12957" lon="3.21005">
        <ele>698.5</ele>
        <time>2024-11-28T15:59:04.000Z</time>
      </trkpt>
      <trkpt lat="44.12952" lon="3.21018">
        <ele>695.8</ele>
        <time>2024-11-28T15:59:10.000Z</time>
      </trkpt>
      <trkpt lat="44.12947" lon="3.21031">
        <ele>693.6</ele>
        <time>2024-11-28T15:59:14.000Z</time>
      </trkpt>
      <trkpt lat="44.12952" lon="3.21047">
        <ele>691.8</ele>
        <time>2024-11-28T15:59:18.000Z</time>
      </trkpt>
      <trkpt lat="44.1296" lon="3.21058">
        <ele>690.4</ele>
        <time>2024-11-28T15:59:21.000Z</time>
      </trkpt>
      <trkpt lat="44.1297" lon="3.21071">
        <ele>689</ele>
        <time>2024-11-28T15:59:24.000Z</time>
      </trkpt>
      <trkpt lat="44.12978" lon="3.21081">
        <ele>687.6</ele>
        <time>2024-11-28T15:59:27.000Z</time>
      </trkpt>
      <trkpt lat="44.12981" lon="3.21096">
        <ele>681.9</ele>
        <time>2024-11-28T15:59:39.000Z</time>
      </trkpt>
      <trkpt lat="44.1299" lon="3.21099">
        <ele>674.7</ele>
        <time>2024-11-28T16:00:32.000Z</time>
      </trkpt>
      <trkpt lat="44.12981" lon="3.211">
        <ele>673.6</ele>
        <time>2024-11-28T16:00:59.000Z</time>
      </trkpt>
      <trkpt lat="44.12972" lon="3.21101">
        <ele>673.2</ele>
        <time>2024-11-28T16:01:01.000Z</time>
      </trkpt>
      <trkpt lat="44.12961" lon="3.21098">
        <ele>672.8</ele>
        <time>2024-11-28T16:01:03.000Z</time>
      </trkpt>
      <trkpt lat="44.12951" lon="3.21094">
        <ele>672.1</ele>
        <time>2024-11-28T16:01:06.000Z</time>
      </trkpt>
      <trkpt lat="44.12943" lon="3.21086">
        <ele>670.8</ele>
        <time>2024-11-28T16:01:10.000Z</time>
      </trkpt>
      <trkpt lat="44.12933" lon="3.21081">
        <ele>669.7</ele>
        <time>2024-11-28T16:01:13.000Z</time>
      </trkpt>
      <trkpt lat="44.12927" lon="3.21071">
        <ele>667.7</ele>
        <time>2024-11-28T16:01:17.000Z</time>
      </trkpt>
      <trkpt lat="44.12922" lon="3.21083">
        <ele>658.1</ele>
        <time>2024-11-28T16:01:37.000Z</time>
      </trkpt>
      <trkpt lat="44.12914" lon="3.21091">
        <ele>655.7</ele>
        <time>2024-11-28T16:01:43.000Z</time>
      </trkpt>
      <trkpt lat="44.12904" lon="3.21098">
        <ele>649.8</ele>
        <time>2024-11-28T16:02:47.000Z</time>
      </trkpt>
      <trkpt lat="44.12896" lon="3.21107">
        <ele>648.4</ele>
        <time>2024-11-28T16:02:55.000Z</time>
      </trkpt>
      <trkpt lat="44.12888" lon="3.21115">
        <ele>647.3</ele>
        <time>2024-11-28T16:02:59.000Z</time>
      </trkpt>
      <trkpt lat="44.12876" lon="3.21119">
        <ele>645.9</ele>
        <time>2024-11-28T16:03:03.000Z</time>
      </trkpt>
      <trkpt lat="44.12865" lon="3.21123">
        <ele>644.8</ele>
        <time>2024-11-28T16:03:06.000Z</time>
      </trkpt>
      <trkpt lat="44.12853" lon="3.21125">
        <ele>643.6</ele>
        <time>2024-11-28T16:03:09.000Z</time>
      </trkpt>
      <trkpt lat="44.12843" lon="3.21125">
        <ele>642.1</ele>
        <time>2024-11-28T16:03:13.000Z</time>
      </trkpt>
      <trkpt lat="44.12831" lon="3.21124">
        <ele>640.1</ele>
        <time>2024-11-28T16:03:17.000Z</time>
      </trkpt>
      <trkpt lat="44.1282" lon="3.21129">
        <ele>637.1</ele>
        <time>2024-11-28T16:03:22.000Z</time>
      </trkpt>
      <trkpt lat="44.12821" lon="3.21143">
        <ele>633.4</ele>
        <time>2024-11-28T16:03:29.000Z</time>
      </trkpt>
      <trkpt lat="44.12811" lon="3.21151">
        <ele>629.1</ele>
        <time>2024-11-28T16:03:38.000Z</time>
      </trkpt>
      <trkpt lat="44.12801" lon="3.21151">
        <ele>627.6</ele>
        <time>2024-11-28T16:03:41.000Z</time>
      </trkpt>
      <trkpt lat="44.12792" lon="3.21148">
        <ele>625</ele>
        <time>2024-11-28T16:03:47.000Z</time>
      </trkpt>
      <trkpt lat="44.12781" lon="3.21149">
        <ele>620.3</ele>
        <time>2024-11-28T16:04:14.000Z</time>
      </trkpt>
      <trkpt lat="44.1277" lon="3.21153">
        <ele>619.6</ele>
        <time>2024-11-28T16:04:18.000Z</time>
      </trkpt>
      <trkpt lat="44.12761" lon="3.21158">
        <ele>618.7</ele>
        <time>2024-11-28T16:04:22.000Z</time>
      </trkpt>
      <trkpt lat="44.12769" lon="3.21163">
        <ele>617.2</ele>
        <time>2024-11-28T16:04:28.000Z</time>
      </trkpt>
      <trkpt lat="44.12766" lon="3.21177">
        <ele>611</ele>
        <time>2024-11-28T16:04:52.000Z</time>
      </trkpt>
      <trkpt lat="44.12756" lon="3.21182">
        <ele>609.6</ele>
        <time>2024-11-28T16:04:56.000Z</time>
      </trkpt>
      <trkpt lat="44.12746" lon="3.21182">
        <ele>608.4</ele>
        <time>2024-11-28T16:04:59.000Z</time>
      </trkpt>
      <trkpt lat="44.12736" lon="3.21184">
        <ele>606.9</ele>
        <time>2024-11-28T16:05:02.000Z</time>
      </trkpt>
      <trkpt lat="44.12726" lon="3.21186">
        <ele>605.5</ele>
        <time>2024-11-28T16:05:05.000Z</time>
      </trkpt>
      <trkpt lat="44.12713" lon="3.21186">
        <ele>603.9</ele>
        <time>2024-11-28T16:05:08.000Z</time>
      </trkpt>
      <trkpt lat="44.12705" lon="3.21183">
        <ele>602.9</ele>
        <time>2024-11-28T16:05:10.000Z</time>
      </trkpt>
      <trkpt lat="44.12694" lon="3.21177">
        <ele>601.3</ele>
        <time>2024-11-28T16:05:13.000Z</time>
      </trkpt>
      <trkpt lat="44.12683" lon="3.21174">
        <ele>599.7</ele>
        <time>2024-11-28T16:05:16.000Z</time>
      </trkpt>
      <trkpt lat="44.12674" lon="3.2117">
        <ele>598</ele>
        <time>2024-11-28T16:05:19.000Z</time>
      </trkpt>
      <trkpt lat="44.12665" lon="3.21164">
        <ele>596</ele>
        <time>2024-11-28T16:05:22.000Z</time>
      </trkpt>
      <trkpt lat="44.12657" lon="3.21157">
        <ele>590.5</ele>
        <time>2024-11-28T16:05:32.000Z</time>
      </trkpt>
      <trkpt lat="44.12647" lon="3.21157">
        <ele>584</ele>
        <time>2024-11-28T16:05:59.000Z</time>
      </trkpt>
      <trkpt lat="44.12648" lon="3.21171">
        <ele>582.6</ele>
        <time>2024-11-28T16:07:50.000Z</time>
      </trkpt>
      <trkpt lat="44.12656" lon="3.21178">
        <ele>582.5</ele>
        <time>2024-11-28T16:07:54.000Z</time>
      </trkpt>
      <trkpt lat="44.12665" lon="3.21182">
        <ele>582</ele>
        <time>2024-11-28T16:07:58.000Z</time>
      </trkpt>
      <trkpt lat="44.12676" lon="3.21187">
        <ele>580.5</ele>
        <time>2024-11-28T16:08:03.000Z</time>
      </trkpt>
      <trkpt lat="44.12683" lon="3.21194">
        <ele>579.3</ele>
        <time>2024-11-28T16:08:06.000Z</time>
      </trkpt>
      <trkpt lat="44.1269" lon="3.21203">
        <ele>577.7</ele>
        <time>2024-11-28T16:08:09.000Z</time>
      </trkpt>
      <trkpt lat="44.12693" lon="3.21219">
        <ele>575.5</ele>
        <time>2024-11-28T16:08:13.000Z</time>
      </trkpt>
      <trkpt lat="44.12683" lon="3.21228">
        <ele>573</ele>
        <time>2024-11-28T16:08:17.000Z</time>
      </trkpt>
      <trkpt lat="44.12674" lon="3.21242">
        <ele>571.2</ele>
        <time>2024-11-28T16:08:20.000Z</time>
      </trkpt>
      <trkpt lat="44.12665" lon="3.21248">
        <ele>570</ele>
        <time>2024-11-28T16:08:22.000Z</time>
      </trkpt>
      <trkpt lat="44.12652" lon="3.21252">
        <ele>567.9</ele>
        <time>2024-11-28T16:08:25.000Z</time>
      </trkpt>
      <trkpt lat="44.12638" lon="3.21251">
        <ele>566.6</ele>
        <time>2024-11-28T16:08:27.000Z</time>
      </trkpt>
      <trkpt lat="44.12625" lon="3.21252">
        <ele>564.3</ele>
        <time>2024-11-28T16:08:30.000Z</time>
      </trkpt>
      <trkpt lat="44.12612" lon="3.21251">
        <ele>561.9</ele>
        <time>2024-11-28T16:08:33.000Z</time>
      </trkpt>
      <trkpt lat="44.12603" lon="3.21245">
        <ele>560.2</ele>
        <time>2024-11-28T16:08:35.000Z</time>
      </trkpt>
      <trkpt lat="44.12594" lon="3.21242">
        <ele>557.8</ele>
        <time>2024-11-28T16:08:38.000Z</time>
      </trkpt>
      <trkpt lat="44.12584" lon="3.21252">
        <ele>555.2</ele>
        <time>2024-11-28T16:08:41.000Z</time>
      </trkpt>
      <trkpt lat="44.12574" lon="3.21263">
        <ele>552.7</ele>
        <time>2024-11-28T16:08:44.000Z</time>
      </trkpt>
      <trkpt lat="44.12565" lon="3.21268">
        <ele>550.9</ele>
        <time>2024-11-28T16:08:46.000Z</time>
      </trkpt>
      <trkpt lat="44.12557" lon="3.21274">
        <ele>549.3</ele>
        <time>2024-11-28T16:08:48.000Z</time>
      </trkpt>
      <trkpt lat="44.12549" lon="3.21281">
        <ele>547.7</ele>
        <time>2024-11-28T16:08:50.000Z</time>
      </trkpt>
      <trkpt lat="44.12539" lon="3.21286">
        <ele>545.4</ele>
        <time>2024-11-28T16:08:53.000Z</time>
      </trkpt>
      <trkpt lat="44.12529" lon="3.21289">
        <ele>544.1</ele>
        <time>2024-11-28T16:08:55.000Z</time>
      </trkpt>
      <trkpt lat="44.12518" lon="3.21299">
        <ele>541.9</ele>
        <time>2024-11-28T16:08:58.000Z</time>
      </trkpt>
      <trkpt lat="44.12509" lon="3.21306">
        <ele>540.4</ele>
        <time>2024-11-28T16:09:01.000Z</time>
      </trkpt>
      <trkpt lat="44.12502" lon="3.21314">
        <ele>538.7</ele>
        <time>2024-11-28T16:09:07.000Z</time>
      </trkpt>
      <trkpt lat="44.12492" lon="3.21309">
        <ele>537.7</ele>
        <time>2024-11-28T16:09:11.000Z</time>
      </trkpt>
      <trkpt lat="44.12479" lon="3.21308">
        <ele>536.9</ele>
        <time>2024-11-28T16:09:14.000Z</time>
      </trkpt>
      <trkpt lat="44.1247" lon="3.21307">
        <ele>536.2</ele>
        <time>2024-11-28T16:09:16.000Z</time>
      </trkpt>
      <trkpt lat="44.12457" lon="3.21307">
        <ele>535.3</ele>
        <time>2024-11-28T16:09:19.000Z</time>
      </trkpt>
      <trkpt lat="44.12444" lon="3.21309">
        <ele>534.7</ele>
        <time>2024-11-28T16:09:22.000Z</time>
      </trkpt>
      <trkpt lat="44.12435" lon="3.21312">
        <ele>534.2</ele>
        <time>2024-11-28T16:09:25.000Z</time>
      </trkpt>
      <trkpt lat="44.12426" lon="3.21318">
        <ele>533.5</ele>
        <time>2024-11-28T16:09:29.000Z</time>
      </trkpt>
      <trkpt lat="44.12417" lon="3.2132">
        <ele>533.1</ele>
        <time>2024-11-28T16:09:32.000Z</time>
      </trkpt>
      <trkpt lat="44.12406" lon="3.21325">
        <ele>532.7</ele>
        <time>2024-11-28T16:09:35.000Z</time>
      </trkpt>
      <trkpt lat="44.12396" lon="3.21329">
        <ele>532.3</ele>
        <time>2024-11-28T16:09:38.000Z</time>
      </trkpt>
      <trkpt lat="44.12387" lon="3.21335">
        <ele>532</ele>
        <time>2024-11-28T16:09:41.000Z</time>
      </trkpt>
      <trkpt lat="44.12379" lon="3.21343">
        <ele>531.7</ele>
        <time>2024-11-28T16:09:45.000Z</time>
      </trkpt>
      <trkpt lat="44.12373" lon="3.21354">
        <ele>532.2</ele>
        <time>2024-11-28T16:09:50.000Z</time>
      </trkpt>
      <trkpt lat="44.12367" lon="3.21365">
        <ele>532.8</ele>
        <time>2024-11-28T16:09:57.000Z</time>
      </trkpt>
      <trkpt lat="44.12362" lon="3.21377">
        <ele>533.1</ele>
        <time>2024-11-28T16:10:01.000Z</time>
      </trkpt>
      <trkpt lat="44.12353" lon="3.21384">
        <ele>533.5</ele>
        <time>2024-11-28T16:10:06.000Z</time>
      </trkpt>
      <trkpt lat="44.12344" lon="3.2139">
        <ele>533.8</ele>
        <time>2024-11-28T16:10:10.000Z</time>
      </trkpt>
      <trkpt lat="44.12334" lon="3.21391">
        <ele>533.9</ele>
        <time>2024-11-28T16:10:14.000Z</time>
      </trkpt>
      <trkpt lat="44.12324" lon="3.21391">
        <ele>534</ele>
        <time>2024-11-28T16:10:17.000Z</time>
      </trkpt>
      <trkpt lat="44.12311" lon="3.21391">
        <ele>533.7</ele>
        <time>2024-11-28T16:10:20.000Z</time>
      </trkpt>
      <trkpt lat="44.123" lon="3.21396">
        <ele>533.3</ele>
        <time>2024-11-28T16:10:23.000Z</time>
      </trkpt>
      <trkpt lat="44.1229" lon="3.21401">
        <ele>532.5</ele>
        <time>2024-11-28T16:10:26.000Z</time>
      </trkpt>
      <trkpt lat="44.1228" lon="3.21409">
        <ele>531.6</ele>
        <time>2024-11-28T16:10:29.000Z</time>
      </trkpt>
      <trkpt lat="44.1227" lon="3.21414">
        <ele>530.4</ele>
        <time>2024-11-28T16:10:32.000Z</time>
      </trkpt>
      <trkpt lat="44.1226" lon="3.21416">
        <ele>529.5</ele>
        <time>2024-11-28T16:10:34.000Z</time>
      </trkpt>
      <trkpt lat="44.12251" lon="3.21426">
        <ele>528</ele>
        <time>2024-11-28T16:10:37.000Z</time>
      </trkpt>
      <trkpt lat="44.1224" lon="3.21432">
        <ele>526.5</ele>
        <time>2024-11-28T16:10:40.000Z</time>
      </trkpt>
      <trkpt lat="44.12234" lon="3.21444">
        <ele>524.3</ele>
        <time>2024-11-28T16:10:44.000Z</time>
      </trkpt>
      <trkpt lat="44.12228" lon="3.21459">
        <ele>522.3</ele>
        <time>2024-11-28T16:10:48.000Z</time>
      </trkpt>
      <trkpt lat="44.12224" lon="3.21473">
        <ele>520.8</ele>
        <time>2024-11-28T16:10:51.000Z</time>
      </trkpt>
      <trkpt lat="44.12223" lon="3.21491">
        <ele>519.2</ele>
        <time>2024-11-28T16:10:54.000Z</time>
      </trkpt>
      <trkpt lat="44.12225" lon="3.21506">
        <ele>517.7</ele>
        <time>2024-11-28T16:10:57.000Z</time>
      </trkpt>
      <trkpt lat="44.12226" lon="3.21522">
        <ele>516.4</ele>
        <time>2024-11-28T16:11:00.000Z</time>
      </trkpt>
      <trkpt lat="44.12226" lon="3.21535">
        <ele>514.8</ele>
        <time>2024-11-28T16:11:03.000Z</time>
      </trkpt>
      <trkpt lat="44.12227" lon="3.2155">
        <ele>512.9</ele>
        <time>2024-11-28T16:11:06.000Z</time>
      </trkpt>
      <trkpt lat="44.12229" lon="3.21567">
        <ele>511.4</ele>
        <time>2024-11-28T16:11:09.000Z</time>
      </trkpt>
      <trkpt lat="44.12233" lon="3.21581">
        <ele>510</ele>
        <time>2024-11-28T16:11:12.000Z</time>
      </trkpt>
      <trkpt lat="44.12238" lon="3.21592">
        <ele>508.8</ele>
        <time>2024-11-28T16:11:15.000Z</time>
      </trkpt>
      <trkpt lat="44.12244" lon="3.21603">
        <ele>507.4</ele>
        <time>2024-11-28T16:11:18.000Z</time>
      </trkpt>
      <trkpt lat="44.12245" lon="3.21616">
        <ele>506</ele>
        <time>2024-11-28T16:11:21.000Z</time>
      </trkpt>
      <trkpt lat="44.12247" lon="3.21631">
        <ele>504.4</ele>
        <time>2024-11-28T16:11:24.000Z</time>
      </trkpt>
      <trkpt lat="44.12249" lon="3.21647">
        <ele>502.8</ele>
        <time>2024-11-28T16:11:27.000Z</time>
      </trkpt>
      <trkpt lat="44.12248" lon="3.21661">
        <ele>501.2</ele>
        <time>2024-11-28T16:11:30.000Z</time>
      </trkpt>
      <trkpt lat="44.12257" lon="3.21666">
        <ele>499.3</ele>
        <time>2024-11-28T16:11:34.000Z</time>
      </trkpt>
      <trkpt lat="44.12268" lon="3.21671">
        <ele>497.8</ele>
        <time>2024-11-28T16:11:38.000Z</time>
      </trkpt>
      <trkpt lat="44.12277" lon="3.21677">
        <ele>496.8</ele>
        <time>2024-11-28T16:11:41.000Z</time>
      </trkpt>
      <trkpt lat="44.12289" lon="3.21684">
        <ele>495.8</ele>
        <time>2024-11-28T16:11:44.000Z</time>
      </trkpt>
      <trkpt lat="44.12298" lon="3.21689">
        <ele>495</ele>
        <time>2024-11-28T16:11:47.000Z</time>
      </trkpt>
      <trkpt lat="44.12308" lon="3.21692">
        <ele>494.3</ele>
        <time>2024-11-28T16:11:52.000Z</time>
      </trkpt>
      <trkpt lat="44.12318" lon="3.21698">
        <ele>494</ele>
        <time>2024-11-28T16:11:58.000Z</time>
      </trkpt>
      <trkpt lat="44.12326" lon="3.21702">
        <ele>494.2</ele>
        <time>2024-11-28T16:12:04.000Z</time>
      </trkpt>
      <trkpt lat="44.12334" lon="3.21712">
        <ele>494.9</ele>
        <time>2024-11-28T16:12:13.000Z</time>
      </trkpt>
      <trkpt lat="44.1234" lon="3.21722">
        <ele>495.1</ele>
        <time>2024-11-28T16:12:18.000Z</time>
      </trkpt>
      <trkpt lat="44.12348" lon="3.21733">
        <ele>495.1</ele>
        <time>2024-11-28T16:12:23.000Z</time>
      </trkpt>
      <trkpt lat="44.12356" lon="3.21741">
        <ele>495.1</ele>
        <time>2024-11-28T16:12:27.000Z</time>
      </trkpt>
      <trkpt lat="44.12365" lon="3.21749">
        <ele>494.8</ele>
        <time>2024-11-28T16:12:31.000Z</time>
      </trkpt>
      <trkpt lat="44.12374" lon="3.21759">
        <ele>494.4</ele>
        <time>2024-11-28T16:12:35.000Z</time>
      </trkpt>
      <trkpt lat="44.12379" lon="3.21775">
        <ele>493.9</ele>
        <time>2024-11-28T16:12:38.000Z</time>
      </trkpt>
      <trkpt lat="44.12383" lon="3.21791">
        <ele>493.2</ele>
        <time>2024-11-28T16:12:41.000Z</time>
      </trkpt>
      <trkpt lat="44.12382" lon="3.21805">
        <ele>492.3</ele>
        <time>2024-11-28T16:12:44.000Z</time>
      </trkpt>
      <trkpt lat="44.12381" lon="3.21818">
        <ele>489.9</ele>
        <time>2024-11-28T16:12:51.000Z</time>
      </trkpt>
      <trkpt lat="44.12378" lon="3.21831">
        <ele>488.7</ele>
        <time>2024-11-28T16:12:54.000Z</time>
      </trkpt>
      <trkpt lat="44.1238" lon="3.21847">
        <ele>486.5</ele>
        <time>2024-11-28T16:12:58.000Z</time>
      </trkpt>
      <trkpt lat="44.12385" lon="3.21861">
        <ele>484.2</ele>
        <time>2024-11-28T16:13:03.000Z</time>
      </trkpt>
      <trkpt lat="44.12388" lon="3.21876">
        <ele>482.3</ele>
        <time>2024-11-28T16:13:07.000Z</time>
      </trkpt>
      <trkpt lat="44.12391" lon="3.21891">
        <ele>480.6</ele>
        <time>2024-11-28T16:13:10.000Z</time>
      </trkpt>
      <trkpt lat="44.12394" lon="3.21905">
        <ele>478.3</ele>
        <time>2024-11-28T16:13:14.000Z</time>
      </trkpt>
      <trkpt lat="44.12394" lon="3.21918">
        <ele>475.7</ele>
        <time>2024-11-28T16:13:18.000Z</time>
      </trkpt>
      <trkpt lat="44.12391" lon="3.21932">
        <ele>473.4</ele>
        <time>2024-11-28T16:13:22.000Z</time>
      </trkpt>
      <trkpt lat="44.12391" lon="3.21948">
        <ele>470.8</ele>
        <time>2024-11-28T16:13:26.000Z</time>
      </trkpt>
      <trkpt lat="44.12388" lon="3.21965">
        <ele>468.8</ele>
        <time>2024-11-28T16:13:29.000Z</time>
      </trkpt>
      <trkpt lat="44.12388" lon="3.21982">
        <ele>466.9</ele>
        <time>2024-11-28T16:13:32.000Z</time>
      </trkpt>
      <trkpt lat="44.12389" lon="3.21996">
        <ele>465</ele>
        <time>2024-11-28T16:13:35.000Z</time>
      </trkpt>
      <trkpt lat="44.12392" lon="3.22008">
        <ele>463.4</ele>
        <time>2024-11-28T16:13:38.000Z</time>
      </trkpt>
      <trkpt lat="44.12399" lon="3.22016">
        <ele>462</ele>
        <time>2024-11-28T16:13:41.000Z</time>
      </trkpt>
      <trkpt lat="44.1241" lon="3.22019">
        <ele>460.4</ele>
        <time>2024-11-28T16:13:45.000Z</time>
      </trkpt>
      <trkpt lat="44.12418" lon="3.22028">
        <ele>457.9</ele>
        <time>2024-11-28T16:13:50.000Z</time>
      </trkpt>
      <trkpt lat="44.12418" lon="3.22042">
        <ele>455.9</ele>
        <time>2024-11-28T16:13:54.000Z</time>
      </trkpt>
      <trkpt lat="44.12416" lon="3.22056">
        <ele>453.7</ele>
        <time>2024-11-28T16:13:58.000Z</time>
      </trkpt>
      <trkpt lat="44.12412" lon="3.2207">
        <ele>451.7</ele>
        <time>2024-11-28T16:14:02.000Z</time>
      </trkpt>
      <trkpt lat="44.12411" lon="3.22083">
        <ele>450.1</ele>
        <time>2024-11-28T16:14:05.000Z</time>
      </trkpt>
      <trkpt lat="44.12402" lon="3.22091">
        <ele>447.7</ele>
        <time>2024-11-28T16:14:09.000Z</time>
      </trkpt>
      <trkpt lat="44.12397" lon="3.22103">
        <ele>445.1</ele>
        <time>2024-11-28T16:14:13.000Z</time>
      </trkpt>
      <trkpt lat="44.12393" lon="3.22115">
        <ele>442.3</ele>
        <time>2024-11-28T16:14:17.000Z</time>
      </trkpt>
      <trkpt lat="44.12385" lon="3.22122">
        <ele>433.1</ele>
        <time>2024-11-28T16:14:32.000Z</time>
      </trkpt>
      <trkpt lat="44.12378" lon="3.22134">
        <ele>430.4</ele>
        <time>2024-11-28T16:14:37.000Z</time>
      </trkpt>
      <trkpt lat="44.1237" lon="3.22142">
        <ele>428.1</ele>
        <time>2024-11-28T16:14:41.000Z</time>
      </trkpt>
      <trkpt lat="44.12364" lon="3.22152">
        <ele>423</ele>
        <time>2024-11-28T16:14:50.000Z</time>
      </trkpt>
      <trkpt lat="44.1237" lon="3.22162">
        <ele>421.6</ele>
        <time>2024-11-28T16:14:53.000Z</time>
      </trkpt>
      <trkpt lat="44.12379" lon="3.22173">
        <ele>420.5</ele>
        <time>2024-11-28T16:14:56.000Z</time>
      </trkpt>
      <trkpt lat="44.12388" lon="3.22183">
        <ele>419.4</ele>
        <time>2024-11-28T16:14:59.000Z</time>
      </trkpt>
      <trkpt lat="44.12395" lon="3.22192">
        <ele>418.5</ele>
        <time>2024-11-28T16:15:02.000Z</time>
      </trkpt>
      <trkpt lat="44.12403" lon="3.22199">
        <ele>417.1</ele>
        <time>2024-11-28T16:15:07.000Z</time>
      </trkpt>
      <trkpt lat="44.12409" lon="3.2221">
        <ele>414</ele>
        <time>2024-11-28T16:15:15.000Z</time>
      </trkpt>
      <trkpt lat="44.12417" lon="3.22219">
        <ele>411.6</ele>
        <time>2024-11-28T16:15:20.000Z</time>
      </trkpt>
      <trkpt lat="44.12425" lon="3.22227">
        <ele>409.1</ele>
        <time>2024-11-28T16:15:25.000Z</time>
      </trkpt>
      <trkpt lat="44.12419" lon="3.22239">
        <ele>406.8</ele>
        <time>2024-11-28T16:15:30.000Z</time>
      </trkpt>
      <trkpt lat="44.12416" lon="3.22252">
        <ele>405.8</ele>
        <time>2024-11-28T16:15:35.000Z</time>
      </trkpt>
      <trkpt lat="44.12405" lon="3.22257">
        <ele>403.2</ele>
        <time>2024-11-28T16:16:20.000Z</time>
      </trkpt>
      <trkpt lat="44.12396" lon="3.22256">
        <ele>403.2</ele>
        <time>2024-11-28T16:16:22.000Z</time>
      </trkpt>
      <trkpt lat="44.12387" lon="3.22256">
        <ele>403.2</ele>
        <time>2024-11-28T16:16:24.000Z</time>
      </trkpt>
      <trkpt lat="44.12374" lon="3.22251">
        <ele>403.2</ele>
        <time>2024-11-28T16:16:27.000Z</time>
      </trkpt>
    </trkseg>
  </trk>
  <trk>
    <name><![CDATA[Raccord Le Bouxes / La Combe / La Millière]]></name>
    <desc><![CDATA[Deux portages , quelques poussages et du bois mort a couper]]></desc>
    <extensions>
      <line xmlns="http://www.topografix.com/GPX/gpx_style/0/2">
        <color>00FFFF</color>
        <width>4</width>
          <extensions>
            <sens>1</sens>
          </extensions>
      </line>
    </extensions>
    <trkseg>
      <trkpt lat="44.14073" lon="3.20308">
        <ele>752.5</ele>
        <time>2024-12-02T12:03:35.000Z</time>
      </trkpt>
      <trkpt lat="44.14064" lon="3.2031">
        <ele>750.5</ele>
        <time>2024-12-02T12:04:18.000Z</time>
      </trkpt>
      <trkpt lat="44.14059" lon="3.20322">
        <ele>751.8</ele>
        <time>2024-12-02T12:04:28.000Z</time>
      </trkpt>
      <trkpt lat="44.14061" lon="3.20335">
        <ele>752.1</ele>
        <time>2024-12-02T12:04:41.000Z</time>
      </trkpt>
      <trkpt lat="44.14062" lon="3.20348">
        <ele>751.2</ele>
        <time>2024-12-02T12:04:50.000Z</time>
      </trkpt>
      <trkpt lat="44.14069" lon="3.20355">
        <ele>798.5</ele>
      </trkpt>
      <trkpt lat="44.14075" lon="3.20348">
        <ele>749.6</ele>
        <time>2024-12-02T12:06:31.000Z</time>
      </trkpt>
      <trkpt lat="44.14084" lon="3.20352">
        <ele>748</ele>
        <time>2024-12-02T12:06:44.000Z</time>
      </trkpt>
      <trkpt lat="44.14091" lon="3.20359">
        <ele>745.8</ele>
        <time>2024-12-02T12:07:02.000Z</time>
      </trkpt>
      <trkpt lat="44.14087" lon="3.20371">
        <ele>744.8</ele>
        <time>2024-12-02T12:07:13.000Z</time>
      </trkpt>
      <trkpt lat="44.14087" lon="3.20384">
        <ele>744.6</ele>
        <time>2024-12-02T12:07:23.000Z</time>
      </trkpt>
      <trkpt lat="44.14086" lon="3.20397">
        <ele>744.6</ele>
        <time>2024-12-02T12:07:32.000Z</time>
      </trkpt>
      <trkpt lat="44.14078" lon="3.20405">
        <ele>744.8</ele>
        <time>2024-12-02T12:07:46.000Z</time>
      </trkpt>
      <trkpt lat="44.1407" lon="3.20411">
        <ele>745.2</ele>
        <time>2024-12-02T12:08:06.000Z</time>
      </trkpt>
      <trkpt lat="44.14071" lon="3.20424">
        <ele>745.6</ele>
        <time>2024-12-02T12:08:22.000Z</time>
      </trkpt>
      <trkpt lat="44.14067" lon="3.20436">
        <ele>746.3</ele>
        <time>2024-12-02T12:08:29.000Z</time>
      </trkpt>
      <trkpt lat="44.14068" lon="3.20449">
        <ele>747.1</ele>
        <time>2024-12-02T12:08:36.000Z</time>
      </trkpt>
      <trkpt lat="44.14067" lon="3.20463">
        <ele>747.9</ele>
        <time>2024-12-02T12:08:43.000Z</time>
      </trkpt>
      <trkpt lat="44.14065" lon="3.20477">
        <ele>748.9</ele>
        <time>2024-12-02T12:08:51.000Z</time>
      </trkpt>
      <trkpt lat="44.1406" lon="3.20489">
        <ele>749.4</ele>
        <time>2024-12-02T12:08:56.000Z</time>
      </trkpt>
      <trkpt lat="44.14057" lon="3.20503">
        <ele>749.6</ele>
        <time>2024-12-02T12:09:00.000Z</time>
      </trkpt>
      <trkpt lat="44.14053" lon="3.20517">
        <ele>749.5</ele>
        <time>2024-12-02T12:09:04.000Z</time>
      </trkpt>
      <trkpt lat="44.14052" lon="3.20532">
        <ele>748.9</ele>
        <time>2024-12-02T12:09:07.000Z</time>
      </trkpt>
      <trkpt lat="44.14048" lon="3.20547">
        <ele>747</ele>
        <time>2024-12-02T12:09:11.000Z</time>
      </trkpt>
      <trkpt lat="44.14046" lon="3.20561">
        <ele>745.4</ele>
        <time>2024-12-02T12:09:15.000Z</time>
      </trkpt>
      <trkpt lat="44.14042" lon="3.20575">
        <ele>743.4</ele>
        <time>2024-12-02T12:09:20.000Z</time>
      </trkpt>
      <trkpt lat="44.14037" lon="3.20588">
        <ele>741.2</ele>
        <time>2024-12-02T12:09:24.000Z</time>
      </trkpt>
      <trkpt lat="44.14033" lon="3.20604">
        <ele>739.3</ele>
        <time>2024-12-02T12:09:28.000Z</time>
      </trkpt>
      <trkpt lat="44.14027" lon="3.20614">
        <ele>737.9</ele>
        <time>2024-12-02T12:09:30.000Z</time>
      </trkpt>
      <trkpt lat="44.14021" lon="3.20626">
        <ele>736</ele>
        <time>2024-12-02T12:09:33.000Z</time>
      </trkpt>
      <trkpt lat="44.14018" lon="3.20641">
        <ele>733.1</ele>
        <time>2024-12-02T12:09:37.000Z</time>
      </trkpt>
      <trkpt lat="44.14014" lon="3.20654">
        <ele>730.2</ele>
        <time>2024-12-02T12:09:41.000Z</time>
      </trkpt>
      <trkpt lat="44.14012" lon="3.20668">
        <ele>727.6</ele>
        <time>2024-12-02T12:09:44.000Z</time>
      </trkpt>
      <trkpt lat="44.14006" lon="3.20682">
        <ele>723.7</ele>
        <time>2024-12-02T12:09:49.000Z</time>
      </trkpt>
      <trkpt lat="44.13998" lon="3.20693">
        <ele>721.8</ele>
        <time>2024-12-02T12:09:52.000Z</time>
      </trkpt>
      <trkpt lat="44.13997" lon="3.20708">
        <ele>719.2</ele>
        <time>2024-12-02T12:09:56.000Z</time>
      </trkpt>
      <trkpt lat="44.13995" lon="3.20722">
        <ele>716.3</ele>
        <time>2024-12-02T12:10:00.000Z</time>
      </trkpt>
      <trkpt lat="44.14" lon="3.20735">
        <ele>710.1</ele>
        <time>2024-12-02T12:10:08.000Z</time>
      </trkpt>
      <trkpt lat="44.14007" lon="3.20746">
        <ele>705.2</ele>
        <time>2024-12-02T12:10:14.000Z</time>
      </trkpt>
      <trkpt lat="44.14011" lon="3.20758">
        <ele>701.6</ele>
        <time>2024-12-02T12:10:18.000Z</time>
      </trkpt>
      <trkpt lat="44.14015" lon="3.20772">
        <ele>698.4</ele>
        <time>2024-12-02T12:10:22.000Z</time>
      </trkpt>
      <trkpt lat="44.1402" lon="3.20783">
        <ele>696.9</ele>
        <time>2024-12-02T12:10:24.000Z</time>
      </trkpt>
      <trkpt lat="44.14029" lon="3.20785">
        <ele>693</ele>
        <time>2024-12-02T12:10:30.000Z</time>
      </trkpt>
      <trkpt lat="44.14034" lon="3.20795">
        <ele>689</ele>
        <time>2024-12-02T12:10:38.000Z</time>
      </trkpt>
      <trkpt lat="44.14032" lon="3.2081">
        <ele>687.5</ele>
        <time>2024-12-02T12:10:41.000Z</time>
      </trkpt>
      <trkpt lat="44.1403" lon="3.20824">
        <ele>685.1</ele>
        <time>2024-12-02T12:10:46.000Z</time>
      </trkpt>
      <trkpt lat="44.14038" lon="3.20832">
        <ele>683.5</ele>
        <time>2024-12-02T12:10:50.000Z</time>
      </trkpt>
      <trkpt lat="44.14039" lon="3.20844">
        <ele>682</ele>
        <time>2024-12-02T12:10:54.000Z</time>
      </trkpt>
      <trkpt lat="44.14035" lon="3.20858">
        <ele>680.2</ele>
        <time>2024-12-02T12:11:00.000Z</time>
      </trkpt>
      <trkpt lat="44.14025" lon="3.20864">
        <ele>679.2</ele>
        <time>2024-12-02T12:11:04.000Z</time>
      </trkpt>
      <trkpt lat="44.14018" lon="3.20877">
        <ele>678.3</ele>
        <time>2024-12-02T12:11:08.000Z</time>
      </trkpt>
      <trkpt lat="44.14013" lon="3.20892">
        <ele>677.4</ele>
        <time>2024-12-02T12:11:11.000Z</time>
      </trkpt>
      <trkpt lat="44.14004" lon="3.20906">
        <ele>676.7</ele>
        <time>2024-12-02T12:11:14.000Z</time>
      </trkpt>
      <trkpt lat="44.13995" lon="3.20919">
        <ele>676</ele>
        <time>2024-12-02T12:11:17.000Z</time>
      </trkpt>
      <trkpt lat="44.13986" lon="3.20923">
        <ele>675.7</ele>
        <time>2024-12-02T12:11:19.000Z</time>
      </trkpt>
      <trkpt lat="44.13974" lon="3.20929">
        <ele>675.1</ele>
        <time>2024-12-02T12:11:22.000Z</time>
      </trkpt>
      <trkpt lat="44.13962" lon="3.20935">
        <ele>674.7</ele>
        <time>2024-12-02T12:11:24.000Z</time>
      </trkpt>
      <trkpt lat="44.13952" lon="3.20945">
        <ele>673.9</ele>
        <time>2024-12-02T12:11:26.000Z</time>
      </trkpt>
      <trkpt lat="44.13944" lon="3.20956">
        <ele>673.3</ele>
        <time>2024-12-02T12:11:28.000Z</time>
      </trkpt>
      <trkpt lat="44.13938" lon="3.20966">
        <ele>672.8</ele>
        <time>2024-12-02T12:11:30.000Z</time>
      </trkpt>
      <trkpt lat="44.13932" lon="3.2098">
        <ele>672.1</ele>
        <time>2024-12-02T12:11:33.000Z</time>
      </trkpt>
      <trkpt lat="44.13924" lon="3.20988">
        <ele>671.6</ele>
        <time>2024-12-02T12:11:36.000Z</time>
      </trkpt>
      <trkpt lat="44.13914" lon="3.20992">
        <ele>671.2</ele>
        <time>2024-12-02T12:11:40.000Z</time>
      </trkpt>
      <trkpt lat="44.13903" lon="3.20999">
        <ele>671.1</ele>
        <time>2024-12-02T12:11:45.000Z</time>
      </trkpt>
      <trkpt lat="44.13892" lon="3.2101">
        <ele>670.7</ele>
        <time>2024-12-02T12:11:48.000Z</time>
      </trkpt>
      <trkpt lat="44.13884" lon="3.21018">
        <ele>669.8</ele>
        <time>2024-12-02T12:11:50.000Z</time>
      </trkpt>
      <trkpt lat="44.13874" lon="3.21019">
        <ele>669</ele>
        <time>2024-12-02T12:11:52.000Z</time>
      </trkpt>
      <trkpt lat="44.13864" lon="3.21015">
        <ele>668.4</ele>
        <time>2024-12-02T12:11:54.000Z</time>
      </trkpt>
      <trkpt lat="44.13856" lon="3.21004">
        <ele>667.7</ele>
        <time>2024-12-02T12:11:56.000Z</time>
      </trkpt>
      <trkpt lat="44.13847" lon="3.20998">
        <ele>667.1</ele>
        <time>2024-12-02T12:11:58.000Z</time>
      </trkpt>
      <trkpt lat="44.13837" lon="3.20992">
        <ele>666.4</ele>
        <time>2024-12-02T12:12:01.000Z</time>
      </trkpt>
      <trkpt lat="44.13826" lon="3.21">
        <ele>665.4</ele>
        <time>2024-12-02T12:12:05.000Z</time>
      </trkpt>
      <trkpt lat="44.13818" lon="3.21009">
        <ele>665</ele>
        <time>2024-12-02T12:12:07.000Z</time>
      </trkpt>
      <trkpt lat="44.13809" lon="3.21017">
        <ele>664.2</ele>
        <time>2024-12-02T12:12:10.000Z</time>
      </trkpt>
      <trkpt lat="44.13802" lon="3.21028">
        <ele>662.5</ele>
        <time>2024-12-02T12:13:26.000Z</time>
      </trkpt>
      <trkpt lat="44.13795" lon="3.21037">
        <ele>662.9</ele>
        <time>2024-12-02T12:13:31.000Z</time>
      </trkpt>
      <trkpt lat="44.13786" lon="3.21041">
        <ele>664</ele>
        <time>2024-12-02T12:13:44.000Z</time>
      </trkpt>
      <trkpt lat="44.13778" lon="3.21046">
        <ele>665.2</ele>
        <time>2024-12-02T12:13:53.000Z</time>
      </trkpt>
      <trkpt lat="44.13787" lon="3.21047">
        <ele>667.1</ele>
        <time>2024-12-02T12:14:14.000Z</time>
      </trkpt>
      <trkpt lat="44.13797" lon="3.21041">
        <ele>666.8</ele>
        <time>2024-12-02T12:14:29.000Z</time>
      </trkpt>
      <trkpt lat="44.13804" lon="3.21032">
        <ele>666.5</ele>
        <time>2024-12-02T12:14:33.000Z</time>
      </trkpt>
      <trkpt lat="44.13794" lon="3.21028">
        <ele>666</ele>
        <time>2024-12-02T12:14:39.000Z</time>
      </trkpt>
      <trkpt lat="44.13786" lon="3.21019">
        <ele>665.8</ele>
        <time>2024-12-02T12:14:43.000Z</time>
      </trkpt>
      <trkpt lat="44.13786" lon="3.21005">
        <ele>665.9</ele>
        <time>2024-12-02T12:14:49.000Z</time>
      </trkpt>
      <trkpt lat="44.13789" lon="3.20989">
        <ele>665.9</ele>
        <time>2024-12-02T12:14:52.000Z</time>
      </trkpt>
      <trkpt lat="44.13793" lon="3.20976">
        <ele>665.6</ele>
        <time>2024-12-02T12:14:54.000Z</time>
      </trkpt>
      <trkpt lat="44.13798" lon="3.20964">
        <ele>665.4</ele>
        <time>2024-12-02T12:14:58.000Z</time>
      </trkpt>
      <trkpt lat="44.13798" lon="3.20951">
        <ele>665.5</ele>
        <time>2024-12-02T12:15:04.000Z</time>
      </trkpt>
      <trkpt lat="44.13802" lon="3.20938">
        <ele>665.6</ele>
        <time>2024-12-02T12:15:08.000Z</time>
      </trkpt>
      <trkpt lat="44.13802" lon="3.20923">
        <ele>666.2</ele>
        <time>2024-12-02T12:15:15.000Z</time>
      </trkpt>
      <trkpt lat="44.13804" lon="3.20909">
        <ele>667</ele>
        <time>2024-12-02T12:15:23.000Z</time>
      </trkpt>
      <trkpt lat="44.13802" lon="3.20896">
        <ele>667.9</ele>
        <time>2024-12-02T12:15:30.000Z</time>
      </trkpt>
      <trkpt lat="44.13799" lon="3.20884">
        <ele>674.8</ele>
        <time>2024-12-02T12:16:10.000Z</time>
      </trkpt>
      <trkpt lat="44.1379" lon="3.20879">
        <ele>715.5</ele>
        <time>2024-12-02T12:19:12.000Z</time>
      </trkpt>
      <trkpt lat="44.13758" lon="3.20861">
        <ele>718</ele>
        <time>2024-12-02T12:19:25.000Z</time>
      </trkpt>
      <trkpt lat="44.13744" lon="3.20859">
        <ele>719.8</ele>
        <time>2024-12-02T12:19:34.000Z</time>
      </trkpt>
      <trkpt lat="44.13733" lon="3.20858">
        <ele>721.2</ele>
        <time>2024-12-02T12:19:41.000Z</time>
      </trkpt>
      <trkpt lat="44.13722" lon="3.20854">
        <ele>721.9</ele>
        <time>2024-12-02T12:19:45.000Z</time>
      </trkpt>
      <trkpt lat="44.13713" lon="3.20851">
        <ele>724</ele>
        <time>2024-12-02T12:19:55.000Z</time>
      </trkpt>
      <trkpt lat="44.13704" lon="3.20848">
        <ele>726.8</ele>
        <time>2024-12-02T12:20:10.000Z</time>
      </trkpt>
      <trkpt lat="44.13695" lon="3.20851">
        <ele>729.7</ele>
        <time>2024-12-02T12:20:29.000Z</time>
      </trkpt>
      <trkpt lat="44.13686" lon="3.2085">
        <ele>730.7</ele>
        <time>2024-12-02T12:20:38.000Z</time>
      </trkpt>
      <trkpt lat="44.1368" lon="3.2086">
        <ele>731.8</ele>
        <time>2024-12-02T12:20:48.000Z</time>
      </trkpt>
      <trkpt lat="44.1367" lon="3.20863">
        <ele>733.5</ele>
        <time>2024-12-02T12:21:02.000Z</time>
      </trkpt>
      <trkpt lat="44.13662" lon="3.20867">
        <ele>735.3</ele>
        <time>2024-12-02T12:21:17.000Z</time>
      </trkpt>
      <trkpt lat="44.13652" lon="3.2087">
        <ele>736.5</ele>
        <time>2024-12-02T12:21:25.000Z</time>
      </trkpt>
      <trkpt lat="44.13643" lon="3.20869">
        <ele>737.7</ele>
        <time>2024-12-02T12:21:32.000Z</time>
      </trkpt>
      <trkpt lat="44.13634" lon="3.2087">
        <ele>739.1</ele>
        <time>2024-12-02T12:21:41.000Z</time>
      </trkpt>
      <trkpt lat="44.13625" lon="3.20873">
        <ele>740.6</ele>
        <time>2024-12-02T12:21:50.000Z</time>
      </trkpt>
      <trkpt lat="44.13616" lon="3.20879">
        <ele>741.6</ele>
        <time>2024-12-02T12:21:56.000Z</time>
      </trkpt>
      <trkpt lat="44.13607" lon="3.20882">
        <ele>743.7</ele>
        <time>2024-12-02T12:22:06.000Z</time>
      </trkpt>
      <trkpt lat="44.13598" lon="3.20884">
        <ele>745.5</ele>
        <time>2024-12-02T12:22:16.000Z</time>
      </trkpt>
      <trkpt lat="44.13589" lon="3.2089">
        <ele>747.3</ele>
        <time>2024-12-02T12:22:27.000Z</time>
      </trkpt>
      <trkpt lat="44.1358" lon="3.20894">
        <ele>748.6</ele>
        <time>2024-12-02T12:22:37.000Z</time>
      </trkpt>
      <trkpt lat="44.1357" lon="3.20898">
        <ele>749.5</ele>
        <time>2024-12-02T12:22:44.000Z</time>
      </trkpt>
      <trkpt lat="44.13561" lon="3.20903">
        <ele>750.1</ele>
        <time>2024-12-02T12:22:50.000Z</time>
      </trkpt>
      <trkpt lat="44.13552" lon="3.20905">
        <ele>750.5</ele>
        <time>2024-12-02T12:22:55.000Z</time>
      </trkpt>
      <trkpt lat="44.13542" lon="3.20908">
        <ele>750.8</ele>
        <time>2024-12-02T12:23:01.000Z</time>
      </trkpt>
      <trkpt lat="44.13532" lon="3.20912">
        <ele>751.6</ele>
        <time>2024-12-02T12:23:09.000Z</time>
      </trkpt>
      <trkpt lat="44.13523" lon="3.20914">
        <ele>753.1</ele>
        <time>2024-12-02T12:23:19.000Z</time>
      </trkpt>
      <trkpt lat="44.13514" lon="3.20917">
        <ele>755.8</ele>
        <time>2024-12-02T12:23:38.000Z</time>
      </trkpt>
      <trkpt lat="44.13507" lon="3.20924">
        <ele>758.4</ele>
        <time>2024-12-02T12:23:55.000Z</time>
      </trkpt>
      <trkpt lat="44.13498" lon="3.20928">
        <ele>761.6</ele>
        <time>2024-12-02T12:24:12.000Z</time>
      </trkpt>
      <trkpt lat="44.13487" lon="3.20928">
        <ele>762.7</ele>
        <time>2024-12-02T12:24:21.000Z</time>
      </trkpt>
      <trkpt lat="44.13478" lon="3.20931">
        <ele>763.4</ele>
        <time>2024-12-02T12:24:29.000Z</time>
      </trkpt>
      <trkpt lat="44.13468" lon="3.20929">
        <ele>764</ele>
        <time>2024-12-02T12:24:36.000Z</time>
      </trkpt>
      <trkpt lat="44.13459" lon="3.20931">
        <ele>764.6</ele>
        <time>2024-12-02T12:24:43.000Z</time>
      </trkpt>
      <trkpt lat="44.1345" lon="3.20937">
        <ele>765.5</ele>
        <time>2024-12-02T12:24:50.000Z</time>
      </trkpt>
      <trkpt lat="44.13442" lon="3.20942">
        <ele>766.7</ele>
        <time>2024-12-02T12:24:58.000Z</time>
      </trkpt>
      <trkpt lat="44.13433" lon="3.2095">
        <ele>768.1</ele>
        <time>2024-12-02T12:25:06.000Z</time>
      </trkpt>
      <trkpt lat="44.13425" lon="3.20955">
        <ele>769.1</ele>
        <time>2024-12-02T12:25:13.000Z</time>
      </trkpt>
      <trkpt lat="44.13415" lon="3.20959">
        <ele>770.2</ele>
        <time>2024-12-02T12:25:20.000Z</time>
      </trkpt>
      <trkpt lat="44.13407" lon="3.20965">
        <ele>771.1</ele>
        <time>2024-12-02T12:25:28.000Z</time>
      </trkpt>
      <trkpt lat="44.13399" lon="3.20973">
        <ele>771.6</ele>
        <time>2024-12-02T12:25:34.000Z</time>
      </trkpt>
      <trkpt lat="44.13392" lon="3.20983">
        <ele>772.1</ele>
        <time>2024-12-02T12:25:40.000Z</time>
      </trkpt>
      <trkpt lat="44.13382" lon="3.20987">
        <ele>772.8</ele>
        <time>2024-12-02T12:25:47.000Z</time>
      </trkpt>
      <trkpt lat="44.13372" lon="3.20986">
        <ele>773.4</ele>
        <time>2024-12-02T12:25:55.000Z</time>
      </trkpt>
      <trkpt lat="44.13363" lon="3.20986">
        <ele>774.1</ele>
        <time>2024-12-02T12:26:02.000Z</time>
      </trkpt>
      <trkpt lat="44.13353" lon="3.20991">
        <ele>774.3</ele>
        <time>2024-12-02T12:26:07.000Z</time>
      </trkpt>
      <trkpt lat="44.13344" lon="3.21004">
        <ele>774.3</ele>
        <time>2024-12-02T12:26:10.000Z</time>
      </trkpt>
      <trkpt lat="44.13335" lon="3.21009">
        <ele>774.1</ele>
        <time>2024-12-02T12:26:13.000Z</time>
      </trkpt>
      <trkpt lat="44.13325" lon="3.2101">
        <ele>773.9</ele>
        <time>2024-12-02T12:26:17.000Z</time>
      </trkpt>
      <trkpt lat="44.13314" lon="3.21009">
        <ele>773.7</ele>
        <time>2024-12-02T12:26:23.000Z</time>
      </trkpt>
      <trkpt lat="44.13305" lon="3.21005">
        <ele>773.7</ele>
        <time>2024-12-02T12:26:26.000Z</time>
      </trkpt>
      <trkpt lat="44.13295" lon="3.20999">
        <ele>773.7</ele>
        <time>2024-12-02T12:26:31.000Z</time>
      </trkpt>
      <trkpt lat="44.13287" lon="3.2099">
        <ele>773.7</ele>
        <time>2024-12-02T12:26:35.000Z</time>
      </trkpt>
      <trkpt lat="44.13284" lon="3.20978">
        <ele>773.7</ele>
        <time>2024-12-02T12:26:40.000Z</time>
      </trkpt>
      <trkpt lat="44.13275" lon="3.2097">
        <ele>773.9</ele>
        <time>2024-12-02T12:26:48.000Z</time>
      </trkpt>
      <trkpt lat="44.13267" lon="3.20959">
        <ele>774</ele>
        <time>2024-12-02T12:26:54.000Z</time>
      </trkpt>
      <trkpt lat="44.13259" lon="3.20952">
        <ele>774.2</ele>
        <time>2024-12-02T12:27:00.000Z</time>
      </trkpt>
      <trkpt lat="44.13251" lon="3.20944">
        <ele>774.3</ele>
        <time>2024-12-02T12:27:04.000Z</time>
      </trkpt>
      <trkpt lat="44.13253" lon="3.20931">
        <ele>773.9</ele>
        <time>2024-12-02T12:27:10.000Z</time>
      </trkpt>
      <trkpt lat="44.1326" lon="3.20921">
        <ele>770.7</ele>
        <time>2024-12-02T12:29:59.000Z</time>
      </trkpt>
      <trkpt lat="44.13256" lon="3.20909">
        <ele>769.5</ele>
        <time>2024-12-02T12:30:03.000Z</time>
      </trkpt>
      <trkpt lat="44.13255" lon="3.20895">
        <ele>767.4</ele>
        <time>2024-12-02T12:30:09.000Z</time>
      </trkpt>
      <trkpt lat="44.13261" lon="3.20882">
        <ele>765.8</ele>
        <time>2024-12-02T12:30:13.000Z</time>
      </trkpt>
      <trkpt lat="44.13256" lon="3.20871">
        <ele>763.5</ele>
        <time>2024-12-02T12:30:18.000Z</time>
      </trkpt>
      <trkpt lat="44.13245" lon="3.20867">
        <ele>761.8</ele>
        <time>2024-12-02T12:30:22.000Z</time>
      </trkpt>
      <trkpt lat="44.13237" lon="3.20859">
        <ele>760</ele>
        <time>2024-12-02T12:30:26.000Z</time>
      </trkpt>
      <trkpt lat="44.13231" lon="3.20847">
        <ele>758.4</ele>
        <time>2024-12-02T12:30:29.000Z</time>
      </trkpt>
      <trkpt lat="44.13223" lon="3.20842">
        <ele>757</ele>
        <time>2024-12-02T12:30:32.000Z</time>
      </trkpt>
      <trkpt lat="44.13214" lon="3.20839">
        <ele>755.3</ele>
        <time>2024-12-02T12:30:36.000Z</time>
      </trkpt>
      <trkpt lat="44.13203" lon="3.20836">
        <ele>753.8</ele>
        <time>2024-12-02T12:30:39.000Z</time>
      </trkpt>
      <trkpt lat="44.13194" lon="3.20832">
        <ele>751.6</ele>
        <time>2024-12-02T12:30:44.000Z</time>
      </trkpt>
      <trkpt lat="44.13188" lon="3.20842">
        <ele>750.5</ele>
        <time>2024-12-02T12:30:47.000Z</time>
      </trkpt>
      <trkpt lat="44.13179" lon="3.20846">
        <ele>749.1</ele>
        <time>2024-12-02T12:30:52.000Z</time>
      </trkpt>
      <trkpt lat="44.13168" lon="3.20842">
        <ele>747.1</ele>
        <time>2024-12-02T12:30:57.000Z</time>
      </trkpt>
      <trkpt lat="44.13156" lon="3.20846">
        <ele>745.2</ele>
        <time>2024-12-02T12:31:01.000Z</time>
      </trkpt>
      <trkpt lat="44.13146" lon="3.20851">
        <ele>743.8</ele>
        <time>2024-12-02T12:31:04.000Z</time>
      </trkpt>
      <trkpt lat="44.13136" lon="3.20849">
        <ele>742.3</ele>
        <time>2024-12-02T12:31:07.000Z</time>
      </trkpt>
      <trkpt lat="44.13127" lon="3.20838">
        <ele>740.4</ele>
        <time>2024-12-02T12:31:11.000Z</time>
      </trkpt>
      <trkpt lat="44.13117" lon="3.20838">
        <ele>737.5</ele>
        <time>2024-12-02T12:31:18.000Z</time>
      </trkpt>
      <trkpt lat="44.13109" lon="3.20835">
        <ele>735.6</ele>
        <time>2024-12-02T12:31:24.000Z</time>
      </trkpt>
      <trkpt lat="44.131" lon="3.20831">
        <ele>734.6</ele>
        <time>2024-12-02T12:31:28.000Z</time>
      </trkpt>
      <trkpt lat="44.13089" lon="3.20834">
        <ele>733.6</ele>
        <time>2024-12-02T12:31:32.000Z</time>
      </trkpt>
      <trkpt lat="44.13078" lon="3.20828">
        <ele>732.5</ele>
        <time>2024-12-02T12:31:37.000Z</time>
      </trkpt>
      <trkpt lat="44.13066" lon="3.20822">
        <ele>731.9</ele>
        <time>2024-12-02T12:31:40.000Z</time>
      </trkpt>
      <trkpt lat="44.13053" lon="3.20825">
        <ele>731.2</ele>
        <time>2024-12-02T12:31:43.000Z</time>
      </trkpt>
      <trkpt lat="44.13043" lon="3.20827">
        <ele>730.7</ele>
        <time>2024-12-02T12:31:45.000Z</time>
      </trkpt>
      <trkpt lat="44.13033" lon="3.20835">
        <ele>729.8</ele>
        <time>2024-12-02T12:31:48.000Z</time>
      </trkpt>
      <trkpt lat="44.13022" lon="3.20838">
        <ele>728.5</ele>
        <time>2024-12-02T12:31:53.000Z</time>
      </trkpt>
      <trkpt lat="44.13012" lon="3.20836">
        <ele>727.7</ele>
        <time>2024-12-02T12:31:56.000Z</time>
      </trkpt>
      <trkpt lat="44.13001" lon="3.20834">
        <ele>726.6</ele>
        <time>2024-12-02T12:32:00.000Z</time>
      </trkpt>
      <trkpt lat="44.1299" lon="3.20829">
        <ele>725.8</ele>
        <time>2024-12-02T12:32:03.000Z</time>
      </trkpt>
      <trkpt lat="44.12979" lon="3.20825">
        <ele>724.7</ele>
        <time>2024-12-02T12:32:07.000Z</time>
      </trkpt>
      <trkpt lat="44.12981" lon="3.2084">
        <ele>722.5</ele>
        <time>2024-12-02T12:32:13.000Z</time>
      </trkpt>
      <trkpt lat="44.12983" lon="3.20854">
        <ele>720.8</ele>
        <time>2024-12-02T12:32:17.000Z</time>
      </trkpt>
      <trkpt lat="44.12974" lon="3.20864">
        <ele>718.6</ele>
        <time>2024-12-02T12:32:22.000Z</time>
      </trkpt>
      <trkpt lat="44.12967" lon="3.20873">
        <ele>717.1</ele>
        <time>2024-12-02T12:32:25.000Z</time>
      </trkpt>
      <trkpt lat="44.12965" lon="3.20886">
        <ele>713.6</ele>
        <time>2024-12-02T12:32:33.000Z</time>
      </trkpt>
      <trkpt lat="44.12966" lon="3.20903">
        <ele>711.6</ele>
        <time>2024-12-02T12:32:38.000Z</time>
      </trkpt>
      <trkpt lat="44.12967" lon="3.20917">
        <ele>710</ele>
        <time>2024-12-02T12:32:42.000Z</time>
      </trkpt>
      <trkpt lat="44.1297" lon="3.2093">
        <ele>708.7</ele>
        <time>2024-12-02T12:32:46.000Z</time>
      </trkpt>
      <trkpt lat="44.12967" lon="3.20946">
        <ele>707.4</ele>
        <time>2024-12-02T12:32:51.000Z</time>
      </trkpt>
      <trkpt lat="44.12966" lon="3.20959">
        <ele>706.6</ele>
        <time>2024-12-02T12:32:54.000Z</time>
      </trkpt>
      <trkpt lat="44.12968" lon="3.20975">
        <ele>705.6</ele>
        <time>2024-12-02T12:32:57.000Z</time>
      </trkpt>
      <trkpt lat="44.12967" lon="3.20989">
        <ele>704.3</ele>
        <time>2024-12-02T12:33:00.000Z</time>
      </trkpt>
      <trkpt lat="44.12963" lon="3.21002">
        <ele>702.6</ele>
        <time>2024-12-02T12:33:03.000Z</time>
      </trkpt>
      <trkpt lat="44.12961" lon="3.21016">
        <ele>701.1</ele>
        <time>2024-12-02T12:33:06.000Z</time>
      </trkpt>
      <trkpt lat="44.12958" lon="3.21031">
        <ele>698.6</ele>
        <time>2024-12-02T12:33:11.000Z</time>
      </trkpt>
      <trkpt lat="44.12956" lon="3.21045">
        <ele>696.4</ele>
        <time>2024-12-02T12:33:15.000Z</time>
      </trkpt>
      <trkpt lat="44.12964" lon="3.21057">
        <ele>694.1</ele>
        <time>2024-12-02T12:33:19.000Z</time>
      </trkpt>
      <trkpt lat="44.12974" lon="3.21068">
        <ele>692.5</ele>
        <time>2024-12-02T12:33:22.000Z</time>
      </trkpt>
      <trkpt lat="44.12983" lon="3.21077">
        <ele>690.9</ele>
        <time>2024-12-02T12:33:25.000Z</time>
      </trkpt>
      <trkpt lat="44.12989" lon="3.21087">
        <ele>686.4</ele>
        <time>2024-12-02T12:33:34.000Z</time>
      </trkpt>
      <trkpt lat="44.12985" lon="3.21098">
        <ele>679.8</ele>
        <time>2024-12-02T12:33:52.000Z</time>
      </trkpt>
      <trkpt lat="44.12975" lon="3.21098">
        <ele>678.9</ele>
        <time>2024-12-02T12:33:55.000Z</time>
      </trkpt>
      <trkpt lat="44.12966" lon="3.21096">
        <ele>678.2</ele>
        <time>2024-12-02T12:33:57.000Z</time>
      </trkpt>
      <trkpt lat="44.12957" lon="3.21094">
        <ele>677.6</ele>
        <time>2024-12-02T12:33:59.000Z</time>
      </trkpt>
      <trkpt lat="44.12948" lon="3.21092">
        <ele>677</ele>
        <time>2024-12-02T12:34:01.000Z</time>
      </trkpt>
      <trkpt lat="44.12939" lon="3.21084">
        <ele>675.5</ele>
        <time>2024-12-02T12:34:05.000Z</time>
      </trkpt>
      <trkpt lat="44.12934" lon="3.21074">
        <ele>674</ele>
        <time>2024-12-02T12:34:08.000Z</time>
      </trkpt>
      <trkpt lat="44.12926" lon="3.21063">
        <ele>672.2</ele>
        <time>2024-12-02T12:34:11.000Z</time>
      </trkpt>
      <trkpt lat="44.12919" lon="3.21052">
        <ele>669.9</ele>
        <time>2024-12-02T12:34:15.000Z</time>
      </trkpt>
      <trkpt lat="44.12917" lon="3.21067">
        <ele>667.2</ele>
        <time>2024-12-02T12:34:20.000Z</time>
      </trkpt>
      <trkpt lat="44.1291" lon="3.21078">
        <ele>660.4</ele>
        <time>2024-12-02T12:34:33.000Z</time>
      </trkpt>
      <trkpt lat="44.12906" lon="3.2109">
        <ele>651</ele>
        <time>2024-12-02T12:35:29.000Z</time>
      </trkpt>
      <trkpt lat="44.12897" lon="3.21097">
        <ele>650.1</ele>
        <time>2024-12-02T12:35:32.000Z</time>
      </trkpt>
      <trkpt lat="44.12889" lon="3.21108">
        <ele>649.1</ele>
        <time>2024-12-02T12:35:35.000Z</time>
      </trkpt>
      <trkpt lat="44.1288" lon="3.21113">
        <ele>648</ele>
        <time>2024-12-02T12:35:38.000Z</time>
      </trkpt>
      <trkpt lat="44.12867" lon="3.21117">
        <ele>646.4</ele>
        <time>2024-12-02T12:35:42.000Z</time>
      </trkpt>
      <trkpt lat="44.12858" lon="3.21119">
        <ele>645.3</ele>
        <time>2024-12-02T12:35:45.000Z</time>
      </trkpt>
      <trkpt lat="44.12848" lon="3.21119">
        <ele>643.4</ele>
        <time>2024-12-02T12:35:50.000Z</time>
      </trkpt>
      <trkpt lat="44.12839" lon="3.21121">
        <ele>641</ele>
        <time>2024-12-02T12:35:55.000Z</time>
      </trkpt>
      <trkpt lat="44.12831" lon="3.21127">
        <ele>638.6</ele>
        <time>2024-12-02T12:36:00.000Z</time>
      </trkpt>
      <trkpt lat="44.12827" lon="3.21139">
        <ele>632.9</ele>
        <time>2024-12-02T12:36:11.000Z</time>
      </trkpt>
      <trkpt lat="44.12817" lon="3.21145">
        <ele>630.5</ele>
        <time>2024-12-02T12:36:15.000Z</time>
      </trkpt>
      <trkpt lat="44.12808" lon="3.21149">
        <ele>629.3</ele>
        <time>2024-12-02T12:36:17.000Z</time>
      </trkpt>
      <trkpt lat="44.12798" lon="3.21154">
        <ele>628.1</ele>
        <time>2024-12-02T12:36:19.000Z</time>
      </trkpt>
      <trkpt lat="44.12789" lon="3.21159">
        <ele>626.8</ele>
        <time>2024-12-02T12:36:21.000Z</time>
      </trkpt>
      <trkpt lat="44.12796" lon="3.21167">
        <ele>621.9</ele>
        <time>2024-12-02T12:36:30.000Z</time>
      </trkpt>
      <trkpt lat="44.12796" lon="3.2118">
        <ele>614</ele>
        <time>2024-12-02T12:37:02.000Z</time>
      </trkpt>
      <trkpt lat="44.12785" lon="3.21189">
        <ele>612.7</ele>
        <time>2024-12-02T12:37:09.000Z</time>
      </trkpt>
      <trkpt lat="44.12777" lon="3.21195">
        <ele>611.9</ele>
        <time>2024-12-02T12:37:12.000Z</time>
      </trkpt>
      <trkpt lat="44.12766" lon="3.21199">
        <ele>610.7</ele>
        <time>2024-12-02T12:37:15.000Z</time>
      </trkpt>
      <trkpt lat="44.12754" lon="3.21201">
        <ele>609.2</ele>
        <time>2024-12-02T12:37:18.000Z</time>
      </trkpt>
      <trkpt lat="44.12742" lon="3.21204">
        <ele>607.7</ele>
        <time>2024-12-02T12:37:21.000Z</time>
      </trkpt>
      <trkpt lat="44.12732" lon="3.21204">
        <ele>606.6</ele>
        <time>2024-12-02T12:37:23.000Z</time>
      </trkpt>
      <trkpt lat="44.1272" lon="3.21203">
        <ele>605</ele>
        <time>2024-12-02T12:37:26.000Z</time>
      </trkpt>
      <trkpt lat="44.1271" lon="3.21202">
        <ele>603.9</ele>
        <time>2024-12-02T12:37:28.000Z</time>
      </trkpt>
      <trkpt lat="44.12698" lon="3.21199">
        <ele>602.4</ele>
        <time>2024-12-02T12:37:31.000Z</time>
      </trkpt>
      <trkpt lat="44.12687" lon="3.21196">
        <ele>600</ele>
        <time>2024-12-02T12:37:35.000Z</time>
      </trkpt>
      <trkpt lat="44.12678" lon="3.21194">
        <ele>598.3</ele>
        <time>2024-12-02T12:37:38.000Z</time>
      </trkpt>
      <trkpt lat="44.12668" lon="3.2119">
        <ele>594.4</ele>
        <time>2024-12-02T12:37:44.000Z</time>
      </trkpt>
      <trkpt lat="44.12661" lon="3.21181">
        <ele>586.8</ele>
        <time>2024-12-02T12:38:13.000Z</time>
      </trkpt>
      <trkpt lat="44.12666" lon="3.2117">
        <ele>586.5</ele>
        <time>2024-12-02T12:38:24.000Z</time>
      </trkpt>
      <trkpt lat="44.12668" lon="3.21158">
        <ele>586.9</ele>
        <time>2024-12-02T12:38:33.000Z</time>
      </trkpt>
      <trkpt lat="44.12668" lon="3.21145">
        <ele>588.2</ele>
        <time>2024-12-02T12:38:54.000Z</time>
      </trkpt>
      <trkpt lat="44.12671" lon="3.2113">
        <ele>588.4</ele>
        <time>2024-12-02T12:38:59.000Z</time>
      </trkpt>
      <trkpt lat="44.12675" lon="3.21116">
        <ele>588.8</ele>
        <time>2024-12-02T12:39:06.000Z</time>
      </trkpt>
      <trkpt lat="44.12677" lon="3.21104">
        <ele>589.2</ele>
        <time>2024-12-02T12:39:13.000Z</time>
      </trkpt>
      <trkpt lat="44.12682" lon="3.21091">
        <ele>589</ele>
        <time>2024-12-02T12:39:24.000Z</time>
      </trkpt>
      <trkpt lat="44.12683" lon="3.21079">
        <ele>588.5</ele>
        <time>2024-12-02T12:39:31.000Z</time>
      </trkpt>
      <trkpt lat="44.12677" lon="3.21069">
        <ele>588</ele>
        <time>2024-12-02T12:39:35.000Z</time>
      </trkpt>
      <trkpt lat="44.12654" lon="3.21029">
        <ele>587</ele>
        <time>2024-12-02T12:39:43.000Z</time>
      </trkpt>
      <trkpt lat="44.12643" lon="3.21008">
        <ele>586.4</ele>
        <time>2024-12-02T12:39:48.000Z</time>
      </trkpt>
      <trkpt lat="44.12639" lon="3.20996">
        <ele>586.5</ele>
        <time>2024-12-02T12:39:54.000Z</time>
      </trkpt>
      <trkpt lat="44.12629" lon="3.20993">
        <ele>586.7</ele>
        <time>2024-12-02T12:40:00.000Z</time>
      </trkpt>
      <trkpt lat="44.12619" lon="3.20997">
        <ele>586.9</ele>
        <time>2024-12-02T12:40:06.000Z</time>
      </trkpt>
      <trkpt lat="44.12609" lon="3.20998">
        <ele>587</ele>
        <time>2024-12-02T12:40:11.000Z</time>
      </trkpt>
      <trkpt lat="44.126" lon="3.20997">
        <ele>587.1</ele>
        <time>2024-12-02T12:40:18.000Z</time>
      </trkpt>
      <trkpt lat="44.1259" lon="3.20993">
        <ele>587.3</ele>
        <time>2024-12-02T12:40:36.000Z</time>
      </trkpt>
      <trkpt lat="44.12581" lon="3.20989">
        <ele>587.2</ele>
        <time>2024-12-02T12:40:40.000Z</time>
      </trkpt>
      <trkpt lat="44.12575" lon="3.20979">
        <ele>587.2</ele>
        <time>2024-12-02T12:40:44.000Z</time>
      </trkpt>
      <trkpt lat="44.12566" lon="3.20975">
        <ele>587.4</ele>
        <time>2024-12-02T12:40:50.000Z</time>
      </trkpt>
      <trkpt lat="44.12557" lon="3.20969">
        <ele>587.8</ele>
        <time>2024-12-02T12:41:02.000Z</time>
      </trkpt>
      <trkpt lat="44.12549" lon="3.20963">
        <ele>587.9</ele>
        <time>2024-12-02T12:41:08.000Z</time>
      </trkpt>
      <trkpt lat="44.12543" lon="3.20953">
        <ele>587.8</ele>
        <time>2024-12-02T12:41:11.000Z</time>
      </trkpt>
      <trkpt lat="44.12536" lon="3.20941">
        <ele>587.6</ele>
        <time>2024-12-02T12:41:15.000Z</time>
      </trkpt>
      <trkpt lat="44.1253" lon="3.20931">
        <ele>587.4</ele>
        <time>2024-12-02T12:41:21.000Z</time>
      </trkpt>
      <trkpt lat="44.12528" lon="3.20917">
        <ele>586.8</ele>
        <time>2024-12-02T12:42:03.000Z</time>
      </trkpt>
      <trkpt lat="44.12531" lon="3.20905">
        <ele>587</ele>
        <time>2024-12-02T12:42:12.000Z</time>
      </trkpt>
      <trkpt lat="44.12535" lon="3.20894">
        <ele>588.3</ele>
        <time>2024-12-02T12:42:36.000Z</time>
      </trkpt>
      <trkpt lat="44.12545" lon="3.20891">
        <ele>590</ele>
        <time>2024-12-02T12:42:52.000Z</time>
      </trkpt>
      <trkpt lat="44.12549" lon="3.2088">
        <ele>592</ele>
        <time>2024-12-02T12:43:07.000Z</time>
      </trkpt>
      <trkpt lat="44.1255" lon="3.20866">
        <ele>594.9</ele>
        <time>2024-12-02T12:43:24.000Z</time>
      </trkpt>
      <trkpt lat="44.12548" lon="3.20853">
        <ele>596.7</ele>
        <time>2024-12-02T12:43:38.000Z</time>
      </trkpt>
      <trkpt lat="44.12542" lon="3.20841">
        <ele>598.8</ele>
        <time>2024-12-02T12:43:56.000Z</time>
      </trkpt>
      <trkpt lat="44.12537" lon="3.20831">
        <ele>601</ele>
        <time>2024-12-02T12:44:12.000Z</time>
      </trkpt>
      <trkpt lat="44.12537" lon="3.20817">
        <ele>603.3</ele>
        <time>2024-12-02T12:44:35.000Z</time>
      </trkpt>
      <trkpt lat="44.12536" lon="3.20803">
        <ele>603.9</ele>
        <time>2024-12-02T12:44:43.000Z</time>
      </trkpt>
      <trkpt lat="44.12537" lon="3.2079">
        <ele>605.1</ele>
        <time>2024-12-02T12:44:51.000Z</time>
      </trkpt>
      <trkpt lat="44.12535" lon="3.20777">
        <ele>606.1</ele>
        <time>2024-12-02T12:44:59.000Z</time>
      </trkpt>
      <trkpt lat="44.1253" lon="3.20764">
        <ele>606.6</ele>
        <time>2024-12-02T12:45:05.000Z</time>
      </trkpt>
      <trkpt lat="44.12526" lon="3.20751">
        <ele>607</ele>
        <time>2024-12-02T12:45:10.000Z</time>
      </trkpt>
      <trkpt lat="44.12523" lon="3.20738">
        <ele>607.5</ele>
        <time>2024-12-02T12:45:17.000Z</time>
      </trkpt>
      <trkpt lat="44.12521" lon="3.20723">
        <ele>607.6</ele>
        <time>2024-12-02T12:45:22.000Z</time>
      </trkpt>
      <trkpt lat="44.12522" lon="3.20709">
        <ele>607.5</ele>
        <time>2024-12-02T12:45:27.000Z</time>
      </trkpt>
      <trkpt lat="44.12523" lon="3.20695">
        <ele>606.9</ele>
        <time>2024-12-02T12:45:31.000Z</time>
      </trkpt>
      <trkpt lat="44.12528" lon="3.20681">
        <ele>606.2</ele>
        <time>2024-12-02T12:45:38.000Z</time>
      </trkpt>
      <trkpt lat="44.12529" lon="3.20669">
        <ele>605.9</ele>
        <time>2024-12-02T12:45:43.000Z</time>
      </trkpt>
      <trkpt lat="44.1253" lon="3.20654">
        <ele>605.6</ele>
        <time>2024-12-02T12:45:48.000Z</time>
      </trkpt>
      <trkpt lat="44.12532" lon="3.20641">
        <ele>605.8</ele>
        <time>2024-12-02T12:45:53.000Z</time>
      </trkpt>
      <trkpt lat="44.12535" lon="3.20626">
        <ele>605.8</ele>
        <time>2024-12-02T12:45:59.000Z</time>
      </trkpt>
      <trkpt lat="44.12538" lon="3.20614">
        <ele>605.3</ele>
        <time>2024-12-02T12:46:03.000Z</time>
      </trkpt>
      <trkpt lat="44.12545" lon="3.206">
        <ele>604.8</ele>
        <time>2024-12-02T12:46:07.000Z</time>
      </trkpt>
      <trkpt lat="44.12543" lon="3.20586">
        <ele>604.4</ele>
        <time>2024-12-02T12:46:12.000Z</time>
      </trkpt>
      <trkpt lat="44.12539" lon="3.20574">
        <ele>604.1</ele>
        <time>2024-12-02T12:46:18.000Z</time>
      </trkpt>
      <trkpt lat="44.12534" lon="3.20562">
        <ele>604.4</ele>
        <time>2024-12-02T12:46:24.000Z</time>
      </trkpt>
      <trkpt lat="44.12531" lon="3.20549">
        <ele>604.9</ele>
        <time>2024-12-02T12:46:31.000Z</time>
      </trkpt>
      <trkpt lat="44.1253" lon="3.20535">
        <ele>605.8</ele>
        <time>2024-12-02T12:46:40.000Z</time>
      </trkpt>
      <trkpt lat="44.12526" lon="3.20523">
        <ele>607.1</ele>
        <time>2024-12-02T12:46:49.000Z</time>
      </trkpt>
      <trkpt lat="44.12524" lon="3.2051">
        <ele>608.7</ele>
        <time>2024-12-02T12:47:00.000Z</time>
      </trkpt>
      <trkpt lat="44.1253" lon="3.205">
        <ele>610.2</ele>
        <time>2024-12-02T12:47:09.000Z</time>
      </trkpt>
      <trkpt lat="44.12537" lon="3.2049">
        <ele>610.8</ele>
        <time>2024-12-02T12:47:15.000Z</time>
      </trkpt>
      <trkpt lat="44.12545" lon="3.20481">
        <ele>611.2</ele>
        <time>2024-12-02T12:47:22.000Z</time>
      </trkpt>
      <trkpt lat="44.12553" lon="3.20474">
        <ele>611.4</ele>
        <time>2024-12-02T12:47:28.000Z</time>
      </trkpt>
      <trkpt lat="44.12559" lon="3.20463">
        <ele>611.4</ele>
        <time>2024-12-02T12:47:32.000Z</time>
      </trkpt>
      <trkpt lat="44.12563" lon="3.20451">
        <ele>611.5</ele>
        <time>2024-12-02T12:47:36.000Z</time>
      </trkpt>
      <trkpt lat="44.12568" lon="3.20438">
        <ele>611.2</ele>
        <time>2024-12-02T12:47:40.000Z</time>
      </trkpt>
      <trkpt lat="44.1257" lon="3.20424">
        <ele>611.6</ele>
        <time>2024-12-02T12:47:45.000Z</time>
      </trkpt>
      <trkpt lat="44.12572" lon="3.20411">
        <ele>611.9</ele>
        <time>2024-12-02T12:47:51.000Z</time>
      </trkpt>
      <trkpt lat="44.12576" lon="3.204">
        <ele>612.6</ele>
        <time>2024-12-02T12:47:58.000Z</time>
      </trkpt>
      <trkpt lat="44.12582" lon="3.20388">
        <ele>613.4</ele>
        <time>2024-12-02T12:48:05.000Z</time>
      </trkpt>
      <trkpt lat="44.12588" lon="3.20378">
        <ele>613.8</ele>
        <time>2024-12-02T12:48:10.000Z</time>
      </trkpt>
      <trkpt lat="44.12593" lon="3.20367">
        <ele>614.1</ele>
        <time>2024-12-02T12:48:16.000Z</time>
      </trkpt>
      <trkpt lat="44.12593" lon="3.20352">
        <ele>614.1</ele>
        <time>2024-12-02T12:48:20.000Z</time>
      </trkpt>
      <trkpt lat="44.12596" lon="3.20339">
        <ele>614</ele>
        <time>2024-12-02T12:48:26.000Z</time>
      </trkpt>
      <trkpt lat="44.12598" lon="3.20327">
        <ele>614.3</ele>
        <time>2024-12-02T12:48:33.000Z</time>
      </trkpt>
      <trkpt lat="44.12602" lon="3.20314">
        <ele>615</ele>
        <time>2024-12-02T12:48:40.000Z</time>
      </trkpt>
      <trkpt lat="44.12607" lon="3.20302">
        <ele>616.5</ele>
        <time>2024-12-02T12:48:49.000Z</time>
      </trkpt>
      <trkpt lat="44.12606" lon="3.20289">
        <ele>617.5</ele>
        <time>2024-12-02T12:48:56.000Z</time>
      </trkpt>
      <trkpt lat="44.12606" lon="3.20277">
        <ele>618.6</ele>
        <time>2024-12-02T12:49:04.000Z</time>
      </trkpt>
      <trkpt lat="44.12607" lon="3.20264">
        <ele>620.8</ele>
        <time>2024-12-02T12:49:15.000Z</time>
      </trkpt>
      <trkpt lat="44.12608" lon="3.20249">
        <ele>622.9</ele>
        <time>2024-12-02T12:49:42.000Z</time>
      </trkpt>
      <trkpt lat="44.12613" lon="3.20238">
        <ele>623.4</ele>
        <time>2024-12-02T12:49:50.000Z</time>
      </trkpt>
      <trkpt lat="44.12622" lon="3.20235">
        <ele>623.7</ele>
        <time>2024-12-02T12:49:58.000Z</time>
      </trkpt>
      <trkpt lat="44.12632" lon="3.20235">
        <ele>624</ele>
        <time>2024-12-02T12:50:06.000Z</time>
      </trkpt>
      <trkpt lat="44.1264" lon="3.20242">
        <ele>625.5</ele>
        <time>2024-12-02T12:50:17.000Z</time>
      </trkpt>
      <trkpt lat="44.1265" lon="3.20243">
        <ele>626.7</ele>
        <time>2024-12-02T12:50:25.000Z</time>
      </trkpt>
      <trkpt lat="44.1266" lon="3.20244">
        <ele>627.4</ele>
        <time>2024-12-02T12:50:31.000Z</time>
      </trkpt>
      <trkpt lat="44.1267" lon="3.20243">
        <ele>627.1</ele>
        <time>2024-12-02T12:50:36.000Z</time>
      </trkpt>
      <trkpt lat="44.12679" lon="3.20242">
        <ele>627.1</ele>
        <time>2024-12-02T12:50:42.000Z</time>
      </trkpt>
      <trkpt lat="44.12688" lon="3.20243">
        <ele>627.5</ele>
        <time>2024-12-02T12:50:49.000Z</time>
      </trkpt>
      <trkpt lat="44.12699" lon="3.2024">
        <ele>628.7</ele>
        <time>2024-12-02T12:50:59.000Z</time>
      </trkpt>
      <trkpt lat="44.12708" lon="3.20244">
        <ele>630.6</ele>
        <time>2024-12-02T12:51:08.000Z</time>
      </trkpt>
      <trkpt lat="44.12717" lon="3.20244">
        <ele>633.2</ele>
        <time>2024-12-02T12:51:19.000Z</time>
      </trkpt>
      <trkpt lat="44.12727" lon="3.20244">
        <ele>635.4</ele>
        <time>2024-12-02T12:51:29.000Z</time>
      </trkpt>
      <trkpt lat="44.12735" lon="3.2025">
        <ele>636.1</ele>
        <time>2024-12-02T12:51:34.000Z</time>
      </trkpt>
      <trkpt lat="44.12744" lon="3.20252">
        <ele>637.8</ele>
        <time>2024-12-02T12:51:45.000Z</time>
      </trkpt>
      <trkpt lat="44.12741" lon="3.20263">
        <ele>640.8</ele>
        <time>2024-12-02T12:52:42.000Z</time>
      </trkpt>
      <trkpt lat="44.12737" lon="3.20275">
        <ele>640.8</ele>
        <time>2024-12-02T12:52:50.000Z</time>
      </trkpt>
      <trkpt lat="44.12747" lon="3.20275">
        <ele>640.7</ele>
        <time>2024-12-02T12:53:04.000Z</time>
      </trkpt>
      <trkpt lat="44.12754" lon="3.20284">
        <ele>640.7</ele>
        <time>2024-12-02T12:53:16.000Z</time>
      </trkpt>
      <trkpt lat="44.12763" lon="3.20291">
        <ele>640.6</ele>
        <time>2024-12-02T12:53:29.000Z</time>
      </trkpt>
      <trkpt lat="44.12773" lon="3.20287">
        <ele>640.7</ele>
        <time>2024-12-02T12:53:34.000Z</time>
      </trkpt>
      <trkpt lat="44.12779" lon="3.20276">
        <ele>641</ele>
        <time>2024-12-02T12:53:38.000Z</time>
      </trkpt>
      <trkpt lat="44.12788" lon="3.20268">
        <ele>641.5</ele>
        <time>2024-12-02T12:53:41.000Z</time>
      </trkpt>
      <trkpt lat="44.12795" lon="3.2026">
        <ele>642</ele>
        <time>2024-12-02T12:53:45.000Z</time>
      </trkpt>
      <trkpt lat="44.12802" lon="3.20249">
        <ele>642.5</ele>
        <time>2024-12-02T12:53:50.000Z</time>
      </trkpt>
      <trkpt lat="44.12804" lon="3.20235">
        <ele>642.4</ele>
        <time>2024-12-02T12:53:54.000Z</time>
      </trkpt>
      <trkpt lat="44.12804" lon="3.20221">
        <ele>642.6</ele>
        <time>2024-12-02T12:53:59.000Z</time>
      </trkpt>
      <trkpt lat="44.12812" lon="3.20213">
        <ele>642.4</ele>
        <time>2024-12-02T12:54:05.000Z</time>
      </trkpt>
      <trkpt lat="44.12815" lon="3.20198">
        <ele>643</ele>
        <time>2024-12-02T12:54:10.000Z</time>
      </trkpt>
      <trkpt lat="44.12823" lon="3.20189">
        <ele>643.2</ele>
        <time>2024-12-02T12:54:18.000Z</time>
      </trkpt>
      <trkpt lat="44.12831" lon="3.20183">
        <ele>644.1</ele>
        <time>2024-12-02T12:54:27.000Z</time>
      </trkpt>
      <trkpt lat="44.12836" lon="3.20172">
        <ele>644.5</ele>
        <time>2024-12-02T12:54:34.000Z</time>
      </trkpt>
      <trkpt lat="44.12841" lon="3.20159">
        <ele>645</ele>
        <time>2024-12-02T12:54:41.000Z</time>
      </trkpt>
      <trkpt lat="44.12845" lon="3.20145">
        <ele>645.5</ele>
        <time>2024-12-02T12:54:47.000Z</time>
      </trkpt>
      <trkpt lat="44.12849" lon="3.20134">
        <ele>645.3</ele>
        <time>2024-12-02T12:54:52.000Z</time>
      </trkpt>
      <trkpt lat="44.12858" lon="3.20137">
        <ele>647.1</ele>
        <time>2024-12-02T12:55:10.000Z</time>
      </trkpt>
      <trkpt lat="44.12868" lon="3.20135">
        <ele>647.9</ele>
        <time>2024-12-02T12:55:20.000Z</time>
      </trkpt>
      <trkpt lat="44.12877" lon="3.20131">
        <ele>648</ele>
        <time>2024-12-02T12:55:27.000Z</time>
      </trkpt>
      <trkpt lat="44.12886" lon="3.20127">
        <ele>648.7</ele>
        <time>2024-12-02T12:56:11.000Z</time>
      </trkpt>
      <trkpt lat="44.12895" lon="3.20124">
        <ele>649.8</ele>
        <time>2024-12-02T12:56:56.000Z</time>
      </trkpt>
      <trkpt lat="44.12903" lon="3.20129">
        <ele>650.1</ele>
        <time>2024-12-02T12:57:04.000Z</time>
      </trkpt>
      <trkpt lat="44.12911" lon="3.20138">
        <ele>650.8</ele>
        <time>2024-12-02T12:57:14.000Z</time>
      </trkpt>
      <trkpt lat="44.12921" lon="3.20141">
        <ele>651.5</ele>
        <time>2024-12-02T12:57:19.000Z</time>
      </trkpt>
      <trkpt lat="44.1293" lon="3.20145">
        <ele>651.9</ele>
        <time>2024-12-02T12:57:24.000Z</time>
      </trkpt>
      <trkpt lat="44.12937" lon="3.20154">
        <ele>652.4</ele>
        <time>2024-12-02T12:57:33.000Z</time>
      </trkpt>
      <trkpt lat="44.12946" lon="3.20154">
        <ele>653.2</ele>
        <time>2024-12-02T12:57:40.000Z</time>
      </trkpt>
      <trkpt lat="44.12955" lon="3.20147">
        <ele>653.5</ele>
        <time>2024-12-02T12:57:44.000Z</time>
      </trkpt>
      <trkpt lat="44.12964" lon="3.20143">
        <ele>653.8</ele>
        <time>2024-12-02T12:57:50.000Z</time>
      </trkpt>
      <trkpt lat="44.12975" lon="3.20141">
        <ele>654</ele>
        <time>2024-12-02T12:57:56.000Z</time>
      </trkpt>
      <trkpt lat="44.12983" lon="3.20137">
        <ele>654.8</ele>
        <time>2024-12-02T12:58:04.000Z</time>
      </trkpt>
      <trkpt lat="44.12992" lon="3.20138">
        <ele>656</ele>
        <time>2024-12-02T12:58:13.000Z</time>
      </trkpt>
      <trkpt lat="44.13001" lon="3.20141">
        <ele>656.5</ele>
        <time>2024-12-02T12:58:20.000Z</time>
      </trkpt>
      <trkpt lat="44.13011" lon="3.2014">
        <ele>656.8</ele>
        <time>2024-12-02T12:58:27.000Z</time>
      </trkpt>
      <trkpt lat="44.13019" lon="3.20133">
        <ele>656.9</ele>
        <time>2024-12-02T12:58:31.000Z</time>
      </trkpt>
      <trkpt lat="44.13025" lon="3.20124">
        <ele>657.1</ele>
        <time>2024-12-02T12:58:38.000Z</time>
      </trkpt>
      <trkpt lat="44.13034" lon="3.20116">
        <ele>656.7</ele>
        <time>2024-12-02T12:58:44.000Z</time>
      </trkpt>
      <trkpt lat="44.13041" lon="3.20108">
        <ele>655.6</ele>
        <time>2024-12-02T12:58:50.000Z</time>
      </trkpt>
      <trkpt lat="44.13047" lon="3.20096">
        <ele>649.8</ele>
        <time>2024-12-02T12:59:54.000Z</time>
      </trkpt>
      <trkpt lat="44.13059" lon="3.20088">
        <ele>648.6</ele>
        <time>2024-12-02T12:59:59.000Z</time>
      </trkpt>
      <trkpt lat="44.13067" lon="3.20093">
        <ele>647.2</ele>
        <time>2024-12-02T13:00:06.000Z</time>
      </trkpt>
      <trkpt lat="44.13074" lon="3.20085">
        <ele>645.8</ele>
        <time>2024-12-02T13:00:14.000Z</time>
      </trkpt>
      <trkpt lat="44.13078" lon="3.20074">
        <ele>645.1</ele>
        <time>2024-12-02T13:00:20.000Z</time>
      </trkpt>
      <trkpt lat="44.13079" lon="3.2006">
        <ele>644.6</ele>
        <time>2024-12-02T13:00:27.000Z</time>
      </trkpt>
      <trkpt lat="44.13071" lon="3.20051">
        <ele>644.4</ele>
        <time>2024-12-02T13:00:33.000Z</time>
      </trkpt>
      <trkpt lat="44.13064" lon="3.20043">
        <ele>644.3</ele>
        <time>2024-12-02T13:00:39.000Z</time>
      </trkpt>
      <trkpt lat="44.13059" lon="3.20031">
        <ele>644.4</ele>
        <time>2024-12-02T13:00:55.000Z</time>
      </trkpt>
      <trkpt lat="44.13055" lon="3.2002">
        <ele>644.9</ele>
        <time>2024-12-02T13:01:02.000Z</time>
      </trkpt>
      <trkpt lat="44.13052" lon="3.20008">
        <ele>645.8</ele>
        <time>2024-12-02T13:01:09.000Z</time>
      </trkpt>
      <trkpt lat="44.13046" lon="3.19996">
        <ele>646.2</ele>
        <time>2024-12-02T13:01:17.000Z</time>
      </trkpt>
      <trkpt lat="44.13042" lon="3.19984">
        <ele>646.2</ele>
        <time>2024-12-02T13:01:22.000Z</time>
      </trkpt>
      <trkpt lat="44.13039" lon="3.19971">
        <ele>646</ele>
        <time>2024-12-02T13:01:26.000Z</time>
      </trkpt>
      <trkpt lat="44.13031" lon="3.19961">
        <ele>645.4</ele>
        <time>2024-12-02T13:01:30.000Z</time>
      </trkpt>
      <trkpt lat="44.13027" lon="3.19947">
        <ele>644.4</ele>
        <time>2024-12-02T13:01:34.000Z</time>
      </trkpt>
      <trkpt lat="44.1303" lon="3.19934">
        <ele>642.5</ele>
        <time>2024-12-02T13:01:39.000Z</time>
      </trkpt>
      <trkpt lat="44.13025" lon="3.19921">
        <ele>639.7</ele>
        <time>2024-12-02T13:01:46.000Z</time>
      </trkpt>
      <trkpt lat="44.1302" lon="3.1991">
        <ele>635.1</ele>
        <time>2024-12-02T13:01:56.000Z</time>
      </trkpt>
      <trkpt lat="44.13017" lon="3.19893">
        <ele>632.7</ele>
        <time>2024-12-02T13:02:01.000Z</time>
      </trkpt>
      <trkpt lat="44.13011" lon="3.19882">
        <ele>631.2</ele>
        <time>2024-12-02T13:02:04.000Z</time>
      </trkpt>
      <trkpt lat="44.13011" lon="3.19869">
        <ele>629.7</ele>
        <time>2024-12-02T13:02:07.000Z</time>
      </trkpt>
      <trkpt lat="44.13001" lon="3.19866">
        <ele>627.7</ele>
        <time>2024-12-02T13:02:11.000Z</time>
      </trkpt>
      <trkpt lat="44.12991" lon="3.19866">
        <ele>625.5</ele>
        <time>2024-12-02T13:02:15.000Z</time>
      </trkpt>
      <trkpt lat="44.12981" lon="3.19866">
        <ele>622.9</ele>
        <time>2024-12-02T13:02:20.000Z</time>
      </trkpt>
      <trkpt lat="44.12971" lon="3.19863">
        <ele>620.6</ele>
        <time>2024-12-02T13:02:25.000Z</time>
      </trkpt>
      <trkpt lat="44.12963" lon="3.19858">
        <ele>618.9</ele>
        <time>2024-12-02T13:02:30.000Z</time>
      </trkpt>
      <trkpt lat="44.12954" lon="3.19852">
        <ele>617.9</ele>
        <time>2024-12-02T13:02:34.000Z</time>
      </trkpt>
      <trkpt lat="44.12946" lon="3.19844">
        <ele>616.8</ele>
        <time>2024-12-02T13:02:42.000Z</time>
      </trkpt>
      <trkpt lat="44.12939" lon="3.19834">
        <ele>616.5</ele>
        <time>2024-12-02T13:02:51.000Z</time>
      </trkpt>
      <trkpt lat="44.12934" lon="3.19822">
        <ele>616.4</ele>
        <time>2024-12-02T13:02:57.000Z</time>
      </trkpt>
      <trkpt lat="44.12924" lon="3.19822">
        <ele>616.3</ele>
        <time>2024-12-02T13:03:01.000Z</time>
      </trkpt>
      <trkpt lat="44.12914" lon="3.19815">
        <ele>615.8</ele>
        <time>2024-12-02T13:03:05.000Z</time>
      </trkpt>
      <trkpt lat="44.12905" lon="3.19807">
        <ele>614.5</ele>
        <time>2024-12-02T13:03:20.000Z</time>
      </trkpt>
      <trkpt lat="44.129" lon="3.19795">
        <ele>614.9</ele>
        <time>2024-12-02T13:03:29.000Z</time>
      </trkpt>
      <trkpt lat="44.12893" lon="3.19785">
        <ele>615.2</ele>
        <time>2024-12-02T13:03:36.000Z</time>
      </trkpt>
      <trkpt lat="44.12889" lon="3.19771">
        <ele>615.2</ele>
        <time>2024-12-02T13:04:22.000Z</time>
      </trkpt>
      <trkpt lat="44.12882" lon="3.19764">
        <ele>615.5</ele>
        <time>2024-12-02T13:04:27.000Z</time>
      </trkpt>
      <trkpt lat="44.12874" lon="3.19757">
        <ele>615.7</ele>
        <time>2024-12-02T13:04:42.000Z</time>
      </trkpt>
      <trkpt lat="44.12868" lon="3.19746">
        <ele>616.3</ele>
        <time>2024-12-02T13:04:51.000Z</time>
      </trkpt>
      <trkpt lat="44.12861" lon="3.19737">
        <ele>616.7</ele>
        <time>2024-12-02T13:04:59.000Z</time>
      </trkpt>
      <trkpt lat="44.1285" lon="3.19721">
        <ele>618.7</ele>
        <time>2024-12-02T13:06:18.000Z</time>
      </trkpt>
      <trkpt lat="44.12847" lon="3.19709">
        <ele>619.4</ele>
        <time>2024-12-02T13:06:34.000Z</time>
      </trkpt>
      <trkpt lat="44.1284" lon="3.197">
        <ele>622.2</ele>
        <time>2024-12-02T13:06:49.000Z</time>
      </trkpt>
      <trkpt lat="44.12836" lon="3.19689">
        <ele>623.6</ele>
        <time>2024-12-02T13:07:06.000Z</time>
      </trkpt>
      <trkpt lat="44.12845" lon="3.19688">
        <ele>623.3</ele>
        <time>2024-12-02T13:07:22.000Z</time>
      </trkpt>
      <trkpt lat="44.12855" lon="3.19688">
        <ele>623.1</ele>
        <time>2024-12-02T13:07:33.000Z</time>
      </trkpt>
      <trkpt lat="44.12863" lon="3.19692">
        <ele>622.9</ele>
        <time>2024-12-02T13:07:42.000Z</time>
      </trkpt>
      <trkpt lat="44.12872" lon="3.19687">
        <ele>622.7</ele>
        <time>2024-12-02T13:08:07.000Z</time>
      </trkpt>
      <trkpt lat="44.12877" lon="3.19692">
        <ele>621.5</ele>
        <time>2024-12-02T13:17:00.000Z</time>
      </trkpt>
      <trkpt lat="44.12887" lon="3.19688">
        <ele>622</ele>
        <time>2024-12-02T13:17:18.000Z</time>
      </trkpt>
      <trkpt lat="44.12894" lon="3.19677">
        <ele>622.9</ele>
        <time>2024-12-02T13:17:28.000Z</time>
      </trkpt>
      <trkpt lat="44.12902" lon="3.19672">
        <ele>623.4</ele>
        <time>2024-12-02T13:17:40.000Z</time>
      </trkpt>
      <trkpt lat="44.12908" lon="3.19661">
        <ele>624.1</ele>
        <time>2024-12-02T13:17:52.000Z</time>
      </trkpt>
      <trkpt lat="44.12917" lon="3.19656">
        <ele>624.3</ele>
        <time>2024-12-02T13:18:04.000Z</time>
      </trkpt>
      <trkpt lat="44.12927" lon="3.19648">
        <ele>623.9</ele>
        <time>2024-12-02T13:18:08.000Z</time>
      </trkpt>
      <trkpt lat="44.12935" lon="3.19642">
        <ele>623</ele>
        <time>2024-12-02T13:18:13.000Z</time>
      </trkpt>
      <trkpt lat="44.12946" lon="3.19639">
        <ele>621.5</ele>
        <time>2024-12-02T13:18:18.000Z</time>
      </trkpt>
      <trkpt lat="44.12955" lon="3.19635">
        <ele>619.7</ele>
        <time>2024-12-02T13:18:23.000Z</time>
      </trkpt>
      <trkpt lat="44.12964" lon="3.19634">
        <ele>616.4</ele>
        <time>2024-12-02T13:18:30.000Z</time>
      </trkpt>
      <trkpt lat="44.12973" lon="3.19629">
        <ele>613.9</ele>
        <time>2024-12-02T13:18:38.000Z</time>
      </trkpt>
      <trkpt lat="44.12984" lon="3.19631">
        <ele>612.5</ele>
        <time>2024-12-02T13:18:46.000Z</time>
      </trkpt>
      <trkpt lat="44.12993" lon="3.19625">
        <ele>611.7</ele>
        <time>2024-12-02T13:18:53.000Z</time>
      </trkpt>
      <trkpt lat="44.13001" lon="3.19618">
        <ele>611.4</ele>
        <time>2024-12-02T13:18:59.000Z</time>
      </trkpt>
      <trkpt lat="44.13011" lon="3.19613">
        <ele>611.1</ele>
        <time>2024-12-02T13:19:32.000Z</time>
      </trkpt>
      <trkpt lat="44.13005" lon="3.19603">
        <ele>610.8</ele>
        <time>2024-12-02T13:20:03.000Z</time>
      </trkpt>
      <trkpt lat="44.12996" lon="3.19599">
        <ele>610.7</ele>
        <time>2024-12-02T13:20:06.000Z</time>
      </trkpt>
      <trkpt lat="44.12987" lon="3.19592">
        <ele>608.7</ele>
        <time>2024-12-02T13:20:14.000Z</time>
      </trkpt>
      <trkpt lat="44.12977" lon="3.19585">
        <ele>607.1</ele>
        <time>2024-12-02T13:20:19.000Z</time>
      </trkpt>
      <trkpt lat="44.1297" lon="3.19575">
        <ele>605.9</ele>
        <time>2024-12-02T13:20:24.000Z</time>
      </trkpt>
      <trkpt lat="44.12961" lon="3.19567">
        <ele>605</ele>
        <time>2024-12-02T13:20:27.000Z</time>
      </trkpt>
      <trkpt lat="44.12952" lon="3.19557">
        <ele>603.8</ele>
        <time>2024-12-02T13:20:30.000Z</time>
      </trkpt>
      <trkpt lat="44.12942" lon="3.19563">
        <ele>602.6</ele>
        <time>2024-12-02T13:20:33.000Z</time>
      </trkpt>
      <trkpt lat="44.12934" lon="3.19572">
        <ele>601.7</ele>
        <time>2024-12-02T13:20:35.000Z</time>
      </trkpt>
      <trkpt lat="44.12924" lon="3.19584">
        <ele>600.3</ele>
        <time>2024-12-02T13:20:38.000Z</time>
      </trkpt>
      <trkpt lat="44.12913" lon="3.19592">
        <ele>599.3</ele>
        <time>2024-12-02T13:20:41.000Z</time>
      </trkpt>
      <trkpt lat="44.12903" lon="3.19596">
        <ele>598.2</ele>
        <time>2024-12-02T13:20:45.000Z</time>
      </trkpt>
      <trkpt lat="44.12894" lon="3.19601">
        <ele>597.3</ele>
        <time>2024-12-02T13:20:48.000Z</time>
      </trkpt>
      <trkpt lat="44.12885" lon="3.19595">
        <ele>595.1</ele>
        <time>2024-12-02T13:20:52.000Z</time>
      </trkpt>
      <trkpt lat="44.12878" lon="3.19586">
        <ele>591.9</ele>
        <time>2024-12-02T13:20:57.000Z</time>
      </trkpt>
      <trkpt lat="44.12883" lon="3.19575">
        <ele>586.5</ele>
        <time>2024-12-02T13:21:07.000Z</time>
      </trkpt>
      <trkpt lat="44.12873" lon="3.19569">
        <ele>584.2</ele>
        <time>2024-12-02T13:21:12.000Z</time>
      </trkpt>
      <trkpt lat="44.12861" lon="3.19564">
        <ele>582.4</ele>
        <time>2024-12-02T13:21:15.000Z</time>
      </trkpt>
      <trkpt lat="44.1285" lon="3.19557">
        <ele>580.2</ele>
        <time>2024-12-02T13:21:18.000Z</time>
      </trkpt>
      <trkpt lat="44.1284" lon="3.19555">
        <ele>578</ele>
        <time>2024-12-02T13:21:21.000Z</time>
      </trkpt>
      <trkpt lat="44.1283" lon="3.19553">
        <ele>575.5</ele>
        <time>2024-12-02T13:21:24.000Z</time>
      </trkpt>
      <trkpt lat="44.1282" lon="3.19552">
        <ele>573</ele>
        <time>2024-12-02T13:21:27.000Z</time>
      </trkpt>
      <trkpt lat="44.1281" lon="3.19549">
        <ele>570.1</ele>
        <time>2024-12-02T13:21:30.000Z</time>
      </trkpt>
      <trkpt lat="44.12799" lon="3.19546">
        <ele>567.3</ele>
        <time>2024-12-02T13:21:33.000Z</time>
      </trkpt>
      <trkpt lat="44.1279" lon="3.19542">
        <ele>564.2</ele>
        <time>2024-12-02T13:21:36.000Z</time>
      </trkpt>
      <trkpt lat="44.12784" lon="3.19529">
        <ele>558.8</ele>
        <time>2024-12-02T13:21:41.000Z</time>
      </trkpt>
      <trkpt lat="44.12777" lon="3.19518">
        <ele>554.7</ele>
        <time>2024-12-02T13:21:45.000Z</time>
      </trkpt>
      <trkpt lat="44.12763" lon="3.19517">
        <ele>551.9</ele>
        <time>2024-12-02T13:21:48.000Z</time>
      </trkpt>
      <trkpt lat="44.12753" lon="3.19511">
        <ele>548.9</ele>
        <time>2024-12-02T13:21:51.000Z</time>
      </trkpt>
      <trkpt lat="44.1274" lon="3.19505">
        <ele>545.6</ele>
        <time>2024-12-02T13:21:54.000Z</time>
      </trkpt>
      <trkpt lat="44.1273" lon="3.19501">
        <ele>542.2</ele>
        <time>2024-12-02T13:21:57.000Z</time>
      </trkpt>
      <trkpt lat="44.12721" lon="3.19495">
        <ele>538.5</ele>
        <time>2024-12-02T13:22:00.000Z</time>
      </trkpt>
      <trkpt lat="44.12712" lon="3.19492">
        <ele>536</ele>
        <time>2024-12-02T13:22:02.000Z</time>
      </trkpt>
      <trkpt lat="44.12702" lon="3.19485">
        <ele>532.5</ele>
        <time>2024-12-02T13:22:05.000Z</time>
      </trkpt>
      <trkpt lat="44.12694" lon="3.19478">
        <ele>529</ele>
        <time>2024-12-02T13:22:08.000Z</time>
      </trkpt>
      <trkpt lat="44.12685" lon="3.19472">
        <ele>524.2</ele>
        <time>2024-12-02T13:22:12.000Z</time>
      </trkpt>
      <trkpt lat="44.12676" lon="3.19469">
        <ele>520.9</ele>
        <time>2024-12-02T13:22:15.000Z</time>
      </trkpt>
      <trkpt lat="44.12664" lon="3.19472">
        <ele>517.8</ele>
        <time>2024-12-02T13:22:18.000Z</time>
      </trkpt>
      <trkpt lat="44.12654" lon="3.19482">
        <ele>515.7</ele>
        <time>2024-12-02T13:22:20.000Z</time>
      </trkpt>
      <trkpt lat="44.12645" lon="3.19495">
        <ele>513.5</ele>
        <time>2024-12-02T13:22:22.000Z</time>
      </trkpt>
      <trkpt lat="44.12635" lon="3.19498">
        <ele>511.5</ele>
        <time>2024-12-02T13:22:24.000Z</time>
      </trkpt>
      <trkpt lat="44.12625" lon="3.19504">
        <ele>508.6</ele>
        <time>2024-12-02T13:22:27.000Z</time>
      </trkpt>
      <trkpt lat="44.12616" lon="3.19504">
        <ele>506</ele>
        <time>2024-12-02T13:22:30.000Z</time>
      </trkpt>
      <trkpt lat="44.12603" lon="3.19505">
        <ele>503.6</ele>
        <time>2024-12-02T13:22:33.000Z</time>
      </trkpt>
      <trkpt lat="44.12595" lon="3.19511">
        <ele>501.9</ele>
        <time>2024-12-02T13:22:35.000Z</time>
      </trkpt>
      <trkpt lat="44.12585" lon="3.19518">
        <ele>500.2</ele>
        <time>2024-12-02T13:22:37.000Z</time>
      </trkpt>
      <trkpt lat="44.12576" lon="3.19524">
        <ele>498.6</ele>
        <time>2024-12-02T13:22:39.000Z</time>
      </trkpt>
      <trkpt lat="44.12567" lon="3.19529">
        <ele>496.6</ele>
        <time>2024-12-02T13:22:42.000Z</time>
      </trkpt>
      <trkpt lat="44.12557" lon="3.19533">
        <ele>494.5</ele>
        <time>2024-12-02T13:22:46.000Z</time>
      </trkpt>
      <trkpt lat="44.12554" lon="3.19548">
        <ele>493</ele>
        <time>2024-12-02T13:22:50.000Z</time>
      </trkpt>
      <trkpt lat="44.12551" lon="3.19563">
        <ele>491.7</ele>
        <time>2024-12-02T13:22:54.000Z</time>
      </trkpt>
      <trkpt lat="44.12547" lon="3.19575">
        <ele>491</ele>
        <time>2024-12-02T13:22:57.000Z</time>
      </trkpt>
      <trkpt lat="44.12541" lon="3.19589">
        <ele>490.4</ele>
        <time>2024-12-02T13:23:00.000Z</time>
      </trkpt>
      <trkpt lat="44.12534" lon="3.19599">
        <ele>490</ele>
        <time>2024-12-02T13:23:02.000Z</time>
      </trkpt>
      <trkpt lat="44.12527" lon="3.19607">
        <ele>489.4</ele>
        <time>2024-12-02T13:23:04.000Z</time>
      </trkpt>
      <trkpt lat="44.1252" lon="3.19623">
        <ele>488.2</ele>
        <time>2024-12-02T13:23:07.000Z</time>
      </trkpt>
      <trkpt lat="44.12515" lon="3.19633">
        <ele>487.2</ele>
        <time>2024-12-02T13:23:09.000Z</time>
      </trkpt>
      <trkpt lat="44.12504" lon="3.19635">
        <ele>485.5</ele>
        <time>2024-12-02T13:23:12.000Z</time>
      </trkpt>
      <trkpt lat="44.12492" lon="3.1964">
        <ele>483.8</ele>
        <time>2024-12-02T13:23:15.000Z</time>
      </trkpt>
      <trkpt lat="44.12484" lon="3.19648">
        <ele>482.2</ele>
        <time>2024-12-02T13:23:18.000Z</time>
      </trkpt>
      <trkpt lat="44.12475" lon="3.19657">
        <ele>480.8</ele>
        <time>2024-12-02T13:23:21.000Z</time>
      </trkpt>
      <trkpt lat="44.12463" lon="3.19666">
        <ele>479.5</ele>
        <time>2024-12-02T13:23:24.000Z</time>
      </trkpt>
      <trkpt lat="44.12455" lon="3.19674">
        <ele>478.6</ele>
        <time>2024-12-02T13:23:26.000Z</time>
      </trkpt>
      <trkpt lat="44.12445" lon="3.19677">
        <ele>477.4</ele>
        <time>2024-12-02T13:23:28.000Z</time>
      </trkpt>
      <trkpt lat="44.12433" lon="3.19681">
        <ele>475.3</ele>
        <time>2024-12-02T13:23:31.000Z</time>
      </trkpt>
      <trkpt lat="44.12424" lon="3.19678">
        <ele>473.8</ele>
        <time>2024-12-02T13:23:33.000Z</time>
      </trkpt>
      <trkpt lat="44.12412" lon="3.1968">
        <ele>472.3</ele>
        <time>2024-12-02T13:23:35.000Z</time>
      </trkpt>
      <trkpt lat="44.12401" lon="3.19687">
        <ele>470.8</ele>
        <time>2024-12-02T13:23:37.000Z</time>
      </trkpt>
      <trkpt lat="44.12389" lon="3.19696">
        <ele>469.3</ele>
        <time>2024-12-02T13:23:39.000Z</time>
      </trkpt>
      <trkpt lat="44.12378" lon="3.197">
        <ele>468</ele>
        <time>2024-12-02T13:23:41.000Z</time>
      </trkpt>
      <trkpt lat="44.12367" lon="3.19705">
        <ele>466</ele>
        <time>2024-12-02T13:23:44.000Z</time>
      </trkpt>
      <trkpt lat="44.1236" lon="3.19713">
        <ele>464</ele>
        <time>2024-12-02T13:23:47.000Z</time>
      </trkpt>
      <trkpt lat="44.12365" lon="3.19725">
        <ele>461.9</ele>
        <time>2024-12-02T13:23:51.000Z</time>
      </trkpt>
      <trkpt lat="44.12363" lon="3.1974">
        <ele>459.7</ele>
        <time>2024-12-02T13:23:55.000Z</time>
      </trkpt>
      <trkpt lat="44.12367" lon="3.19756">
        <ele>457.8</ele>
        <time>2024-12-02T13:23:59.000Z</time>
      </trkpt>
      <trkpt lat="44.12363" lon="3.19773">
        <ele>455.8</ele>
        <time>2024-12-02T13:24:02.000Z</time>
      </trkpt>
      <trkpt lat="44.12369" lon="3.19784">
        <ele>454.1</ele>
        <time>2024-12-02T13:24:05.000Z</time>
      </trkpt>
      <trkpt lat="44.12377" lon="3.19792">
        <ele>452.8</ele>
        <time>2024-12-02T13:24:07.000Z</time>
      </trkpt>
      <trkpt lat="44.12385" lon="3.19805">
        <ele>450.8</ele>
        <time>2024-12-02T13:24:10.000Z</time>
      </trkpt>
      <trkpt lat="44.12395" lon="3.19817">
        <ele>448.2</ele>
        <time>2024-12-02T13:24:13.000Z</time>
      </trkpt>
      <trkpt lat="44.12405" lon="3.19828">
        <ele>422.5</ele>
        <time>2024-12-02T13:25:58.000Z</time>
      </trkpt>
      <trkpt lat="44.12394" lon="3.1983">
        <ele>421</ele>
        <time>2024-12-02T13:26:01.000Z</time>
      </trkpt>
      <trkpt lat="44.12383" lon="3.19832">
        <ele>419.3</ele>
        <time>2024-12-02T13:26:04.000Z</time>
      </trkpt>
      <trkpt lat="44.12373" lon="3.19827">
        <ele>417.3</ele>
        <time>2024-12-02T13:26:07.000Z</time>
      </trkpt>
      <trkpt lat="44.1236" lon="3.19822">
        <ele>414.7</ele>
        <time>2024-12-02T13:26:10.000Z</time>
      </trkpt>
      <trkpt lat="44.12351" lon="3.19821">
        <ele>412.9</ele>
        <time>2024-12-02T13:26:12.000Z</time>
      </trkpt>
      <trkpt lat="44.12339" lon="3.19834">
        <ele>409.5</ele>
        <time>2024-12-02T13:26:16.000Z</time>
      </trkpt>
      <trkpt lat="44.1233" lon="3.19836">
        <ele>407.6</ele>
        <time>2024-12-02T13:26:18.000Z</time>
      </trkpt>
      <trkpt lat="44.12319" lon="3.19834">
        <ele>405.1</ele>
        <time>2024-12-02T13:26:21.000Z</time>
      </trkpt>
      <trkpt lat="44.12306" lon="3.19833">
        <ele>403.3</ele>
        <time>2024-12-02T13:26:23.000Z</time>
      </trkpt>
      <trkpt lat="44.12293" lon="3.19833">
        <ele>401.4</ele>
        <time>2024-12-02T13:26:25.000Z</time>
      </trkpt>
      <trkpt lat="44.12279" lon="3.19837">
        <ele>399</ele>
        <time>2024-12-02T13:26:27.000Z</time>
      </trkpt>
      <trkpt lat="44.12267" lon="3.19841">
        <ele>396.9</ele>
        <time>2024-12-02T13:26:29.000Z</time>
      </trkpt>
    </trkseg>
  </trk>
</gpx>